<?xml version="1.0" encoding="UTF-8" standalone="no" ?>
<gpx xmlns="http://www.topografix.com/GPX/1/1" xmlns:xsi="http://www.w3.org/2001/XMLSchema-instance" xsi:schemaLocation="http://www.topografix.com/GPX/1/1 http://www.topografix.com/GPX/1/1/gpx.xsd" version="1.1" creator="VisuGPX - https://www.visugpx.com">
  <metadata>
    <name>Le mont Gaussier et les Crêtes de Romanin</name>
    <desc><![CDATA[Randonnée sportive et tonique dans les Alpilles]]></desc>
  </metadata>
  <trk>
    <name><![CDATA[Le mont Gaussier et les Crêtes de Romanin_1]]></name>
    <trkseg>
      <trkpt lat="43.77709" lon="4.83322">
        <ele>110</ele>
        <time>2010-12-04T07:45:44Z</time>
      </trkpt>
      <trkpt lat="43.77682" lon="4.83322">
        <ele>105</ele>
        <time>2010-12-04T07:48:20Z</time>
      </trkpt>
      <trkpt lat="43.77676" lon="4.83322">
        <ele>105</ele>
        <time>2010-12-04T07:48:26Z</time>
      </trkpt>
      <trkpt lat="43.7767" lon="4.83321">
        <ele>105</ele>
        <time>2010-12-04T07:48:32Z</time>
      </trkpt>
      <trkpt lat="43.77662" lon="4.83321">
        <ele>105</ele>
        <time>2010-12-04T07:48:39Z</time>
      </trkpt>
      <trkpt lat="43.77656" lon="4.83321">
        <ele>105</ele>
        <time>2010-12-04T07:48:45Z</time>
      </trkpt>
      <trkpt lat="43.7765" lon="4.8332">
        <ele>106</ele>
        <time>2010-12-04T07:48:51Z</time>
      </trkpt>
      <trkpt lat="43.77642" lon="4.83322">
        <ele>106</ele>
        <time>2010-12-04T07:48:58Z</time>
      </trkpt>
      <trkpt lat="43.77639" lon="4.83328">
        <ele>106</ele>
        <time>2010-12-04T07:49:04Z</time>
      </trkpt>
      <trkpt lat="43.77637" lon="4.83338">
        <ele>106</ele>
        <time>2010-12-04T07:49:10Z</time>
      </trkpt>
      <trkpt lat="43.77637" lon="4.83347">
        <ele>106</ele>
        <time>2010-12-04T07:49:16Z</time>
      </trkpt>
      <trkpt lat="43.77636" lon="4.83357">
        <ele>106</ele>
        <time>2010-12-04T07:49:22Z</time>
      </trkpt>
      <trkpt lat="43.77635" lon="4.83368">
        <ele>106</ele>
        <time>2010-12-04T07:49:28Z</time>
      </trkpt>
      <trkpt lat="43.77634" lon="4.83378">
        <ele>106</ele>
        <time>2010-12-04T07:49:34Z</time>
      </trkpt>
      <trkpt lat="43.77633" lon="4.83389">
        <ele>106</ele>
        <time>2010-12-04T07:49:40Z</time>
      </trkpt>
      <trkpt lat="43.77631" lon="4.83398">
        <ele>106</ele>
        <time>2010-12-04T07:49:46Z</time>
      </trkpt>
      <trkpt lat="43.7763" lon="4.83408">
        <ele>106</ele>
        <time>2010-12-04T07:49:52Z</time>
      </trkpt>
      <trkpt lat="43.77629" lon="4.83417">
        <ele>106</ele>
        <time>2010-12-04T07:49:58Z</time>
      </trkpt>
      <trkpt lat="43.77626" lon="4.83427">
        <ele>106</ele>
        <time>2010-12-04T07:50:05Z</time>
      </trkpt>
      <trkpt lat="43.77619" lon="4.83427">
        <ele>106</ele>
        <time>2010-12-04T07:50:12Z</time>
      </trkpt>
      <trkpt lat="43.77611" lon="4.83422">
        <ele>106</ele>
        <time>2010-12-04T07:50:19Z</time>
      </trkpt>
      <trkpt lat="43.77605" lon="4.83417">
        <ele>106</ele>
        <time>2010-12-04T07:50:26Z</time>
      </trkpt>
      <trkpt lat="43.77598" lon="4.83412">
        <ele>106</ele>
        <time>2010-12-04T07:50:33Z</time>
      </trkpt>
      <trkpt lat="43.77593" lon="4.83405">
        <ele>106</ele>
        <time>2010-12-04T07:50:39Z</time>
      </trkpt>
      <trkpt lat="43.77588" lon="4.83398">
        <ele>106</ele>
        <time>2010-12-04T07:50:45Z</time>
      </trkpt>
      <trkpt lat="43.77581" lon="4.83391">
        <ele>106</ele>
        <time>2010-12-04T07:50:52Z</time>
      </trkpt>
      <trkpt lat="43.77574" lon="4.83384">
        <ele>106</ele>
        <time>2010-12-04T07:50:58Z</time>
      </trkpt>
      <trkpt lat="43.77568" lon="4.8338">
        <ele>106</ele>
        <time>2010-12-04T07:51:04Z</time>
      </trkpt>
      <trkpt lat="43.77562" lon="4.83376">
        <ele>106</ele>
        <time>2010-12-04T07:51:11Z</time>
      </trkpt>
      <trkpt lat="43.77557" lon="4.83371">
        <ele>106</ele>
        <time>2010-12-04T07:51:17Z</time>
      </trkpt>
      <trkpt lat="43.77551" lon="4.83366">
        <ele>106</ele>
        <time>2010-12-04T07:51:23Z</time>
      </trkpt>
      <trkpt lat="43.77544" lon="4.83363">
        <ele>106</ele>
        <time>2010-12-04T07:51:29Z</time>
      </trkpt>
      <trkpt lat="43.77538" lon="4.8337">
        <ele>106</ele>
        <time>2010-12-04T07:51:35Z</time>
      </trkpt>
      <trkpt lat="43.77533" lon="4.83373">
        <ele>106</ele>
        <time>2010-12-04T07:51:42Z</time>
      </trkpt>
      <trkpt lat="43.77525" lon="4.8338">
        <ele>106</ele>
        <time>2010-12-04T07:51:48Z</time>
      </trkpt>
      <trkpt lat="43.77517" lon="4.83385">
        <ele>109</ele>
        <time>2010-12-04T07:51:54Z</time>
      </trkpt>
      <trkpt lat="43.77508" lon="4.83388">
        <ele>113</ele>
        <time>2010-12-04T07:52:00Z</time>
      </trkpt>
      <trkpt lat="43.77501" lon="4.83388">
        <ele>115</ele>
        <time>2010-12-04T07:52:06Z</time>
      </trkpt>
      <trkpt lat="43.77493" lon="4.83387">
        <ele>120</ele>
        <time>2010-12-04T07:52:12Z</time>
      </trkpt>
      <trkpt lat="43.77486" lon="4.83388">
        <ele>121</ele>
        <time>2010-12-04T07:52:18Z</time>
      </trkpt>
      <trkpt lat="43.77481" lon="4.83389">
        <ele>122</ele>
        <time>2010-12-04T07:52:24Z</time>
      </trkpt>
      <trkpt lat="43.77473" lon="4.83389">
        <ele>122</ele>
        <time>2010-12-04T07:52:30Z</time>
      </trkpt>
      <trkpt lat="43.77468" lon="4.8339">
        <ele>122</ele>
        <time>2010-12-04T07:52:36Z</time>
      </trkpt>
      <trkpt lat="43.77463" lon="4.83388">
        <ele>121</ele>
        <time>2010-12-04T07:52:42Z</time>
      </trkpt>
      <trkpt lat="43.77456" lon="4.83387">
        <ele>120</ele>
        <time>2010-12-04T07:52:48Z</time>
      </trkpt>
      <trkpt lat="43.77449" lon="4.83388">
        <ele>119</ele>
        <time>2010-12-04T07:52:54Z</time>
      </trkpt>
      <trkpt lat="43.77445" lon="4.83394">
        <ele>119</ele>
        <time>2010-12-04T07:53:00Z</time>
      </trkpt>
      <trkpt lat="43.77442" lon="4.83401">
        <ele>119</ele>
        <time>2010-12-04T07:53:06Z</time>
      </trkpt>
      <trkpt lat="43.77439" lon="4.8341">
        <ele>119</ele>
        <time>2010-12-04T07:53:12Z</time>
      </trkpt>
      <trkpt lat="43.77438" lon="4.83419">
        <ele>121</ele>
        <time>2010-12-04T07:53:18Z</time>
      </trkpt>
      <trkpt lat="43.77438" lon="4.83427">
        <ele>121</ele>
        <time>2010-12-04T07:53:24Z</time>
      </trkpt>
      <trkpt lat="43.77437" lon="4.83436">
        <ele>121</ele>
        <time>2010-12-04T07:53:30Z</time>
      </trkpt>
      <trkpt lat="43.77434" lon="4.83444">
        <ele>121</ele>
        <time>2010-12-04T07:53:37Z</time>
      </trkpt>
      <trkpt lat="43.77429" lon="4.83444">
        <ele>122</ele>
        <time>2010-12-04T07:53:43Z</time>
      </trkpt>
      <trkpt lat="43.77425" lon="4.83437">
        <ele>124</ele>
        <time>2010-12-04T07:53:49Z</time>
      </trkpt>
      <trkpt lat="43.77424" lon="4.83427">
        <ele>125</ele>
        <time>2010-12-04T07:53:55Z</time>
      </trkpt>
      <trkpt lat="43.77418" lon="4.83418">
        <ele>125</ele>
        <time>2010-12-04T07:54:02Z</time>
      </trkpt>
      <trkpt lat="43.77411" lon="4.83417">
        <ele>125</ele>
        <time>2010-12-04T07:54:08Z</time>
      </trkpt>
      <trkpt lat="43.77403" lon="4.83418">
        <ele>127</ele>
        <time>2010-12-04T07:54:15Z</time>
      </trkpt>
      <trkpt lat="43.77397" lon="4.83415">
        <ele>128</ele>
        <time>2010-12-04T07:54:22Z</time>
      </trkpt>
      <trkpt lat="43.77396" lon="4.83417">
        <ele>128</ele>
        <time>2010-12-04T07:54:28Z</time>
      </trkpt>
      <trkpt lat="43.77384" lon="4.83413">
        <ele>128</ele>
        <time>2010-12-04T07:54:34Z</time>
      </trkpt>
      <trkpt lat="43.77376" lon="4.83406">
        <ele>127</ele>
        <time>2010-12-04T07:54:41Z</time>
      </trkpt>
      <trkpt lat="43.7737" lon="4.83399">
        <ele>125</ele>
        <time>2010-12-04T07:54:48Z</time>
      </trkpt>
      <trkpt lat="43.77365" lon="4.8339">
        <ele>124</ele>
        <time>2010-12-04T07:54:55Z</time>
      </trkpt>
      <trkpt lat="43.7736" lon="4.83388">
        <ele>124</ele>
        <time>2010-12-04T07:55:01Z</time>
      </trkpt>
      <trkpt lat="43.77354" lon="4.83384">
        <ele>124</ele>
        <time>2010-12-04T07:55:07Z</time>
      </trkpt>
      <trkpt lat="43.77344" lon="4.83388">
        <ele>124</ele>
        <time>2010-12-04T07:55:14Z</time>
      </trkpt>
      <trkpt lat="43.77338" lon="4.83394">
        <ele>124</ele>
        <time>2010-12-04T07:55:21Z</time>
      </trkpt>
      <trkpt lat="43.7733" lon="4.83401">
        <ele>124</ele>
        <time>2010-12-04T07:55:28Z</time>
      </trkpt>
      <trkpt lat="43.77325" lon="4.83403">
        <ele>124</ele>
        <time>2010-12-04T07:55:34Z</time>
      </trkpt>
      <trkpt lat="43.77317" lon="4.83409">
        <ele>124</ele>
        <time>2010-12-04T07:55:40Z</time>
      </trkpt>
      <trkpt lat="43.77308" lon="4.83417">
        <ele>125</ele>
        <time>2010-12-04T07:55:46Z</time>
      </trkpt>
      <trkpt lat="43.77301" lon="4.83428">
        <ele>125</ele>
        <time>2010-12-04T07:55:52Z</time>
      </trkpt>
      <trkpt lat="43.77294" lon="4.83434">
        <ele>126</ele>
        <time>2010-12-04T07:55:58Z</time>
      </trkpt>
      <trkpt lat="43.77293" lon="4.83436">
        <ele>126</ele>
        <time>2010-12-04T07:56:13Z</time>
      </trkpt>
      <trkpt lat="43.77286" lon="4.83444">
        <ele>126</ele>
        <time>2010-12-04T07:56:19Z</time>
      </trkpt>
      <trkpt lat="43.77279" lon="4.8345">
        <ele>126</ele>
        <time>2010-12-04T07:56:25Z</time>
      </trkpt>
      <trkpt lat="43.77272" lon="4.83454">
        <ele>127</ele>
        <time>2010-12-04T07:56:33Z</time>
      </trkpt>
      <trkpt lat="43.77263" lon="4.83458">
        <ele>128</ele>
        <time>2010-12-04T07:56:39Z</time>
      </trkpt>
      <trkpt lat="43.77256" lon="4.83462">
        <ele>128</ele>
        <time>2010-12-04T07:56:46Z</time>
      </trkpt>
      <trkpt lat="43.77249" lon="4.83469">
        <ele>128</ele>
        <time>2010-12-04T07:56:52Z</time>
      </trkpt>
      <trkpt lat="43.77242" lon="4.83474">
        <ele>133</ele>
        <time>2010-12-04T07:56:59Z</time>
      </trkpt>
      <trkpt lat="43.77234" lon="4.83481">
        <ele>138</ele>
        <time>2010-12-04T07:57:05Z</time>
      </trkpt>
      <trkpt lat="43.77227" lon="4.83484">
        <ele>138</ele>
        <time>2010-12-04T07:57:11Z</time>
      </trkpt>
      <trkpt lat="43.7722" lon="4.83487">
        <ele>138</ele>
        <time>2010-12-04T07:57:17Z</time>
      </trkpt>
      <trkpt lat="43.77213" lon="4.83491">
        <ele>138</ele>
        <time>2010-12-04T07:57:23Z</time>
      </trkpt>
      <trkpt lat="43.77206" lon="4.83496">
        <ele>142</ele>
        <time>2010-12-04T07:57:29Z</time>
      </trkpt>
      <trkpt lat="43.77198" lon="4.83501">
        <ele>145</ele>
        <time>2010-12-04T07:57:36Z</time>
      </trkpt>
      <trkpt lat="43.77192" lon="4.83506">
        <ele>145</ele>
        <time>2010-12-04T07:57:42Z</time>
      </trkpt>
      <trkpt lat="43.77186" lon="4.83509">
        <ele>145</ele>
        <time>2010-12-04T07:57:48Z</time>
      </trkpt>
      <trkpt lat="43.77181" lon="4.83512">
        <ele>144</ele>
        <time>2010-12-04T07:57:54Z</time>
      </trkpt>
      <trkpt lat="43.77174" lon="4.83519">
        <ele>138</ele>
        <time>2010-12-04T07:58:01Z</time>
      </trkpt>
      <trkpt lat="43.77167" lon="4.83526">
        <ele>138</ele>
        <time>2010-12-04T07:58:08Z</time>
      </trkpt>
      <trkpt lat="43.7716" lon="4.83531">
        <ele>138</ele>
        <time>2010-12-04T07:58:14Z</time>
      </trkpt>
      <trkpt lat="43.77153" lon="4.83537">
        <ele>138</ele>
        <time>2010-12-04T07:58:20Z</time>
      </trkpt>
      <trkpt lat="43.77149" lon="4.83545">
        <ele>139</ele>
        <time>2010-12-04T07:58:26Z</time>
      </trkpt>
      <trkpt lat="43.77144" lon="4.83553">
        <ele>139</ele>
        <time>2010-12-04T07:58:33Z</time>
      </trkpt>
      <trkpt lat="43.77139" lon="4.8356">
        <ele>138</ele>
        <time>2010-12-04T07:58:39Z</time>
      </trkpt>
      <trkpt lat="43.77132" lon="4.83567">
        <ele>138</ele>
        <time>2010-12-04T07:58:45Z</time>
      </trkpt>
      <trkpt lat="43.77125" lon="4.83576">
        <ele>139</ele>
        <time>2010-12-04T07:58:52Z</time>
      </trkpt>
      <trkpt lat="43.77118" lon="4.83584">
        <ele>143</ele>
        <time>2010-12-04T07:58:58Z</time>
      </trkpt>
      <trkpt lat="43.77114" lon="4.83589">
        <ele>147</ele>
        <time>2010-12-04T07:59:04Z</time>
      </trkpt>
      <trkpt lat="43.77108" lon="4.83596">
        <ele>149</ele>
        <time>2010-12-04T07:59:11Z</time>
      </trkpt>
      <trkpt lat="43.77103" lon="4.83601">
        <ele>149</ele>
        <time>2010-12-04T07:59:17Z</time>
      </trkpt>
      <trkpt lat="43.77097" lon="4.83607">
        <ele>149</ele>
        <time>2010-12-04T07:59:24Z</time>
      </trkpt>
      <trkpt lat="43.77092" lon="4.83613">
        <ele>148</ele>
        <time>2010-12-04T07:59:30Z</time>
      </trkpt>
      <trkpt lat="43.77087" lon="4.83621">
        <ele>143</ele>
        <time>2010-12-04T07:59:37Z</time>
      </trkpt>
      <trkpt lat="43.7708" lon="4.8363">
        <ele>143</ele>
        <time>2010-12-04T07:59:44Z</time>
      </trkpt>
      <trkpt lat="43.77074" lon="4.83635">
        <ele>143</ele>
        <time>2010-12-04T07:59:50Z</time>
      </trkpt>
      <trkpt lat="43.77067" lon="4.83639">
        <ele>143</ele>
        <time>2010-12-04T07:59:56Z</time>
      </trkpt>
      <trkpt lat="43.77061" lon="4.83643">
        <ele>144</ele>
        <time>2010-12-04T08:00:03Z</time>
      </trkpt>
      <trkpt lat="43.77057" lon="4.83649">
        <ele>144</ele>
        <time>2010-12-04T08:00:09Z</time>
      </trkpt>
      <trkpt lat="43.77053" lon="4.83656">
        <ele>144</ele>
        <time>2010-12-04T08:00:15Z</time>
      </trkpt>
      <trkpt lat="43.77051" lon="4.83666">
        <ele>143</ele>
        <time>2010-12-04T08:00:21Z</time>
      </trkpt>
      <trkpt lat="43.77045" lon="4.83675">
        <ele>143</ele>
        <time>2010-12-04T08:00:27Z</time>
      </trkpt>
      <trkpt lat="43.77039" lon="4.83684">
        <ele>143</ele>
        <time>2010-12-04T08:00:33Z</time>
      </trkpt>
      <trkpt lat="43.77037" lon="4.83694">
        <ele>143</ele>
        <time>2010-12-04T08:00:39Z</time>
      </trkpt>
      <trkpt lat="43.77036" lon="4.83705">
        <ele>143</ele>
        <time>2010-12-04T08:00:46Z</time>
      </trkpt>
      <trkpt lat="43.77033" lon="4.83714">
        <ele>143</ele>
        <time>2010-12-04T08:00:52Z</time>
      </trkpt>
      <trkpt lat="43.77031" lon="4.83723">
        <ele>143</ele>
        <time>2010-12-04T08:00:59Z</time>
      </trkpt>
      <trkpt lat="43.77027" lon="4.83736">
        <ele>143</ele>
        <time>2010-12-04T08:01:06Z</time>
      </trkpt>
      <trkpt lat="43.77026" lon="4.83746">
        <ele>143</ele>
        <time>2010-12-04T08:01:12Z</time>
      </trkpt>
      <trkpt lat="43.77022" lon="4.83757">
        <ele>144</ele>
        <time>2010-12-04T08:01:19Z</time>
      </trkpt>
      <trkpt lat="43.77018" lon="4.83766">
        <ele>144</ele>
        <time>2010-12-04T08:01:26Z</time>
      </trkpt>
      <trkpt lat="43.77014" lon="4.83775">
        <ele>144</ele>
        <time>2010-12-04T08:01:32Z</time>
      </trkpt>
      <trkpt lat="43.7701" lon="4.83782">
        <ele>144</ele>
        <time>2010-12-04T08:01:38Z</time>
      </trkpt>
      <trkpt lat="43.77005" lon="4.83789">
        <ele>144</ele>
        <time>2010-12-04T08:01:44Z</time>
      </trkpt>
      <trkpt lat="43.77001" lon="4.83796">
        <ele>144</ele>
        <time>2010-12-04T08:01:50Z</time>
      </trkpt>
      <trkpt lat="43.76996" lon="4.83802">
        <ele>145</ele>
        <time>2010-12-04T08:01:56Z</time>
      </trkpt>
      <trkpt lat="43.76989" lon="4.83807">
        <ele>147</ele>
        <time>2010-12-04T08:02:03Z</time>
      </trkpt>
      <trkpt lat="43.76981" lon="4.83813">
        <ele>151</ele>
        <time>2010-12-04T08:02:09Z</time>
      </trkpt>
      <trkpt lat="43.76975" lon="4.83819">
        <ele>156</ele>
        <time>2010-12-04T08:02:15Z</time>
      </trkpt>
      <trkpt lat="43.76966" lon="4.83825">
        <ele>163</ele>
        <time>2010-12-04T08:02:22Z</time>
      </trkpt>
      <trkpt lat="43.76961" lon="4.83828">
        <ele>169</ele>
        <time>2010-12-04T08:02:28Z</time>
      </trkpt>
      <trkpt lat="43.76957" lon="4.8383">
        <ele>169</ele>
        <time>2010-12-04T08:02:34Z</time>
      </trkpt>
      <trkpt lat="43.76951" lon="4.83835">
        <ele>169</ele>
        <time>2010-12-04T08:02:40Z</time>
      </trkpt>
      <trkpt lat="43.76948" lon="4.83831">
        <ele>169</ele>
        <time>2010-12-04T08:02:47Z</time>
      </trkpt>
      <trkpt lat="43.76944" lon="4.83826">
        <ele>165</ele>
        <time>2010-12-04T08:02:53Z</time>
      </trkpt>
      <trkpt lat="43.76938" lon="4.83821">
        <ele>161</ele>
        <time>2010-12-04T08:02:59Z</time>
      </trkpt>
      <trkpt lat="43.7693" lon="4.83818">
        <ele>159</ele>
        <time>2010-12-04T08:03:05Z</time>
      </trkpt>
      <trkpt lat="43.76925" lon="4.83812">
        <ele>159</ele>
        <time>2010-12-04T08:03:11Z</time>
      </trkpt>
      <trkpt lat="43.76922" lon="4.83811">
        <ele>164</ele>
        <time>2010-12-04T08:03:17Z</time>
      </trkpt>
      <trkpt lat="43.76918" lon="4.83813">
        <ele>168</ele>
        <time>2010-12-04T08:03:24Z</time>
      </trkpt>
      <trkpt lat="43.76914" lon="4.8382">
        <ele>173</ele>
        <time>2010-12-04T08:03:30Z</time>
      </trkpt>
      <trkpt lat="43.76911" lon="4.83818">
        <ele>175</ele>
        <time>2010-12-04T08:03:37Z</time>
      </trkpt>
      <trkpt lat="43.76908" lon="4.83813">
        <ele>176</ele>
        <time>2010-12-04T08:03:43Z</time>
      </trkpt>
      <trkpt lat="43.76907" lon="4.8381">
        <ele>176</ele>
        <time>2010-12-04T08:03:49Z</time>
      </trkpt>
      <trkpt lat="43.76905" lon="4.8381">
        <ele>176</ele>
        <time>2010-12-04T08:03:58Z</time>
      </trkpt>
      <trkpt lat="43.769" lon="4.83814">
        <ele>178</ele>
        <time>2010-12-04T08:04:04Z</time>
      </trkpt>
      <trkpt lat="43.76896" lon="4.83815">
        <ele>178</ele>
        <time>2010-12-04T08:04:10Z</time>
      </trkpt>
      <trkpt lat="43.7689" lon="4.83814">
        <ele>178</ele>
        <time>2010-12-04T08:04:17Z</time>
      </trkpt>
      <trkpt lat="43.76883" lon="4.83816">
        <ele>178</ele>
        <time>2010-12-04T08:04:24Z</time>
      </trkpt>
      <trkpt lat="43.76878" lon="4.83816">
        <ele>178</ele>
        <time>2010-12-04T08:04:33Z</time>
      </trkpt>
      <trkpt lat="43.76874" lon="4.83812">
        <ele>178</ele>
        <time>2010-12-04T08:04:40Z</time>
      </trkpt>
      <trkpt lat="43.76872" lon="4.8381">
        <ele>178</ele>
        <time>2010-12-04T08:04:46Z</time>
      </trkpt>
      <trkpt lat="43.76873" lon="4.83802">
        <ele>179</ele>
        <time>2010-12-04T08:04:53Z</time>
      </trkpt>
      <trkpt lat="43.76871" lon="4.838">
        <ele>179</ele>
        <time>2010-12-04T08:05:00Z</time>
      </trkpt>
      <trkpt lat="43.76868" lon="4.838">
        <ele>179</ele>
        <time>2010-12-04T08:05:06Z</time>
      </trkpt>
      <trkpt lat="43.76863" lon="4.83801">
        <ele>184</ele>
        <time>2010-12-04T08:05:13Z</time>
      </trkpt>
      <trkpt lat="43.76865" lon="4.83795">
        <ele>185</ele>
        <time>2010-12-04T08:05:19Z</time>
      </trkpt>
      <trkpt lat="43.76869" lon="4.83789">
        <ele>184</ele>
        <time>2010-12-04T08:05:25Z</time>
      </trkpt>
      <trkpt lat="43.76873" lon="4.83782">
        <ele>181</ele>
        <time>2010-12-04T08:05:32Z</time>
      </trkpt>
      <trkpt lat="43.76873" lon="4.83777">
        <ele>180</ele>
        <time>2010-12-04T08:05:39Z</time>
      </trkpt>
      <trkpt lat="43.76873" lon="4.8377">
        <ele>177</ele>
        <time>2010-12-04T08:05:45Z</time>
      </trkpt>
      <trkpt lat="43.76876" lon="4.83765">
        <ele>170</ele>
        <time>2010-12-04T08:05:52Z</time>
      </trkpt>
      <trkpt lat="43.76876" lon="4.83762">
        <ele>179</ele>
        <time>2010-12-04T08:06:11Z</time>
      </trkpt>
      <trkpt lat="43.76877" lon="4.83762">
        <ele>189</ele>
        <time>2010-12-04T08:06:18Z</time>
      </trkpt>
      <trkpt lat="43.76878" lon="4.8376">
        <ele>190</ele>
        <time>2010-12-04T08:06:25Z</time>
      </trkpt>
      <trkpt lat="43.76877" lon="4.83761">
        <ele>190</ele>
        <time>2010-12-04T08:06:32Z</time>
      </trkpt>
      <trkpt lat="43.76878" lon="4.83762">
        <ele>195</ele>
        <time>2010-12-04T08:06:43Z</time>
      </trkpt>
      <trkpt lat="43.7688" lon="4.83761">
        <ele>199</ele>
        <time>2010-12-04T08:06:52Z</time>
      </trkpt>
      <trkpt lat="43.76879" lon="4.83765">
        <ele>207</ele>
        <time>2010-12-04T08:07:00Z</time>
      </trkpt>
      <trkpt lat="43.76884" lon="4.8376">
        <ele>212</ele>
        <time>2010-12-04T08:07:06Z</time>
      </trkpt>
      <trkpt lat="43.76886" lon="4.83757">
        <ele>206</ele>
        <time>2010-12-04T08:07:14Z</time>
      </trkpt>
      <trkpt lat="43.76884" lon="4.83757">
        <ele>194</ele>
        <time>2010-12-04T08:07:42Z</time>
      </trkpt>
      <trkpt lat="43.76887" lon="4.83754">
        <ele>194</ele>
        <time>2010-12-04T08:07:48Z</time>
      </trkpt>
      <trkpt lat="43.76888" lon="4.83756">
        <ele>193</ele>
        <time>2010-12-04T08:08:02Z</time>
      </trkpt>
      <trkpt lat="43.76889" lon="4.83754">
        <ele>193</ele>
        <time>2010-12-04T08:08:19Z</time>
      </trkpt>
      <trkpt lat="43.76891" lon="4.83751">
        <ele>193</ele>
        <time>2010-12-04T08:08:26Z</time>
      </trkpt>
      <trkpt lat="43.7689" lon="4.83748">
        <ele>193</ele>
        <time>2010-12-04T08:08:34Z</time>
      </trkpt>
      <trkpt lat="43.76887" lon="4.83744">
        <ele>194</ele>
        <time>2010-12-04T08:08:41Z</time>
      </trkpt>
      <trkpt lat="43.76884" lon="4.83744">
        <ele>194</ele>
        <time>2010-12-04T08:08:47Z</time>
      </trkpt>
      <trkpt lat="43.76882" lon="4.83741">
        <ele>196</ele>
        <time>2010-12-04T08:08:54Z</time>
      </trkpt>
      <trkpt lat="43.76878" lon="4.83735">
        <ele>197</ele>
        <time>2010-12-04T08:09:01Z</time>
      </trkpt>
      <trkpt lat="43.76875" lon="4.83732">
        <ele>197</ele>
        <time>2010-12-04T08:09:07Z</time>
      </trkpt>
      <trkpt lat="43.76873" lon="4.83728">
        <ele>199</ele>
        <time>2010-12-04T08:09:13Z</time>
      </trkpt>
      <trkpt lat="43.76872" lon="4.83722">
        <ele>199</ele>
        <time>2010-12-04T08:09:21Z</time>
      </trkpt>
      <trkpt lat="43.76869" lon="4.83721">
        <ele>205</ele>
        <time>2010-12-04T08:09:28Z</time>
      </trkpt>
      <trkpt lat="43.76868" lon="4.83718">
        <ele>209</ele>
        <time>2010-12-04T08:09:36Z</time>
      </trkpt>
      <trkpt lat="43.76867" lon="4.83714">
        <ele>212</ele>
        <time>2010-12-04T08:09:44Z</time>
      </trkpt>
      <trkpt lat="43.76869" lon="4.83709">
        <ele>213</ele>
        <time>2010-12-04T08:09:51Z</time>
      </trkpt>
      <trkpt lat="43.76868" lon="4.83708">
        <ele>213</ele>
        <time>2010-12-04T08:10:01Z</time>
      </trkpt>
      <trkpt lat="43.76865" lon="4.83708">
        <ele>213</ele>
        <time>2010-12-04T08:10:07Z</time>
      </trkpt>
      <trkpt lat="43.76861" lon="4.83703">
        <ele>212</ele>
        <time>2010-12-04T08:10:14Z</time>
      </trkpt>
      <trkpt lat="43.7686" lon="4.83703">
        <ele>213</ele>
        <time>2010-12-04T08:10:24Z</time>
      </trkpt>
      <trkpt lat="43.76862" lon="4.83698">
        <ele>217</ele>
        <time>2010-12-04T08:10:31Z</time>
      </trkpt>
      <trkpt lat="43.76861" lon="4.83698">
        <ele>222</ele>
        <time>2010-12-04T08:10:40Z</time>
      </trkpt>
      <trkpt lat="43.7686" lon="4.83701">
        <ele>224</ele>
        <time>2010-12-04T08:10:46Z</time>
      </trkpt>
      <trkpt lat="43.76858" lon="4.83703">
        <ele>236</ele>
        <time>2010-12-04T08:10:58Z</time>
      </trkpt>
      <trkpt lat="43.76858" lon="4.83705">
        <ele>238</ele>
        <time>2010-12-04T08:11:04Z</time>
      </trkpt>
      <trkpt lat="43.76858" lon="4.83709">
        <ele>243</ele>
        <time>2010-12-04T08:11:10Z</time>
      </trkpt>
      <trkpt lat="43.76858" lon="4.83711">
        <ele>251</ele>
        <time>2010-12-04T08:11:20Z</time>
      </trkpt>
      <trkpt lat="43.76857" lon="4.83712">
        <ele>256</ele>
        <time>2010-12-04T08:11:26Z</time>
      </trkpt>
      <trkpt lat="43.76858" lon="4.8371">
        <ele>260</ele>
        <time>2010-12-04T08:11:35Z</time>
      </trkpt>
      <trkpt lat="43.76858" lon="4.83708">
        <ele>260</ele>
        <time>2010-12-04T08:11:45Z</time>
      </trkpt>
      <trkpt lat="43.76858" lon="4.8371">
        <ele>261</ele>
        <time>2010-12-04T08:11:54Z</time>
      </trkpt>
      <trkpt lat="43.76858" lon="4.83708">
        <ele>261</ele>
        <time>2010-12-04T08:12:02Z</time>
      </trkpt>
      <trkpt lat="43.76858" lon="4.83712">
        <ele>261</ele>
        <time>2010-12-04T08:12:32Z</time>
      </trkpt>
      <trkpt lat="43.76857" lon="4.83717">
        <ele>261</ele>
        <time>2010-12-04T08:12:38Z</time>
      </trkpt>
      <trkpt lat="43.76856" lon="4.83725">
        <ele>268</ele>
        <time>2010-12-04T08:12:47Z</time>
      </trkpt>
      <trkpt lat="43.76859" lon="4.83719">
        <ele>269</ele>
        <time>2010-12-04T08:12:53Z</time>
      </trkpt>
      <trkpt lat="43.76861" lon="4.83714">
        <ele>256</ele>
        <time>2010-12-04T08:13:02Z</time>
      </trkpt>
      <trkpt lat="43.76862" lon="4.83711">
        <ele>247</ele>
        <time>2010-12-04T08:13:11Z</time>
      </trkpt>
      <trkpt lat="43.76863" lon="4.83709">
        <ele>245</ele>
        <time>2010-12-04T08:13:19Z</time>
      </trkpt>
      <trkpt lat="43.76864" lon="4.83707">
        <ele>243</ele>
        <time>2010-12-04T08:13:26Z</time>
      </trkpt>
      <trkpt lat="43.76864" lon="4.83702">
        <ele>237</ele>
        <time>2010-12-04T08:13:32Z</time>
      </trkpt>
      <trkpt lat="43.76863" lon="4.837">
        <ele>234</ele>
        <time>2010-12-04T08:13:45Z</time>
      </trkpt>
      <trkpt lat="43.76865" lon="4.837">
        <ele>233</ele>
        <time>2010-12-04T08:13:51Z</time>
      </trkpt>
      <trkpt lat="43.76864" lon="4.83697">
        <ele>231</ele>
        <time>2010-12-04T08:13:59Z</time>
      </trkpt>
      <trkpt lat="43.76864" lon="4.83696">
        <ele>229</ele>
        <time>2010-12-04T08:14:14Z</time>
      </trkpt>
      <trkpt lat="43.76864" lon="4.83692">
        <ele>229</ele>
        <time>2010-12-04T08:14:24Z</time>
      </trkpt>
      <trkpt lat="43.76862" lon="4.8369">
        <ele>229</ele>
        <time>2010-12-04T08:14:36Z</time>
      </trkpt>
      <trkpt lat="43.76862" lon="4.83687">
        <ele>229</ele>
        <time>2010-12-04T08:14:43Z</time>
      </trkpt>
      <trkpt lat="43.76862" lon="4.83686">
        <ele>229</ele>
        <time>2010-12-04T08:14:50Z</time>
      </trkpt>
      <trkpt lat="43.76862" lon="4.83687">
        <ele>229</ele>
        <time>2010-12-04T08:15:00Z</time>
      </trkpt>
      <trkpt lat="43.76861" lon="4.83692">
        <ele>229</ele>
        <time>2010-12-04T08:15:06Z</time>
      </trkpt>
      <trkpt lat="43.76861" lon="4.83699">
        <ele>234</ele>
        <time>2010-12-04T08:15:14Z</time>
      </trkpt>
      <trkpt lat="43.76861" lon="4.83698">
        <ele>235</ele>
        <time>2010-12-04T08:15:22Z</time>
      </trkpt>
      <trkpt lat="43.7686" lon="4.83698">
        <ele>239</ele>
        <time>2010-12-04T08:15:33Z</time>
      </trkpt>
      <trkpt lat="43.76861" lon="4.83695">
        <ele>240</ele>
        <time>2010-12-04T08:15:43Z</time>
      </trkpt>
      <trkpt lat="43.76861" lon="4.83693">
        <ele>241</ele>
        <time>2010-12-04T08:15:57Z</time>
      </trkpt>
      <trkpt lat="43.76868" lon="4.83681">
        <ele>241</ele>
        <time>2010-12-04T08:16:04Z</time>
      </trkpt>
      <trkpt lat="43.7687" lon="4.83688">
        <ele>241</ele>
        <time>2010-12-04T08:16:11Z</time>
      </trkpt>
      <trkpt lat="43.76871" lon="4.83683">
        <ele>241</ele>
        <time>2010-12-04T08:16:23Z</time>
      </trkpt>
      <trkpt lat="43.76868" lon="4.8368">
        <ele>241</ele>
        <time>2010-12-04T08:16:32Z</time>
      </trkpt>
      <trkpt lat="43.76868" lon="4.83679">
        <ele>241</ele>
        <time>2010-12-04T08:16:40Z</time>
      </trkpt>
      <trkpt lat="43.76867" lon="4.83682">
        <ele>241</ele>
        <time>2010-12-04T08:16:51Z</time>
      </trkpt>
      <trkpt lat="43.76866" lon="4.8368">
        <ele>241</ele>
        <time>2010-12-04T08:17:06Z</time>
      </trkpt>
      <trkpt lat="43.76867" lon="4.83679">
        <ele>241</ele>
        <time>2010-12-04T08:17:15Z</time>
      </trkpt>
      <trkpt lat="43.76866" lon="4.83677">
        <ele>241</ele>
        <time>2010-12-04T08:17:24Z</time>
      </trkpt>
      <trkpt lat="43.76867" lon="4.83684">
        <ele>241</ele>
        <time>2010-12-04T08:17:32Z</time>
      </trkpt>
      <trkpt lat="43.7687" lon="4.83668">
        <ele>241</ele>
        <time>2010-12-04T08:17:39Z</time>
      </trkpt>
      <trkpt lat="43.76869" lon="4.83654">
        <ele>241</ele>
        <time>2010-12-04T08:17:56Z</time>
      </trkpt>
      <trkpt lat="43.76875" lon="4.83654">
        <ele>241</ele>
        <time>2010-12-04T08:18:02Z</time>
      </trkpt>
      <trkpt lat="43.76881" lon="4.83654">
        <ele>240</ele>
        <time>2010-12-04T08:18:08Z</time>
      </trkpt>
      <trkpt lat="43.76885" lon="4.83654">
        <ele>239</ele>
        <time>2010-12-04T08:18:17Z</time>
      </trkpt>
      <trkpt lat="43.76886" lon="4.83656">
        <ele>239</ele>
        <time>2010-12-04T08:18:30Z</time>
      </trkpt>
      <trkpt lat="43.76887" lon="4.83657">
        <ele>239</ele>
        <time>2010-12-04T08:18:46Z</time>
      </trkpt>
      <trkpt lat="43.76888" lon="4.83659">
        <ele>238</ele>
        <time>2010-12-04T08:19:01Z</time>
      </trkpt>
      <trkpt lat="43.76891" lon="4.83658">
        <ele>238</ele>
        <time>2010-12-04T08:19:08Z</time>
      </trkpt>
      <trkpt lat="43.76893" lon="4.83659">
        <ele>238</ele>
        <time>2010-12-04T08:19:15Z</time>
      </trkpt>
      <trkpt lat="43.76894" lon="4.83661">
        <ele>238</ele>
        <time>2010-12-04T08:19:21Z</time>
      </trkpt>
      <trkpt lat="43.76896" lon="4.83666">
        <ele>238</ele>
        <time>2010-12-04T08:19:33Z</time>
      </trkpt>
      <trkpt lat="43.76892" lon="4.83672">
        <ele>238</ele>
        <time>2010-12-04T08:19:39Z</time>
      </trkpt>
      <trkpt lat="43.7689" lon="4.83675">
        <ele>238</ele>
        <time>2010-12-04T08:19:45Z</time>
      </trkpt>
      <trkpt lat="43.76889" lon="4.83675">
        <ele>237</ele>
        <time>2010-12-04T08:19:53Z</time>
      </trkpt>
      <trkpt lat="43.7689" lon="4.83676">
        <ele>236</ele>
        <time>2010-12-04T08:20:03Z</time>
      </trkpt>
      <trkpt lat="43.76888" lon="4.83678">
        <ele>236</ele>
        <time>2010-12-04T08:20:17Z</time>
      </trkpt>
      <trkpt lat="43.76887" lon="4.8368">
        <ele>236</ele>
        <time>2010-12-04T08:20:27Z</time>
      </trkpt>
      <trkpt lat="43.76886" lon="4.8368">
        <ele>236</ele>
        <time>2010-12-04T08:20:38Z</time>
      </trkpt>
      <trkpt lat="43.76884" lon="4.83681">
        <ele>236</ele>
        <time>2010-12-04T08:20:58Z</time>
      </trkpt>
      <trkpt lat="43.76883" lon="4.83683">
        <ele>236</ele>
        <time>2010-12-04T08:21:04Z</time>
      </trkpt>
      <trkpt lat="43.7688" lon="4.83683">
        <ele>236</ele>
        <time>2010-12-04T08:21:11Z</time>
      </trkpt>
      <trkpt lat="43.76877" lon="4.83684">
        <ele>236</ele>
        <time>2010-12-04T08:21:28Z</time>
      </trkpt>
      <trkpt lat="43.76874" lon="4.83683">
        <ele>236</ele>
        <time>2010-12-04T08:21:34Z</time>
      </trkpt>
      <trkpt lat="43.76874" lon="4.83682">
        <ele>237</ele>
        <time>2010-12-04T08:21:43Z</time>
      </trkpt>
      <trkpt lat="43.76873" lon="4.8368">
        <ele>241</ele>
        <time>2010-12-04T08:22:17Z</time>
      </trkpt>
      <trkpt lat="43.76874" lon="4.8368">
        <ele>242</ele>
        <time>2010-12-04T08:22:30Z</time>
      </trkpt>
      <trkpt lat="43.76873" lon="4.83679">
        <ele>245</ele>
        <time>2010-12-04T08:22:49Z</time>
      </trkpt>
      <trkpt lat="43.76873" lon="4.83677">
        <ele>246</ele>
        <time>2010-12-04T08:22:55Z</time>
      </trkpt>
      <trkpt lat="43.76871" lon="4.83675">
        <ele>246</ele>
        <time>2010-12-04T08:23:04Z</time>
      </trkpt>
      <trkpt lat="43.76867" lon="4.83672">
        <ele>247</ele>
        <time>2010-12-04T08:23:12Z</time>
      </trkpt>
      <trkpt lat="43.76865" lon="4.83669">
        <ele>248</ele>
        <time>2010-12-04T08:23:18Z</time>
      </trkpt>
      <trkpt lat="43.76863" lon="4.83669">
        <ele>248</ele>
        <time>2010-12-04T08:23:28Z</time>
      </trkpt>
      <trkpt lat="43.76862" lon="4.8367">
        <ele>248</ele>
        <time>2010-12-04T08:23:36Z</time>
      </trkpt>
      <trkpt lat="43.76864" lon="4.83671">
        <ele>248</ele>
        <time>2010-12-04T08:23:47Z</time>
      </trkpt>
      <trkpt lat="43.76866" lon="4.83672">
        <ele>250</ele>
        <time>2010-12-04T08:24:22Z</time>
      </trkpt>
      <trkpt lat="43.76866" lon="4.8367">
        <ele>250</ele>
        <time>2010-12-04T08:24:30Z</time>
      </trkpt>
      <trkpt lat="43.76866" lon="4.83668">
        <ele>250</ele>
        <time>2010-12-04T08:24:47Z</time>
      </trkpt>
      <trkpt lat="43.76865" lon="4.83669">
        <ele>250</ele>
        <time>2010-12-04T08:25:29Z</time>
      </trkpt>
      <trkpt lat="43.76866" lon="4.83669">
        <ele>250</ele>
        <time>2010-12-04T08:25:45Z</time>
      </trkpt>
      <trkpt lat="43.76866" lon="4.83669">
        <ele>250</ele>
        <time>2010-12-04T08:26:09Z</time>
      </trkpt>
      <trkpt lat="43.76867" lon="4.83667">
        <ele>250</ele>
        <time>2010-12-04T08:26:16Z</time>
      </trkpt>
      <trkpt lat="43.76867" lon="4.83668">
        <ele>250</ele>
        <time>2010-12-04T08:26:25Z</time>
      </trkpt>
      <trkpt lat="43.76866" lon="4.8367">
        <ele>250</ele>
        <time>2010-12-04T08:26:33Z</time>
      </trkpt>
      <trkpt lat="43.76865" lon="4.83671">
        <ele>250</ele>
        <time>2010-12-04T08:26:54Z</time>
      </trkpt>
      <trkpt lat="43.76866" lon="4.8367">
        <ele>250</ele>
        <time>2010-12-04T08:27:34Z</time>
      </trkpt>
      <trkpt lat="43.76867" lon="4.83669">
        <ele>250</ele>
        <time>2010-12-04T08:27:47Z</time>
      </trkpt>
      <trkpt lat="43.76864" lon="4.83669">
        <ele>250</ele>
        <time>2010-12-04T08:27:59Z</time>
      </trkpt>
      <trkpt lat="43.76864" lon="4.83669">
        <ele>250</ele>
        <time>2010-12-04T08:28:06Z</time>
      </trkpt>
      <trkpt lat="43.76863" lon="4.83668">
        <ele>250</ele>
        <time>2010-12-04T08:28:27Z</time>
      </trkpt>
      <trkpt lat="43.76862" lon="4.83667">
        <ele>250</ele>
        <time>2010-12-04T08:28:44Z</time>
      </trkpt>
      <trkpt lat="43.76861" lon="4.83668">
        <ele>252</ele>
        <time>2010-12-04T08:28:55Z</time>
      </trkpt>
      <trkpt lat="43.76862" lon="4.83668">
        <ele>252</ele>
        <time>2010-12-04T08:29:08Z</time>
      </trkpt>
      <trkpt lat="43.76863" lon="4.83669">
        <ele>252</ele>
        <time>2010-12-04T08:29:26Z</time>
      </trkpt>
      <trkpt lat="43.76866" lon="4.8367">
        <ele>252</ele>
        <time>2010-12-04T08:29:41Z</time>
      </trkpt>
      <trkpt lat="43.76867" lon="4.83669">
        <ele>252</ele>
        <time>2010-12-04T08:29:54Z</time>
      </trkpt>
      <trkpt lat="43.76868" lon="4.8367">
        <ele>252</ele>
        <time>2010-12-04T08:30:03Z</time>
      </trkpt>
      <trkpt lat="43.7687" lon="4.83669">
        <ele>252</ele>
        <time>2010-12-04T08:30:12Z</time>
      </trkpt>
      <trkpt lat="43.76873" lon="4.8367">
        <ele>252</ele>
        <time>2010-12-04T08:30:18Z</time>
      </trkpt>
      <trkpt lat="43.76876" lon="4.83669">
        <ele>252</ele>
        <time>2010-12-04T08:30:24Z</time>
      </trkpt>
      <trkpt lat="43.76878" lon="4.83668">
        <ele>252</ele>
        <time>2010-12-04T08:30:31Z</time>
      </trkpt>
      <trkpt lat="43.7688" lon="4.83666">
        <ele>249</ele>
        <time>2010-12-04T08:30:39Z</time>
      </trkpt>
      <trkpt lat="43.76881" lon="4.83665">
        <ele>246</ele>
        <time>2010-12-04T08:30:45Z</time>
      </trkpt>
      <trkpt lat="43.76884" lon="4.83665">
        <ele>244</ele>
        <time>2010-12-04T08:30:55Z</time>
      </trkpt>
      <trkpt lat="43.76886" lon="4.83665">
        <ele>244</ele>
        <time>2010-12-04T08:31:01Z</time>
      </trkpt>
      <trkpt lat="43.76887" lon="4.83665">
        <ele>244</ele>
        <time>2010-12-04T08:31:09Z</time>
      </trkpt>
      <trkpt lat="43.76886" lon="4.83666">
        <ele>244</ele>
        <time>2010-12-04T08:31:37Z</time>
      </trkpt>
      <trkpt lat="43.76885" lon="4.83669">
        <ele>244</ele>
        <time>2010-12-04T08:31:43Z</time>
      </trkpt>
      <trkpt lat="43.76885" lon="4.83668">
        <ele>244</ele>
        <time>2010-12-04T08:31:57Z</time>
      </trkpt>
      <trkpt lat="43.76886" lon="4.83666">
        <ele>244</ele>
        <time>2010-12-04T08:32:23Z</time>
      </trkpt>
      <trkpt lat="43.76887" lon="4.83668">
        <ele>244</ele>
        <time>2010-12-04T08:32:41Z</time>
      </trkpt>
      <trkpt lat="43.76888" lon="4.83669">
        <ele>244</ele>
        <time>2010-12-04T08:32:57Z</time>
      </trkpt>
      <trkpt lat="43.76889" lon="4.83669">
        <ele>243</ele>
        <time>2010-12-04T08:34:35Z</time>
      </trkpt>
      <trkpt lat="43.76892" lon="4.83669">
        <ele>243</ele>
        <time>2010-12-04T08:34:45Z</time>
      </trkpt>
      <trkpt lat="43.76892" lon="4.83667">
        <ele>241</ele>
        <time>2010-12-04T08:34:56Z</time>
      </trkpt>
      <trkpt lat="43.76892" lon="4.83666">
        <ele>241</ele>
        <time>2010-12-04T08:35:05Z</time>
      </trkpt>
      <trkpt lat="43.76893" lon="4.83666">
        <ele>239</ele>
        <time>2010-12-04T08:35:31Z</time>
      </trkpt>
      <trkpt lat="43.76893" lon="4.83665">
        <ele>238</ele>
        <time>2010-12-04T08:35:40Z</time>
      </trkpt>
      <trkpt lat="43.76891" lon="4.83662">
        <ele>238</ele>
        <time>2010-12-04T08:35:46Z</time>
      </trkpt>
      <trkpt lat="43.76887" lon="4.83659">
        <ele>238</ele>
        <time>2010-12-04T08:35:53Z</time>
      </trkpt>
      <trkpt lat="43.76886" lon="4.83656">
        <ele>238</ele>
        <time>2010-12-04T08:35:59Z</time>
      </trkpt>
      <trkpt lat="43.76885" lon="4.83656">
        <ele>238</ele>
        <time>2010-12-04T08:36:20Z</time>
      </trkpt>
      <trkpt lat="43.76884" lon="4.83656">
        <ele>238</ele>
        <time>2010-12-04T08:36:43Z</time>
      </trkpt>
      <trkpt lat="43.76879" lon="4.83657">
        <ele>238</ele>
        <time>2010-12-04T08:36:51Z</time>
      </trkpt>
      <trkpt lat="43.76877" lon="4.83656">
        <ele>238</ele>
        <time>2010-12-04T08:37:01Z</time>
      </trkpt>
      <trkpt lat="43.76878" lon="4.83651">
        <ele>238</ele>
        <time>2010-12-04T08:37:07Z</time>
      </trkpt>
      <trkpt lat="43.76876" lon="4.83649">
        <ele>244</ele>
        <time>2010-12-04T08:37:19Z</time>
      </trkpt>
      <trkpt lat="43.76875" lon="4.83647">
        <ele>248</ele>
        <time>2010-12-04T08:37:25Z</time>
      </trkpt>
      <trkpt lat="43.76874" lon="4.8365">
        <ele>248</ele>
        <time>2010-12-04T08:37:32Z</time>
      </trkpt>
      <trkpt lat="43.76872" lon="4.83649">
        <ele>251</ele>
        <time>2010-12-04T08:37:39Z</time>
      </trkpt>
      <trkpt lat="43.76869" lon="4.8365">
        <ele>252</ele>
        <time>2010-12-04T08:37:46Z</time>
      </trkpt>
      <trkpt lat="43.76866" lon="4.8365">
        <ele>252</ele>
        <time>2010-12-04T08:37:52Z</time>
      </trkpt>
      <trkpt lat="43.76862" lon="4.8365">
        <ele>251</ele>
        <time>2010-12-04T08:38:00Z</time>
      </trkpt>
      <trkpt lat="43.76856" lon="4.83651">
        <ele>247</ele>
        <time>2010-12-04T08:38:07Z</time>
      </trkpt>
      <trkpt lat="43.76854" lon="4.83653">
        <ele>242</ele>
        <time>2010-12-04T08:38:13Z</time>
      </trkpt>
      <trkpt lat="43.76851" lon="4.83651">
        <ele>238</ele>
        <time>2010-12-04T08:38:21Z</time>
      </trkpt>
      <trkpt lat="43.76849" lon="4.83651">
        <ele>238</ele>
        <time>2010-12-04T08:38:30Z</time>
      </trkpt>
      <trkpt lat="43.76846" lon="4.83647">
        <ele>238</ele>
        <time>2010-12-04T08:38:38Z</time>
      </trkpt>
      <trkpt lat="43.76842" lon="4.83653">
        <ele>234</ele>
        <time>2010-12-04T08:38:44Z</time>
      </trkpt>
      <trkpt lat="43.7684" lon="4.83651">
        <ele>230</ele>
        <time>2010-12-04T08:38:51Z</time>
      </trkpt>
      <trkpt lat="43.76836" lon="4.8365">
        <ele>229</ele>
        <time>2010-12-04T08:38:58Z</time>
      </trkpt>
      <trkpt lat="43.76831" lon="4.83651">
        <ele>225</ele>
        <time>2010-12-04T08:39:04Z</time>
      </trkpt>
      <trkpt lat="43.76828" lon="4.83652">
        <ele>222</ele>
        <time>2010-12-04T08:39:11Z</time>
      </trkpt>
      <trkpt lat="43.76824" lon="4.83654">
        <ele>217</ele>
        <time>2010-12-04T08:39:18Z</time>
      </trkpt>
      <trkpt lat="43.76822" lon="4.83656">
        <ele>215</ele>
        <time>2010-12-04T08:39:25Z</time>
      </trkpt>
      <trkpt lat="43.76822" lon="4.83657">
        <ele>210</ele>
        <time>2010-12-04T08:39:33Z</time>
      </trkpt>
      <trkpt lat="43.76825" lon="4.83667">
        <ele>204</ele>
        <time>2010-12-04T08:39:39Z</time>
      </trkpt>
      <trkpt lat="43.76821" lon="4.83653">
        <ele>200</ele>
        <time>2010-12-04T08:39:45Z</time>
      </trkpt>
      <trkpt lat="43.76817" lon="4.83625">
        <ele>200</ele>
        <time>2010-12-04T08:40:04Z</time>
      </trkpt>
      <trkpt lat="43.76815" lon="4.83607">
        <ele>212</ele>
        <time>2010-12-04T08:40:11Z</time>
      </trkpt>
      <trkpt lat="43.76819" lon="4.83604">
        <ele>217</ele>
        <time>2010-12-04T08:40:18Z</time>
      </trkpt>
      <trkpt lat="43.76821" lon="4.836">
        <ele>217</ele>
        <time>2010-12-04T08:40:24Z</time>
      </trkpt>
      <trkpt lat="43.76822" lon="4.83595">
        <ele>216</ele>
        <time>2010-12-04T08:40:31Z</time>
      </trkpt>
      <trkpt lat="43.76823" lon="4.83589">
        <ele>216</ele>
        <time>2010-12-04T08:40:38Z</time>
      </trkpt>
      <trkpt lat="43.76823" lon="4.83586">
        <ele>213</ele>
        <time>2010-12-04T08:40:44Z</time>
      </trkpt>
      <trkpt lat="43.76822" lon="4.83582">
        <ele>213</ele>
        <time>2010-12-04T08:40:51Z</time>
      </trkpt>
      <trkpt lat="43.76822" lon="4.83575">
        <ele>213</ele>
        <time>2010-12-04T08:40:57Z</time>
      </trkpt>
      <trkpt lat="43.76826" lon="4.83569">
        <ele>213</ele>
        <time>2010-12-04T08:41:03Z</time>
      </trkpt>
      <trkpt lat="43.76828" lon="4.83564">
        <ele>213</ele>
        <time>2010-12-04T08:41:09Z</time>
      </trkpt>
      <trkpt lat="43.76824" lon="4.83558">
        <ele>213</ele>
        <time>2010-12-04T08:41:15Z</time>
      </trkpt>
      <trkpt lat="43.76819" lon="4.83553">
        <ele>213</ele>
        <time>2010-12-04T08:41:21Z</time>
      </trkpt>
      <trkpt lat="43.76816" lon="4.83546">
        <ele>213</ele>
        <time>2010-12-04T08:41:27Z</time>
      </trkpt>
      <trkpt lat="43.76814" lon="4.83541">
        <ele>214</ele>
        <time>2010-12-04T08:41:36Z</time>
      </trkpt>
      <trkpt lat="43.76812" lon="4.83538">
        <ele>214</ele>
        <time>2010-12-04T08:41:42Z</time>
      </trkpt>
      <trkpt lat="43.7681" lon="4.83538">
        <ele>215</ele>
        <time>2010-12-04T08:41:48Z</time>
      </trkpt>
      <trkpt lat="43.76805" lon="4.83542">
        <ele>215</ele>
        <time>2010-12-04T08:41:54Z</time>
      </trkpt>
      <trkpt lat="43.76802" lon="4.83549">
        <ele>215</ele>
        <time>2010-12-04T08:42:00Z</time>
      </trkpt>
      <trkpt lat="43.76798" lon="4.83553">
        <ele>216</ele>
        <time>2010-12-04T08:42:07Z</time>
      </trkpt>
      <trkpt lat="43.76794" lon="4.83556">
        <ele>220</ele>
        <time>2010-12-04T08:42:15Z</time>
      </trkpt>
      <trkpt lat="43.76792" lon="4.83558">
        <ele>222</ele>
        <time>2010-12-04T08:42:27Z</time>
      </trkpt>
      <trkpt lat="43.7679" lon="4.83562">
        <ele>222</ele>
        <time>2010-12-04T08:42:36Z</time>
      </trkpt>
      <trkpt lat="43.76786" lon="4.83563">
        <ele>222</ele>
        <time>2010-12-04T08:42:43Z</time>
      </trkpt>
      <trkpt lat="43.76782" lon="4.83563">
        <ele>224</ele>
        <time>2010-12-04T08:42:49Z</time>
      </trkpt>
      <trkpt lat="43.76779" lon="4.83563">
        <ele>227</ele>
        <time>2010-12-04T08:42:56Z</time>
      </trkpt>
      <trkpt lat="43.76777" lon="4.83566">
        <ele>229</ele>
        <time>2010-12-04T08:43:03Z</time>
      </trkpt>
      <trkpt lat="43.76775" lon="4.83567">
        <ele>230</ele>
        <time>2010-12-04T08:43:09Z</time>
      </trkpt>
      <trkpt lat="43.76769" lon="4.83566">
        <ele>233</ele>
        <time>2010-12-04T08:43:15Z</time>
      </trkpt>
      <trkpt lat="43.76765" lon="4.83567">
        <ele>235</ele>
        <time>2010-12-04T08:43:22Z</time>
      </trkpt>
      <trkpt lat="43.76762" lon="4.83576">
        <ele>236</ele>
        <time>2010-12-04T08:43:29Z</time>
      </trkpt>
      <trkpt lat="43.76757" lon="4.83576">
        <ele>236</ele>
        <time>2010-12-04T08:43:35Z</time>
      </trkpt>
      <trkpt lat="43.76752" lon="4.83578">
        <ele>241</ele>
        <time>2010-12-04T08:43:42Z</time>
      </trkpt>
      <trkpt lat="43.76747" lon="4.8358">
        <ele>241</ele>
        <time>2010-12-04T08:43:48Z</time>
      </trkpt>
      <trkpt lat="43.76743" lon="4.83582">
        <ele>241</ele>
        <time>2010-12-04T08:43:54Z</time>
      </trkpt>
      <trkpt lat="43.7674" lon="4.83588">
        <ele>241</ele>
        <time>2010-12-04T08:44:02Z</time>
      </trkpt>
      <trkpt lat="43.76737" lon="4.83591">
        <ele>243</ele>
        <time>2010-12-04T08:44:11Z</time>
      </trkpt>
      <trkpt lat="43.76739" lon="4.83595">
        <ele>243</ele>
        <time>2010-12-04T08:44:17Z</time>
      </trkpt>
      <trkpt lat="43.76743" lon="4.83597">
        <ele>243</ele>
        <time>2010-12-04T08:44:24Z</time>
      </trkpt>
      <trkpt lat="43.76744" lon="4.83604">
        <ele>243</ele>
        <time>2010-12-04T08:44:30Z</time>
      </trkpt>
      <trkpt lat="43.76743" lon="4.8362">
        <ele>235</ele>
        <time>2010-12-04T08:44:37Z</time>
      </trkpt>
      <trkpt lat="43.76739" lon="4.8362">
        <ele>228</ele>
        <time>2010-12-04T08:44:43Z</time>
      </trkpt>
      <trkpt lat="43.76741" lon="4.83619">
        <ele>232</ele>
        <time>2010-12-04T08:44:50Z</time>
      </trkpt>
      <trkpt lat="43.76741" lon="4.83621">
        <ele>239</ele>
        <time>2010-12-04T08:44:57Z</time>
      </trkpt>
      <trkpt lat="43.76745" lon="4.83619">
        <ele>242</ele>
        <time>2010-12-04T08:45:04Z</time>
      </trkpt>
      <trkpt lat="43.7675" lon="4.8361">
        <ele>243</ele>
        <time>2010-12-04T08:45:12Z</time>
      </trkpt>
      <trkpt lat="43.76752" lon="4.8361">
        <ele>248</ele>
        <time>2010-12-04T08:45:18Z</time>
      </trkpt>
      <trkpt lat="43.76754" lon="4.83607">
        <ele>249</ele>
        <time>2010-12-04T08:45:26Z</time>
      </trkpt>
      <trkpt lat="43.76754" lon="4.83603">
        <ele>250</ele>
        <time>2010-12-04T08:45:32Z</time>
      </trkpt>
      <trkpt lat="43.76755" lon="4.83603">
        <ele>252</ele>
        <time>2010-12-04T08:45:38Z</time>
      </trkpt>
      <trkpt lat="43.76754" lon="4.83602">
        <ele>259</ele>
        <time>2010-12-04T08:45:45Z</time>
      </trkpt>
      <trkpt lat="43.76757" lon="4.83599">
        <ele>270</ele>
        <time>2010-12-04T08:45:52Z</time>
      </trkpt>
      <trkpt lat="43.76758" lon="4.83591">
        <ele>279</ele>
        <time>2010-12-04T08:45:58Z</time>
      </trkpt>
      <trkpt lat="43.76757" lon="4.83586">
        <ele>292</ele>
        <time>2010-12-04T08:46:05Z</time>
      </trkpt>
      <trkpt lat="43.7676" lon="4.83593">
        <ele>294</ele>
        <time>2010-12-04T08:46:12Z</time>
      </trkpt>
      <trkpt lat="43.76764" lon="4.83595">
        <ele>283</ele>
        <time>2010-12-04T08:46:20Z</time>
      </trkpt>
      <trkpt lat="43.76766" lon="4.83597">
        <ele>276</ele>
        <time>2010-12-04T08:46:27Z</time>
      </trkpt>
      <trkpt lat="43.76768" lon="4.83599">
        <ele>272</ele>
        <time>2010-12-04T08:46:34Z</time>
      </trkpt>
      <trkpt lat="43.76771" lon="4.83602">
        <ele>271</ele>
        <time>2010-12-04T08:46:40Z</time>
      </trkpt>
      <trkpt lat="43.76773" lon="4.83604">
        <ele>270</ele>
        <time>2010-12-04T08:46:48Z</time>
      </trkpt>
      <trkpt lat="43.76776" lon="4.83605">
        <ele>270</ele>
        <time>2010-12-04T08:46:57Z</time>
      </trkpt>
      <trkpt lat="43.7678" lon="4.83606">
        <ele>270</ele>
        <time>2010-12-04T08:47:05Z</time>
      </trkpt>
      <trkpt lat="43.76781" lon="4.83607">
        <ele>270</ele>
        <time>2010-12-04T08:47:12Z</time>
      </trkpt>
      <trkpt lat="43.76783" lon="4.83609">
        <ele>270</ele>
        <time>2010-12-04T08:47:26Z</time>
      </trkpt>
      <trkpt lat="43.76785" lon="4.8361">
        <ele>270</ele>
        <time>2010-12-04T08:47:36Z</time>
      </trkpt>
      <trkpt lat="43.76785" lon="4.83611">
        <ele>270</ele>
        <time>2010-12-04T08:47:45Z</time>
      </trkpt>
      <trkpt lat="43.76786" lon="4.83613">
        <ele>270</ele>
        <time>2010-12-04T08:48:03Z</time>
      </trkpt>
      <trkpt lat="43.76786" lon="4.83616">
        <ele>270</ele>
        <time>2010-12-04T08:48:09Z</time>
      </trkpt>
      <trkpt lat="43.76785" lon="4.83618">
        <ele>270</ele>
        <time>2010-12-04T08:48:20Z</time>
      </trkpt>
      <trkpt lat="43.76785" lon="4.83622">
        <ele>270</ele>
        <time>2010-12-04T08:48:30Z</time>
      </trkpt>
      <trkpt lat="43.76786" lon="4.83626">
        <ele>270</ele>
        <time>2010-12-04T08:48:40Z</time>
      </trkpt>
      <trkpt lat="43.76784" lon="4.83631">
        <ele>270</ele>
        <time>2010-12-04T08:48:48Z</time>
      </trkpt>
      <trkpt lat="43.76781" lon="4.8363">
        <ele>270</ele>
        <time>2010-12-04T08:48:55Z</time>
      </trkpt>
      <trkpt lat="43.76778" lon="4.83624">
        <ele>270</ele>
        <time>2010-12-04T08:49:01Z</time>
      </trkpt>
      <trkpt lat="43.76775" lon="4.83621">
        <ele>270</ele>
        <time>2010-12-04T08:49:08Z</time>
      </trkpt>
      <trkpt lat="43.76774" lon="4.83624">
        <ele>271</ele>
        <time>2010-12-04T08:49:18Z</time>
      </trkpt>
      <trkpt lat="43.76771" lon="4.83627">
        <ele>273</ele>
        <time>2010-12-04T08:49:26Z</time>
      </trkpt>
      <trkpt lat="43.76767" lon="4.83628">
        <ele>275</ele>
        <time>2010-12-04T08:49:34Z</time>
      </trkpt>
      <trkpt lat="43.76765" lon="4.83627">
        <ele>276</ele>
        <time>2010-12-04T08:49:40Z</time>
      </trkpt>
      <trkpt lat="43.76761" lon="4.83627">
        <ele>278</ele>
        <time>2010-12-04T08:49:46Z</time>
      </trkpt>
      <trkpt lat="43.76757" lon="4.83627">
        <ele>279</ele>
        <time>2010-12-04T08:49:54Z</time>
      </trkpt>
      <trkpt lat="43.76754" lon="4.83628">
        <ele>280</ele>
        <time>2010-12-04T08:50:01Z</time>
      </trkpt>
      <trkpt lat="43.76752" lon="4.8363">
        <ele>282</ele>
        <time>2010-12-04T08:50:09Z</time>
      </trkpt>
      <trkpt lat="43.76749" lon="4.83631">
        <ele>284</ele>
        <time>2010-12-04T08:50:16Z</time>
      </trkpt>
      <trkpt lat="43.76746" lon="4.83635">
        <ele>287</ele>
        <time>2010-12-04T08:50:26Z</time>
      </trkpt>
      <trkpt lat="43.76742" lon="4.83636">
        <ele>287</ele>
        <time>2010-12-04T08:50:32Z</time>
      </trkpt>
      <trkpt lat="43.76739" lon="4.83637">
        <ele>287</ele>
        <time>2010-12-04T08:50:38Z</time>
      </trkpt>
      <trkpt lat="43.76735" lon="4.8364">
        <ele>288</ele>
        <time>2010-12-04T08:50:45Z</time>
      </trkpt>
      <trkpt lat="43.7673" lon="4.8364">
        <ele>288</ele>
        <time>2010-12-04T08:50:51Z</time>
      </trkpt>
      <trkpt lat="43.76729" lon="4.83641">
        <ele>289</ele>
        <time>2010-12-04T08:51:03Z</time>
      </trkpt>
      <trkpt lat="43.76728" lon="4.83643">
        <ele>290</ele>
        <time>2010-12-04T08:51:19Z</time>
      </trkpt>
      <trkpt lat="43.76727" lon="4.83641">
        <ele>290</ele>
        <time>2010-12-04T08:51:33Z</time>
      </trkpt>
      <trkpt lat="43.76725" lon="4.83639">
        <ele>290</ele>
        <time>2010-12-04T08:51:43Z</time>
      </trkpt>
      <trkpt lat="43.76721" lon="4.83642">
        <ele>290</ele>
        <time>2010-12-04T08:51:53Z</time>
      </trkpt>
      <trkpt lat="43.7672" lon="4.83641">
        <ele>290</ele>
        <time>2010-12-04T08:51:59Z</time>
      </trkpt>
      <trkpt lat="43.7672" lon="4.83639">
        <ele>294</ele>
        <time>2010-12-04T08:52:20Z</time>
      </trkpt>
      <trkpt lat="43.7672" lon="4.83637">
        <ele>294</ele>
        <time>2010-12-04T08:52:28Z</time>
      </trkpt>
      <trkpt lat="43.76724" lon="4.83638">
        <ele>294</ele>
        <time>2010-12-04T08:52:36Z</time>
      </trkpt>
      <trkpt lat="43.76724" lon="4.8364">
        <ele>294</ele>
        <time>2010-12-04T08:52:47Z</time>
      </trkpt>
      <trkpt lat="43.76724" lon="4.83641">
        <ele>294</ele>
        <time>2010-12-04T08:52:53Z</time>
      </trkpt>
      <trkpt lat="43.76722" lon="4.83642">
        <ele>294</ele>
        <time>2010-12-04T08:53:06Z</time>
      </trkpt>
      <trkpt lat="43.76722" lon="4.83641">
        <ele>295</ele>
        <time>2010-12-04T08:53:35Z</time>
      </trkpt>
      <trkpt lat="43.76724" lon="4.83639">
        <ele>298</ele>
        <time>2010-12-04T08:53:53Z</time>
      </trkpt>
      <trkpt lat="43.76724" lon="4.83641">
        <ele>299</ele>
        <time>2010-12-04T08:54:00Z</time>
      </trkpt>
      <trkpt lat="43.76723" lon="4.83643">
        <ele>300</ele>
        <time>2010-12-04T08:54:22Z</time>
      </trkpt>
      <trkpt lat="43.76722" lon="4.83644">
        <ele>300</ele>
        <time>2010-12-04T08:54:29Z</time>
      </trkpt>
      <trkpt lat="43.76719" lon="4.83648">
        <ele>300</ele>
        <time>2010-12-04T08:54:40Z</time>
      </trkpt>
      <trkpt lat="43.76716" lon="4.83648">
        <ele>300</ele>
        <time>2010-12-04T08:54:52Z</time>
      </trkpt>
      <trkpt lat="43.76715" lon="4.83651">
        <ele>300</ele>
        <time>2010-12-04T08:55:11Z</time>
      </trkpt>
      <trkpt lat="43.76718" lon="4.83648">
        <ele>300</ele>
        <time>2010-12-04T08:55:18Z</time>
      </trkpt>
      <trkpt lat="43.76721" lon="4.83644">
        <ele>300</ele>
        <time>2010-12-04T08:55:46Z</time>
      </trkpt>
      <trkpt lat="43.7672" lon="4.83645">
        <ele>300</ele>
        <time>2010-12-04T08:56:33Z</time>
      </trkpt>
      <trkpt lat="43.76715" lon="4.83651">
        <ele>300</ele>
        <time>2010-12-04T08:56:40Z</time>
      </trkpt>
      <trkpt lat="43.76706" lon="4.83656">
        <ele>300</ele>
        <time>2010-12-04T08:56:47Z</time>
      </trkpt>
      <trkpt lat="43.76701" lon="4.83658">
        <ele>300</ele>
        <time>2010-12-04T08:56:55Z</time>
      </trkpt>
      <trkpt lat="43.76699" lon="4.83661">
        <ele>300</ele>
        <time>2010-12-04T08:57:01Z</time>
      </trkpt>
      <trkpt lat="43.76694" lon="4.83663">
        <ele>300</ele>
        <time>2010-12-04T08:57:09Z</time>
      </trkpt>
      <trkpt lat="43.7669" lon="4.83668">
        <ele>300</ele>
        <time>2010-12-04T08:57:16Z</time>
      </trkpt>
      <trkpt lat="43.76687" lon="4.83672">
        <ele>300</ele>
        <time>2010-12-04T08:57:22Z</time>
      </trkpt>
      <trkpt lat="43.76684" lon="4.83675">
        <ele>300</ele>
        <time>2010-12-04T08:57:28Z</time>
      </trkpt>
      <trkpt lat="43.76681" lon="4.83676">
        <ele>300</ele>
        <time>2010-12-04T08:57:34Z</time>
      </trkpt>
      <trkpt lat="43.76677" lon="4.83682">
        <ele>300</ele>
        <time>2010-12-04T08:57:41Z</time>
      </trkpt>
      <trkpt lat="43.76675" lon="4.83685">
        <ele>301</ele>
        <time>2010-12-04T08:57:51Z</time>
      </trkpt>
      <trkpt lat="43.76674" lon="4.83687">
        <ele>302</ele>
        <time>2010-12-04T08:58:32Z</time>
      </trkpt>
      <trkpt lat="43.76671" lon="4.83689">
        <ele>302</ele>
        <time>2010-12-04T08:58:39Z</time>
      </trkpt>
      <trkpt lat="43.76672" lon="4.83687">
        <ele>302</ele>
        <time>2010-12-04T08:58:56Z</time>
      </trkpt>
      <trkpt lat="43.76673" lon="4.83686">
        <ele>302</ele>
        <time>2010-12-04T08:59:03Z</time>
      </trkpt>
      <trkpt lat="43.76672" lon="4.83684">
        <ele>302</ele>
        <time>2010-12-04T08:59:14Z</time>
      </trkpt>
      <trkpt lat="43.76674" lon="4.83684">
        <ele>302</ele>
        <time>2010-12-04T08:59:23Z</time>
      </trkpt>
      <trkpt lat="43.76674" lon="4.83685">
        <ele>302</ele>
        <time>2010-12-04T08:59:29Z</time>
      </trkpt>
      <trkpt lat="43.76675" lon="4.83684">
        <ele>302</ele>
        <time>2010-12-04T08:59:55Z</time>
      </trkpt>
      <trkpt lat="43.76677" lon="4.83681">
        <ele>302</ele>
        <time>2010-12-04T09:00:04Z</time>
      </trkpt>
      <trkpt lat="43.76678" lon="4.83678">
        <ele>302</ele>
        <time>2010-12-04T09:00:25Z</time>
      </trkpt>
      <trkpt lat="43.76678" lon="4.83676">
        <ele>302</ele>
        <time>2010-12-04T09:00:33Z</time>
      </trkpt>
      <trkpt lat="43.76682" lon="4.83673">
        <ele>302</ele>
        <time>2010-12-04T09:00:42Z</time>
      </trkpt>
      <trkpt lat="43.76683" lon="4.83669">
        <ele>302</ele>
        <time>2010-12-04T09:00:49Z</time>
      </trkpt>
      <trkpt lat="43.76684" lon="4.83662">
        <ele>301</ele>
        <time>2010-12-04T09:00:55Z</time>
      </trkpt>
      <trkpt lat="43.76686" lon="4.83662">
        <ele>300</ele>
        <time>2010-12-04T09:01:11Z</time>
      </trkpt>
      <trkpt lat="43.76687" lon="4.83662">
        <ele>300</ele>
        <time>2010-12-04T09:01:18Z</time>
      </trkpt>
      <trkpt lat="43.76691" lon="4.83662">
        <ele>300</ele>
        <time>2010-12-04T09:01:25Z</time>
      </trkpt>
      <trkpt lat="43.76695" lon="4.83659">
        <ele>300</ele>
        <time>2010-12-04T09:01:31Z</time>
      </trkpt>
      <trkpt lat="43.76699" lon="4.83656">
        <ele>300</ele>
        <time>2010-12-04T09:01:39Z</time>
      </trkpt>
      <trkpt lat="43.76701" lon="4.83657">
        <ele>300</ele>
        <time>2010-12-04T09:01:46Z</time>
      </trkpt>
      <trkpt lat="43.76702" lon="4.83656">
        <ele>300</ele>
        <time>2010-12-04T09:02:13Z</time>
      </trkpt>
      <trkpt lat="43.76703" lon="4.83655">
        <ele>300</ele>
        <time>2010-12-04T09:02:20Z</time>
      </trkpt>
      <trkpt lat="43.76705" lon="4.83654">
        <ele>300</ele>
        <time>2010-12-04T09:02:27Z</time>
      </trkpt>
      <trkpt lat="43.76708" lon="4.83652">
        <ele>300</ele>
        <time>2010-12-04T09:02:35Z</time>
      </trkpt>
      <trkpt lat="43.76712" lon="4.8365">
        <ele>300</ele>
        <time>2010-12-04T09:02:43Z</time>
      </trkpt>
      <trkpt lat="43.76716" lon="4.8365">
        <ele>300</ele>
        <time>2010-12-04T09:02:50Z</time>
      </trkpt>
      <trkpt lat="43.7672" lon="4.83646">
        <ele>300</ele>
        <time>2010-12-04T09:02:58Z</time>
      </trkpt>
      <trkpt lat="43.76722" lon="4.83647">
        <ele>300</ele>
        <time>2010-12-04T09:03:09Z</time>
      </trkpt>
      <trkpt lat="43.76723" lon="4.83647">
        <ele>300</ele>
        <time>2010-12-04T09:03:25Z</time>
      </trkpt>
      <trkpt lat="43.76722" lon="4.83645">
        <ele>300</ele>
        <time>2010-12-04T09:03:48Z</time>
      </trkpt>
      <trkpt lat="43.76721" lon="4.83645">
        <ele>300</ele>
        <time>2010-12-04T09:04:36Z</time>
      </trkpt>
      <trkpt lat="43.76722" lon="4.83644">
        <ele>300</ele>
        <time>2010-12-04T09:04:55Z</time>
      </trkpt>
      <trkpt lat="43.76724" lon="4.83643">
        <ele>300</ele>
        <time>2010-12-04T09:06:26Z</time>
      </trkpt>
      <trkpt lat="43.76723" lon="4.83643">
        <ele>299</ele>
        <time>2010-12-04T09:07:28Z</time>
      </trkpt>
      <trkpt lat="43.76724" lon="4.83642">
        <ele>296</ele>
        <time>2010-12-04T09:08:37Z</time>
      </trkpt>
      <trkpt lat="43.76724" lon="4.8364">
        <ele>296</ele>
        <time>2010-12-04T09:08:49Z</time>
      </trkpt>
      <trkpt lat="43.76725" lon="4.83639">
        <ele>293</ele>
        <time>2010-12-04T09:09:59Z</time>
      </trkpt>
      <trkpt lat="43.76728" lon="4.8364">
        <ele>293</ele>
        <time>2010-12-04T09:10:06Z</time>
      </trkpt>
      <trkpt lat="43.76732" lon="4.83642">
        <ele>293</ele>
        <time>2010-12-04T09:10:12Z</time>
      </trkpt>
      <trkpt lat="43.76737" lon="4.83639">
        <ele>293</ele>
        <time>2010-12-04T09:10:18Z</time>
      </trkpt>
      <trkpt lat="43.7674" lon="4.83637">
        <ele>293</ele>
        <time>2010-12-04T09:10:24Z</time>
      </trkpt>
      <trkpt lat="43.76746" lon="4.83635">
        <ele>293</ele>
        <time>2010-12-04T09:10:31Z</time>
      </trkpt>
      <trkpt lat="43.76748" lon="4.83632">
        <ele>292</ele>
        <time>2010-12-04T09:10:37Z</time>
      </trkpt>
      <trkpt lat="43.76751" lon="4.8363">
        <ele>291</ele>
        <time>2010-12-04T09:10:45Z</time>
      </trkpt>
      <trkpt lat="43.76753" lon="4.83628">
        <ele>288</ele>
        <time>2010-12-04T09:10:59Z</time>
      </trkpt>
      <trkpt lat="43.76756" lon="4.83628">
        <ele>286</ele>
        <time>2010-12-04T09:11:07Z</time>
      </trkpt>
      <trkpt lat="43.76759" lon="4.83627">
        <ele>285</ele>
        <time>2010-12-04T09:11:13Z</time>
      </trkpt>
      <trkpt lat="43.76764" lon="4.83628">
        <ele>282</ele>
        <time>2010-12-04T09:11:22Z</time>
      </trkpt>
      <trkpt lat="43.76766" lon="4.83628">
        <ele>281</ele>
        <time>2010-12-04T09:11:28Z</time>
      </trkpt>
      <trkpt lat="43.76764" lon="4.83634">
        <ele>281</ele>
        <time>2010-12-04T09:11:34Z</time>
      </trkpt>
      <trkpt lat="43.7676" lon="4.83638">
        <ele>281</ele>
        <time>2010-12-04T09:11:40Z</time>
      </trkpt>
      <trkpt lat="43.76756" lon="4.83648">
        <ele>281</ele>
        <time>2010-12-04T09:11:47Z</time>
      </trkpt>
      <trkpt lat="43.76752" lon="4.83652">
        <ele>281</ele>
        <time>2010-12-04T09:11:56Z</time>
      </trkpt>
      <trkpt lat="43.7675" lon="4.83654">
        <ele>281</ele>
        <time>2010-12-04T09:12:05Z</time>
      </trkpt>
      <trkpt lat="43.76747" lon="4.83655">
        <ele>279</ele>
        <time>2010-12-04T09:12:11Z</time>
      </trkpt>
      <trkpt lat="43.76742" lon="4.83656">
        <ele>279</ele>
        <time>2010-12-04T09:12:18Z</time>
      </trkpt>
      <trkpt lat="43.76738" lon="4.83657">
        <ele>277</ele>
        <time>2010-12-04T09:12:25Z</time>
      </trkpt>
      <trkpt lat="43.76733" lon="4.83657">
        <ele>276</ele>
        <time>2010-12-04T09:12:31Z</time>
      </trkpt>
      <trkpt lat="43.76728" lon="4.83659">
        <ele>275</ele>
        <time>2010-12-04T09:12:37Z</time>
      </trkpt>
      <trkpt lat="43.76722" lon="4.83661">
        <ele>274</ele>
        <time>2010-12-04T09:12:43Z</time>
      </trkpt>
      <trkpt lat="43.76719" lon="4.83667">
        <ele>274</ele>
        <time>2010-12-04T09:12:50Z</time>
      </trkpt>
      <trkpt lat="43.76716" lon="4.8367">
        <ele>274</ele>
        <time>2010-12-04T09:12:58Z</time>
      </trkpt>
      <trkpt lat="43.76712" lon="4.83675">
        <ele>274</ele>
        <time>2010-12-04T09:13:05Z</time>
      </trkpt>
      <trkpt lat="43.76707" lon="4.83676">
        <ele>274</ele>
        <time>2010-12-04T09:13:12Z</time>
      </trkpt>
      <trkpt lat="43.76704" lon="4.83677">
        <ele>274</ele>
        <time>2010-12-04T09:13:18Z</time>
      </trkpt>
      <trkpt lat="43.767" lon="4.8368">
        <ele>274</ele>
        <time>2010-12-04T09:13:26Z</time>
      </trkpt>
      <trkpt lat="43.76696" lon="4.83684">
        <ele>274</ele>
        <time>2010-12-04T09:13:33Z</time>
      </trkpt>
      <trkpt lat="43.76693" lon="4.83689">
        <ele>274</ele>
        <time>2010-12-04T09:13:39Z</time>
      </trkpt>
      <trkpt lat="43.76688" lon="4.83698">
        <ele>274</ele>
        <time>2010-12-04T09:13:46Z</time>
      </trkpt>
      <trkpt lat="43.76685" lon="4.837">
        <ele>274</ele>
        <time>2010-12-04T09:13:56Z</time>
      </trkpt>
      <trkpt lat="43.76685" lon="4.83702">
        <ele>274</ele>
        <time>2010-12-04T09:14:09Z</time>
      </trkpt>
      <trkpt lat="43.76684" lon="4.83703">
        <ele>275</ele>
        <time>2010-12-04T09:14:17Z</time>
      </trkpt>
      <trkpt lat="43.76684" lon="4.83704">
        <ele>275</ele>
        <time>2010-12-04T09:14:24Z</time>
      </trkpt>
      <trkpt lat="43.76684" lon="4.83706">
        <ele>276</ele>
        <time>2010-12-04T09:15:04Z</time>
      </trkpt>
      <trkpt lat="43.76683" lon="4.83707">
        <ele>276</ele>
        <time>2010-12-04T09:15:14Z</time>
      </trkpt>
      <trkpt lat="43.76682" lon="4.83709">
        <ele>276</ele>
        <time>2010-12-04T09:15:28Z</time>
      </trkpt>
      <trkpt lat="43.76682" lon="4.83712">
        <ele>277</ele>
        <time>2010-12-04T09:15:34Z</time>
      </trkpt>
      <trkpt lat="43.76681" lon="4.8371">
        <ele>277</ele>
        <time>2010-12-04T09:16:15Z</time>
      </trkpt>
      <trkpt lat="43.7668" lon="4.8371">
        <ele>277</ele>
        <time>2010-12-04T09:16:27Z</time>
      </trkpt>
      <trkpt lat="43.76677" lon="4.8371">
        <ele>276</ele>
        <time>2010-12-04T09:16:33Z</time>
      </trkpt>
      <trkpt lat="43.76672" lon="4.83713">
        <ele>274</ele>
        <time>2010-12-04T09:16:39Z</time>
      </trkpt>
      <trkpt lat="43.76667" lon="4.83711">
        <ele>273</ele>
        <time>2010-12-04T09:16:45Z</time>
      </trkpt>
      <trkpt lat="43.76662" lon="4.83711">
        <ele>272</ele>
        <time>2010-12-04T09:16:52Z</time>
      </trkpt>
      <trkpt lat="43.76658" lon="4.83712">
        <ele>271</ele>
        <time>2010-12-04T09:16:59Z</time>
      </trkpt>
      <trkpt lat="43.76654" lon="4.83719">
        <ele>270</ele>
        <time>2010-12-04T09:17:06Z</time>
      </trkpt>
      <trkpt lat="43.76648" lon="4.8372">
        <ele>268</ele>
        <time>2010-12-04T09:17:17Z</time>
      </trkpt>
      <trkpt lat="43.76647" lon="4.83719">
        <ele>268</ele>
        <time>2010-12-04T09:17:27Z</time>
      </trkpt>
      <trkpt lat="43.76647" lon="4.83717">
        <ele>268</ele>
        <time>2010-12-04T09:17:34Z</time>
      </trkpt>
      <trkpt lat="43.76647" lon="4.83719">
        <ele>268</ele>
        <time>2010-12-04T09:17:42Z</time>
      </trkpt>
      <trkpt lat="43.76644" lon="4.83719">
        <ele>268</ele>
        <time>2010-12-04T09:17:49Z</time>
      </trkpt>
      <trkpt lat="43.76643" lon="4.83719">
        <ele>268</ele>
        <time>2010-12-04T09:18:12Z</time>
      </trkpt>
      <trkpt lat="43.76636" lon="4.83723">
        <ele>268</ele>
        <time>2010-12-04T09:18:19Z</time>
      </trkpt>
      <trkpt lat="43.7663" lon="4.8373">
        <ele>267</ele>
        <time>2010-12-04T09:18:26Z</time>
      </trkpt>
      <trkpt lat="43.76625" lon="4.83733">
        <ele>266</ele>
        <time>2010-12-04T09:18:32Z</time>
      </trkpt>
      <trkpt lat="43.76624" lon="4.83733">
        <ele>266</ele>
        <time>2010-12-04T09:18:43Z</time>
      </trkpt>
      <trkpt lat="43.76622" lon="4.83733">
        <ele>266</ele>
        <time>2010-12-04T09:19:00Z</time>
      </trkpt>
      <trkpt lat="43.76615" lon="4.83736">
        <ele>266</ele>
        <time>2010-12-04T09:19:07Z</time>
      </trkpt>
      <trkpt lat="43.76607" lon="4.83738">
        <ele>266</ele>
        <time>2010-12-04T09:19:13Z</time>
      </trkpt>
      <trkpt lat="43.76601" lon="4.83742">
        <ele>266</ele>
        <time>2010-12-04T09:19:19Z</time>
      </trkpt>
      <trkpt lat="43.76595" lon="4.83744">
        <ele>266</ele>
        <time>2010-12-04T09:19:25Z</time>
      </trkpt>
      <trkpt lat="43.76589" lon="4.83745">
        <ele>266</ele>
        <time>2010-12-04T09:19:31Z</time>
      </trkpt>
      <trkpt lat="43.76582" lon="4.83746">
        <ele>266</ele>
        <time>2010-12-04T09:19:37Z</time>
      </trkpt>
      <trkpt lat="43.76574" lon="4.83748">
        <ele>266</ele>
        <time>2010-12-04T09:19:43Z</time>
      </trkpt>
      <trkpt lat="43.76566" lon="4.83746">
        <ele>266</ele>
        <time>2010-12-04T09:19:49Z</time>
      </trkpt>
      <trkpt lat="43.76559" lon="4.83745">
        <ele>266</ele>
        <time>2010-12-04T09:19:55Z</time>
      </trkpt>
      <trkpt lat="43.76551" lon="4.83745">
        <ele>266</ele>
        <time>2010-12-04T09:20:01Z</time>
      </trkpt>
      <trkpt lat="43.76544" lon="4.83743">
        <ele>266</ele>
        <time>2010-12-04T09:20:07Z</time>
      </trkpt>
      <trkpt lat="43.76539" lon="4.83747">
        <ele>266</ele>
        <time>2010-12-04T09:20:13Z</time>
      </trkpt>
      <trkpt lat="43.76534" lon="4.83748">
        <ele>266</ele>
        <time>2010-12-04T09:20:19Z</time>
      </trkpt>
      <trkpt lat="43.76531" lon="4.83747">
        <ele>266</ele>
        <time>2010-12-04T09:20:26Z</time>
      </trkpt>
      <trkpt lat="43.76525" lon="4.83746">
        <ele>266</ele>
        <time>2010-12-04T09:20:32Z</time>
      </trkpt>
      <trkpt lat="43.76521" lon="4.83747">
        <ele>264</ele>
        <time>2010-12-04T09:20:38Z</time>
      </trkpt>
      <trkpt lat="43.76514" lon="4.83746">
        <ele>262</ele>
        <time>2010-12-04T09:20:44Z</time>
      </trkpt>
      <trkpt lat="43.7651" lon="4.83743">
        <ele>262</ele>
        <time>2010-12-04T09:20:51Z</time>
      </trkpt>
      <trkpt lat="43.76508" lon="4.83744">
        <ele>261</ele>
        <time>2010-12-04T09:20:57Z</time>
      </trkpt>
      <trkpt lat="43.76505" lon="4.83748">
        <ele>259</ele>
        <time>2010-12-04T09:21:03Z</time>
      </trkpt>
      <trkpt lat="43.765" lon="4.83749">
        <ele>257</ele>
        <time>2010-12-04T09:21:10Z</time>
      </trkpt>
      <trkpt lat="43.76495" lon="4.83752">
        <ele>255</ele>
        <time>2010-12-04T09:21:16Z</time>
      </trkpt>
      <trkpt lat="43.76489" lon="4.83756">
        <ele>254</ele>
        <time>2010-12-04T09:21:22Z</time>
      </trkpt>
      <trkpt lat="43.76482" lon="4.8376">
        <ele>253</ele>
        <time>2010-12-04T09:21:28Z</time>
      </trkpt>
      <trkpt lat="43.76474" lon="4.83764">
        <ele>251</ele>
        <time>2010-12-04T09:21:34Z</time>
      </trkpt>
      <trkpt lat="43.76466" lon="4.83766">
        <ele>251</ele>
        <time>2010-12-04T09:21:40Z</time>
      </trkpt>
      <trkpt lat="43.7646" lon="4.83767">
        <ele>250</ele>
        <time>2010-12-04T09:21:46Z</time>
      </trkpt>
      <trkpt lat="43.76454" lon="4.83768">
        <ele>249</ele>
        <time>2010-12-04T09:21:52Z</time>
      </trkpt>
      <trkpt lat="43.76449" lon="4.83773">
        <ele>249</ele>
        <time>2010-12-04T09:21:58Z</time>
      </trkpt>
      <trkpt lat="43.76444" lon="4.83778">
        <ele>249</ele>
        <time>2010-12-04T09:22:04Z</time>
      </trkpt>
      <trkpt lat="43.76439" lon="4.83781">
        <ele>249</ele>
        <time>2010-12-04T09:22:10Z</time>
      </trkpt>
      <trkpt lat="43.76434" lon="4.83784">
        <ele>249</ele>
        <time>2010-12-04T09:22:16Z</time>
      </trkpt>
      <trkpt lat="43.76427" lon="4.83787">
        <ele>249</ele>
        <time>2010-12-04T09:22:23Z</time>
      </trkpt>
      <trkpt lat="43.76424" lon="4.83792">
        <ele>249</ele>
        <time>2010-12-04T09:22:29Z</time>
      </trkpt>
      <trkpt lat="43.76419" lon="4.83795">
        <ele>249</ele>
        <time>2010-12-04T09:22:35Z</time>
      </trkpt>
      <trkpt lat="43.76415" lon="4.83799">
        <ele>249</ele>
        <time>2010-12-04T09:22:41Z</time>
      </trkpt>
      <trkpt lat="43.7641" lon="4.83802">
        <ele>249</ele>
        <time>2010-12-04T09:22:48Z</time>
      </trkpt>
      <trkpt lat="43.76406" lon="4.83805">
        <ele>250</ele>
        <time>2010-12-04T09:22:54Z</time>
      </trkpt>
      <trkpt lat="43.76402" lon="4.83808">
        <ele>252</ele>
        <time>2010-12-04T09:23:00Z</time>
      </trkpt>
      <trkpt lat="43.76398" lon="4.83809">
        <ele>253</ele>
        <time>2010-12-04T09:23:06Z</time>
      </trkpt>
      <trkpt lat="43.76393" lon="4.83813">
        <ele>255</ele>
        <time>2010-12-04T09:23:12Z</time>
      </trkpt>
      <trkpt lat="43.76386" lon="4.83813">
        <ele>255</ele>
        <time>2010-12-04T09:23:19Z</time>
      </trkpt>
      <trkpt lat="43.76378" lon="4.83814">
        <ele>255</ele>
        <time>2010-12-04T09:23:25Z</time>
      </trkpt>
      <trkpt lat="43.76371" lon="4.83814">
        <ele>255</ele>
        <time>2010-12-04T09:23:31Z</time>
      </trkpt>
      <trkpt lat="43.76364" lon="4.83814">
        <ele>255</ele>
        <time>2010-12-04T09:23:37Z</time>
      </trkpt>
      <trkpt lat="43.76357" lon="4.83815">
        <ele>255</ele>
        <time>2010-12-04T09:23:43Z</time>
      </trkpt>
      <trkpt lat="43.76351" lon="4.83815">
        <ele>257</ele>
        <time>2010-12-04T09:23:49Z</time>
      </trkpt>
      <trkpt lat="43.76345" lon="4.83813">
        <ele>258</ele>
        <time>2010-12-04T09:23:55Z</time>
      </trkpt>
      <trkpt lat="43.76339" lon="4.83814">
        <ele>259</ele>
        <time>2010-12-04T09:24:01Z</time>
      </trkpt>
      <trkpt lat="43.76334" lon="4.83815">
        <ele>260</ele>
        <time>2010-12-04T09:24:07Z</time>
      </trkpt>
      <trkpt lat="43.76329" lon="4.83815">
        <ele>261</ele>
        <time>2010-12-04T09:24:13Z</time>
      </trkpt>
      <trkpt lat="43.76323" lon="4.83817">
        <ele>261</ele>
        <time>2010-12-04T09:24:19Z</time>
      </trkpt>
      <trkpt lat="43.76316" lon="4.83818">
        <ele>262</ele>
        <time>2010-12-04T09:24:26Z</time>
      </trkpt>
      <trkpt lat="43.76311" lon="4.83817">
        <ele>263</ele>
        <time>2010-12-04T09:24:32Z</time>
      </trkpt>
      <trkpt lat="43.76305" lon="4.83817">
        <ele>264</ele>
        <time>2010-12-04T09:24:38Z</time>
      </trkpt>
      <trkpt lat="43.763" lon="4.83816">
        <ele>266</ele>
        <time>2010-12-04T09:24:44Z</time>
      </trkpt>
      <trkpt lat="43.76295" lon="4.83818">
        <ele>267</ele>
        <time>2010-12-04T09:24:51Z</time>
      </trkpt>
      <trkpt lat="43.76289" lon="4.8382">
        <ele>267</ele>
        <time>2010-12-04T09:24:58Z</time>
      </trkpt>
      <trkpt lat="43.76283" lon="4.83823">
        <ele>269</ele>
        <time>2010-12-04T09:25:04Z</time>
      </trkpt>
      <trkpt lat="43.76276" lon="4.83826">
        <ele>270</ele>
        <time>2010-12-04T09:25:11Z</time>
      </trkpt>
      <trkpt lat="43.76272" lon="4.83826">
        <ele>270</ele>
        <time>2010-12-04T09:25:17Z</time>
      </trkpt>
      <trkpt lat="43.76266" lon="4.83829">
        <ele>271</ele>
        <time>2010-12-04T09:25:23Z</time>
      </trkpt>
      <trkpt lat="43.76262" lon="4.83831">
        <ele>272</ele>
        <time>2010-12-04T09:25:29Z</time>
      </trkpt>
      <trkpt lat="43.76254" lon="4.83836">
        <ele>274</ele>
        <time>2010-12-04T09:25:36Z</time>
      </trkpt>
      <trkpt lat="43.76249" lon="4.83838">
        <ele>276</ele>
        <time>2010-12-04T09:25:42Z</time>
      </trkpt>
      <trkpt lat="43.76244" lon="4.83841">
        <ele>277</ele>
        <time>2010-12-04T09:25:48Z</time>
      </trkpt>
      <trkpt lat="43.76239" lon="4.83844">
        <ele>278</ele>
        <time>2010-12-04T09:25:54Z</time>
      </trkpt>
      <trkpt lat="43.76233" lon="4.83847">
        <ele>279</ele>
        <time>2010-12-04T09:26:00Z</time>
      </trkpt>
      <trkpt lat="43.76226" lon="4.83848">
        <ele>281</ele>
        <time>2010-12-04T09:26:07Z</time>
      </trkpt>
      <trkpt lat="43.76218" lon="4.83849">
        <ele>282</ele>
        <time>2010-12-04T09:26:14Z</time>
      </trkpt>
      <trkpt lat="43.76216" lon="4.83853">
        <ele>283</ele>
        <time>2010-12-04T09:26:21Z</time>
      </trkpt>
      <trkpt lat="43.76214" lon="4.83856">
        <ele>283</ele>
        <time>2010-12-04T09:26:33Z</time>
      </trkpt>
      <trkpt lat="43.76212" lon="4.83862">
        <ele>283</ele>
        <time>2010-12-04T09:26:40Z</time>
      </trkpt>
      <trkpt lat="43.76208" lon="4.83868">
        <ele>283</ele>
        <time>2010-12-04T09:26:46Z</time>
      </trkpt>
      <trkpt lat="43.76204" lon="4.83873">
        <ele>283</ele>
        <time>2010-12-04T09:26:52Z</time>
      </trkpt>
      <trkpt lat="43.76199" lon="4.83876">
        <ele>283</ele>
        <time>2010-12-04T09:26:59Z</time>
      </trkpt>
      <trkpt lat="43.76194" lon="4.83879">
        <ele>283</ele>
        <time>2010-12-04T09:27:06Z</time>
      </trkpt>
      <trkpt lat="43.76191" lon="4.83882">
        <ele>283</ele>
        <time>2010-12-04T09:27:13Z</time>
      </trkpt>
      <trkpt lat="43.76186" lon="4.83886">
        <ele>281</ele>
        <time>2010-12-04T09:27:20Z</time>
      </trkpt>
      <trkpt lat="43.76181" lon="4.8389">
        <ele>279</ele>
        <time>2010-12-04T09:27:27Z</time>
      </trkpt>
      <trkpt lat="43.76175" lon="4.83899">
        <ele>278</ele>
        <time>2010-12-04T09:27:34Z</time>
      </trkpt>
      <trkpt lat="43.76168" lon="4.83903">
        <ele>277</ele>
        <time>2010-12-04T09:27:41Z</time>
      </trkpt>
      <trkpt lat="43.76163" lon="4.83907">
        <ele>276</ele>
        <time>2010-12-04T09:27:47Z</time>
      </trkpt>
      <trkpt lat="43.76158" lon="4.83912">
        <ele>276</ele>
        <time>2010-12-04T09:27:53Z</time>
      </trkpt>
      <trkpt lat="43.76152" lon="4.83916">
        <ele>276</ele>
        <time>2010-12-04T09:27:59Z</time>
      </trkpt>
      <trkpt lat="43.76145" lon="4.83923">
        <ele>276</ele>
        <time>2010-12-04T09:28:06Z</time>
      </trkpt>
      <trkpt lat="43.76139" lon="4.8393">
        <ele>276</ele>
        <time>2010-12-04T09:28:14Z</time>
      </trkpt>
      <trkpt lat="43.76135" lon="4.83934">
        <ele>276</ele>
        <time>2010-12-04T09:28:20Z</time>
      </trkpt>
      <trkpt lat="43.76131" lon="4.83939">
        <ele>276</ele>
        <time>2010-12-04T09:28:27Z</time>
      </trkpt>
      <trkpt lat="43.76127" lon="4.83944">
        <ele>276</ele>
        <time>2010-12-04T09:28:33Z</time>
      </trkpt>
      <trkpt lat="43.76126" lon="4.83949">
        <ele>276</ele>
        <time>2010-12-04T09:28:39Z</time>
      </trkpt>
      <trkpt lat="43.76123" lon="4.83956">
        <ele>278</ele>
        <time>2010-12-04T09:28:47Z</time>
      </trkpt>
      <trkpt lat="43.76118" lon="4.83962">
        <ele>280</ele>
        <time>2010-12-04T09:28:55Z</time>
      </trkpt>
      <trkpt lat="43.76117" lon="4.83968">
        <ele>281</ele>
        <time>2010-12-04T09:29:02Z</time>
      </trkpt>
      <trkpt lat="43.76115" lon="4.83973">
        <ele>282</ele>
        <time>2010-12-04T09:29:08Z</time>
      </trkpt>
      <trkpt lat="43.76114" lon="4.83979">
        <ele>284</ele>
        <time>2010-12-04T09:29:15Z</time>
      </trkpt>
      <trkpt lat="43.76111" lon="4.83984">
        <ele>286</ele>
        <time>2010-12-04T09:29:24Z</time>
      </trkpt>
      <trkpt lat="43.7611" lon="4.83987">
        <ele>288</ele>
        <time>2010-12-04T09:29:31Z</time>
      </trkpt>
      <trkpt lat="43.76107" lon="4.8399">
        <ele>289</ele>
        <time>2010-12-04T09:29:37Z</time>
      </trkpt>
      <trkpt lat="43.76104" lon="4.83994">
        <ele>290</ele>
        <time>2010-12-04T09:29:45Z</time>
      </trkpt>
      <trkpt lat="43.76103" lon="4.83999">
        <ele>293</ele>
        <time>2010-12-04T09:29:52Z</time>
      </trkpt>
      <trkpt lat="43.761" lon="4.84003">
        <ele>295</ele>
        <time>2010-12-04T09:29:58Z</time>
      </trkpt>
      <trkpt lat="43.76099" lon="4.84007">
        <ele>296</ele>
        <time>2010-12-04T09:30:04Z</time>
      </trkpt>
      <trkpt lat="43.76097" lon="4.84012">
        <ele>298</ele>
        <time>2010-12-04T09:30:11Z</time>
      </trkpt>
      <trkpt lat="43.76095" lon="4.84018">
        <ele>300</ele>
        <time>2010-12-04T09:30:19Z</time>
      </trkpt>
      <trkpt lat="43.76092" lon="4.84023">
        <ele>302</ele>
        <time>2010-12-04T09:30:26Z</time>
      </trkpt>
      <trkpt lat="43.76092" lon="4.84029">
        <ele>303</ele>
        <time>2010-12-04T09:30:32Z</time>
      </trkpt>
      <trkpt lat="43.76093" lon="4.84036">
        <ele>303</ele>
        <time>2010-12-04T09:30:38Z</time>
      </trkpt>
      <trkpt lat="43.76094" lon="4.84046">
        <ele>305</ele>
        <time>2010-12-04T09:30:45Z</time>
      </trkpt>
      <trkpt lat="43.76092" lon="4.84053">
        <ele>306</ele>
        <time>2010-12-04T09:30:51Z</time>
      </trkpt>
      <trkpt lat="43.76091" lon="4.84063">
        <ele>307</ele>
        <time>2010-12-04T09:30:59Z</time>
      </trkpt>
      <trkpt lat="43.7609" lon="4.8407">
        <ele>307</ele>
        <time>2010-12-04T09:31:05Z</time>
      </trkpt>
      <trkpt lat="43.7609" lon="4.84079">
        <ele>307</ele>
        <time>2010-12-04T09:31:12Z</time>
      </trkpt>
      <trkpt lat="43.7609" lon="4.84086">
        <ele>309</ele>
        <time>2010-12-04T09:31:21Z</time>
      </trkpt>
      <trkpt lat="43.76087" lon="4.84093">
        <ele>309</ele>
        <time>2010-12-04T09:31:27Z</time>
      </trkpt>
      <trkpt lat="43.76086" lon="4.84105">
        <ele>309</ele>
        <time>2010-12-04T09:31:34Z</time>
      </trkpt>
      <trkpt lat="43.76084" lon="4.84113">
        <ele>309</ele>
        <time>2010-12-04T09:31:41Z</time>
      </trkpt>
      <trkpt lat="43.76082" lon="4.84119">
        <ele>310</ele>
        <time>2010-12-04T09:31:47Z</time>
      </trkpt>
      <trkpt lat="43.76081" lon="4.84128">
        <ele>311</ele>
        <time>2010-12-04T09:31:54Z</time>
      </trkpt>
      <trkpt lat="43.76081" lon="4.84135">
        <ele>312</ele>
        <time>2010-12-04T09:32:00Z</time>
      </trkpt>
      <trkpt lat="43.76082" lon="4.84143">
        <ele>313</ele>
        <time>2010-12-04T09:32:07Z</time>
      </trkpt>
      <trkpt lat="43.76081" lon="4.84152">
        <ele>314</ele>
        <time>2010-12-04T09:32:14Z</time>
      </trkpt>
      <trkpt lat="43.76081" lon="4.84158">
        <ele>314</ele>
        <time>2010-12-04T09:32:20Z</time>
      </trkpt>
      <trkpt lat="43.76079" lon="4.84165">
        <ele>315</ele>
        <time>2010-12-04T09:32:26Z</time>
      </trkpt>
      <trkpt lat="43.76078" lon="4.84171">
        <ele>316</ele>
        <time>2010-12-04T09:32:32Z</time>
      </trkpt>
      <trkpt lat="43.76077" lon="4.84177">
        <ele>317</ele>
        <time>2010-12-04T09:32:39Z</time>
      </trkpt>
      <trkpt lat="43.76075" lon="4.84186">
        <ele>319</ele>
        <time>2010-12-04T09:32:45Z</time>
      </trkpt>
      <trkpt lat="43.76073" lon="4.84195">
        <ele>321</ele>
        <time>2010-12-04T09:32:51Z</time>
      </trkpt>
      <trkpt lat="43.76072" lon="4.84203">
        <ele>322</ele>
        <time>2010-12-04T09:32:57Z</time>
      </trkpt>
      <trkpt lat="43.76073" lon="4.84211">
        <ele>323</ele>
        <time>2010-12-04T09:33:03Z</time>
      </trkpt>
      <trkpt lat="43.76075" lon="4.8422">
        <ele>323</ele>
        <time>2010-12-04T09:33:10Z</time>
      </trkpt>
      <trkpt lat="43.76078" lon="4.84227">
        <ele>324</ele>
        <time>2010-12-04T09:33:16Z</time>
      </trkpt>
      <trkpt lat="43.76081" lon="4.84233">
        <ele>324</ele>
        <time>2010-12-04T09:33:22Z</time>
      </trkpt>
      <trkpt lat="43.76083" lon="4.8424">
        <ele>325</ele>
        <time>2010-12-04T09:33:28Z</time>
      </trkpt>
      <trkpt lat="43.76087" lon="4.84246">
        <ele>326</ele>
        <time>2010-12-04T09:33:34Z</time>
      </trkpt>
      <trkpt lat="43.7609" lon="4.84251">
        <ele>327</ele>
        <time>2010-12-04T09:33:40Z</time>
      </trkpt>
      <trkpt lat="43.76096" lon="4.84253">
        <ele>328</ele>
        <time>2010-12-04T09:33:48Z</time>
      </trkpt>
      <trkpt lat="43.761" lon="4.84255">
        <ele>328</ele>
        <time>2010-12-04T09:33:54Z</time>
      </trkpt>
      <trkpt lat="43.76104" lon="4.84258">
        <ele>329</ele>
        <time>2010-12-04T09:34:00Z</time>
      </trkpt>
      <trkpt lat="43.76107" lon="4.84262">
        <ele>331</ele>
        <time>2010-12-04T09:34:06Z</time>
      </trkpt>
      <trkpt lat="43.76111" lon="4.84264">
        <ele>333</ele>
        <time>2010-12-04T09:34:13Z</time>
      </trkpt>
      <trkpt lat="43.76115" lon="4.84268">
        <ele>335</ele>
        <time>2010-12-04T09:34:20Z</time>
      </trkpt>
      <trkpt lat="43.76119" lon="4.84271">
        <ele>336</ele>
        <time>2010-12-04T09:34:27Z</time>
      </trkpt>
      <trkpt lat="43.76123" lon="4.84273">
        <ele>337</ele>
        <time>2010-12-04T09:34:33Z</time>
      </trkpt>
      <trkpt lat="43.76128" lon="4.84279">
        <ele>338</ele>
        <time>2010-12-04T09:34:41Z</time>
      </trkpt>
      <trkpt lat="43.76132" lon="4.84282">
        <ele>339</ele>
        <time>2010-12-04T09:34:48Z</time>
      </trkpt>
      <trkpt lat="43.76137" lon="4.84285">
        <ele>341</ele>
        <time>2010-12-04T09:34:57Z</time>
      </trkpt>
      <trkpt lat="43.76137" lon="4.84285">
        <ele>344</ele>
        <time>2010-12-04T09:35:22Z</time>
      </trkpt>
      <trkpt lat="43.76137" lon="4.84286">
        <ele>346</ele>
        <time>2010-12-04T09:35:50Z</time>
      </trkpt>
      <trkpt lat="43.76137" lon="4.84288">
        <ele>346</ele>
        <time>2010-12-04T09:35:58Z</time>
      </trkpt>
      <trkpt lat="43.76136" lon="4.84287">
        <ele>346</ele>
        <time>2010-12-04T09:36:05Z</time>
      </trkpt>
      <trkpt lat="43.76134" lon="4.84288">
        <ele>348</ele>
        <time>2010-12-04T09:36:20Z</time>
      </trkpt>
      <trkpt lat="43.76135" lon="4.84287">
        <ele>348</ele>
        <time>2010-12-04T09:36:42Z</time>
      </trkpt>
      <trkpt lat="43.76136" lon="4.84285">
        <ele>349</ele>
        <time>2010-12-04T09:36:59Z</time>
      </trkpt>
      <trkpt lat="43.76136" lon="4.84284">
        <ele>349</ele>
        <time>2010-12-04T09:37:10Z</time>
      </trkpt>
      <trkpt lat="43.76141" lon="4.84282">
        <ele>349</ele>
        <time>2010-12-04T09:37:17Z</time>
      </trkpt>
      <trkpt lat="43.76146" lon="4.84285">
        <ele>349</ele>
        <time>2010-12-04T09:37:23Z</time>
      </trkpt>
      <trkpt lat="43.76149" lon="4.84288">
        <ele>349</ele>
        <time>2010-12-04T09:37:29Z</time>
      </trkpt>
      <trkpt lat="43.76153" lon="4.84288">
        <ele>348</ele>
        <time>2010-12-04T09:37:35Z</time>
      </trkpt>
      <trkpt lat="43.76157" lon="4.84287">
        <ele>346</ele>
        <time>2010-12-04T09:37:41Z</time>
      </trkpt>
      <trkpt lat="43.76163" lon="4.84288">
        <ele>343</ele>
        <time>2010-12-04T09:37:48Z</time>
      </trkpt>
      <trkpt lat="43.76167" lon="4.84288">
        <ele>341</ele>
        <time>2010-12-04T09:37:55Z</time>
      </trkpt>
      <trkpt lat="43.76171" lon="4.84292">
        <ele>338</ele>
        <time>2010-12-04T09:38:03Z</time>
      </trkpt>
      <trkpt lat="43.76176" lon="4.84289">
        <ele>337</ele>
        <time>2010-12-04T09:38:10Z</time>
      </trkpt>
      <trkpt lat="43.76183" lon="4.8429">
        <ele>335</ele>
        <time>2010-12-04T09:38:16Z</time>
      </trkpt>
      <trkpt lat="43.76188" lon="4.84292">
        <ele>333</ele>
        <time>2010-12-04T09:38:22Z</time>
      </trkpt>
      <trkpt lat="43.76192" lon="4.84293">
        <ele>330</ele>
        <time>2010-12-04T09:38:28Z</time>
      </trkpt>
      <trkpt lat="43.76198" lon="4.84295">
        <ele>328</ele>
        <time>2010-12-04T09:38:34Z</time>
      </trkpt>
      <trkpt lat="43.76205" lon="4.84296">
        <ele>326</ele>
        <time>2010-12-04T09:38:40Z</time>
      </trkpt>
      <trkpt lat="43.76213" lon="4.84299">
        <ele>324</ele>
        <time>2010-12-04T09:38:47Z</time>
      </trkpt>
      <trkpt lat="43.76221" lon="4.84301">
        <ele>322</ele>
        <time>2010-12-04T09:38:53Z</time>
      </trkpt>
      <trkpt lat="43.7623" lon="4.84305">
        <ele>321</ele>
        <time>2010-12-04T09:39:00Z</time>
      </trkpt>
      <trkpt lat="43.76238" lon="4.84308">
        <ele>321</ele>
        <time>2010-12-04T09:39:07Z</time>
      </trkpt>
      <trkpt lat="43.76242" lon="4.84314">
        <ele>321</ele>
        <time>2010-12-04T09:39:13Z</time>
      </trkpt>
      <trkpt lat="43.76244" lon="4.84318">
        <ele>320</ele>
        <time>2010-12-04T09:39:19Z</time>
      </trkpt>
      <trkpt lat="43.76246" lon="4.84323">
        <ele>320</ele>
        <time>2010-12-04T09:39:25Z</time>
      </trkpt>
      <trkpt lat="43.7625" lon="4.84331">
        <ele>318</ele>
        <time>2010-12-04T09:39:32Z</time>
      </trkpt>
      <trkpt lat="43.76255" lon="4.84341">
        <ele>317</ele>
        <time>2010-12-04T09:39:39Z</time>
      </trkpt>
      <trkpt lat="43.76257" lon="4.84346">
        <ele>316</ele>
        <time>2010-12-04T09:39:45Z</time>
      </trkpt>
      <trkpt lat="43.7626" lon="4.8435">
        <ele>315</ele>
        <time>2010-12-04T09:39:51Z</time>
      </trkpt>
      <trkpt lat="43.76261" lon="4.84352">
        <ele>315</ele>
        <time>2010-12-04T09:40:02Z</time>
      </trkpt>
      <trkpt lat="43.76263" lon="4.84357">
        <ele>315</ele>
        <time>2010-12-04T09:40:09Z</time>
      </trkpt>
      <trkpt lat="43.76267" lon="4.84363">
        <ele>315</ele>
        <time>2010-12-04T09:40:15Z</time>
      </trkpt>
      <trkpt lat="43.76268" lon="4.84372">
        <ele>315</ele>
        <time>2010-12-04T09:40:22Z</time>
      </trkpt>
      <trkpt lat="43.76272" lon="4.84375">
        <ele>315</ele>
        <time>2010-12-04T09:40:29Z</time>
      </trkpt>
      <trkpt lat="43.76276" lon="4.8438">
        <ele>315</ele>
        <time>2010-12-04T09:40:35Z</time>
      </trkpt>
      <trkpt lat="43.76279" lon="4.84378">
        <ele>315</ele>
        <time>2010-12-04T09:40:44Z</time>
      </trkpt>
      <trkpt lat="43.76281" lon="4.84377">
        <ele>315</ele>
        <time>2010-12-04T09:40:52Z</time>
      </trkpt>
      <trkpt lat="43.76283" lon="4.84376">
        <ele>315</ele>
        <time>2010-12-04T09:41:07Z</time>
      </trkpt>
      <trkpt lat="43.76286" lon="4.84378">
        <ele>315</ele>
        <time>2010-12-04T09:41:22Z</time>
      </trkpt>
      <trkpt lat="43.76287" lon="4.84378">
        <ele>315</ele>
        <time>2010-12-04T09:41:33Z</time>
      </trkpt>
      <trkpt lat="43.76289" lon="4.84381">
        <ele>314</ele>
        <time>2010-12-04T09:41:44Z</time>
      </trkpt>
      <trkpt lat="43.76288" lon="4.84379">
        <ele>314</ele>
        <time>2010-12-04T09:41:56Z</time>
      </trkpt>
      <trkpt lat="43.76284" lon="4.84377">
        <ele>314</ele>
        <time>2010-12-04T09:42:54Z</time>
      </trkpt>
      <trkpt lat="43.76283" lon="4.84379">
        <ele>314</ele>
        <time>2010-12-04T09:43:10Z</time>
      </trkpt>
      <trkpt lat="43.76282" lon="4.8438">
        <ele>314</ele>
        <time>2010-12-04T09:43:23Z</time>
      </trkpt>
      <trkpt lat="43.76281" lon="4.84379">
        <ele>314</ele>
        <time>2010-12-04T09:44:09Z</time>
      </trkpt>
      <trkpt lat="43.76282" lon="4.84379">
        <ele>314</ele>
        <time>2010-12-04T09:44:22Z</time>
      </trkpt>
      <trkpt lat="43.76283" lon="4.84378">
        <ele>314</ele>
        <time>2010-12-04T09:44:46Z</time>
      </trkpt>
      <trkpt lat="43.76285" lon="4.84378">
        <ele>314</ele>
        <time>2010-12-04T09:45:08Z</time>
      </trkpt>
      <trkpt lat="43.7628" lon="4.84378">
        <ele>314</ele>
        <time>2010-12-04T09:45:17Z</time>
      </trkpt>
      <trkpt lat="43.76275" lon="4.84379">
        <ele>314</ele>
        <time>2010-12-04T09:45:24Z</time>
      </trkpt>
      <trkpt lat="43.76271" lon="4.84376">
        <ele>314</ele>
        <time>2010-12-04T09:45:31Z</time>
      </trkpt>
      <trkpt lat="43.76267" lon="4.84369">
        <ele>314</ele>
        <time>2010-12-04T09:45:38Z</time>
      </trkpt>
      <trkpt lat="43.76263" lon="4.84361">
        <ele>314</ele>
        <time>2010-12-04T09:45:45Z</time>
      </trkpt>
      <trkpt lat="43.76259" lon="4.84354">
        <ele>314</ele>
        <time>2010-12-04T09:45:51Z</time>
      </trkpt>
      <trkpt lat="43.76255" lon="4.84347">
        <ele>314</ele>
        <time>2010-12-04T09:45:57Z</time>
      </trkpt>
      <trkpt lat="43.7625" lon="4.8434">
        <ele>314</ele>
        <time>2010-12-04T09:46:03Z</time>
      </trkpt>
      <trkpt lat="43.76244" lon="4.84336">
        <ele>314</ele>
        <time>2010-12-04T09:46:09Z</time>
      </trkpt>
      <trkpt lat="43.76237" lon="4.84331">
        <ele>314</ele>
        <time>2010-12-04T09:46:15Z</time>
      </trkpt>
      <trkpt lat="43.7623" lon="4.84328">
        <ele>314</ele>
        <time>2010-12-04T09:46:21Z</time>
      </trkpt>
      <trkpt lat="43.76222" lon="4.84324">
        <ele>314</ele>
        <time>2010-12-04T09:46:27Z</time>
      </trkpt>
      <trkpt lat="43.76214" lon="4.84324">
        <ele>314</ele>
        <time>2010-12-04T09:46:33Z</time>
      </trkpt>
      <trkpt lat="43.76207" lon="4.84327">
        <ele>314</ele>
        <time>2010-12-04T09:46:39Z</time>
      </trkpt>
      <trkpt lat="43.76198" lon="4.84334">
        <ele>314</ele>
        <time>2010-12-04T09:46:46Z</time>
      </trkpt>
      <trkpt lat="43.76192" lon="4.84339">
        <ele>314</ele>
        <time>2010-12-04T09:46:52Z</time>
      </trkpt>
      <trkpt lat="43.76185" lon="4.84346">
        <ele>314</ele>
        <time>2010-12-04T09:46:59Z</time>
      </trkpt>
      <trkpt lat="43.76178" lon="4.84354">
        <ele>313</ele>
        <time>2010-12-04T09:47:07Z</time>
      </trkpt>
      <trkpt lat="43.76171" lon="4.84363">
        <ele>313</ele>
        <time>2010-12-04T09:47:14Z</time>
      </trkpt>
      <trkpt lat="43.76166" lon="4.8437">
        <ele>311</ele>
        <time>2010-12-04T09:47:21Z</time>
      </trkpt>
      <trkpt lat="43.76162" lon="4.84381">
        <ele>311</ele>
        <time>2010-12-04T09:47:28Z</time>
      </trkpt>
      <trkpt lat="43.76156" lon="4.84387">
        <ele>311</ele>
        <time>2010-12-04T09:47:34Z</time>
      </trkpt>
      <trkpt lat="43.7615" lon="4.8439">
        <ele>311</ele>
        <time>2010-12-04T09:47:40Z</time>
      </trkpt>
      <trkpt lat="43.76143" lon="4.84391">
        <ele>311</ele>
        <time>2010-12-04T09:47:46Z</time>
      </trkpt>
      <trkpt lat="43.76136" lon="4.8439">
        <ele>310</ele>
        <time>2010-12-04T09:47:52Z</time>
      </trkpt>
      <trkpt lat="43.76129" lon="4.84392">
        <ele>310</ele>
        <time>2010-12-04T09:47:58Z</time>
      </trkpt>
      <trkpt lat="43.76122" lon="4.84391">
        <ele>309</ele>
        <time>2010-12-04T09:48:04Z</time>
      </trkpt>
      <trkpt lat="43.76114" lon="4.84391">
        <ele>308</ele>
        <time>2010-12-04T09:48:10Z</time>
      </trkpt>
      <trkpt lat="43.76105" lon="4.84389">
        <ele>308</ele>
        <time>2010-12-04T09:48:17Z</time>
      </trkpt>
      <trkpt lat="43.76098" lon="4.84388">
        <ele>308</ele>
        <time>2010-12-04T09:48:23Z</time>
      </trkpt>
      <trkpt lat="43.7609" lon="4.84391">
        <ele>307</ele>
        <time>2010-12-04T09:48:30Z</time>
      </trkpt>
      <trkpt lat="43.76085" lon="4.844">
        <ele>306</ele>
        <time>2010-12-04T09:48:37Z</time>
      </trkpt>
      <trkpt lat="43.76079" lon="4.8441">
        <ele>306</ele>
        <time>2010-12-04T09:48:44Z</time>
      </trkpt>
      <trkpt lat="43.76074" lon="4.84419">
        <ele>306</ele>
        <time>2010-12-04T09:48:51Z</time>
      </trkpt>
      <trkpt lat="43.76069" lon="4.84427">
        <ele>306</ele>
        <time>2010-12-04T09:48:57Z</time>
      </trkpt>
      <trkpt lat="43.76061" lon="4.84433">
        <ele>306</ele>
        <time>2010-12-04T09:49:04Z</time>
      </trkpt>
      <trkpt lat="43.76053" lon="4.84434">
        <ele>305</ele>
        <time>2010-12-04T09:49:10Z</time>
      </trkpt>
      <trkpt lat="43.76046" lon="4.84434">
        <ele>304</ele>
        <time>2010-12-04T09:49:16Z</time>
      </trkpt>
      <trkpt lat="43.76038" lon="4.84433">
        <ele>304</ele>
        <time>2010-12-04T09:49:22Z</time>
      </trkpt>
      <trkpt lat="43.7603" lon="4.84432">
        <ele>304</ele>
        <time>2010-12-04T09:49:29Z</time>
      </trkpt>
      <trkpt lat="43.76022" lon="4.84431">
        <ele>303</ele>
        <time>2010-12-04T09:49:35Z</time>
      </trkpt>
      <trkpt lat="43.76014" lon="4.84431">
        <ele>303</ele>
        <time>2010-12-04T09:49:41Z</time>
      </trkpt>
      <trkpt lat="43.76007" lon="4.84432">
        <ele>302</ele>
        <time>2010-12-04T09:49:47Z</time>
      </trkpt>
      <trkpt lat="43.76" lon="4.84438">
        <ele>299</ele>
        <time>2010-12-04T09:49:54Z</time>
      </trkpt>
      <trkpt lat="43.75994" lon="4.84447">
        <ele>299</ele>
        <time>2010-12-04T09:50:00Z</time>
      </trkpt>
      <trkpt lat="43.75989" lon="4.84456">
        <ele>299</ele>
        <time>2010-12-04T09:50:06Z</time>
      </trkpt>
      <trkpt lat="43.75983" lon="4.84464">
        <ele>299</ele>
        <time>2010-12-04T09:50:12Z</time>
      </trkpt>
      <trkpt lat="43.75978" lon="4.84472">
        <ele>299</ele>
        <time>2010-12-04T09:50:18Z</time>
      </trkpt>
      <trkpt lat="43.75974" lon="4.84481">
        <ele>299</ele>
        <time>2010-12-04T09:50:24Z</time>
      </trkpt>
      <trkpt lat="43.75971" lon="4.84492">
        <ele>299</ele>
        <time>2010-12-04T09:50:30Z</time>
      </trkpt>
      <trkpt lat="43.75967" lon="4.84502">
        <ele>299</ele>
        <time>2010-12-04T09:50:36Z</time>
      </trkpt>
      <trkpt lat="43.75964" lon="4.84515">
        <ele>299</ele>
        <time>2010-12-04T09:50:42Z</time>
      </trkpt>
      <trkpt lat="43.7596" lon="4.84524">
        <ele>299</ele>
        <time>2010-12-04T09:50:48Z</time>
      </trkpt>
      <trkpt lat="43.75957" lon="4.84534">
        <ele>299</ele>
        <time>2010-12-04T09:50:54Z</time>
      </trkpt>
      <trkpt lat="43.75957" lon="4.84545">
        <ele>298</ele>
        <time>2010-12-04T09:51:01Z</time>
      </trkpt>
      <trkpt lat="43.75958" lon="4.84555">
        <ele>298</ele>
        <time>2010-12-04T09:51:07Z</time>
      </trkpt>
      <trkpt lat="43.75958" lon="4.84565">
        <ele>298</ele>
        <time>2010-12-04T09:51:14Z</time>
      </trkpt>
      <trkpt lat="43.75961" lon="4.84573">
        <ele>298</ele>
        <time>2010-12-04T09:51:21Z</time>
      </trkpt>
      <trkpt lat="43.75964" lon="4.8458">
        <ele>298</ele>
        <time>2010-12-04T09:51:27Z</time>
      </trkpt>
      <trkpt lat="43.75965" lon="4.84588">
        <ele>298</ele>
        <time>2010-12-04T09:51:34Z</time>
      </trkpt>
      <trkpt lat="43.75965" lon="4.84597">
        <ele>298</ele>
        <time>2010-12-04T09:51:40Z</time>
      </trkpt>
      <trkpt lat="43.75964" lon="4.84608">
        <ele>298</ele>
        <time>2010-12-04T09:51:47Z</time>
      </trkpt>
      <trkpt lat="43.75967" lon="4.84613">
        <ele>298</ele>
        <time>2010-12-04T09:51:54Z</time>
      </trkpt>
      <trkpt lat="43.75968" lon="4.84616">
        <ele>298</ele>
        <time>2010-12-04T09:52:00Z</time>
      </trkpt>
      <trkpt lat="43.75965" lon="4.84622">
        <ele>298</ele>
        <time>2010-12-04T09:52:06Z</time>
      </trkpt>
      <trkpt lat="43.75963" lon="4.84629">
        <ele>298</ele>
        <time>2010-12-04T09:52:12Z</time>
      </trkpt>
      <trkpt lat="43.75959" lon="4.84637">
        <ele>298</ele>
        <time>2010-12-04T09:52:18Z</time>
      </trkpt>
      <trkpt lat="43.75958" lon="4.84645">
        <ele>296</ele>
        <time>2010-12-04T09:52:24Z</time>
      </trkpt>
      <trkpt lat="43.75959" lon="4.8465">
        <ele>294</ele>
        <time>2010-12-04T09:52:30Z</time>
      </trkpt>
      <trkpt lat="43.75956" lon="4.84655">
        <ele>292</ele>
        <time>2010-12-04T09:52:36Z</time>
      </trkpt>
      <trkpt lat="43.75948" lon="4.84657">
        <ele>292</ele>
        <time>2010-12-04T09:52:42Z</time>
      </trkpt>
      <trkpt lat="43.75943" lon="4.84664">
        <ele>292</ele>
        <time>2010-12-04T09:52:49Z</time>
      </trkpt>
      <trkpt lat="43.75941" lon="4.84673">
        <ele>292</ele>
        <time>2010-12-04T09:52:55Z</time>
      </trkpt>
      <trkpt lat="43.75938" lon="4.84681">
        <ele>292</ele>
        <time>2010-12-04T09:53:01Z</time>
      </trkpt>
      <trkpt lat="43.75936" lon="4.84689">
        <ele>292</ele>
        <time>2010-12-04T09:53:07Z</time>
      </trkpt>
      <trkpt lat="43.75933" lon="4.84697">
        <ele>292</ele>
        <time>2010-12-04T09:53:13Z</time>
      </trkpt>
      <trkpt lat="43.7593" lon="4.84706">
        <ele>292</ele>
        <time>2010-12-04T09:53:20Z</time>
      </trkpt>
      <trkpt lat="43.75927" lon="4.84715">
        <ele>292</ele>
        <time>2010-12-04T09:53:26Z</time>
      </trkpt>
      <trkpt lat="43.75924" lon="4.84723">
        <ele>292</ele>
        <time>2010-12-04T09:53:32Z</time>
      </trkpt>
      <trkpt lat="43.7592" lon="4.84732">
        <ele>293</ele>
        <time>2010-12-04T09:53:39Z</time>
      </trkpt>
      <trkpt lat="43.75917" lon="4.84738">
        <ele>293</ele>
        <time>2010-12-04T09:53:45Z</time>
      </trkpt>
      <trkpt lat="43.75914" lon="4.84747">
        <ele>293</ele>
        <time>2010-12-04T09:53:51Z</time>
      </trkpt>
      <trkpt lat="43.75911" lon="4.84755">
        <ele>294</ele>
        <time>2010-12-04T09:53:57Z</time>
      </trkpt>
      <trkpt lat="43.75908" lon="4.84763">
        <ele>295</ele>
        <time>2010-12-04T09:54:03Z</time>
      </trkpt>
      <trkpt lat="43.75904" lon="4.84771">
        <ele>295</ele>
        <time>2010-12-04T09:54:10Z</time>
      </trkpt>
      <trkpt lat="43.75901" lon="4.84781">
        <ele>296</ele>
        <time>2010-12-04T09:54:17Z</time>
      </trkpt>
      <trkpt lat="43.75898" lon="4.8479">
        <ele>298</ele>
        <time>2010-12-04T09:54:23Z</time>
      </trkpt>
      <trkpt lat="43.75895" lon="4.84799">
        <ele>298</ele>
        <time>2010-12-04T09:54:29Z</time>
      </trkpt>
      <trkpt lat="43.75893" lon="4.84807">
        <ele>298</ele>
        <time>2010-12-04T09:54:35Z</time>
      </trkpt>
      <trkpt lat="43.75893" lon="4.84816">
        <ele>299</ele>
        <time>2010-12-04T09:54:41Z</time>
      </trkpt>
      <trkpt lat="43.7589" lon="4.84825">
        <ele>300</ele>
        <time>2010-12-04T09:54:47Z</time>
      </trkpt>
      <trkpt lat="43.75888" lon="4.84836">
        <ele>301</ele>
        <time>2010-12-04T09:54:53Z</time>
      </trkpt>
      <trkpt lat="43.75887" lon="4.84846">
        <ele>303</ele>
        <time>2010-12-04T09:54:59Z</time>
      </trkpt>
      <trkpt lat="43.75886" lon="4.84855">
        <ele>304</ele>
        <time>2010-12-04T09:55:05Z</time>
      </trkpt>
      <trkpt lat="43.75885" lon="4.84864">
        <ele>304</ele>
        <time>2010-12-04T09:55:11Z</time>
      </trkpt>
      <trkpt lat="43.75885" lon="4.84873">
        <ele>304</ele>
        <time>2010-12-04T09:55:17Z</time>
      </trkpt>
      <trkpt lat="43.75885" lon="4.84882">
        <ele>304</ele>
        <time>2010-12-04T09:55:23Z</time>
      </trkpt>
      <trkpt lat="43.75885" lon="4.84893">
        <ele>304</ele>
        <time>2010-12-04T09:55:29Z</time>
      </trkpt>
      <trkpt lat="43.75885" lon="4.84902">
        <ele>304</ele>
        <time>2010-12-04T09:55:35Z</time>
      </trkpt>
      <trkpt lat="43.75885" lon="4.84912">
        <ele>305</ele>
        <time>2010-12-04T09:55:41Z</time>
      </trkpt>
      <trkpt lat="43.75886" lon="4.84922">
        <ele>305</ele>
        <time>2010-12-04T09:55:47Z</time>
      </trkpt>
      <trkpt lat="43.75886" lon="4.84931">
        <ele>306</ele>
        <time>2010-12-04T09:55:53Z</time>
      </trkpt>
      <trkpt lat="43.75887" lon="4.84941">
        <ele>307</ele>
        <time>2010-12-04T09:55:59Z</time>
      </trkpt>
      <trkpt lat="43.75888" lon="4.84951">
        <ele>308</ele>
        <time>2010-12-04T09:56:05Z</time>
      </trkpt>
      <trkpt lat="43.7589" lon="4.8496">
        <ele>308</ele>
        <time>2010-12-04T09:56:11Z</time>
      </trkpt>
      <trkpt lat="43.7589" lon="4.84969">
        <ele>309</ele>
        <time>2010-12-04T09:56:17Z</time>
      </trkpt>
      <trkpt lat="43.75892" lon="4.84979">
        <ele>309</ele>
        <time>2010-12-04T09:56:23Z</time>
      </trkpt>
      <trkpt lat="43.75893" lon="4.84988">
        <ele>309</ele>
        <time>2010-12-04T09:56:29Z</time>
      </trkpt>
      <trkpt lat="43.75894" lon="4.84998">
        <ele>311</ele>
        <time>2010-12-04T09:56:35Z</time>
      </trkpt>
      <trkpt lat="43.75896" lon="4.85007">
        <ele>313</ele>
        <time>2010-12-04T09:56:41Z</time>
      </trkpt>
      <trkpt lat="43.75897" lon="4.85016">
        <ele>314</ele>
        <time>2010-12-04T09:56:47Z</time>
      </trkpt>
      <trkpt lat="43.75899" lon="4.85026">
        <ele>314</ele>
        <time>2010-12-04T09:56:53Z</time>
      </trkpt>
      <trkpt lat="43.75902" lon="4.85035">
        <ele>314</ele>
        <time>2010-12-04T09:56:59Z</time>
      </trkpt>
      <trkpt lat="43.75906" lon="4.85044">
        <ele>314</ele>
        <time>2010-12-04T09:57:05Z</time>
      </trkpt>
      <trkpt lat="43.7591" lon="4.85053">
        <ele>314</ele>
        <time>2010-12-04T09:57:11Z</time>
      </trkpt>
      <trkpt lat="43.75914" lon="4.8506">
        <ele>316</ele>
        <time>2010-12-04T09:57:17Z</time>
      </trkpt>
      <trkpt lat="43.75918" lon="4.85067">
        <ele>318</ele>
        <time>2010-12-04T09:57:23Z</time>
      </trkpt>
      <trkpt lat="43.75921" lon="4.85074">
        <ele>321</ele>
        <time>2010-12-04T09:57:29Z</time>
      </trkpt>
      <trkpt lat="43.75925" lon="4.85081">
        <ele>323</ele>
        <time>2010-12-04T09:57:35Z</time>
      </trkpt>
      <trkpt lat="43.7593" lon="4.85089">
        <ele>323</ele>
        <time>2010-12-04T09:57:41Z</time>
      </trkpt>
      <trkpt lat="43.75935" lon="4.85097">
        <ele>323</ele>
        <time>2010-12-04T09:57:47Z</time>
      </trkpt>
      <trkpt lat="43.75939" lon="4.85105">
        <ele>323</ele>
        <time>2010-12-04T09:57:53Z</time>
      </trkpt>
      <trkpt lat="43.75944" lon="4.85112">
        <ele>323</ele>
        <time>2010-12-04T09:57:59Z</time>
      </trkpt>
      <trkpt lat="43.75948" lon="4.8512">
        <ele>323</ele>
        <time>2010-12-04T09:58:05Z</time>
      </trkpt>
      <trkpt lat="43.75953" lon="4.85127">
        <ele>323</ele>
        <time>2010-12-04T09:58:11Z</time>
      </trkpt>
      <trkpt lat="43.75957" lon="4.85134">
        <ele>324</ele>
        <time>2010-12-04T09:58:17Z</time>
      </trkpt>
      <trkpt lat="43.7596" lon="4.85141">
        <ele>324</ele>
        <time>2010-12-04T09:58:23Z</time>
      </trkpt>
      <trkpt lat="43.75965" lon="4.8515">
        <ele>325</ele>
        <time>2010-12-04T09:58:30Z</time>
      </trkpt>
      <trkpt lat="43.75969" lon="4.85158">
        <ele>326</ele>
        <time>2010-12-04T09:58:36Z</time>
      </trkpt>
      <trkpt lat="43.75973" lon="4.85167">
        <ele>327</ele>
        <time>2010-12-04T09:58:42Z</time>
      </trkpt>
      <trkpt lat="43.75976" lon="4.85176">
        <ele>328</ele>
        <time>2010-12-04T09:58:49Z</time>
      </trkpt>
      <trkpt lat="43.7598" lon="4.85182">
        <ele>330</ele>
        <time>2010-12-04T09:58:55Z</time>
      </trkpt>
      <trkpt lat="43.75984" lon="4.85187">
        <ele>331</ele>
        <time>2010-12-04T09:59:01Z</time>
      </trkpt>
      <trkpt lat="43.75986" lon="4.85192">
        <ele>333</ele>
        <time>2010-12-04T09:59:08Z</time>
      </trkpt>
      <trkpt lat="43.75985" lon="4.85196">
        <ele>334</ele>
        <time>2010-12-04T09:59:15Z</time>
      </trkpt>
      <trkpt lat="43.75982" lon="4.852">
        <ele>336</ele>
        <time>2010-12-04T09:59:21Z</time>
      </trkpt>
      <trkpt lat="43.75981" lon="4.85205">
        <ele>338</ele>
        <time>2010-12-04T09:59:28Z</time>
      </trkpt>
      <trkpt lat="43.7598" lon="4.85207">
        <ele>338</ele>
        <time>2010-12-04T09:59:35Z</time>
      </trkpt>
      <trkpt lat="43.7598" lon="4.85211">
        <ele>338</ele>
        <time>2010-12-04T09:59:43Z</time>
      </trkpt>
      <trkpt lat="43.75979" lon="4.85216">
        <ele>338</ele>
        <time>2010-12-04T09:59:52Z</time>
      </trkpt>
      <trkpt lat="43.75977" lon="4.8522">
        <ele>338</ele>
        <time>2010-12-04T09:59:59Z</time>
      </trkpt>
      <trkpt lat="43.75978" lon="4.85223">
        <ele>338</ele>
        <time>2010-12-04T10:00:05Z</time>
      </trkpt>
      <trkpt lat="43.75976" lon="4.85228">
        <ele>340</ele>
        <time>2010-12-04T10:00:13Z</time>
      </trkpt>
      <trkpt lat="43.75974" lon="4.85233">
        <ele>344</ele>
        <time>2010-12-04T10:00:22Z</time>
      </trkpt>
      <trkpt lat="43.75973" lon="4.85237">
        <ele>346</ele>
        <time>2010-12-04T10:00:28Z</time>
      </trkpt>
      <trkpt lat="43.7597" lon="4.85241">
        <ele>349</ele>
        <time>2010-12-04T10:00:36Z</time>
      </trkpt>
      <trkpt lat="43.75969" lon="4.85246">
        <ele>353</ele>
        <time>2010-12-04T10:00:44Z</time>
      </trkpt>
      <trkpt lat="43.75967" lon="4.85249">
        <ele>353</ele>
        <time>2010-12-04T10:00:50Z</time>
      </trkpt>
      <trkpt lat="43.75964" lon="4.85253">
        <ele>353</ele>
        <time>2010-12-04T10:00:57Z</time>
      </trkpt>
      <trkpt lat="43.75962" lon="4.85257">
        <ele>353</ele>
        <time>2010-12-04T10:01:04Z</time>
      </trkpt>
      <trkpt lat="43.75959" lon="4.85259">
        <ele>356</ele>
        <time>2010-12-04T10:01:10Z</time>
      </trkpt>
      <trkpt lat="43.75957" lon="4.85262">
        <ele>358</ele>
        <time>2010-12-04T10:01:16Z</time>
      </trkpt>
      <trkpt lat="43.75955" lon="4.85266">
        <ele>359</ele>
        <time>2010-12-04T10:01:22Z</time>
      </trkpt>
      <trkpt lat="43.75954" lon="4.8527">
        <ele>361</ele>
        <time>2010-12-04T10:01:28Z</time>
      </trkpt>
      <trkpt lat="43.75951" lon="4.85273">
        <ele>364</ele>
        <time>2010-12-04T10:01:35Z</time>
      </trkpt>
      <trkpt lat="43.75949" lon="4.85276">
        <ele>366</ele>
        <time>2010-12-04T10:01:41Z</time>
      </trkpt>
      <trkpt lat="43.75948" lon="4.85281">
        <ele>366</ele>
        <time>2010-12-04T10:01:48Z</time>
      </trkpt>
      <trkpt lat="43.75945" lon="4.85286">
        <ele>366</ele>
        <time>2010-12-04T10:01:56Z</time>
      </trkpt>
      <trkpt lat="43.75942" lon="4.85291">
        <ele>366</ele>
        <time>2010-12-04T10:02:03Z</time>
      </trkpt>
      <trkpt lat="43.75938" lon="4.85294">
        <ele>366</ele>
        <time>2010-12-04T10:02:11Z</time>
      </trkpt>
      <trkpt lat="43.75933" lon="4.85295">
        <ele>366</ele>
        <time>2010-12-04T10:02:17Z</time>
      </trkpt>
      <trkpt lat="43.75929" lon="4.85298">
        <ele>369</ele>
        <time>2010-12-04T10:02:23Z</time>
      </trkpt>
      <trkpt lat="43.75927" lon="4.85303">
        <ele>371</ele>
        <time>2010-12-04T10:02:29Z</time>
      </trkpt>
      <trkpt lat="43.75924" lon="4.85307">
        <ele>371</ele>
        <time>2010-12-04T10:02:36Z</time>
      </trkpt>
      <trkpt lat="43.75919" lon="4.85307">
        <ele>371</ele>
        <time>2010-12-04T10:02:43Z</time>
      </trkpt>
      <trkpt lat="43.75915" lon="4.85306">
        <ele>371</ele>
        <time>2010-12-04T10:02:49Z</time>
      </trkpt>
      <trkpt lat="43.75911" lon="4.85307">
        <ele>372</ele>
        <time>2010-12-04T10:02:55Z</time>
      </trkpt>
      <trkpt lat="43.75906" lon="4.8531">
        <ele>373</ele>
        <time>2010-12-04T10:03:01Z</time>
      </trkpt>
      <trkpt lat="43.759" lon="4.85314">
        <ele>374</ele>
        <time>2010-12-04T10:03:07Z</time>
      </trkpt>
      <trkpt lat="43.75896" lon="4.8532">
        <ele>375</ele>
        <time>2010-12-04T10:03:13Z</time>
      </trkpt>
      <trkpt lat="43.75894" lon="4.85327">
        <ele>375</ele>
        <time>2010-12-04T10:03:19Z</time>
      </trkpt>
      <trkpt lat="43.75892" lon="4.85337">
        <ele>375</ele>
        <time>2010-12-04T10:03:26Z</time>
      </trkpt>
      <trkpt lat="43.7589" lon="4.85346">
        <ele>375</ele>
        <time>2010-12-04T10:03:32Z</time>
      </trkpt>
      <trkpt lat="43.7589" lon="4.85355">
        <ele>375</ele>
        <time>2010-12-04T10:03:39Z</time>
      </trkpt>
      <trkpt lat="43.75892" lon="4.85364">
        <ele>375</ele>
        <time>2010-12-04T10:03:45Z</time>
      </trkpt>
      <trkpt lat="43.75895" lon="4.85373">
        <ele>376</ele>
        <time>2010-12-04T10:03:53Z</time>
      </trkpt>
      <trkpt lat="43.75893" lon="4.85372">
        <ele>377</ele>
        <time>2010-12-04T10:04:00Z</time>
      </trkpt>
      <trkpt lat="43.75893" lon="4.85373">
        <ele>379</ele>
        <time>2010-12-04T10:04:30Z</time>
      </trkpt>
      <trkpt lat="43.75892" lon="4.85373">
        <ele>380</ele>
        <time>2010-12-04T10:05:00Z</time>
      </trkpt>
      <trkpt lat="43.75893" lon="4.85375">
        <ele>380</ele>
        <time>2010-12-04T10:05:45Z</time>
      </trkpt>
      <trkpt lat="43.75893" lon="4.85373">
        <ele>380</ele>
        <time>2010-12-04T10:06:16Z</time>
      </trkpt>
      <trkpt lat="43.75894" lon="4.85373">
        <ele>381</ele>
        <time>2010-12-04T10:07:06Z</time>
      </trkpt>
      <trkpt lat="43.75893" lon="4.85375">
        <ele>381</ele>
        <time>2010-12-04T10:07:17Z</time>
      </trkpt>
      <trkpt lat="43.75894" lon="4.85375">
        <ele>381</ele>
        <time>2010-12-04T10:07:27Z</time>
      </trkpt>
      <trkpt lat="43.75895" lon="4.85373">
        <ele>381</ele>
        <time>2010-12-04T10:07:43Z</time>
      </trkpt>
      <trkpt lat="43.75894" lon="4.85373">
        <ele>381</ele>
        <time>2010-12-04T10:08:10Z</time>
      </trkpt>
      <trkpt lat="43.75895" lon="4.85374">
        <ele>381</ele>
        <time>2010-12-04T10:08:16Z</time>
      </trkpt>
      <trkpt lat="43.75893" lon="4.85377">
        <ele>381</ele>
        <time>2010-12-04T10:08:22Z</time>
      </trkpt>
      <trkpt lat="43.75886" lon="4.85379">
        <ele>381</ele>
        <time>2010-12-04T10:08:29Z</time>
      </trkpt>
      <trkpt lat="43.75885" lon="4.8538">
        <ele>381</ele>
        <time>2010-12-04T10:08:53Z</time>
      </trkpt>
      <trkpt lat="43.75886" lon="4.85381">
        <ele>381</ele>
        <time>2010-12-04T10:09:15Z</time>
      </trkpt>
      <trkpt lat="43.75892" lon="4.85377">
        <ele>381</ele>
        <time>2010-12-04T10:09:22Z</time>
      </trkpt>
      <trkpt lat="43.75893" lon="4.85378">
        <ele>381</ele>
        <time>2010-12-04T10:09:29Z</time>
      </trkpt>
      <trkpt lat="43.75895" lon="4.85379">
        <ele>381</ele>
        <time>2010-12-04T10:09:41Z</time>
      </trkpt>
      <trkpt lat="43.75897" lon="4.85382">
        <ele>381</ele>
        <time>2010-12-04T10:10:28Z</time>
      </trkpt>
      <trkpt lat="43.759" lon="4.8539">
        <ele>381</ele>
        <time>2010-12-04T10:10:34Z</time>
      </trkpt>
      <trkpt lat="43.75902" lon="4.85398">
        <ele>381</ele>
        <time>2010-12-04T10:10:40Z</time>
      </trkpt>
      <trkpt lat="43.75905" lon="4.85407">
        <ele>381</ele>
        <time>2010-12-04T10:10:46Z</time>
      </trkpt>
      <trkpt lat="43.75908" lon="4.85416">
        <ele>382</ele>
        <time>2010-12-04T10:10:52Z</time>
      </trkpt>
      <trkpt lat="43.75911" lon="4.85425">
        <ele>382</ele>
        <time>2010-12-04T10:10:58Z</time>
      </trkpt>
      <trkpt lat="43.75914" lon="4.85434">
        <ele>382</ele>
        <time>2010-12-04T10:11:04Z</time>
      </trkpt>
      <trkpt lat="43.75917" lon="4.85444">
        <ele>382</ele>
        <time>2010-12-04T10:11:10Z</time>
      </trkpt>
      <trkpt lat="43.75921" lon="4.85453">
        <ele>382</ele>
        <time>2010-12-04T10:11:16Z</time>
      </trkpt>
      <trkpt lat="43.75925" lon="4.85461">
        <ele>382</ele>
        <time>2010-12-04T10:11:22Z</time>
      </trkpt>
      <trkpt lat="43.75928" lon="4.85471">
        <ele>382</ele>
        <time>2010-12-04T10:11:29Z</time>
      </trkpt>
      <trkpt lat="43.75932" lon="4.85481">
        <ele>382</ele>
        <time>2010-12-04T10:11:35Z</time>
      </trkpt>
      <trkpt lat="43.75935" lon="4.8549">
        <ele>382</ele>
        <time>2010-12-04T10:11:41Z</time>
      </trkpt>
      <trkpt lat="43.75938" lon="4.855">
        <ele>382</ele>
        <time>2010-12-04T10:11:47Z</time>
      </trkpt>
      <trkpt lat="43.75942" lon="4.8551">
        <ele>382</ele>
        <time>2010-12-04T10:11:53Z</time>
      </trkpt>
      <trkpt lat="43.75945" lon="4.85521">
        <ele>382</ele>
        <time>2010-12-04T10:11:59Z</time>
      </trkpt>
      <trkpt lat="43.75947" lon="4.85531">
        <ele>382</ele>
        <time>2010-12-04T10:12:05Z</time>
      </trkpt>
      <trkpt lat="43.75951" lon="4.85541">
        <ele>382</ele>
        <time>2010-12-04T10:12:11Z</time>
      </trkpt>
      <trkpt lat="43.75954" lon="4.85553">
        <ele>382</ele>
        <time>2010-12-04T10:12:18Z</time>
      </trkpt>
      <trkpt lat="43.75957" lon="4.85564">
        <ele>382</ele>
        <time>2010-12-04T10:12:24Z</time>
      </trkpt>
      <trkpt lat="43.7596" lon="4.85574">
        <ele>382</ele>
        <time>2010-12-04T10:12:30Z</time>
      </trkpt>
      <trkpt lat="43.75962" lon="4.85585">
        <ele>382</ele>
        <time>2010-12-04T10:12:36Z</time>
      </trkpt>
      <trkpt lat="43.75964" lon="4.85595">
        <ele>382</ele>
        <time>2010-12-04T10:12:42Z</time>
      </trkpt>
      <trkpt lat="43.75966" lon="4.85605">
        <ele>382</ele>
        <time>2010-12-04T10:12:48Z</time>
      </trkpt>
      <trkpt lat="43.75968" lon="4.85615">
        <ele>382</ele>
        <time>2010-12-04T10:12:54Z</time>
      </trkpt>
      <trkpt lat="43.7597" lon="4.85626">
        <ele>382</ele>
        <time>2010-12-04T10:13:00Z</time>
      </trkpt>
      <trkpt lat="43.75971" lon="4.85637">
        <ele>382</ele>
        <time>2010-12-04T10:13:06Z</time>
      </trkpt>
      <trkpt lat="43.75972" lon="4.85648">
        <ele>382</ele>
        <time>2010-12-04T10:13:12Z</time>
      </trkpt>
      <trkpt lat="43.75974" lon="4.85658">
        <ele>383</ele>
        <time>2010-12-04T10:13:18Z</time>
      </trkpt>
      <trkpt lat="43.75977" lon="4.85669">
        <ele>383</ele>
        <time>2010-12-04T10:13:24Z</time>
      </trkpt>
      <trkpt lat="43.7598" lon="4.8568">
        <ele>383</ele>
        <time>2010-12-04T10:13:30Z</time>
      </trkpt>
      <trkpt lat="43.75982" lon="4.8569">
        <ele>383</ele>
        <time>2010-12-04T10:13:36Z</time>
      </trkpt>
      <trkpt lat="43.75984" lon="4.85701">
        <ele>383</ele>
        <time>2010-12-04T10:13:42Z</time>
      </trkpt>
      <trkpt lat="43.75986" lon="4.85711">
        <ele>383</ele>
        <time>2010-12-04T10:13:48Z</time>
      </trkpt>
      <trkpt lat="43.75989" lon="4.85722">
        <ele>383</ele>
        <time>2010-12-04T10:13:54Z</time>
      </trkpt>
      <trkpt lat="43.75991" lon="4.85732">
        <ele>383</ele>
        <time>2010-12-04T10:14:00Z</time>
      </trkpt>
      <trkpt lat="43.75993" lon="4.85743">
        <ele>383</ele>
        <time>2010-12-04T10:14:06Z</time>
      </trkpt>
      <trkpt lat="43.75995" lon="4.85754">
        <ele>383</ele>
        <time>2010-12-04T10:14:12Z</time>
      </trkpt>
      <trkpt lat="43.75997" lon="4.85765">
        <ele>383</ele>
        <time>2010-12-04T10:14:18Z</time>
      </trkpt>
      <trkpt lat="43.75999" lon="4.85775">
        <ele>383</ele>
        <time>2010-12-04T10:14:24Z</time>
      </trkpt>
      <trkpt lat="43.76001" lon="4.85786">
        <ele>383</ele>
        <time>2010-12-04T10:14:30Z</time>
      </trkpt>
      <trkpt lat="43.76002" lon="4.85796">
        <ele>383</ele>
        <time>2010-12-04T10:14:36Z</time>
      </trkpt>
      <trkpt lat="43.76005" lon="4.85808">
        <ele>383</ele>
        <time>2010-12-04T10:14:42Z</time>
      </trkpt>
      <trkpt lat="43.76007" lon="4.85818">
        <ele>383</ele>
        <time>2010-12-04T10:14:48Z</time>
      </trkpt>
      <trkpt lat="43.7601" lon="4.85829">
        <ele>383</ele>
        <time>2010-12-04T10:14:54Z</time>
      </trkpt>
      <trkpt lat="43.76012" lon="4.8584">
        <ele>383</ele>
        <time>2010-12-04T10:15:00Z</time>
      </trkpt>
      <trkpt lat="43.76015" lon="4.8585">
        <ele>383</ele>
        <time>2010-12-04T10:15:06Z</time>
      </trkpt>
      <trkpt lat="43.76018" lon="4.85861">
        <ele>383</ele>
        <time>2010-12-04T10:15:12Z</time>
      </trkpt>
      <trkpt lat="43.7602" lon="4.85872">
        <ele>383</ele>
        <time>2010-12-04T10:15:18Z</time>
      </trkpt>
      <trkpt lat="43.76022" lon="4.85883">
        <ele>383</ele>
        <time>2010-12-04T10:15:24Z</time>
      </trkpt>
      <trkpt lat="43.76025" lon="4.85893">
        <ele>383</ele>
        <time>2010-12-04T10:15:30Z</time>
      </trkpt>
      <trkpt lat="43.76027" lon="4.85904">
        <ele>383</ele>
        <time>2010-12-04T10:15:36Z</time>
      </trkpt>
      <trkpt lat="43.76029" lon="4.85915">
        <ele>384</ele>
        <time>2010-12-04T10:15:42Z</time>
      </trkpt>
      <trkpt lat="43.76031" lon="4.85925">
        <ele>384</ele>
        <time>2010-12-04T10:15:48Z</time>
      </trkpt>
      <trkpt lat="43.76033" lon="4.85938">
        <ele>384</ele>
        <time>2010-12-04T10:15:55Z</time>
      </trkpt>
      <trkpt lat="43.76036" lon="4.8595">
        <ele>384</ele>
        <time>2010-12-04T10:16:02Z</time>
      </trkpt>
      <trkpt lat="43.76038" lon="4.8596">
        <ele>384</ele>
        <time>2010-12-04T10:16:08Z</time>
      </trkpt>
      <trkpt lat="43.76041" lon="4.85971">
        <ele>384</ele>
        <time>2010-12-04T10:16:14Z</time>
      </trkpt>
      <trkpt lat="43.76043" lon="4.85982">
        <ele>384</ele>
        <time>2010-12-04T10:16:20Z</time>
      </trkpt>
      <trkpt lat="43.76045" lon="4.85993">
        <ele>384</ele>
        <time>2010-12-04T10:16:26Z</time>
      </trkpt>
      <trkpt lat="43.76048" lon="4.86003">
        <ele>384</ele>
        <time>2010-12-04T10:16:32Z</time>
      </trkpt>
      <trkpt lat="43.7605" lon="4.86014">
        <ele>384</ele>
        <time>2010-12-04T10:16:38Z</time>
      </trkpt>
      <trkpt lat="43.76052" lon="4.86024">
        <ele>384</ele>
        <time>2010-12-04T10:16:44Z</time>
      </trkpt>
      <trkpt lat="43.76054" lon="4.86035">
        <ele>384</ele>
        <time>2010-12-04T10:16:50Z</time>
      </trkpt>
      <trkpt lat="43.76056" lon="4.86045">
        <ele>384</ele>
        <time>2010-12-04T10:16:56Z</time>
      </trkpt>
      <trkpt lat="43.76059" lon="4.86056">
        <ele>384</ele>
        <time>2010-12-04T10:17:02Z</time>
      </trkpt>
      <trkpt lat="43.76061" lon="4.86067">
        <ele>384</ele>
        <time>2010-12-04T10:17:08Z</time>
      </trkpt>
      <trkpt lat="43.76063" lon="4.86078">
        <ele>384</ele>
        <time>2010-12-04T10:17:14Z</time>
      </trkpt>
      <trkpt lat="43.76067" lon="4.8609">
        <ele>384</ele>
        <time>2010-12-04T10:17:20Z</time>
      </trkpt>
      <trkpt lat="43.7607" lon="4.86102">
        <ele>384</ele>
        <time>2010-12-04T10:17:26Z</time>
      </trkpt>
      <trkpt lat="43.76072" lon="4.86113">
        <ele>384</ele>
        <time>2010-12-04T10:17:32Z</time>
      </trkpt>
      <trkpt lat="43.76075" lon="4.86124">
        <ele>384</ele>
        <time>2010-12-04T10:17:38Z</time>
      </trkpt>
      <trkpt lat="43.76077" lon="4.86135">
        <ele>384</ele>
        <time>2010-12-04T10:17:44Z</time>
      </trkpt>
      <trkpt lat="43.76079" lon="4.86146">
        <ele>384</ele>
        <time>2010-12-04T10:17:50Z</time>
      </trkpt>
      <trkpt lat="43.7608" lon="4.86157">
        <ele>384</ele>
        <time>2010-12-04T10:17:56Z</time>
      </trkpt>
      <trkpt lat="43.76082" lon="4.86168">
        <ele>384</ele>
        <time>2010-12-04T10:18:02Z</time>
      </trkpt>
      <trkpt lat="43.76085" lon="4.86178">
        <ele>384</ele>
        <time>2010-12-04T10:18:08Z</time>
      </trkpt>
      <trkpt lat="43.76087" lon="4.86188">
        <ele>384</ele>
        <time>2010-12-04T10:18:14Z</time>
      </trkpt>
      <trkpt lat="43.76091" lon="4.86197">
        <ele>384</ele>
        <time>2010-12-04T10:18:20Z</time>
      </trkpt>
      <trkpt lat="43.76094" lon="4.86207">
        <ele>384</ele>
        <time>2010-12-04T10:18:26Z</time>
      </trkpt>
      <trkpt lat="43.76096" lon="4.86216">
        <ele>384</ele>
        <time>2010-12-04T10:18:32Z</time>
      </trkpt>
      <trkpt lat="43.76099" lon="4.86226">
        <ele>384</ele>
        <time>2010-12-04T10:18:38Z</time>
      </trkpt>
      <trkpt lat="43.76104" lon="4.86234">
        <ele>384</ele>
        <time>2010-12-04T10:18:45Z</time>
      </trkpt>
      <trkpt lat="43.76108" lon="4.86241">
        <ele>384</ele>
        <time>2010-12-04T10:18:51Z</time>
      </trkpt>
      <trkpt lat="43.76108" lon="4.86249">
        <ele>384</ele>
        <time>2010-12-04T10:18:58Z</time>
      </trkpt>
      <trkpt lat="43.76107" lon="4.86257">
        <ele>384</ele>
        <time>2010-12-04T10:19:05Z</time>
      </trkpt>
      <trkpt lat="43.76105" lon="4.86268">
        <ele>384</ele>
        <time>2010-12-04T10:19:12Z</time>
      </trkpt>
      <trkpt lat="43.76103" lon="4.86277">
        <ele>385</ele>
        <time>2010-12-04T10:19:18Z</time>
      </trkpt>
      <trkpt lat="43.76102" lon="4.86287">
        <ele>385</ele>
        <time>2010-12-04T10:19:24Z</time>
      </trkpt>
      <trkpt lat="43.761" lon="4.86297">
        <ele>385</ele>
        <time>2010-12-04T10:19:30Z</time>
      </trkpt>
      <trkpt lat="43.76098" lon="4.86309">
        <ele>385</ele>
        <time>2010-12-04T10:19:37Z</time>
      </trkpt>
      <trkpt lat="43.76096" lon="4.86319">
        <ele>385</ele>
        <time>2010-12-04T10:19:43Z</time>
      </trkpt>
      <trkpt lat="43.76093" lon="4.86329">
        <ele>385</ele>
        <time>2010-12-04T10:19:49Z</time>
      </trkpt>
      <trkpt lat="43.7609" lon="4.86339">
        <ele>385</ele>
        <time>2010-12-04T10:19:55Z</time>
      </trkpt>
      <trkpt lat="43.76087" lon="4.86348">
        <ele>385</ele>
        <time>2010-12-04T10:20:01Z</time>
      </trkpt>
      <trkpt lat="43.76084" lon="4.86357">
        <ele>385</ele>
        <time>2010-12-04T10:20:07Z</time>
      </trkpt>
      <trkpt lat="43.76079" lon="4.86367">
        <ele>385</ele>
        <time>2010-12-04T10:20:14Z</time>
      </trkpt>
      <trkpt lat="43.76076" lon="4.86376">
        <ele>385</ele>
        <time>2010-12-04T10:20:20Z</time>
      </trkpt>
      <trkpt lat="43.76073" lon="4.86386">
        <ele>385</ele>
        <time>2010-12-04T10:20:26Z</time>
      </trkpt>
      <trkpt lat="43.76067" lon="4.86396">
        <ele>385</ele>
        <time>2010-12-04T10:20:33Z</time>
      </trkpt>
      <trkpt lat="43.76064" lon="4.86405">
        <ele>385</ele>
        <time>2010-12-04T10:20:39Z</time>
      </trkpt>
      <trkpt lat="43.76059" lon="4.86415">
        <ele>385</ele>
        <time>2010-12-04T10:20:46Z</time>
      </trkpt>
      <trkpt lat="43.76054" lon="4.86423">
        <ele>385</ele>
        <time>2010-12-04T10:20:52Z</time>
      </trkpt>
      <trkpt lat="43.76051" lon="4.86431">
        <ele>385</ele>
        <time>2010-12-04T10:20:58Z</time>
      </trkpt>
      <trkpt lat="43.76046" lon="4.86439">
        <ele>385</ele>
        <time>2010-12-04T10:21:04Z</time>
      </trkpt>
      <trkpt lat="43.76042" lon="4.86447">
        <ele>385</ele>
        <time>2010-12-04T10:21:10Z</time>
      </trkpt>
      <trkpt lat="43.7604" lon="4.86457">
        <ele>384</ele>
        <time>2010-12-04T10:21:16Z</time>
      </trkpt>
      <trkpt lat="43.76039" lon="4.86467">
        <ele>384</ele>
        <time>2010-12-04T10:21:22Z</time>
      </trkpt>
      <trkpt lat="43.76039" lon="4.86477">
        <ele>384</ele>
        <time>2010-12-04T10:21:28Z</time>
      </trkpt>
      <trkpt lat="43.76039" lon="4.86486">
        <ele>384</ele>
        <time>2010-12-04T10:21:34Z</time>
      </trkpt>
      <trkpt lat="43.76039" lon="4.86496">
        <ele>384</ele>
        <time>2010-12-04T10:21:40Z</time>
      </trkpt>
      <trkpt lat="43.76038" lon="4.86507">
        <ele>384</ele>
        <time>2010-12-04T10:21:46Z</time>
      </trkpt>
      <trkpt lat="43.76037" lon="4.86516">
        <ele>384</ele>
        <time>2010-12-04T10:21:52Z</time>
      </trkpt>
      <trkpt lat="43.76036" lon="4.86527">
        <ele>384</ele>
        <time>2010-12-04T10:21:58Z</time>
      </trkpt>
      <trkpt lat="43.76033" lon="4.86536">
        <ele>384</ele>
        <time>2010-12-04T10:22:04Z</time>
      </trkpt>
      <trkpt lat="43.76033" lon="4.86546">
        <ele>384</ele>
        <time>2010-12-04T10:22:10Z</time>
      </trkpt>
      <trkpt lat="43.76031" lon="4.86556">
        <ele>384</ele>
        <time>2010-12-04T10:22:16Z</time>
      </trkpt>
      <trkpt lat="43.76028" lon="4.86566">
        <ele>384</ele>
        <time>2010-12-04T10:22:22Z</time>
      </trkpt>
      <trkpt lat="43.76022" lon="4.86576">
        <ele>384</ele>
        <time>2010-12-04T10:22:29Z</time>
      </trkpt>
      <trkpt lat="43.76015" lon="4.86585">
        <ele>384</ele>
        <time>2010-12-04T10:22:37Z</time>
      </trkpt>
      <trkpt lat="43.76011" lon="4.86592">
        <ele>384</ele>
        <time>2010-12-04T10:22:43Z</time>
      </trkpt>
      <trkpt lat="43.76009" lon="4.86601">
        <ele>384</ele>
        <time>2010-12-04T10:22:49Z</time>
      </trkpt>
      <trkpt lat="43.76003" lon="4.86611">
        <ele>384</ele>
        <time>2010-12-04T10:22:56Z</time>
      </trkpt>
      <trkpt lat="43.75996" lon="4.86617">
        <ele>384</ele>
        <time>2010-12-04T10:23:03Z</time>
      </trkpt>
      <trkpt lat="43.75991" lon="4.86624">
        <ele>384</ele>
        <time>2010-12-04T10:23:10Z</time>
      </trkpt>
      <trkpt lat="43.75988" lon="4.86632">
        <ele>384</ele>
        <time>2010-12-04T10:23:16Z</time>
      </trkpt>
      <trkpt lat="43.75983" lon="4.86644">
        <ele>383</ele>
        <time>2010-12-04T10:23:23Z</time>
      </trkpt>
      <trkpt lat="43.7598" lon="4.86652">
        <ele>383</ele>
        <time>2010-12-04T10:23:29Z</time>
      </trkpt>
      <trkpt lat="43.75976" lon="4.8666">
        <ele>383</ele>
        <time>2010-12-04T10:23:35Z</time>
      </trkpt>
      <trkpt lat="43.75972" lon="4.86668">
        <ele>383</ele>
        <time>2010-12-04T10:23:41Z</time>
      </trkpt>
      <trkpt lat="43.7597" lon="4.86677">
        <ele>383</ele>
        <time>2010-12-04T10:23:47Z</time>
      </trkpt>
      <trkpt lat="43.75969" lon="4.86687">
        <ele>383</ele>
        <time>2010-12-04T10:23:54Z</time>
      </trkpt>
      <trkpt lat="43.75968" lon="4.86697">
        <ele>383</ele>
        <time>2010-12-04T10:24:00Z</time>
      </trkpt>
      <trkpt lat="43.75969" lon="4.86706">
        <ele>383</ele>
        <time>2010-12-04T10:24:07Z</time>
      </trkpt>
      <trkpt lat="43.75968" lon="4.86715">
        <ele>383</ele>
        <time>2010-12-04T10:24:13Z</time>
      </trkpt>
      <trkpt lat="43.75967" lon="4.86723">
        <ele>382</ele>
        <time>2010-12-04T10:24:19Z</time>
      </trkpt>
      <trkpt lat="43.75965" lon="4.86732">
        <ele>381</ele>
        <time>2010-12-04T10:24:26Z</time>
      </trkpt>
      <trkpt lat="43.75964" lon="4.86737">
        <ele>381</ele>
        <time>2010-12-04T10:24:33Z</time>
      </trkpt>
      <trkpt lat="43.75962" lon="4.86745">
        <ele>379</ele>
        <time>2010-12-04T10:24:39Z</time>
      </trkpt>
      <trkpt lat="43.75963" lon="4.86754">
        <ele>378</ele>
        <time>2010-12-04T10:24:45Z</time>
      </trkpt>
      <trkpt lat="43.75966" lon="4.86763">
        <ele>374</ele>
        <time>2010-12-04T10:24:52Z</time>
      </trkpt>
      <trkpt lat="43.75967" lon="4.86771">
        <ele>373</ele>
        <time>2010-12-04T10:24:58Z</time>
      </trkpt>
      <trkpt lat="43.75965" lon="4.8678">
        <ele>372</ele>
        <time>2010-12-04T10:25:04Z</time>
      </trkpt>
      <trkpt lat="43.75966" lon="4.8679">
        <ele>371</ele>
        <time>2010-12-04T10:25:10Z</time>
      </trkpt>
      <trkpt lat="43.75965" lon="4.86798">
        <ele>371</ele>
        <time>2010-12-04T10:25:16Z</time>
      </trkpt>
      <trkpt lat="43.75966" lon="4.86806">
        <ele>371</ele>
        <time>2010-12-04T10:25:22Z</time>
      </trkpt>
      <trkpt lat="43.75967" lon="4.86814">
        <ele>369</ele>
        <time>2010-12-04T10:25:29Z</time>
      </trkpt>
      <trkpt lat="43.75969" lon="4.86824">
        <ele>368</ele>
        <time>2010-12-04T10:25:36Z</time>
      </trkpt>
      <trkpt lat="43.75971" lon="4.86832">
        <ele>367</ele>
        <time>2010-12-04T10:25:42Z</time>
      </trkpt>
      <trkpt lat="43.75972" lon="4.86842">
        <ele>366</ele>
        <time>2010-12-04T10:25:48Z</time>
      </trkpt>
      <trkpt lat="43.75971" lon="4.86849">
        <ele>365</ele>
        <time>2010-12-04T10:25:56Z</time>
      </trkpt>
      <trkpt lat="43.7597" lon="4.86855">
        <ele>364</ele>
        <time>2010-12-04T10:26:05Z</time>
      </trkpt>
      <trkpt lat="43.75972" lon="4.86857">
        <ele>362</ele>
        <time>2010-12-04T10:26:12Z</time>
      </trkpt>
      <trkpt lat="43.75974" lon="4.86858">
        <ele>362</ele>
        <time>2010-12-04T10:26:21Z</time>
      </trkpt>
      <trkpt lat="43.75975" lon="4.86859">
        <ele>361</ele>
        <time>2010-12-04T10:26:29Z</time>
      </trkpt>
      <trkpt lat="43.75976" lon="4.86861">
        <ele>359</ele>
        <time>2010-12-04T10:26:37Z</time>
      </trkpt>
      <trkpt lat="43.75978" lon="4.86866">
        <ele>358</ele>
        <time>2010-12-04T10:26:45Z</time>
      </trkpt>
      <trkpt lat="43.75976" lon="4.86873">
        <ele>358</ele>
        <time>2010-12-04T10:26:52Z</time>
      </trkpt>
      <trkpt lat="43.75976" lon="4.8688">
        <ele>358</ele>
        <time>2010-12-04T10:27:00Z</time>
      </trkpt>
      <trkpt lat="43.75977" lon="4.86885">
        <ele>358</ele>
        <time>2010-12-04T10:27:06Z</time>
      </trkpt>
      <trkpt lat="43.75976" lon="4.8689">
        <ele>358</ele>
        <time>2010-12-04T10:27:12Z</time>
      </trkpt>
      <trkpt lat="43.75975" lon="4.86896">
        <ele>358</ele>
        <time>2010-12-04T10:27:18Z</time>
      </trkpt>
      <trkpt lat="43.75975" lon="4.86902">
        <ele>358</ele>
        <time>2010-12-04T10:27:24Z</time>
      </trkpt>
      <trkpt lat="43.75975" lon="4.86908">
        <ele>358</ele>
        <time>2010-12-04T10:27:30Z</time>
      </trkpt>
      <trkpt lat="43.75975" lon="4.86915">
        <ele>359</ele>
        <time>2010-12-04T10:27:36Z</time>
      </trkpt>
      <trkpt lat="43.75975" lon="4.86922">
        <ele>360</ele>
        <time>2010-12-04T10:27:42Z</time>
      </trkpt>
      <trkpt lat="43.75975" lon="4.86931">
        <ele>361</ele>
        <time>2010-12-04T10:27:48Z</time>
      </trkpt>
      <trkpt lat="43.75978" lon="4.86936">
        <ele>361</ele>
        <time>2010-12-04T10:27:55Z</time>
      </trkpt>
      <trkpt lat="43.75981" lon="4.86944">
        <ele>361</ele>
        <time>2010-12-04T10:28:01Z</time>
      </trkpt>
      <trkpt lat="43.75984" lon="4.86953">
        <ele>361</ele>
        <time>2010-12-04T10:28:07Z</time>
      </trkpt>
      <trkpt lat="43.75985" lon="4.86963">
        <ele>361</ele>
        <time>2010-12-04T10:28:13Z</time>
      </trkpt>
      <trkpt lat="43.75986" lon="4.86969">
        <ele>361</ele>
        <time>2010-12-04T10:28:19Z</time>
      </trkpt>
      <trkpt lat="43.75988" lon="4.86975">
        <ele>361</ele>
        <time>2010-12-04T10:28:25Z</time>
      </trkpt>
      <trkpt lat="43.75987" lon="4.86982">
        <ele>361</ele>
        <time>2010-12-04T10:28:31Z</time>
      </trkpt>
      <trkpt lat="43.75986" lon="4.86987">
        <ele>361</ele>
        <time>2010-12-04T10:28:37Z</time>
      </trkpt>
      <trkpt lat="43.75986" lon="4.86996">
        <ele>361</ele>
        <time>2010-12-04T10:28:43Z</time>
      </trkpt>
      <trkpt lat="43.75987" lon="4.87004">
        <ele>361</ele>
        <time>2010-12-04T10:28:49Z</time>
      </trkpt>
      <trkpt lat="43.75985" lon="4.87009">
        <ele>361</ele>
        <time>2010-12-04T10:28:55Z</time>
      </trkpt>
      <trkpt lat="43.75985" lon="4.87014">
        <ele>361</ele>
        <time>2010-12-04T10:29:01Z</time>
      </trkpt>
      <trkpt lat="43.75984" lon="4.87016">
        <ele>361</ele>
        <time>2010-12-04T10:29:18Z</time>
      </trkpt>
      <trkpt lat="43.75983" lon="4.87016">
        <ele>361</ele>
        <time>2010-12-04T10:29:29Z</time>
      </trkpt>
      <trkpt lat="43.75984" lon="4.87018">
        <ele>361</ele>
        <time>2010-12-04T10:29:35Z</time>
      </trkpt>
      <trkpt lat="43.75985" lon="4.87019">
        <ele>361</ele>
        <time>2010-12-04T10:29:42Z</time>
      </trkpt>
      <trkpt lat="43.75985" lon="4.87021">
        <ele>361</ele>
        <time>2010-12-04T10:29:48Z</time>
      </trkpt>
      <trkpt lat="43.75987" lon="4.87022">
        <ele>361</ele>
        <time>2010-12-04T10:29:54Z</time>
      </trkpt>
      <trkpt lat="43.7599" lon="4.87027">
        <ele>360</ele>
        <time>2010-12-04T10:30:04Z</time>
      </trkpt>
      <trkpt lat="43.75993" lon="4.87028">
        <ele>358</ele>
        <time>2010-12-04T10:30:10Z</time>
      </trkpt>
      <trkpt lat="43.75998" lon="4.87033">
        <ele>355</ele>
        <time>2010-12-04T10:30:18Z</time>
      </trkpt>
      <trkpt lat="43.76002" lon="4.87039">
        <ele>353</ele>
        <time>2010-12-04T10:30:25Z</time>
      </trkpt>
      <trkpt lat="43.76005" lon="4.87046">
        <ele>352</ele>
        <time>2010-12-04T10:30:31Z</time>
      </trkpt>
      <trkpt lat="43.76006" lon="4.87056">
        <ele>351</ele>
        <time>2010-12-04T10:30:38Z</time>
      </trkpt>
      <trkpt lat="43.76007" lon="4.87062">
        <ele>351</ele>
        <time>2010-12-04T10:30:45Z</time>
      </trkpt>
      <trkpt lat="43.76007" lon="4.87066">
        <ele>351</ele>
        <time>2010-12-04T10:30:53Z</time>
      </trkpt>
      <trkpt lat="43.76005" lon="4.87069">
        <ele>349</ele>
        <time>2010-12-04T10:31:05Z</time>
      </trkpt>
      <trkpt lat="43.76004" lon="4.87075">
        <ele>349</ele>
        <time>2010-12-04T10:31:12Z</time>
      </trkpt>
      <trkpt lat="43.76006" lon="4.87079">
        <ele>349</ele>
        <time>2010-12-04T10:31:22Z</time>
      </trkpt>
      <trkpt lat="43.76009" lon="4.87079">
        <ele>349</ele>
        <time>2010-12-04T10:31:30Z</time>
      </trkpt>
      <trkpt lat="43.76011" lon="4.87082">
        <ele>349</ele>
        <time>2010-12-04T10:31:38Z</time>
      </trkpt>
      <trkpt lat="43.76014" lon="4.87084">
        <ele>351</ele>
        <time>2010-12-04T10:31:46Z</time>
      </trkpt>
      <trkpt lat="43.76013" lon="4.87087">
        <ele>354</ele>
        <time>2010-12-04T10:31:54Z</time>
      </trkpt>
      <trkpt lat="43.76014" lon="4.87087">
        <ele>356</ele>
        <time>2010-12-04T10:32:03Z</time>
      </trkpt>
      <trkpt lat="43.76017" lon="4.87089">
        <ele>360</ele>
        <time>2010-12-04T10:32:16Z</time>
      </trkpt>
      <trkpt lat="43.7602" lon="4.87089">
        <ele>361</ele>
        <time>2010-12-04T10:32:23Z</time>
      </trkpt>
      <trkpt lat="43.76021" lon="4.87091">
        <ele>362</ele>
        <time>2010-12-04T10:32:33Z</time>
      </trkpt>
      <trkpt lat="43.76024" lon="4.87092">
        <ele>363</ele>
        <time>2010-12-04T10:32:42Z</time>
      </trkpt>
      <trkpt lat="43.76025" lon="4.87095">
        <ele>364</ele>
        <time>2010-12-04T10:32:49Z</time>
      </trkpt>
      <trkpt lat="43.76027" lon="4.87099">
        <ele>366</ele>
        <time>2010-12-04T10:32:57Z</time>
      </trkpt>
      <trkpt lat="43.76027" lon="4.87103">
        <ele>367</ele>
        <time>2010-12-04T10:33:04Z</time>
      </trkpt>
      <trkpt lat="43.76028" lon="4.87106">
        <ele>368</ele>
        <time>2010-12-04T10:33:11Z</time>
      </trkpt>
      <trkpt lat="43.76028" lon="4.87109">
        <ele>368</ele>
        <time>2010-12-04T10:33:17Z</time>
      </trkpt>
      <trkpt lat="43.76028" lon="4.8711">
        <ele>368</ele>
        <time>2010-12-04T10:33:30Z</time>
      </trkpt>
      <trkpt lat="43.76029" lon="4.8711">
        <ele>370</ele>
        <time>2010-12-04T10:34:09Z</time>
      </trkpt>
      <trkpt lat="43.7603" lon="4.87109">
        <ele>370</ele>
        <time>2010-12-04T10:34:15Z</time>
      </trkpt>
      <trkpt lat="43.76032" lon="4.87115">
        <ele>370</ele>
        <time>2010-12-04T10:34:22Z</time>
      </trkpt>
      <trkpt lat="43.76031" lon="4.8712">
        <ele>370</ele>
        <time>2010-12-04T10:34:29Z</time>
      </trkpt>
      <trkpt lat="43.76032" lon="4.87129">
        <ele>370</ele>
        <time>2010-12-04T10:34:36Z</time>
      </trkpt>
      <trkpt lat="43.76031" lon="4.87138">
        <ele>370</ele>
        <time>2010-12-04T10:34:42Z</time>
      </trkpt>
      <trkpt lat="43.7603" lon="4.87147">
        <ele>370</ele>
        <time>2010-12-04T10:34:49Z</time>
      </trkpt>
      <trkpt lat="43.76027" lon="4.87157">
        <ele>370</ele>
        <time>2010-12-04T10:34:56Z</time>
      </trkpt>
      <trkpt lat="43.76024" lon="4.87167">
        <ele>370</ele>
        <time>2010-12-04T10:35:03Z</time>
      </trkpt>
      <trkpt lat="43.76023" lon="4.87175">
        <ele>370</ele>
        <time>2010-12-04T10:35:09Z</time>
      </trkpt>
      <trkpt lat="43.76024" lon="4.87183">
        <ele>370</ele>
        <time>2010-12-04T10:35:15Z</time>
      </trkpt>
      <trkpt lat="43.76022" lon="4.87192">
        <ele>370</ele>
        <time>2010-12-04T10:35:23Z</time>
      </trkpt>
      <trkpt lat="43.76023" lon="4.872">
        <ele>370</ele>
        <time>2010-12-04T10:35:29Z</time>
      </trkpt>
      <trkpt lat="43.76024" lon="4.87208">
        <ele>370</ele>
        <time>2010-12-04T10:35:35Z</time>
      </trkpt>
      <trkpt lat="43.76023" lon="4.87218">
        <ele>370</ele>
        <time>2010-12-04T10:35:41Z</time>
      </trkpt>
      <trkpt lat="43.76025" lon="4.87226">
        <ele>369</ele>
        <time>2010-12-04T10:35:47Z</time>
      </trkpt>
      <trkpt lat="43.76025" lon="4.87234">
        <ele>368</ele>
        <time>2010-12-04T10:35:54Z</time>
      </trkpt>
      <trkpt lat="43.76025" lon="4.87244">
        <ele>367</ele>
        <time>2010-12-04T10:36:00Z</time>
      </trkpt>
      <trkpt lat="43.76025" lon="4.87254">
        <ele>367</ele>
        <time>2010-12-04T10:36:07Z</time>
      </trkpt>
      <trkpt lat="43.76025" lon="4.87262">
        <ele>366</ele>
        <time>2010-12-04T10:36:13Z</time>
      </trkpt>
      <trkpt lat="43.76023" lon="4.8727">
        <ele>365</ele>
        <time>2010-12-04T10:36:19Z</time>
      </trkpt>
      <trkpt lat="43.76023" lon="4.87281">
        <ele>364</ele>
        <time>2010-12-04T10:36:27Z</time>
      </trkpt>
      <trkpt lat="43.76022" lon="4.87287">
        <ele>363</ele>
        <time>2010-12-04T10:36:33Z</time>
      </trkpt>
      <trkpt lat="43.76022" lon="4.87293">
        <ele>362</ele>
        <time>2010-12-04T10:36:39Z</time>
      </trkpt>
      <trkpt lat="43.76024" lon="4.87299">
        <ele>360</ele>
        <time>2010-12-04T10:36:45Z</time>
      </trkpt>
      <trkpt lat="43.76026" lon="4.87309">
        <ele>359</ele>
        <time>2010-12-04T10:36:51Z</time>
      </trkpt>
      <trkpt lat="43.76025" lon="4.87317">
        <ele>357</ele>
        <time>2010-12-04T10:36:57Z</time>
      </trkpt>
      <trkpt lat="43.76024" lon="4.87325">
        <ele>355</ele>
        <time>2010-12-04T10:37:04Z</time>
      </trkpt>
      <trkpt lat="43.76025" lon="4.8733">
        <ele>353</ele>
        <time>2010-12-04T10:37:11Z</time>
      </trkpt>
      <trkpt lat="43.76027" lon="4.87336">
        <ele>351</ele>
        <time>2010-12-04T10:37:17Z</time>
      </trkpt>
      <trkpt lat="43.76029" lon="4.87341">
        <ele>350</ele>
        <time>2010-12-04T10:37:24Z</time>
      </trkpt>
      <trkpt lat="43.76032" lon="4.87345">
        <ele>349</ele>
        <time>2010-12-04T10:37:30Z</time>
      </trkpt>
      <trkpt lat="43.76031" lon="4.87352">
        <ele>347</ele>
        <time>2010-12-04T10:37:37Z</time>
      </trkpt>
      <trkpt lat="43.7603" lon="4.87355">
        <ele>346</ele>
        <time>2010-12-04T10:37:43Z</time>
      </trkpt>
      <trkpt lat="43.76031" lon="4.87358">
        <ele>346</ele>
        <time>2010-12-04T10:37:49Z</time>
      </trkpt>
      <trkpt lat="43.76031" lon="4.87363">
        <ele>344</ele>
        <time>2010-12-04T10:37:55Z</time>
      </trkpt>
      <trkpt lat="43.76027" lon="4.87363">
        <ele>343</ele>
        <time>2010-12-04T10:38:03Z</time>
      </trkpt>
      <trkpt lat="43.76023" lon="4.87361">
        <ele>341</ele>
        <time>2010-12-04T10:38:13Z</time>
      </trkpt>
      <trkpt lat="43.76023" lon="4.87364">
        <ele>340</ele>
        <time>2010-12-04T10:38:20Z</time>
      </trkpt>
      <trkpt lat="43.76025" lon="4.87368">
        <ele>339</ele>
        <time>2010-12-04T10:38:26Z</time>
      </trkpt>
      <trkpt lat="43.76025" lon="4.87372">
        <ele>337</ele>
        <time>2010-12-04T10:38:32Z</time>
      </trkpt>
      <trkpt lat="43.76026" lon="4.87378">
        <ele>337</ele>
        <time>2010-12-04T10:38:39Z</time>
      </trkpt>
      <trkpt lat="43.76026" lon="4.87382">
        <ele>336</ele>
        <time>2010-12-04T10:38:46Z</time>
      </trkpt>
      <trkpt lat="43.76026" lon="4.87387">
        <ele>335</ele>
        <time>2010-12-04T10:38:52Z</time>
      </trkpt>
      <trkpt lat="43.76026" lon="4.87392">
        <ele>333</ele>
        <time>2010-12-04T10:39:00Z</time>
      </trkpt>
      <trkpt lat="43.76028" lon="4.87395">
        <ele>331</ele>
        <time>2010-12-04T10:39:06Z</time>
      </trkpt>
      <trkpt lat="43.7603" lon="4.87398">
        <ele>329</ele>
        <time>2010-12-04T10:39:13Z</time>
      </trkpt>
      <trkpt lat="43.7603" lon="4.874">
        <ele>328</ele>
        <time>2010-12-04T10:39:20Z</time>
      </trkpt>
      <trkpt lat="43.76029" lon="4.87403">
        <ele>326</ele>
        <time>2010-12-04T10:39:27Z</time>
      </trkpt>
      <trkpt lat="43.76031" lon="4.87409">
        <ele>325</ele>
        <time>2010-12-04T10:39:34Z</time>
      </trkpt>
      <trkpt lat="43.76028" lon="4.87415">
        <ele>323</ele>
        <time>2010-12-04T10:39:41Z</time>
      </trkpt>
      <trkpt lat="43.76026" lon="4.87418">
        <ele>321</ele>
        <time>2010-12-04T10:39:47Z</time>
      </trkpt>
      <trkpt lat="43.76027" lon="4.87427">
        <ele>320</ele>
        <time>2010-12-04T10:39:53Z</time>
      </trkpt>
      <trkpt lat="43.76025" lon="4.87435">
        <ele>319</ele>
        <time>2010-12-04T10:39:59Z</time>
      </trkpt>
      <trkpt lat="43.76025" lon="4.87444">
        <ele>316</ele>
        <time>2010-12-04T10:40:05Z</time>
      </trkpt>
      <trkpt lat="43.76023" lon="4.87453">
        <ele>314</ele>
        <time>2010-12-04T10:40:11Z</time>
      </trkpt>
      <trkpt lat="43.76022" lon="4.87467">
        <ele>314</ele>
        <time>2010-12-04T10:40:17Z</time>
      </trkpt>
      <trkpt lat="43.76019" lon="4.87474">
        <ele>312</ele>
        <time>2010-12-04T10:40:23Z</time>
      </trkpt>
      <trkpt lat="43.76018" lon="4.87479">
        <ele>310</ele>
        <time>2010-12-04T10:40:29Z</time>
      </trkpt>
      <trkpt lat="43.76018" lon="4.87482">
        <ele>309</ele>
        <time>2010-12-04T10:40:45Z</time>
      </trkpt>
      <trkpt lat="43.76018" lon="4.87487">
        <ele>309</ele>
        <time>2010-12-04T10:40:57Z</time>
      </trkpt>
      <trkpt lat="43.76018" lon="4.87491">
        <ele>310</ele>
        <time>2010-12-04T10:41:05Z</time>
      </trkpt>
      <trkpt lat="43.76019" lon="4.87498">
        <ele>312</ele>
        <time>2010-12-04T10:41:11Z</time>
      </trkpt>
      <trkpt lat="43.76017" lon="4.87506">
        <ele>312</ele>
        <time>2010-12-04T10:41:18Z</time>
      </trkpt>
      <trkpt lat="43.76016" lon="4.87511">
        <ele>312</ele>
        <time>2010-12-04T10:41:24Z</time>
      </trkpt>
      <trkpt lat="43.76015" lon="4.87516">
        <ele>313</ele>
        <time>2010-12-04T10:41:31Z</time>
      </trkpt>
      <trkpt lat="43.76014" lon="4.87519">
        <ele>313</ele>
        <time>2010-12-04T10:41:37Z</time>
      </trkpt>
      <trkpt lat="43.76015" lon="4.87524">
        <ele>314</ele>
        <time>2010-12-04T10:41:44Z</time>
      </trkpt>
      <trkpt lat="43.76015" lon="4.8753">
        <ele>315</ele>
        <time>2010-12-04T10:41:51Z</time>
      </trkpt>
      <trkpt lat="43.76013" lon="4.87536">
        <ele>315</ele>
        <time>2010-12-04T10:41:58Z</time>
      </trkpt>
      <trkpt lat="43.76012" lon="4.87541">
        <ele>316</ele>
        <time>2010-12-04T10:42:05Z</time>
      </trkpt>
      <trkpt lat="43.7601" lon="4.87546">
        <ele>322</ele>
        <time>2010-12-04T10:42:19Z</time>
      </trkpt>
      <trkpt lat="43.76009" lon="4.87547">
        <ele>324</ele>
        <time>2010-12-04T10:42:44Z</time>
      </trkpt>
      <trkpt lat="43.76009" lon="4.87549">
        <ele>324</ele>
        <time>2010-12-04T10:43:02Z</time>
      </trkpt>
      <trkpt lat="43.76008" lon="4.87556">
        <ele>324</ele>
        <time>2010-12-04T10:43:11Z</time>
      </trkpt>
      <trkpt lat="43.76006" lon="4.87562">
        <ele>324</ele>
        <time>2010-12-04T10:43:17Z</time>
      </trkpt>
      <trkpt lat="43.76006" lon="4.87569">
        <ele>324</ele>
        <time>2010-12-04T10:43:23Z</time>
      </trkpt>
      <trkpt lat="43.76004" lon="4.87575">
        <ele>324</ele>
        <time>2010-12-04T10:43:29Z</time>
      </trkpt>
      <trkpt lat="43.76001" lon="4.87579">
        <ele>324</ele>
        <time>2010-12-04T10:43:37Z</time>
      </trkpt>
      <trkpt lat="43.76001" lon="4.87584">
        <ele>324</ele>
        <time>2010-12-04T10:43:43Z</time>
      </trkpt>
      <trkpt lat="43.75999" lon="4.87587">
        <ele>324</ele>
        <time>2010-12-04T10:43:49Z</time>
      </trkpt>
      <trkpt lat="43.75999" lon="4.87591">
        <ele>324</ele>
        <time>2010-12-04T10:43:55Z</time>
      </trkpt>
      <trkpt lat="43.75998" lon="4.87594">
        <ele>326</ele>
        <time>2010-12-04T10:44:02Z</time>
      </trkpt>
      <trkpt lat="43.75999" lon="4.87598">
        <ele>329</ele>
        <time>2010-12-04T10:44:09Z</time>
      </trkpt>
      <trkpt lat="43.75998" lon="4.87601">
        <ele>331</ele>
        <time>2010-12-04T10:44:15Z</time>
      </trkpt>
      <trkpt lat="43.75995" lon="4.87606">
        <ele>331</ele>
        <time>2010-12-04T10:44:23Z</time>
      </trkpt>
      <trkpt lat="43.75995" lon="4.87609">
        <ele>332</ele>
        <time>2010-12-04T10:44:30Z</time>
      </trkpt>
      <trkpt lat="43.75993" lon="4.87611">
        <ele>333</ele>
        <time>2010-12-04T10:44:37Z</time>
      </trkpt>
      <trkpt lat="43.75993" lon="4.87615">
        <ele>336</ele>
        <time>2010-12-04T10:44:44Z</time>
      </trkpt>
      <trkpt lat="43.75992" lon="4.8762">
        <ele>337</ele>
        <time>2010-12-04T10:44:51Z</time>
      </trkpt>
      <trkpt lat="43.7599" lon="4.87625">
        <ele>337</ele>
        <time>2010-12-04T10:44:58Z</time>
      </trkpt>
      <trkpt lat="43.75988" lon="4.8763">
        <ele>338</ele>
        <time>2010-12-04T10:45:06Z</time>
      </trkpt>
      <trkpt lat="43.75987" lon="4.87633">
        <ele>339</ele>
        <time>2010-12-04T10:45:13Z</time>
      </trkpt>
      <trkpt lat="43.75987" lon="4.87639">
        <ele>341</ele>
        <time>2010-12-04T10:45:20Z</time>
      </trkpt>
      <trkpt lat="43.75986" lon="4.87642">
        <ele>344</ele>
        <time>2010-12-04T10:45:26Z</time>
      </trkpt>
      <trkpt lat="43.75984" lon="4.87646">
        <ele>347</ele>
        <time>2010-12-04T10:45:34Z</time>
      </trkpt>
      <trkpt lat="43.75983" lon="4.87651">
        <ele>348</ele>
        <time>2010-12-04T10:45:42Z</time>
      </trkpt>
      <trkpt lat="43.75983" lon="4.87657">
        <ele>349</ele>
        <time>2010-12-04T10:45:49Z</time>
      </trkpt>
      <trkpt lat="43.7598" lon="4.87665">
        <ele>351</ele>
        <time>2010-12-04T10:45:56Z</time>
      </trkpt>
      <trkpt lat="43.75976" lon="4.87671">
        <ele>353</ele>
        <time>2010-12-04T10:46:03Z</time>
      </trkpt>
      <trkpt lat="43.75973" lon="4.87677">
        <ele>353</ele>
        <time>2010-12-04T10:46:09Z</time>
      </trkpt>
      <trkpt lat="43.75972" lon="4.87685">
        <ele>353</ele>
        <time>2010-12-04T10:46:15Z</time>
      </trkpt>
      <trkpt lat="43.75968" lon="4.87696">
        <ele>354</ele>
        <time>2010-12-04T10:46:23Z</time>
      </trkpt>
      <trkpt lat="43.75964" lon="4.87699">
        <ele>354</ele>
        <time>2010-12-04T10:46:29Z</time>
      </trkpt>
      <trkpt lat="43.75961" lon="4.87708">
        <ele>354</ele>
        <time>2010-12-04T10:46:36Z</time>
      </trkpt>
      <trkpt lat="43.75962" lon="4.87717">
        <ele>354</ele>
        <time>2010-12-04T10:46:42Z</time>
      </trkpt>
      <trkpt lat="43.75963" lon="4.87727">
        <ele>354</ele>
        <time>2010-12-04T10:46:49Z</time>
      </trkpt>
      <trkpt lat="43.75962" lon="4.87735">
        <ele>354</ele>
        <time>2010-12-04T10:46:55Z</time>
      </trkpt>
      <trkpt lat="43.75963" lon="4.87743">
        <ele>354</ele>
        <time>2010-12-04T10:47:03Z</time>
      </trkpt>
      <trkpt lat="43.75961" lon="4.87748">
        <ele>354</ele>
        <time>2010-12-04T10:47:12Z</time>
      </trkpt>
      <trkpt lat="43.7596" lon="4.87754">
        <ele>354</ele>
        <time>2010-12-04T10:47:18Z</time>
      </trkpt>
      <trkpt lat="43.75961" lon="4.87763">
        <ele>354</ele>
        <time>2010-12-04T10:47:25Z</time>
      </trkpt>
      <trkpt lat="43.75961" lon="4.87773">
        <ele>354</ele>
        <time>2010-12-04T10:47:32Z</time>
      </trkpt>
      <trkpt lat="43.75958" lon="4.87781">
        <ele>354</ele>
        <time>2010-12-04T10:47:40Z</time>
      </trkpt>
      <trkpt lat="43.75959" lon="4.87788">
        <ele>354</ele>
        <time>2010-12-04T10:47:46Z</time>
      </trkpt>
      <trkpt lat="43.75959" lon="4.87794">
        <ele>354</ele>
        <time>2010-12-04T10:47:52Z</time>
      </trkpt>
      <trkpt lat="43.7596" lon="4.878">
        <ele>354</ele>
        <time>2010-12-04T10:48:00Z</time>
      </trkpt>
      <trkpt lat="43.75959" lon="4.87809">
        <ele>354</ele>
        <time>2010-12-04T10:48:07Z</time>
      </trkpt>
      <trkpt lat="43.75955" lon="4.87812">
        <ele>354</ele>
        <time>2010-12-04T10:48:13Z</time>
      </trkpt>
      <trkpt lat="43.75949" lon="4.87809">
        <ele>354</ele>
        <time>2010-12-04T10:48:21Z</time>
      </trkpt>
      <trkpt lat="43.75945" lon="4.87805">
        <ele>354</ele>
        <time>2010-12-04T10:48:28Z</time>
      </trkpt>
      <trkpt lat="43.75944" lon="4.87805">
        <ele>354</ele>
        <time>2010-12-04T10:48:56Z</time>
      </trkpt>
      <trkpt lat="43.75944" lon="4.87805">
        <ele>355</ele>
        <time>2010-12-04T10:49:13Z</time>
      </trkpt>
      <trkpt lat="43.7594" lon="4.87804">
        <ele>355</ele>
        <time>2010-12-04T10:49:20Z</time>
      </trkpt>
      <trkpt lat="43.75938" lon="4.87804">
        <ele>355</ele>
        <time>2010-12-04T10:49:29Z</time>
      </trkpt>
      <trkpt lat="43.75935" lon="4.87806">
        <ele>355</ele>
        <time>2010-12-04T10:49:37Z</time>
      </trkpt>
      <trkpt lat="43.75933" lon="4.87806">
        <ele>355</ele>
        <time>2010-12-04T10:49:59Z</time>
      </trkpt>
      <trkpt lat="43.75936" lon="4.87804">
        <ele>355</ele>
        <time>2010-12-04T10:50:06Z</time>
      </trkpt>
      <trkpt lat="43.75938" lon="4.87801">
        <ele>356</ele>
        <time>2010-12-04T10:50:24Z</time>
      </trkpt>
      <trkpt lat="43.7594" lon="4.87801">
        <ele>358</ele>
        <time>2010-12-04T10:51:00Z</time>
      </trkpt>
      <trkpt lat="43.7594" lon="4.87799">
        <ele>360</ele>
        <time>2010-12-04T10:52:40Z</time>
      </trkpt>
      <trkpt lat="43.7594" lon="4.87796">
        <ele>360</ele>
        <time>2010-12-04T10:52:50Z</time>
      </trkpt>
      <trkpt lat="43.75943" lon="4.87783">
        <ele>359</ele>
        <time>2010-12-04T10:53:06Z</time>
      </trkpt>
      <trkpt lat="43.75937" lon="4.87797">
        <ele>353</ele>
        <time>2010-12-04T10:53:13Z</time>
      </trkpt>
      <trkpt lat="43.75939" lon="4.87801">
        <ele>350</ele>
        <time>2010-12-04T10:53:25Z</time>
      </trkpt>
      <trkpt lat="43.7594" lon="4.87803">
        <ele>357</ele>
        <time>2010-12-04T10:54:03Z</time>
      </trkpt>
      <trkpt lat="43.7594" lon="4.87801">
        <ele>359</ele>
        <time>2010-12-04T10:55:34Z</time>
      </trkpt>
      <trkpt lat="43.7594" lon="4.87803">
        <ele>359</ele>
        <time>2010-12-04T10:59:39Z</time>
      </trkpt>
      <trkpt lat="43.75941" lon="4.87803">
        <ele>360</ele>
        <time>2010-12-04T11:01:48Z</time>
      </trkpt>
      <trkpt lat="43.7594" lon="4.87803">
        <ele>361</ele>
        <time>2010-12-04T11:11:49Z</time>
      </trkpt>
      <trkpt lat="43.75941" lon="4.87803">
        <ele>361</ele>
        <time>2010-12-04T11:13:17Z</time>
      </trkpt>
      <trkpt lat="43.7594" lon="4.87803">
        <ele>361</ele>
        <time>2010-12-04T11:17:48Z</time>
      </trkpt>
      <trkpt lat="43.7594" lon="4.87804">
        <ele>361</ele>
        <time>2010-12-04T11:18:58Z</time>
      </trkpt>
      <trkpt lat="43.7594" lon="4.87803">
        <ele>361</ele>
        <time>2010-12-04T11:20:49Z</time>
      </trkpt>
      <trkpt lat="43.7594" lon="4.87802">
        <ele>361</ele>
        <time>2010-12-04T11:21:26Z</time>
      </trkpt>
      <trkpt lat="43.7594" lon="4.87801">
        <ele>361</ele>
        <time>2010-12-04T11:21:40Z</time>
      </trkpt>
      <trkpt lat="43.75942" lon="4.87803">
        <ele>361</ele>
        <time>2010-12-04T11:22:02Z</time>
      </trkpt>
      <trkpt lat="43.75941" lon="4.87803">
        <ele>361</ele>
        <time>2010-12-04T11:22:42Z</time>
      </trkpt>
      <trkpt lat="43.75941" lon="4.87805">
        <ele>361</ele>
        <time>2010-12-04T11:22:56Z</time>
      </trkpt>
      <trkpt lat="43.75941" lon="4.87803">
        <ele>361</ele>
        <time>2010-12-04T11:23:05Z</time>
      </trkpt>
      <trkpt lat="43.7594" lon="4.87802">
        <ele>361</ele>
        <time>2010-12-04T11:23:27Z</time>
      </trkpt>
      <trkpt lat="43.75942" lon="4.87803">
        <ele>361</ele>
        <time>2010-12-04T11:24:17Z</time>
      </trkpt>
      <trkpt lat="43.75945" lon="4.87805">
        <ele>361</ele>
        <time>2010-12-04T11:24:23Z</time>
      </trkpt>
      <trkpt lat="43.75949" lon="4.8781">
        <ele>361</ele>
        <time>2010-12-04T11:24:31Z</time>
      </trkpt>
      <trkpt lat="43.75949" lon="4.87816">
        <ele>361</ele>
        <time>2010-12-04T11:24:37Z</time>
      </trkpt>
      <trkpt lat="43.75953" lon="4.8782">
        <ele>361</ele>
        <time>2010-12-04T11:24:45Z</time>
      </trkpt>
      <trkpt lat="43.75954" lon="4.87825">
        <ele>361</ele>
        <time>2010-12-04T11:24:51Z</time>
      </trkpt>
      <trkpt lat="43.75956" lon="4.87831">
        <ele>361</ele>
        <time>2010-12-04T11:24:59Z</time>
      </trkpt>
      <trkpt lat="43.7596" lon="4.87835">
        <ele>361</ele>
        <time>2010-12-04T11:25:06Z</time>
      </trkpt>
      <trkpt lat="43.75959" lon="4.87844">
        <ele>362</ele>
        <time>2010-12-04T11:25:15Z</time>
      </trkpt>
      <trkpt lat="43.75959" lon="4.87852">
        <ele>363</ele>
        <time>2010-12-04T11:25:23Z</time>
      </trkpt>
      <trkpt lat="43.7596" lon="4.87861">
        <ele>364</ele>
        <time>2010-12-04T11:25:30Z</time>
      </trkpt>
      <trkpt lat="43.7596" lon="4.87868">
        <ele>364</ele>
        <time>2010-12-04T11:25:36Z</time>
      </trkpt>
      <trkpt lat="43.7596" lon="4.87879">
        <ele>364</ele>
        <time>2010-12-04T11:25:44Z</time>
      </trkpt>
      <trkpt lat="43.7596" lon="4.87887">
        <ele>364</ele>
        <time>2010-12-04T11:25:51Z</time>
      </trkpt>
      <trkpt lat="43.75961" lon="4.87895">
        <ele>364</ele>
        <time>2010-12-04T11:25:57Z</time>
      </trkpt>
      <trkpt lat="43.75961" lon="4.87902">
        <ele>364</ele>
        <time>2010-12-04T11:26:03Z</time>
      </trkpt>
      <trkpt lat="43.7596" lon="4.87911">
        <ele>364</ele>
        <time>2010-12-04T11:26:10Z</time>
      </trkpt>
      <trkpt lat="43.75959" lon="4.87919">
        <ele>364</ele>
        <time>2010-12-04T11:26:17Z</time>
      </trkpt>
      <trkpt lat="43.75958" lon="4.87929">
        <ele>364</ele>
        <time>2010-12-04T11:26:24Z</time>
      </trkpt>
      <trkpt lat="43.75954" lon="4.87934">
        <ele>364</ele>
        <time>2010-12-04T11:26:30Z</time>
      </trkpt>
      <trkpt lat="43.75949" lon="4.8794">
        <ele>364</ele>
        <time>2010-12-04T11:26:36Z</time>
      </trkpt>
      <trkpt lat="43.75948" lon="4.87949">
        <ele>364</ele>
        <time>2010-12-04T11:26:43Z</time>
      </trkpt>
      <trkpt lat="43.75945" lon="4.87957">
        <ele>363</ele>
        <time>2010-12-04T11:26:50Z</time>
      </trkpt>
      <trkpt lat="43.75942" lon="4.87963">
        <ele>362</ele>
        <time>2010-12-04T11:26:57Z</time>
      </trkpt>
      <trkpt lat="43.75943" lon="4.87969">
        <ele>362</ele>
        <time>2010-12-04T11:27:03Z</time>
      </trkpt>
      <trkpt lat="43.75943" lon="4.87976">
        <ele>362</ele>
        <time>2010-12-04T11:27:09Z</time>
      </trkpt>
      <trkpt lat="43.75942" lon="4.87982">
        <ele>362</ele>
        <time>2010-12-04T11:27:15Z</time>
      </trkpt>
      <trkpt lat="43.75942" lon="4.87989">
        <ele>362</ele>
        <time>2010-12-04T11:27:21Z</time>
      </trkpt>
      <trkpt lat="43.75942" lon="4.87997">
        <ele>362</ele>
        <time>2010-12-04T11:27:28Z</time>
      </trkpt>
      <trkpt lat="43.75941" lon="4.88006">
        <ele>362</ele>
        <time>2010-12-04T11:27:35Z</time>
      </trkpt>
      <trkpt lat="43.75942" lon="4.88014">
        <ele>362</ele>
        <time>2010-12-04T11:27:42Z</time>
      </trkpt>
      <trkpt lat="43.75944" lon="4.88022">
        <ele>362</ele>
        <time>2010-12-04T11:27:50Z</time>
      </trkpt>
      <trkpt lat="43.75946" lon="4.88029">
        <ele>362</ele>
        <time>2010-12-04T11:27:56Z</time>
      </trkpt>
      <trkpt lat="43.75947" lon="4.88037">
        <ele>362</ele>
        <time>2010-12-04T11:28:02Z</time>
      </trkpt>
      <trkpt lat="43.75949" lon="4.88046">
        <ele>362</ele>
        <time>2010-12-04T11:28:09Z</time>
      </trkpt>
      <trkpt lat="43.75949" lon="4.88056">
        <ele>362</ele>
        <time>2010-12-04T11:28:16Z</time>
      </trkpt>
      <trkpt lat="43.75949" lon="4.88065">
        <ele>362</ele>
        <time>2010-12-04T11:28:23Z</time>
      </trkpt>
      <trkpt lat="43.75952" lon="4.88074">
        <ele>362</ele>
        <time>2010-12-04T11:28:30Z</time>
      </trkpt>
      <trkpt lat="43.75954" lon="4.88082">
        <ele>362</ele>
        <time>2010-12-04T11:28:36Z</time>
      </trkpt>
      <trkpt lat="43.75953" lon="4.88091">
        <ele>362</ele>
        <time>2010-12-04T11:28:42Z</time>
      </trkpt>
      <trkpt lat="43.75954" lon="4.881">
        <ele>362</ele>
        <time>2010-12-04T11:28:48Z</time>
      </trkpt>
      <trkpt lat="43.75954" lon="4.8811">
        <ele>362</ele>
        <time>2010-12-04T11:28:55Z</time>
      </trkpt>
      <trkpt lat="43.75956" lon="4.88119">
        <ele>362</ele>
        <time>2010-12-04T11:29:02Z</time>
      </trkpt>
      <trkpt lat="43.75955" lon="4.88131">
        <ele>362</ele>
        <time>2010-12-04T11:29:09Z</time>
      </trkpt>
      <trkpt lat="43.75957" lon="4.88138">
        <ele>362</ele>
        <time>2010-12-04T11:29:15Z</time>
      </trkpt>
      <trkpt lat="43.75959" lon="4.88146">
        <ele>362</ele>
        <time>2010-12-04T11:29:21Z</time>
      </trkpt>
      <trkpt lat="43.75962" lon="4.88153">
        <ele>362</ele>
        <time>2010-12-04T11:29:27Z</time>
      </trkpt>
      <trkpt lat="43.75962" lon="4.88159">
        <ele>362</ele>
        <time>2010-12-04T11:29:33Z</time>
      </trkpt>
      <trkpt lat="43.75964" lon="4.88167">
        <ele>361</ele>
        <time>2010-12-04T11:29:40Z</time>
      </trkpt>
      <trkpt lat="43.75967" lon="4.8817">
        <ele>359</ele>
        <time>2010-12-04T11:29:46Z</time>
      </trkpt>
      <trkpt lat="43.7597" lon="4.88178">
        <ele>359</ele>
        <time>2010-12-04T11:29:52Z</time>
      </trkpt>
      <trkpt lat="43.75973" lon="4.88186">
        <ele>358</ele>
        <time>2010-12-04T11:29:59Z</time>
      </trkpt>
      <trkpt lat="43.75973" lon="4.88194">
        <ele>358</ele>
        <time>2010-12-04T11:30:05Z</time>
      </trkpt>
      <trkpt lat="43.75974" lon="4.882">
        <ele>358</ele>
        <time>2010-12-04T11:30:11Z</time>
      </trkpt>
      <trkpt lat="43.75975" lon="4.88204">
        <ele>357</ele>
        <time>2010-12-04T11:30:17Z</time>
      </trkpt>
      <trkpt lat="43.75978" lon="4.8821">
        <ele>355</ele>
        <time>2010-12-04T11:30:24Z</time>
      </trkpt>
      <trkpt lat="43.75981" lon="4.88217">
        <ele>354</ele>
        <time>2010-12-04T11:30:32Z</time>
      </trkpt>
      <trkpt lat="43.75982" lon="4.88223">
        <ele>353</ele>
        <time>2010-12-04T11:30:38Z</time>
      </trkpt>
      <trkpt lat="43.75984" lon="4.88229">
        <ele>353</ele>
        <time>2010-12-04T11:30:44Z</time>
      </trkpt>
      <trkpt lat="43.75985" lon="4.88238">
        <ele>353</ele>
        <time>2010-12-04T11:30:51Z</time>
      </trkpt>
      <trkpt lat="43.75985" lon="4.88243">
        <ele>353</ele>
        <time>2010-12-04T11:30:58Z</time>
      </trkpt>
      <trkpt lat="43.75982" lon="4.88242">
        <ele>352</ele>
        <time>2010-12-04T11:31:04Z</time>
      </trkpt>
      <trkpt lat="43.7598" lon="4.88239">
        <ele>351</ele>
        <time>2010-12-04T11:31:11Z</time>
      </trkpt>
      <trkpt lat="43.75978" lon="4.88241">
        <ele>351</ele>
        <time>2010-12-04T11:31:19Z</time>
      </trkpt>
      <trkpt lat="43.75977" lon="4.88243">
        <ele>348</ele>
        <time>2010-12-04T11:31:27Z</time>
      </trkpt>
      <trkpt lat="43.75974" lon="4.88244">
        <ele>345</ele>
        <time>2010-12-04T11:31:34Z</time>
      </trkpt>
      <trkpt lat="43.75971" lon="4.88246">
        <ele>341</ele>
        <time>2010-12-04T11:31:44Z</time>
      </trkpt>
      <trkpt lat="43.7597" lon="4.88251">
        <ele>341</ele>
        <time>2010-12-04T11:31:51Z</time>
      </trkpt>
      <trkpt lat="43.75967" lon="4.8825">
        <ele>341</ele>
        <time>2010-12-04T11:31:59Z</time>
      </trkpt>
      <trkpt lat="43.75965" lon="4.88248">
        <ele>340</ele>
        <time>2010-12-04T11:32:07Z</time>
      </trkpt>
      <trkpt lat="43.75961" lon="4.8825">
        <ele>338</ele>
        <time>2010-12-04T11:32:15Z</time>
      </trkpt>
      <trkpt lat="43.75959" lon="4.88249">
        <ele>335</ele>
        <time>2010-12-04T11:32:21Z</time>
      </trkpt>
      <trkpt lat="43.75954" lon="4.88248">
        <ele>332</ele>
        <time>2010-12-04T11:32:29Z</time>
      </trkpt>
      <trkpt lat="43.75945" lon="4.88246">
        <ele>330</ele>
        <time>2010-12-04T11:32:37Z</time>
      </trkpt>
      <trkpt lat="43.7594" lon="4.88246">
        <ele>330</ele>
        <time>2010-12-04T11:32:43Z</time>
      </trkpt>
      <trkpt lat="43.75933" lon="4.88246">
        <ele>330</ele>
        <time>2010-12-04T11:32:50Z</time>
      </trkpt>
      <trkpt lat="43.75928" lon="4.8825">
        <ele>330</ele>
        <time>2010-12-04T11:32:56Z</time>
      </trkpt>
      <trkpt lat="43.75924" lon="4.88253">
        <ele>330</ele>
        <time>2010-12-04T11:33:02Z</time>
      </trkpt>
      <trkpt lat="43.75919" lon="4.88256">
        <ele>329</ele>
        <time>2010-12-04T11:33:09Z</time>
      </trkpt>
      <trkpt lat="43.75916" lon="4.88257">
        <ele>328</ele>
        <time>2010-12-04T11:33:15Z</time>
      </trkpt>
      <trkpt lat="43.75912" lon="4.88258">
        <ele>327</ele>
        <time>2010-12-04T11:33:21Z</time>
      </trkpt>
      <trkpt lat="43.75906" lon="4.88259">
        <ele>324</ele>
        <time>2010-12-04T11:33:28Z</time>
      </trkpt>
      <trkpt lat="43.75899" lon="4.8826">
        <ele>322</ele>
        <time>2010-12-04T11:33:35Z</time>
      </trkpt>
      <trkpt lat="43.75895" lon="4.8826">
        <ele>322</ele>
        <time>2010-12-04T11:33:42Z</time>
      </trkpt>
      <trkpt lat="43.75891" lon="4.88259">
        <ele>322</ele>
        <time>2010-12-04T11:33:49Z</time>
      </trkpt>
      <trkpt lat="43.75889" lon="4.88253">
        <ele>322</ele>
        <time>2010-12-04T11:33:57Z</time>
      </trkpt>
      <trkpt lat="43.75885" lon="4.88249">
        <ele>322</ele>
        <time>2010-12-04T11:34:04Z</time>
      </trkpt>
      <trkpt lat="43.75882" lon="4.88246">
        <ele>322</ele>
        <time>2010-12-04T11:34:10Z</time>
      </trkpt>
      <trkpt lat="43.75878" lon="4.88237">
        <ele>322</ele>
        <time>2010-12-04T11:34:18Z</time>
      </trkpt>
      <trkpt lat="43.75877" lon="4.88234">
        <ele>321</ele>
        <time>2010-12-04T11:34:24Z</time>
      </trkpt>
      <trkpt lat="43.75874" lon="4.88228">
        <ele>321</ele>
        <time>2010-12-04T11:34:32Z</time>
      </trkpt>
      <trkpt lat="43.75871" lon="4.88227">
        <ele>320</ele>
        <time>2010-12-04T11:34:38Z</time>
      </trkpt>
      <trkpt lat="43.75868" lon="4.88222">
        <ele>317</ele>
        <time>2010-12-04T11:34:45Z</time>
      </trkpt>
      <trkpt lat="43.75861" lon="4.88222">
        <ele>314</ele>
        <time>2010-12-04T11:34:51Z</time>
      </trkpt>
      <trkpt lat="43.75856" lon="4.88225">
        <ele>313</ele>
        <time>2010-12-04T11:34:57Z</time>
      </trkpt>
      <trkpt lat="43.75851" lon="4.88228">
        <ele>311</ele>
        <time>2010-12-04T11:35:03Z</time>
      </trkpt>
      <trkpt lat="43.75853" lon="4.88235">
        <ele>309</ele>
        <time>2010-12-04T11:35:09Z</time>
      </trkpt>
      <trkpt lat="43.75854" lon="4.88242">
        <ele>306</ele>
        <time>2010-12-04T11:35:15Z</time>
      </trkpt>
      <trkpt lat="43.75856" lon="4.88249">
        <ele>306</ele>
        <time>2010-12-04T11:35:22Z</time>
      </trkpt>
      <trkpt lat="43.75858" lon="4.88255">
        <ele>306</ele>
        <time>2010-12-04T11:35:29Z</time>
      </trkpt>
      <trkpt lat="43.75862" lon="4.88259">
        <ele>307</ele>
        <time>2010-12-04T11:35:36Z</time>
      </trkpt>
      <trkpt lat="43.75866" lon="4.88264">
        <ele>308</ele>
        <time>2010-12-04T11:35:42Z</time>
      </trkpt>
      <trkpt lat="43.7587" lon="4.88269">
        <ele>309</ele>
        <time>2010-12-04T11:35:50Z</time>
      </trkpt>
      <trkpt lat="43.75871" lon="4.88276">
        <ele>309</ele>
        <time>2010-12-04T11:35:56Z</time>
      </trkpt>
      <trkpt lat="43.75873" lon="4.88281">
        <ele>309</ele>
        <time>2010-12-04T11:36:03Z</time>
      </trkpt>
      <trkpt lat="43.75875" lon="4.88287">
        <ele>307</ele>
        <time>2010-12-04T11:36:09Z</time>
      </trkpt>
      <trkpt lat="43.75876" lon="4.88293">
        <ele>305</ele>
        <time>2010-12-04T11:36:15Z</time>
      </trkpt>
      <trkpt lat="43.75876" lon="4.88301">
        <ele>303</ele>
        <time>2010-12-04T11:36:23Z</time>
      </trkpt>
      <trkpt lat="43.75876" lon="4.88306">
        <ele>301</ele>
        <time>2010-12-04T11:36:29Z</time>
      </trkpt>
      <trkpt lat="43.75878" lon="4.88313">
        <ele>300</ele>
        <time>2010-12-04T11:36:36Z</time>
      </trkpt>
      <trkpt lat="43.75876" lon="4.88324">
        <ele>299</ele>
        <time>2010-12-04T11:36:43Z</time>
      </trkpt>
      <trkpt lat="43.75875" lon="4.88331">
        <ele>299</ele>
        <time>2010-12-04T11:36:49Z</time>
      </trkpt>
      <trkpt lat="43.75871" lon="4.88334">
        <ele>299</ele>
        <time>2010-12-04T11:36:55Z</time>
      </trkpt>
      <trkpt lat="43.75869" lon="4.8834">
        <ele>299</ele>
        <time>2010-12-04T11:37:01Z</time>
      </trkpt>
      <trkpt lat="43.75871" lon="4.88349">
        <ele>299</ele>
        <time>2010-12-04T11:37:08Z</time>
      </trkpt>
      <trkpt lat="43.75871" lon="4.88357">
        <ele>296</ele>
        <time>2010-12-04T11:37:14Z</time>
      </trkpt>
      <trkpt lat="43.75872" lon="4.88367">
        <ele>294</ele>
        <time>2010-12-04T11:37:21Z</time>
      </trkpt>
      <trkpt lat="43.75873" lon="4.88375">
        <ele>293</ele>
        <time>2010-12-04T11:37:27Z</time>
      </trkpt>
      <trkpt lat="43.75872" lon="4.88384">
        <ele>293</ele>
        <time>2010-12-04T11:37:34Z</time>
      </trkpt>
      <trkpt lat="43.75873" lon="4.8839">
        <ele>291</ele>
        <time>2010-12-04T11:37:40Z</time>
      </trkpt>
      <trkpt lat="43.75871" lon="4.88397">
        <ele>291</ele>
        <time>2010-12-04T11:37:47Z</time>
      </trkpt>
      <trkpt lat="43.7587" lon="4.88402">
        <ele>291</ele>
        <time>2010-12-04T11:37:53Z</time>
      </trkpt>
      <trkpt lat="43.75867" lon="4.88408">
        <ele>291</ele>
        <time>2010-12-04T11:38:01Z</time>
      </trkpt>
      <trkpt lat="43.75866" lon="4.8842">
        <ele>291</ele>
        <time>2010-12-04T11:38:08Z</time>
      </trkpt>
      <trkpt lat="43.75865" lon="4.88428">
        <ele>291</ele>
        <time>2010-12-04T11:38:15Z</time>
      </trkpt>
      <trkpt lat="43.75866" lon="4.88441">
        <ele>291</ele>
        <time>2010-12-04T11:38:23Z</time>
      </trkpt>
      <trkpt lat="43.75865" lon="4.88449">
        <ele>291</ele>
        <time>2010-12-04T11:38:29Z</time>
      </trkpt>
      <trkpt lat="43.75865" lon="4.88459">
        <ele>291</ele>
        <time>2010-12-04T11:38:35Z</time>
      </trkpt>
      <trkpt lat="43.75868" lon="4.88469">
        <ele>291</ele>
        <time>2010-12-04T11:38:42Z</time>
      </trkpt>
      <trkpt lat="43.7587" lon="4.88478">
        <ele>291</ele>
        <time>2010-12-04T11:38:48Z</time>
      </trkpt>
      <trkpt lat="43.75872" lon="4.88488">
        <ele>291</ele>
        <time>2010-12-04T11:38:54Z</time>
      </trkpt>
      <trkpt lat="43.75872" lon="4.88497">
        <ele>291</ele>
        <time>2010-12-04T11:39:01Z</time>
      </trkpt>
      <trkpt lat="43.75872" lon="4.88506">
        <ele>291</ele>
        <time>2010-12-04T11:39:08Z</time>
      </trkpt>
      <trkpt lat="43.75875" lon="4.8851">
        <ele>291</ele>
        <time>2010-12-04T11:39:15Z</time>
      </trkpt>
      <trkpt lat="43.75877" lon="4.88516">
        <ele>291</ele>
        <time>2010-12-04T11:39:22Z</time>
      </trkpt>
      <trkpt lat="43.75874" lon="4.88523">
        <ele>291</ele>
        <time>2010-12-04T11:39:30Z</time>
      </trkpt>
      <trkpt lat="43.75873" lon="4.88534">
        <ele>291</ele>
        <time>2010-12-04T11:39:36Z</time>
      </trkpt>
      <trkpt lat="43.75873" lon="4.88545">
        <ele>291</ele>
        <time>2010-12-04T11:39:42Z</time>
      </trkpt>
      <trkpt lat="43.75874" lon="4.88558">
        <ele>291</ele>
        <time>2010-12-04T11:39:49Z</time>
      </trkpt>
      <trkpt lat="43.75878" lon="4.88564">
        <ele>291</ele>
        <time>2010-12-04T11:39:55Z</time>
      </trkpt>
      <trkpt lat="43.75879" lon="4.88573">
        <ele>291</ele>
        <time>2010-12-04T11:40:02Z</time>
      </trkpt>
      <trkpt lat="43.75879" lon="4.88582">
        <ele>291</ele>
        <time>2010-12-04T11:40:08Z</time>
      </trkpt>
      <trkpt lat="43.7588" lon="4.88591">
        <ele>291</ele>
        <time>2010-12-04T11:40:14Z</time>
      </trkpt>
      <trkpt lat="43.7588" lon="4.88602">
        <ele>291</ele>
        <time>2010-12-04T11:40:21Z</time>
      </trkpt>
      <trkpt lat="43.75879" lon="4.8861">
        <ele>291</ele>
        <time>2010-12-04T11:40:27Z</time>
      </trkpt>
      <trkpt lat="43.75879" lon="4.88616">
        <ele>290</ele>
        <time>2010-12-04T11:40:35Z</time>
      </trkpt>
      <trkpt lat="43.75876" lon="4.8862">
        <ele>287</ele>
        <time>2010-12-04T11:40:43Z</time>
      </trkpt>
      <trkpt lat="43.75877" lon="4.8863">
        <ele>285</ele>
        <time>2010-12-04T11:40:49Z</time>
      </trkpt>
      <trkpt lat="43.75876" lon="4.88637">
        <ele>285</ele>
        <time>2010-12-04T11:40:55Z</time>
      </trkpt>
      <trkpt lat="43.75874" lon="4.88643">
        <ele>285</ele>
        <time>2010-12-04T11:41:01Z</time>
      </trkpt>
      <trkpt lat="43.75874" lon="4.8865">
        <ele>285</ele>
        <time>2010-12-04T11:41:07Z</time>
      </trkpt>
      <trkpt lat="43.75874" lon="4.88659">
        <ele>284</ele>
        <time>2010-12-04T11:41:13Z</time>
      </trkpt>
      <trkpt lat="43.75874" lon="4.88665">
        <ele>284</ele>
        <time>2010-12-04T11:41:19Z</time>
      </trkpt>
      <trkpt lat="43.75877" lon="4.88673">
        <ele>284</ele>
        <time>2010-12-04T11:41:27Z</time>
      </trkpt>
      <trkpt lat="43.7588" lon="4.88677">
        <ele>284</ele>
        <time>2010-12-04T11:41:33Z</time>
      </trkpt>
      <trkpt lat="43.75882" lon="4.88685">
        <ele>284</ele>
        <time>2010-12-04T11:41:41Z</time>
      </trkpt>
      <trkpt lat="43.75886" lon="4.88688">
        <ele>285</ele>
        <time>2010-12-04T11:41:48Z</time>
      </trkpt>
      <trkpt lat="43.75888" lon="4.88693">
        <ele>286</ele>
        <time>2010-12-04T11:41:54Z</time>
      </trkpt>
      <trkpt lat="43.75888" lon="4.88701">
        <ele>287</ele>
        <time>2010-12-04T11:42:01Z</time>
      </trkpt>
      <trkpt lat="43.75887" lon="4.8871">
        <ele>287</ele>
        <time>2010-12-04T11:42:08Z</time>
      </trkpt>
      <trkpt lat="43.75885" lon="4.8872">
        <ele>287</ele>
        <time>2010-12-04T11:42:15Z</time>
      </trkpt>
      <trkpt lat="43.75881" lon="4.88724">
        <ele>287</ele>
        <time>2010-12-04T11:42:23Z</time>
      </trkpt>
      <trkpt lat="43.75882" lon="4.88732">
        <ele>287</ele>
        <time>2010-12-04T11:42:31Z</time>
      </trkpt>
      <trkpt lat="43.75884" lon="4.8874">
        <ele>287</ele>
        <time>2010-12-04T11:42:39Z</time>
      </trkpt>
      <trkpt lat="43.75885" lon="4.88745">
        <ele>287</ele>
        <time>2010-12-04T11:42:45Z</time>
      </trkpt>
      <trkpt lat="43.75885" lon="4.88751">
        <ele>287</ele>
        <time>2010-12-04T11:42:51Z</time>
      </trkpt>
      <trkpt lat="43.75885" lon="4.88758">
        <ele>289</ele>
        <time>2010-12-04T11:42:59Z</time>
      </trkpt>
      <trkpt lat="43.7589" lon="4.88764">
        <ele>291</ele>
        <time>2010-12-04T11:43:08Z</time>
      </trkpt>
      <trkpt lat="43.75892" lon="4.88769">
        <ele>292</ele>
        <time>2010-12-04T11:43:15Z</time>
      </trkpt>
      <trkpt lat="43.75895" lon="4.88774">
        <ele>294</ele>
        <time>2010-12-04T11:43:22Z</time>
      </trkpt>
      <trkpt lat="43.75894" lon="4.88779">
        <ele>296</ele>
        <time>2010-12-04T11:43:28Z</time>
      </trkpt>
      <trkpt lat="43.75895" lon="4.88787">
        <ele>298</ele>
        <time>2010-12-04T11:43:35Z</time>
      </trkpt>
      <trkpt lat="43.75895" lon="4.88793">
        <ele>300</ele>
        <time>2010-12-04T11:43:41Z</time>
      </trkpt>
      <trkpt lat="43.75894" lon="4.88803">
        <ele>301</ele>
        <time>2010-12-04T11:43:48Z</time>
      </trkpt>
      <trkpt lat="43.75896" lon="4.88808">
        <ele>301</ele>
        <time>2010-12-04T11:43:54Z</time>
      </trkpt>
      <trkpt lat="43.75896" lon="4.88815">
        <ele>301</ele>
        <time>2010-12-04T11:44:02Z</time>
      </trkpt>
      <trkpt lat="43.75896" lon="4.88823">
        <ele>301</ele>
        <time>2010-12-04T11:44:08Z</time>
      </trkpt>
      <trkpt lat="43.75898" lon="4.88831">
        <ele>301</ele>
        <time>2010-12-04T11:44:14Z</time>
      </trkpt>
      <trkpt lat="43.75901" lon="4.88837">
        <ele>300</ele>
        <time>2010-12-04T11:44:20Z</time>
      </trkpt>
      <trkpt lat="43.75902" lon="4.88844">
        <ele>300</ele>
        <time>2010-12-04T11:44:27Z</time>
      </trkpt>
      <trkpt lat="43.75902" lon="4.88852">
        <ele>300</ele>
        <time>2010-12-04T11:44:33Z</time>
      </trkpt>
      <trkpt lat="43.75898" lon="4.8886">
        <ele>300</ele>
        <time>2010-12-04T11:44:40Z</time>
      </trkpt>
      <trkpt lat="43.759" lon="4.88867">
        <ele>300</ele>
        <time>2010-12-04T11:44:47Z</time>
      </trkpt>
      <trkpt lat="43.759" lon="4.88872">
        <ele>300</ele>
        <time>2010-12-04T11:44:54Z</time>
      </trkpt>
      <trkpt lat="43.75901" lon="4.88878">
        <ele>300</ele>
        <time>2010-12-04T11:45:01Z</time>
      </trkpt>
      <trkpt lat="43.759" lon="4.88883">
        <ele>300</ele>
        <time>2010-12-04T11:45:08Z</time>
      </trkpt>
      <trkpt lat="43.75899" lon="4.88889">
        <ele>301</ele>
        <time>2010-12-04T11:45:14Z</time>
      </trkpt>
      <trkpt lat="43.75897" lon="4.88898">
        <ele>301</ele>
        <time>2010-12-04T11:45:21Z</time>
      </trkpt>
      <trkpt lat="43.75899" lon="4.88903">
        <ele>301</ele>
        <time>2010-12-04T11:45:27Z</time>
      </trkpt>
      <trkpt lat="43.759" lon="4.88908">
        <ele>301</ele>
        <time>2010-12-04T11:45:33Z</time>
      </trkpt>
      <trkpt lat="43.75901" lon="4.88913">
        <ele>301</ele>
        <time>2010-12-04T11:45:41Z</time>
      </trkpt>
      <trkpt lat="43.75904" lon="4.88922">
        <ele>301</ele>
        <time>2010-12-04T11:45:48Z</time>
      </trkpt>
      <trkpt lat="43.75909" lon="4.8893">
        <ele>301</ele>
        <time>2010-12-04T11:45:54Z</time>
      </trkpt>
      <trkpt lat="43.75912" lon="4.88937">
        <ele>301</ele>
        <time>2010-12-04T11:46:01Z</time>
      </trkpt>
      <trkpt lat="43.75915" lon="4.88944">
        <ele>301</ele>
        <time>2010-12-04T11:46:07Z</time>
      </trkpt>
      <trkpt lat="43.75916" lon="4.88952">
        <ele>301</ele>
        <time>2010-12-04T11:46:13Z</time>
      </trkpt>
      <trkpt lat="43.75918" lon="4.88961">
        <ele>301</ele>
        <time>2010-12-04T11:46:21Z</time>
      </trkpt>
      <trkpt lat="43.75917" lon="4.88966">
        <ele>301</ele>
        <time>2010-12-04T11:46:27Z</time>
      </trkpt>
      <trkpt lat="43.75917" lon="4.88971">
        <ele>301</ele>
        <time>2010-12-04T11:46:34Z</time>
      </trkpt>
      <trkpt lat="43.75915" lon="4.88976">
        <ele>301</ele>
        <time>2010-12-04T11:46:41Z</time>
      </trkpt>
      <trkpt lat="43.75918" lon="4.88986">
        <ele>301</ele>
        <time>2010-12-04T11:46:50Z</time>
      </trkpt>
      <trkpt lat="43.75922" lon="4.8899">
        <ele>301</ele>
        <time>2010-12-04T11:46:58Z</time>
      </trkpt>
      <trkpt lat="43.7592" lon="4.88995">
        <ele>301</ele>
        <time>2010-12-04T11:47:08Z</time>
      </trkpt>
      <trkpt lat="43.7592" lon="4.88999">
        <ele>301</ele>
        <time>2010-12-04T11:47:14Z</time>
      </trkpt>
      <trkpt lat="43.7592" lon="4.89002">
        <ele>301</ele>
        <time>2010-12-04T11:47:20Z</time>
      </trkpt>
      <trkpt lat="43.7592" lon="4.89004">
        <ele>301</ele>
        <time>2010-12-04T11:47:27Z</time>
      </trkpt>
      <trkpt lat="43.75918" lon="4.89008">
        <ele>301</ele>
        <time>2010-12-04T11:47:35Z</time>
      </trkpt>
      <trkpt lat="43.75919" lon="4.89012">
        <ele>301</ele>
        <time>2010-12-04T11:47:42Z</time>
      </trkpt>
      <trkpt lat="43.75917" lon="4.89017">
        <ele>301</ele>
        <time>2010-12-04T11:47:48Z</time>
      </trkpt>
      <trkpt lat="43.75921" lon="4.89021">
        <ele>299</ele>
        <time>2010-12-04T11:47:55Z</time>
      </trkpt>
      <trkpt lat="43.75923" lon="4.89027">
        <ele>299</ele>
        <time>2010-12-04T11:48:04Z</time>
      </trkpt>
      <trkpt lat="43.75922" lon="4.89032">
        <ele>299</ele>
        <time>2010-12-04T11:48:11Z</time>
      </trkpt>
      <trkpt lat="43.75922" lon="4.89037">
        <ele>299</ele>
        <time>2010-12-04T11:48:18Z</time>
      </trkpt>
      <trkpt lat="43.7592" lon="4.89042">
        <ele>304</ele>
        <time>2010-12-04T11:48:26Z</time>
      </trkpt>
      <trkpt lat="43.75919" lon="4.89044">
        <ele>307</ele>
        <time>2010-12-04T11:48:36Z</time>
      </trkpt>
      <trkpt lat="43.75918" lon="4.89049">
        <ele>308</ele>
        <time>2010-12-04T11:48:44Z</time>
      </trkpt>
      <trkpt lat="43.75917" lon="4.89055">
        <ele>311</ele>
        <time>2010-12-04T11:48:51Z</time>
      </trkpt>
      <trkpt lat="43.75917" lon="4.89056">
        <ele>312</ele>
        <time>2010-12-04T11:49:14Z</time>
      </trkpt>
      <trkpt lat="43.7592" lon="4.89058">
        <ele>312</ele>
        <time>2010-12-04T11:49:21Z</time>
      </trkpt>
      <trkpt lat="43.75919" lon="4.89059">
        <ele>312</ele>
        <time>2010-12-04T11:49:31Z</time>
      </trkpt>
      <trkpt lat="43.75921" lon="4.89059">
        <ele>312</ele>
        <time>2010-12-04T11:49:54Z</time>
      </trkpt>
      <trkpt lat="43.75927" lon="4.89061">
        <ele>308</ele>
        <time>2010-12-04T11:50:02Z</time>
      </trkpt>
      <trkpt lat="43.75925" lon="4.89062">
        <ele>304</ele>
        <time>2010-12-04T11:50:28Z</time>
      </trkpt>
      <trkpt lat="43.75924" lon="4.89061">
        <ele>304</ele>
        <time>2010-12-04T11:50:36Z</time>
      </trkpt>
      <trkpt lat="43.75923" lon="4.89061">
        <ele>304</ele>
        <time>2010-12-04T11:50:47Z</time>
      </trkpt>
      <trkpt lat="43.75922" lon="4.89061">
        <ele>304</ele>
        <time>2010-12-04T11:51:00Z</time>
      </trkpt>
      <trkpt lat="43.75921" lon="4.8906">
        <ele>305</ele>
        <time>2010-12-04T11:51:22Z</time>
      </trkpt>
      <trkpt lat="43.75921" lon="4.89061">
        <ele>309</ele>
        <time>2010-12-04T11:51:41Z</time>
      </trkpt>
      <trkpt lat="43.7592" lon="4.89066">
        <ele>309</ele>
        <time>2010-12-04T11:51:50Z</time>
      </trkpt>
      <trkpt lat="43.75921" lon="4.89071">
        <ele>309</ele>
        <time>2010-12-04T11:51:56Z</time>
      </trkpt>
      <trkpt lat="43.75919" lon="4.89074">
        <ele>309</ele>
        <time>2010-12-04T11:52:03Z</time>
      </trkpt>
      <trkpt lat="43.75919" lon="4.89077">
        <ele>309</ele>
        <time>2010-12-04T11:52:11Z</time>
      </trkpt>
      <trkpt lat="43.75917" lon="4.89083">
        <ele>312</ele>
        <time>2010-12-04T11:52:21Z</time>
      </trkpt>
      <trkpt lat="43.75917" lon="4.89085">
        <ele>312</ele>
        <time>2010-12-04T11:52:27Z</time>
      </trkpt>
      <trkpt lat="43.75917" lon="4.89087">
        <ele>311</ele>
        <time>2010-12-04T11:52:33Z</time>
      </trkpt>
      <trkpt lat="43.75915" lon="4.89087">
        <ele>308</ele>
        <time>2010-12-04T11:52:42Z</time>
      </trkpt>
      <trkpt lat="43.75912" lon="4.89087">
        <ele>308</ele>
        <time>2010-12-04T11:52:48Z</time>
      </trkpt>
      <trkpt lat="43.75909" lon="4.89095">
        <ele>305</ele>
        <time>2010-12-04T11:52:54Z</time>
      </trkpt>
      <trkpt lat="43.75909" lon="4.89105">
        <ele>302</ele>
        <time>2010-12-04T11:53:01Z</time>
      </trkpt>
      <trkpt lat="43.75911" lon="4.89111">
        <ele>300</ele>
        <time>2010-12-04T11:53:07Z</time>
      </trkpt>
      <trkpt lat="43.75908" lon="4.89116">
        <ele>300</ele>
        <time>2010-12-04T11:53:14Z</time>
      </trkpt>
      <trkpt lat="43.75907" lon="4.89125">
        <ele>299</ele>
        <time>2010-12-04T11:53:21Z</time>
      </trkpt>
      <trkpt lat="43.75903" lon="4.89131">
        <ele>298</ele>
        <time>2010-12-04T11:53:27Z</time>
      </trkpt>
      <trkpt lat="43.75903" lon="4.8914">
        <ele>294</ele>
        <time>2010-12-04T11:53:34Z</time>
      </trkpt>
      <trkpt lat="43.75902" lon="4.89148">
        <ele>292</ele>
        <time>2010-12-04T11:53:42Z</time>
      </trkpt>
      <trkpt lat="43.75898" lon="4.89153">
        <ele>292</ele>
        <time>2010-12-04T11:53:49Z</time>
      </trkpt>
      <trkpt lat="43.759" lon="4.89156">
        <ele>292</ele>
        <time>2010-12-04T11:53:55Z</time>
      </trkpt>
      <trkpt lat="43.75896" lon="4.89159">
        <ele>292</ele>
        <time>2010-12-04T11:54:03Z</time>
      </trkpt>
      <trkpt lat="43.75894" lon="4.89166">
        <ele>292</ele>
        <time>2010-12-04T11:54:09Z</time>
      </trkpt>
      <trkpt lat="43.75892" lon="4.89174">
        <ele>289</ele>
        <time>2010-12-04T11:54:16Z</time>
      </trkpt>
      <trkpt lat="43.75888" lon="4.89183">
        <ele>288</ele>
        <time>2010-12-04T11:54:24Z</time>
      </trkpt>
      <trkpt lat="43.75884" lon="4.89189">
        <ele>288</ele>
        <time>2010-12-04T11:54:30Z</time>
      </trkpt>
      <trkpt lat="43.75882" lon="4.89196">
        <ele>288</ele>
        <time>2010-12-04T11:54:38Z</time>
      </trkpt>
      <trkpt lat="43.75882" lon="4.89201">
        <ele>288</ele>
        <time>2010-12-04T11:54:44Z</time>
      </trkpt>
      <trkpt lat="43.75884" lon="4.8921">
        <ele>288</ele>
        <time>2010-12-04T11:54:52Z</time>
      </trkpt>
      <trkpt lat="43.75885" lon="4.89219">
        <ele>288</ele>
        <time>2010-12-04T11:54:59Z</time>
      </trkpt>
      <trkpt lat="43.75884" lon="4.89224">
        <ele>288</ele>
        <time>2010-12-04T11:55:06Z</time>
      </trkpt>
      <trkpt lat="43.75884" lon="4.89232">
        <ele>286</ele>
        <time>2010-12-04T11:55:14Z</time>
      </trkpt>
      <trkpt lat="43.75883" lon="4.89242">
        <ele>284</ele>
        <time>2010-12-04T11:55:21Z</time>
      </trkpt>
      <trkpt lat="43.75886" lon="4.8925">
        <ele>284</ele>
        <time>2010-12-04T11:55:27Z</time>
      </trkpt>
      <trkpt lat="43.75887" lon="4.89257">
        <ele>283</ele>
        <time>2010-12-04T11:55:35Z</time>
      </trkpt>
      <trkpt lat="43.75888" lon="4.89262">
        <ele>281</ele>
        <time>2010-12-04T11:55:41Z</time>
      </trkpt>
      <trkpt lat="43.75887" lon="4.89265">
        <ele>279</ele>
        <time>2010-12-04T11:55:48Z</time>
      </trkpt>
      <trkpt lat="43.75887" lon="4.89273">
        <ele>277</ele>
        <time>2010-12-04T11:55:54Z</time>
      </trkpt>
      <trkpt lat="43.75888" lon="4.8928">
        <ele>276</ele>
        <time>2010-12-04T11:56:01Z</time>
      </trkpt>
      <trkpt lat="43.75889" lon="4.89289">
        <ele>276</ele>
        <time>2010-12-04T11:56:07Z</time>
      </trkpt>
      <trkpt lat="43.75891" lon="4.89294">
        <ele>276</ele>
        <time>2010-12-04T11:56:13Z</time>
      </trkpt>
      <trkpt lat="43.75891" lon="4.893">
        <ele>276</ele>
        <time>2010-12-04T11:56:21Z</time>
      </trkpt>
      <trkpt lat="43.75888" lon="4.89301">
        <ele>276</ele>
        <time>2010-12-04T11:56:27Z</time>
      </trkpt>
      <trkpt lat="43.75888" lon="4.89305">
        <ele>276</ele>
        <time>2010-12-04T11:56:35Z</time>
      </trkpt>
      <trkpt lat="43.75891" lon="4.89309">
        <ele>276</ele>
        <time>2010-12-04T11:56:43Z</time>
      </trkpt>
      <trkpt lat="43.75891" lon="4.89315">
        <ele>276</ele>
        <time>2010-12-04T11:56:50Z</time>
      </trkpt>
      <trkpt lat="43.75894" lon="4.8932">
        <ele>276</ele>
        <time>2010-12-04T11:56:56Z</time>
      </trkpt>
      <trkpt lat="43.75896" lon="4.89325">
        <ele>276</ele>
        <time>2010-12-04T11:57:03Z</time>
      </trkpt>
      <trkpt lat="43.75899" lon="4.89326">
        <ele>276</ele>
        <time>2010-12-04T11:57:12Z</time>
      </trkpt>
      <trkpt lat="43.759" lon="4.89328">
        <ele>277</ele>
        <time>2010-12-04T11:57:27Z</time>
      </trkpt>
      <trkpt lat="43.75901" lon="4.89334">
        <ele>278</ele>
        <time>2010-12-04T11:57:34Z</time>
      </trkpt>
      <trkpt lat="43.75901" lon="4.8934">
        <ele>279</ele>
        <time>2010-12-04T11:57:40Z</time>
      </trkpt>
      <trkpt lat="43.75901" lon="4.89349">
        <ele>279</ele>
        <time>2010-12-04T11:57:46Z</time>
      </trkpt>
      <trkpt lat="43.75901" lon="4.89358">
        <ele>279</ele>
        <time>2010-12-04T11:57:53Z</time>
      </trkpt>
      <trkpt lat="43.75901" lon="4.89365">
        <ele>279</ele>
        <time>2010-12-04T11:58:01Z</time>
      </trkpt>
      <trkpt lat="43.75903" lon="4.89373">
        <ele>276</ele>
        <time>2010-12-04T11:58:09Z</time>
      </trkpt>
      <trkpt lat="43.75906" lon="4.89381">
        <ele>276</ele>
        <time>2010-12-04T11:58:15Z</time>
      </trkpt>
      <trkpt lat="43.75908" lon="4.89386">
        <ele>276</ele>
        <time>2010-12-04T11:58:22Z</time>
      </trkpt>
      <trkpt lat="43.7591" lon="4.89388">
        <ele>276</ele>
        <time>2010-12-04T11:58:29Z</time>
      </trkpt>
      <trkpt lat="43.7591" lon="4.8939">
        <ele>272</ele>
        <time>2010-12-04T11:58:35Z</time>
      </trkpt>
      <trkpt lat="43.7591" lon="4.89395">
        <ele>269</ele>
        <time>2010-12-04T11:58:41Z</time>
      </trkpt>
      <trkpt lat="43.75913" lon="4.89404">
        <ele>267</ele>
        <time>2010-12-04T11:58:48Z</time>
      </trkpt>
      <trkpt lat="43.75916" lon="4.89416">
        <ele>267</ele>
        <time>2010-12-04T11:58:54Z</time>
      </trkpt>
      <trkpt lat="43.7592" lon="4.89426">
        <ele>267</ele>
        <time>2010-12-04T11:59:00Z</time>
      </trkpt>
      <trkpt lat="43.7592" lon="4.89436">
        <ele>269</ele>
        <time>2010-12-04T11:59:06Z</time>
      </trkpt>
      <trkpt lat="43.75917" lon="4.89445">
        <ele>269</ele>
        <time>2010-12-04T11:59:13Z</time>
      </trkpt>
      <trkpt lat="43.75915" lon="4.89455">
        <ele>268</ele>
        <time>2010-12-04T11:59:21Z</time>
      </trkpt>
      <trkpt lat="43.75914" lon="4.89464">
        <ele>268</ele>
        <time>2010-12-04T11:59:29Z</time>
      </trkpt>
      <trkpt lat="43.75909" lon="4.89473">
        <ele>266</ele>
        <time>2010-12-04T11:59:36Z</time>
      </trkpt>
      <trkpt lat="43.75911" lon="4.89479">
        <ele>266</ele>
        <time>2010-12-04T11:59:42Z</time>
      </trkpt>
      <trkpt lat="43.75914" lon="4.89483">
        <ele>266</ele>
        <time>2010-12-04T11:59:48Z</time>
      </trkpt>
      <trkpt lat="43.75917" lon="4.89492">
        <ele>266</ele>
        <time>2010-12-04T11:59:56Z</time>
      </trkpt>
      <trkpt lat="43.7592" lon="4.89498">
        <ele>267</ele>
        <time>2010-12-04T12:00:02Z</time>
      </trkpt>
      <trkpt lat="43.75922" lon="4.89504">
        <ele>267</ele>
        <time>2010-12-04T12:00:08Z</time>
      </trkpt>
      <trkpt lat="43.75926" lon="4.89509">
        <ele>267</ele>
        <time>2010-12-04T12:00:14Z</time>
      </trkpt>
      <trkpt lat="43.75928" lon="4.89516">
        <ele>267</ele>
        <time>2010-12-04T12:00:20Z</time>
      </trkpt>
      <trkpt lat="43.75931" lon="4.89522">
        <ele>268</ele>
        <time>2010-12-04T12:00:26Z</time>
      </trkpt>
      <trkpt lat="43.75931" lon="4.89527">
        <ele>268</ele>
        <time>2010-12-04T12:00:33Z</time>
      </trkpt>
      <trkpt lat="43.75933" lon="4.89536">
        <ele>268</ele>
        <time>2010-12-04T12:00:39Z</time>
      </trkpt>
      <trkpt lat="43.75935" lon="4.89543">
        <ele>268</ele>
        <time>2010-12-04T12:00:45Z</time>
      </trkpt>
      <trkpt lat="43.75935" lon="4.89547">
        <ele>268</ele>
        <time>2010-12-04T12:00:53Z</time>
      </trkpt>
      <trkpt lat="43.75934" lon="4.89549">
        <ele>268</ele>
        <time>2010-12-04T12:01:09Z</time>
      </trkpt>
      <trkpt lat="43.75937" lon="4.89552">
        <ele>272</ele>
        <time>2010-12-04T12:01:15Z</time>
      </trkpt>
      <trkpt lat="43.75938" lon="4.89554">
        <ele>276</ele>
        <time>2010-12-04T12:01:31Z</time>
      </trkpt>
      <trkpt lat="43.75935" lon="4.89558">
        <ele>276</ele>
        <time>2010-12-04T12:01:37Z</time>
      </trkpt>
      <trkpt lat="43.75938" lon="4.89566">
        <ele>274</ele>
        <time>2010-12-04T12:01:45Z</time>
      </trkpt>
      <trkpt lat="43.7594" lon="4.89571">
        <ele>270</ele>
        <time>2010-12-04T12:01:51Z</time>
      </trkpt>
      <trkpt lat="43.75943" lon="4.89576">
        <ele>270</ele>
        <time>2010-12-04T12:01:57Z</time>
      </trkpt>
      <trkpt lat="43.75943" lon="4.89585">
        <ele>268</ele>
        <time>2010-12-04T12:02:05Z</time>
      </trkpt>
      <trkpt lat="43.75944" lon="4.89594">
        <ele>267</ele>
        <time>2010-12-04T12:02:12Z</time>
      </trkpt>
      <trkpt lat="43.75943" lon="4.89603">
        <ele>266</ele>
        <time>2010-12-04T12:02:18Z</time>
      </trkpt>
      <trkpt lat="43.75945" lon="4.89609">
        <ele>265</ele>
        <time>2010-12-04T12:02:24Z</time>
      </trkpt>
      <trkpt lat="43.75946" lon="4.89616">
        <ele>265</ele>
        <time>2010-12-04T12:02:30Z</time>
      </trkpt>
      <trkpt lat="43.75947" lon="4.89623">
        <ele>265</ele>
        <time>2010-12-04T12:02:36Z</time>
      </trkpt>
      <trkpt lat="43.75949" lon="4.89628">
        <ele>265</ele>
        <time>2010-12-04T12:02:42Z</time>
      </trkpt>
      <trkpt lat="43.75954" lon="4.89633">
        <ele>265</ele>
        <time>2010-12-04T12:02:51Z</time>
      </trkpt>
      <trkpt lat="43.75954" lon="4.89638">
        <ele>265</ele>
        <time>2010-12-04T12:02:57Z</time>
      </trkpt>
      <trkpt lat="43.75954" lon="4.89643">
        <ele>265</ele>
        <time>2010-12-04T12:03:03Z</time>
      </trkpt>
      <trkpt lat="43.75955" lon="4.89649">
        <ele>265</ele>
        <time>2010-12-04T12:03:11Z</time>
      </trkpt>
      <trkpt lat="43.75956" lon="4.89652">
        <ele>264</ele>
        <time>2010-12-04T12:03:17Z</time>
      </trkpt>
      <trkpt lat="43.75959" lon="4.89656">
        <ele>259</ele>
        <time>2010-12-04T12:03:31Z</time>
      </trkpt>
      <trkpt lat="43.75964" lon="4.89663">
        <ele>259</ele>
        <time>2010-12-04T12:03:41Z</time>
      </trkpt>
      <trkpt lat="43.75967" lon="4.89667">
        <ele>259</ele>
        <time>2010-12-04T12:03:47Z</time>
      </trkpt>
      <trkpt lat="43.75967" lon="4.89674">
        <ele>260</ele>
        <time>2010-12-04T12:03:53Z</time>
      </trkpt>
      <trkpt lat="43.75968" lon="4.8968">
        <ele>260</ele>
        <time>2010-12-04T12:04:00Z</time>
      </trkpt>
      <trkpt lat="43.7597" lon="4.89681">
        <ele>260</ele>
        <time>2010-12-04T12:04:06Z</time>
      </trkpt>
      <trkpt lat="43.75974" lon="4.89682">
        <ele>253</ele>
        <time>2010-12-04T12:04:17Z</time>
      </trkpt>
      <trkpt lat="43.75977" lon="4.89682">
        <ele>245</ele>
        <time>2010-12-04T12:04:26Z</time>
      </trkpt>
      <trkpt lat="43.7598" lon="4.89678">
        <ele>242</ele>
        <time>2010-12-04T12:04:33Z</time>
      </trkpt>
      <trkpt lat="43.75981" lon="4.89675">
        <ele>241</ele>
        <time>2010-12-04T12:04:44Z</time>
      </trkpt>
      <trkpt lat="43.75981" lon="4.89674">
        <ele>241</ele>
        <time>2010-12-04T12:05:12Z</time>
      </trkpt>
      <trkpt lat="43.75981" lon="4.89675">
        <ele>241</ele>
        <time>2010-12-04T12:05:29Z</time>
      </trkpt>
      <trkpt lat="43.7598" lon="4.89675">
        <ele>241</ele>
        <time>2010-12-04T12:05:40Z</time>
      </trkpt>
      <trkpt lat="43.7598" lon="4.89678">
        <ele>241</ele>
        <time>2010-12-04T12:05:47Z</time>
      </trkpt>
      <trkpt lat="43.7598" lon="4.89675">
        <ele>241</ele>
        <time>2010-12-04T12:05:54Z</time>
      </trkpt>
      <trkpt lat="43.75979" lon="4.89673">
        <ele>241</ele>
        <time>2010-12-04T12:06:00Z</time>
      </trkpt>
      <trkpt lat="43.75977" lon="4.89671">
        <ele>243</ele>
        <time>2010-12-04T12:06:20Z</time>
      </trkpt>
      <trkpt lat="43.75975" lon="4.89673">
        <ele>246</ele>
        <time>2010-12-04T12:06:28Z</time>
      </trkpt>
      <trkpt lat="43.75976" lon="4.89674">
        <ele>246</ele>
        <time>2010-12-04T12:06:35Z</time>
      </trkpt>
      <trkpt lat="43.75975" lon="4.89677">
        <ele>246</ele>
        <time>2010-12-04T12:06:43Z</time>
      </trkpt>
      <trkpt lat="43.75976" lon="4.89679">
        <ele>246</ele>
        <time>2010-12-04T12:06:50Z</time>
      </trkpt>
      <trkpt lat="43.75978" lon="4.8968">
        <ele>250</ele>
        <time>2010-12-04T12:06:59Z</time>
      </trkpt>
      <trkpt lat="43.7598" lon="4.89677">
        <ele>250</ele>
        <time>2010-12-04T12:07:07Z</time>
      </trkpt>
      <trkpt lat="43.75979" lon="4.89675">
        <ele>250</ele>
        <time>2010-12-04T12:07:25Z</time>
      </trkpt>
      <trkpt lat="43.75978" lon="4.89673">
        <ele>250</ele>
        <time>2010-12-04T12:07:39Z</time>
      </trkpt>
      <trkpt lat="43.75974" lon="4.89666">
        <ele>252</ele>
        <time>2010-12-04T12:07:50Z</time>
      </trkpt>
      <trkpt lat="43.75977" lon="4.89667">
        <ele>252</ele>
        <time>2010-12-04T12:07:57Z</time>
      </trkpt>
      <trkpt lat="43.75977" lon="4.8967">
        <ele>252</ele>
        <time>2010-12-04T12:08:17Z</time>
      </trkpt>
      <trkpt lat="43.75976" lon="4.89669">
        <ele>252</ele>
        <time>2010-12-04T12:08:24Z</time>
      </trkpt>
      <trkpt lat="43.75978" lon="4.8967">
        <ele>251</ele>
        <time>2010-12-04T12:08:31Z</time>
      </trkpt>
      <trkpt lat="43.75977" lon="4.89671">
        <ele>250</ele>
        <time>2010-12-04T12:08:41Z</time>
      </trkpt>
      <trkpt lat="43.75976" lon="4.89674">
        <ele>250</ele>
        <time>2010-12-04T12:08:47Z</time>
      </trkpt>
      <trkpt lat="43.75978" lon="4.89672">
        <ele>250</ele>
        <time>2010-12-04T12:09:01Z</time>
      </trkpt>
      <trkpt lat="43.75977" lon="4.89672">
        <ele>247</ele>
        <time>2010-12-04T12:09:09Z</time>
      </trkpt>
      <trkpt lat="43.75978" lon="4.89673">
        <ele>245</ele>
        <time>2010-12-04T12:09:32Z</time>
      </trkpt>
      <trkpt lat="43.75977" lon="4.89671">
        <ele>247</ele>
        <time>2010-12-04T12:09:40Z</time>
      </trkpt>
      <trkpt lat="43.75977" lon="4.8967">
        <ele>248</ele>
        <time>2010-12-04T12:09:46Z</time>
      </trkpt>
      <trkpt lat="43.7598" lon="4.89671">
        <ele>251</ele>
        <time>2010-12-04T12:09:59Z</time>
      </trkpt>
      <trkpt lat="43.75981" lon="4.89671">
        <ele>251</ele>
        <time>2010-12-04T12:10:10Z</time>
      </trkpt>
      <trkpt lat="43.75978" lon="4.8967">
        <ele>251</ele>
        <time>2010-12-04T12:10:17Z</time>
      </trkpt>
      <trkpt lat="43.75977" lon="4.8967">
        <ele>248</ele>
        <time>2010-12-04T12:10:30Z</time>
      </trkpt>
      <trkpt lat="43.75978" lon="4.8967">
        <ele>249</ele>
        <time>2010-12-04T12:10:43Z</time>
      </trkpt>
      <trkpt lat="43.75979" lon="4.8967">
        <ele>250</ele>
        <time>2010-12-04T12:10:52Z</time>
      </trkpt>
      <trkpt lat="43.75982" lon="4.89673">
        <ele>250</ele>
        <time>2010-12-04T12:10:59Z</time>
      </trkpt>
      <trkpt lat="43.7598" lon="4.89674">
        <ele>250</ele>
        <time>2010-12-04T12:11:11Z</time>
      </trkpt>
      <trkpt lat="43.75978" lon="4.89675">
        <ele>250</ele>
        <time>2010-12-04T12:11:28Z</time>
      </trkpt>
      <trkpt lat="43.75979" lon="4.89673">
        <ele>250</ele>
        <time>2010-12-04T12:11:34Z</time>
      </trkpt>
      <trkpt lat="43.75979" lon="4.89671">
        <ele>249</ele>
        <time>2010-12-04T12:11:40Z</time>
      </trkpt>
      <trkpt lat="43.75978" lon="4.89669">
        <ele>248</ele>
        <time>2010-12-04T12:11:50Z</time>
      </trkpt>
      <trkpt lat="43.75979" lon="4.89669">
        <ele>248</ele>
        <time>2010-12-04T12:11:56Z</time>
      </trkpt>
      <trkpt lat="43.75984" lon="4.89669">
        <ele>253</ele>
        <time>2010-12-04T12:12:02Z</time>
      </trkpt>
      <trkpt lat="43.75989" lon="4.89668">
        <ele>259</ele>
        <time>2010-12-04T12:12:09Z</time>
      </trkpt>
      <trkpt lat="43.75982" lon="4.89671">
        <ele>262</ele>
        <time>2010-12-04T12:12:15Z</time>
      </trkpt>
      <trkpt lat="43.75978" lon="4.89677">
        <ele>262</ele>
        <time>2010-12-04T12:12:23Z</time>
      </trkpt>
      <trkpt lat="43.75978" lon="4.89671">
        <ele>258</ele>
        <time>2010-12-04T12:12:33Z</time>
      </trkpt>
      <trkpt lat="43.75978" lon="4.89676">
        <ele>257</ele>
        <time>2010-12-04T12:12:41Z</time>
      </trkpt>
      <trkpt lat="43.75982" lon="4.89672">
        <ele>257</ele>
        <time>2010-12-04T12:12:48Z</time>
      </trkpt>
      <trkpt lat="43.75982" lon="4.89669">
        <ele>257</ele>
        <time>2010-12-04T12:13:02Z</time>
      </trkpt>
      <trkpt lat="43.75985" lon="4.89666">
        <ele>257</ele>
        <time>2010-12-04T12:13:09Z</time>
      </trkpt>
      <trkpt lat="43.75984" lon="4.89663">
        <ele>257</ele>
        <time>2010-12-04T12:13:15Z</time>
      </trkpt>
      <trkpt lat="43.75985" lon="4.89661">
        <ele>257</ele>
        <time>2010-12-04T12:13:21Z</time>
      </trkpt>
      <trkpt lat="43.7598" lon="4.89667">
        <ele>257</ele>
        <time>2010-12-04T12:13:31Z</time>
      </trkpt>
      <trkpt lat="43.75976" lon="4.89673">
        <ele>259</ele>
        <time>2010-12-04T12:13:38Z</time>
      </trkpt>
      <trkpt lat="43.75975" lon="4.89668">
        <ele>262</ele>
        <time>2010-12-04T12:13:46Z</time>
      </trkpt>
      <trkpt lat="43.75975" lon="4.89661">
        <ele>265</ele>
        <time>2010-12-04T12:13:55Z</time>
      </trkpt>
      <trkpt lat="43.75979" lon="4.89661">
        <ele>266</ele>
        <time>2010-12-04T12:14:03Z</time>
      </trkpt>
      <trkpt lat="43.75985" lon="4.89659">
        <ele>266</ele>
        <time>2010-12-04T12:14:09Z</time>
      </trkpt>
      <trkpt lat="43.75988" lon="4.89656">
        <ele>263</ele>
        <time>2010-12-04T12:14:15Z</time>
      </trkpt>
      <trkpt lat="43.75991" lon="4.89656">
        <ele>260</ele>
        <time>2010-12-04T12:14:30Z</time>
      </trkpt>
      <trkpt lat="43.75993" lon="4.89654">
        <ele>260</ele>
        <time>2010-12-04T12:14:41Z</time>
      </trkpt>
      <trkpt lat="43.75995" lon="4.89649">
        <ele>260</ele>
        <time>2010-12-04T12:14:47Z</time>
      </trkpt>
      <trkpt lat="43.75995" lon="4.89646">
        <ele>260</ele>
        <time>2010-12-04T12:14:53Z</time>
      </trkpt>
      <trkpt lat="43.75998" lon="4.89644">
        <ele>260</ele>
        <time>2010-12-04T12:15:00Z</time>
      </trkpt>
      <trkpt lat="43.75999" lon="4.89645">
        <ele>263</ele>
        <time>2010-12-04T12:15:10Z</time>
      </trkpt>
      <trkpt lat="43.75999" lon="4.89647">
        <ele>263</ele>
        <time>2010-12-04T12:15:25Z</time>
      </trkpt>
      <trkpt lat="43.75998" lon="4.89646">
        <ele>263</ele>
        <time>2010-12-04T12:15:36Z</time>
      </trkpt>
      <trkpt lat="43.75998" lon="4.89643">
        <ele>263</ele>
        <time>2010-12-04T12:15:44Z</time>
      </trkpt>
      <trkpt lat="43.75995" lon="4.8964">
        <ele>263</ele>
        <time>2010-12-04T12:16:04Z</time>
      </trkpt>
      <trkpt lat="43.75993" lon="4.89635">
        <ele>265</ele>
        <time>2010-12-04T12:16:17Z</time>
      </trkpt>
      <trkpt lat="43.75996" lon="4.89631">
        <ele>268</ele>
        <time>2010-12-04T12:16:24Z</time>
      </trkpt>
      <trkpt lat="43.75997" lon="4.89626">
        <ele>269</ele>
        <time>2010-12-04T12:16:34Z</time>
      </trkpt>
      <trkpt lat="43.75995" lon="4.89624">
        <ele>271</ele>
        <time>2010-12-04T12:16:41Z</time>
      </trkpt>
      <trkpt lat="43.75992" lon="4.89621">
        <ele>274</ele>
        <time>2010-12-04T12:16:48Z</time>
      </trkpt>
      <trkpt lat="43.75992" lon="4.89618">
        <ele>276</ele>
        <time>2010-12-04T12:16:54Z</time>
      </trkpt>
      <trkpt lat="43.7599" lon="4.89615">
        <ele>277</ele>
        <time>2010-12-04T12:17:01Z</time>
      </trkpt>
      <trkpt lat="43.75989" lon="4.89612">
        <ele>277</ele>
        <time>2010-12-04T12:17:07Z</time>
      </trkpt>
      <trkpt lat="43.75989" lon="4.89607">
        <ele>278</ele>
        <time>2010-12-04T12:17:15Z</time>
      </trkpt>
      <trkpt lat="43.75987" lon="4.89603">
        <ele>281</ele>
        <time>2010-12-04T12:17:25Z</time>
      </trkpt>
      <trkpt lat="43.75985" lon="4.896">
        <ele>283</ele>
        <time>2010-12-04T12:17:31Z</time>
      </trkpt>
      <trkpt lat="43.75985" lon="4.89597">
        <ele>284</ele>
        <time>2010-12-04T12:17:39Z</time>
      </trkpt>
      <trkpt lat="43.75984" lon="4.89592">
        <ele>285</ele>
        <time>2010-12-04T12:17:47Z</time>
      </trkpt>
      <trkpt lat="43.75984" lon="4.89587">
        <ele>287</ele>
        <time>2010-12-04T12:17:54Z</time>
      </trkpt>
      <trkpt lat="43.75985" lon="4.89583">
        <ele>287</ele>
        <time>2010-12-04T12:18:02Z</time>
      </trkpt>
      <trkpt lat="43.75987" lon="4.89579">
        <ele>290</ele>
        <time>2010-12-04T12:18:12Z</time>
      </trkpt>
      <trkpt lat="43.7599" lon="4.89578">
        <ele>290</ele>
        <time>2010-12-04T12:18:19Z</time>
      </trkpt>
      <trkpt lat="43.75994" lon="4.89577">
        <ele>290</ele>
        <time>2010-12-04T12:18:26Z</time>
      </trkpt>
      <trkpt lat="43.75994" lon="4.89576">
        <ele>293</ele>
        <time>2010-12-04T12:18:40Z</time>
      </trkpt>
      <trkpt lat="43.75994" lon="4.89571">
        <ele>294</ele>
        <time>2010-12-04T12:18:48Z</time>
      </trkpt>
      <trkpt lat="43.75995" lon="4.89569">
        <ele>295</ele>
        <time>2010-12-04T12:18:56Z</time>
      </trkpt>
      <trkpt lat="43.75996" lon="4.89569">
        <ele>297</ele>
        <time>2010-12-04T12:19:04Z</time>
      </trkpt>
      <trkpt lat="43.75998" lon="4.89567">
        <ele>299</ele>
        <time>2010-12-04T12:19:12Z</time>
      </trkpt>
      <trkpt lat="43.75998" lon="4.89564">
        <ele>301</ele>
        <time>2010-12-04T12:19:20Z</time>
      </trkpt>
      <trkpt lat="43.75998" lon="4.89562">
        <ele>302</ele>
        <time>2010-12-04T12:19:26Z</time>
      </trkpt>
      <trkpt lat="43.75996" lon="4.89559">
        <ele>304</ele>
        <time>2010-12-04T12:19:34Z</time>
      </trkpt>
      <trkpt lat="43.75996" lon="4.89555">
        <ele>305</ele>
        <time>2010-12-04T12:19:40Z</time>
      </trkpt>
      <trkpt lat="43.75996" lon="4.8955">
        <ele>305</ele>
        <time>2010-12-04T12:19:49Z</time>
      </trkpt>
      <trkpt lat="43.75993" lon="4.89549">
        <ele>306</ele>
        <time>2010-12-04T12:19:56Z</time>
      </trkpt>
      <trkpt lat="43.75992" lon="4.89546">
        <ele>308</ele>
        <time>2010-12-04T12:20:04Z</time>
      </trkpt>
      <trkpt lat="43.75992" lon="4.89544">
        <ele>310</ele>
        <time>2010-12-04T12:20:11Z</time>
      </trkpt>
      <trkpt lat="43.7599" lon="4.89543">
        <ele>312</ele>
        <time>2010-12-04T12:20:20Z</time>
      </trkpt>
      <trkpt lat="43.75988" lon="4.8954">
        <ele>313</ele>
        <time>2010-12-04T12:20:27Z</time>
      </trkpt>
      <trkpt lat="43.75988" lon="4.89535">
        <ele>314</ele>
        <time>2010-12-04T12:20:36Z</time>
      </trkpt>
      <trkpt lat="43.75986" lon="4.89531">
        <ele>318</ele>
        <time>2010-12-04T12:20:47Z</time>
      </trkpt>
      <trkpt lat="43.75985" lon="4.89528">
        <ele>321</ele>
        <time>2010-12-04T12:20:56Z</time>
      </trkpt>
      <trkpt lat="43.75983" lon="4.89527">
        <ele>321</ele>
        <time>2010-12-04T12:21:03Z</time>
      </trkpt>
      <trkpt lat="43.75982" lon="4.89524">
        <ele>322</ele>
        <time>2010-12-04T12:21:09Z</time>
      </trkpt>
      <trkpt lat="43.75981" lon="4.89521">
        <ele>323</ele>
        <time>2010-12-04T12:21:18Z</time>
      </trkpt>
      <trkpt lat="43.7598" lon="4.89518">
        <ele>325</ele>
        <time>2010-12-04T12:21:25Z</time>
      </trkpt>
      <trkpt lat="43.75982" lon="4.89515">
        <ele>326</ele>
        <time>2010-12-04T12:21:32Z</time>
      </trkpt>
      <trkpt lat="43.7598" lon="4.89513">
        <ele>326</ele>
        <time>2010-12-04T12:21:39Z</time>
      </trkpt>
      <trkpt lat="43.75978" lon="4.89512">
        <ele>331</ele>
        <time>2010-12-04T12:21:57Z</time>
      </trkpt>
      <trkpt lat="43.75978" lon="4.89509">
        <ele>332</ele>
        <time>2010-12-04T12:22:04Z</time>
      </trkpt>
      <trkpt lat="43.75975" lon="4.89507">
        <ele>334</ele>
        <time>2010-12-04T12:22:12Z</time>
      </trkpt>
      <trkpt lat="43.75975" lon="4.89504">
        <ele>335</ele>
        <time>2010-12-04T12:22:30Z</time>
      </trkpt>
      <trkpt lat="43.75974" lon="4.89505">
        <ele>337</ele>
        <time>2010-12-04T12:23:07Z</time>
      </trkpt>
      <trkpt lat="43.75974" lon="4.89503">
        <ele>338</ele>
        <time>2010-12-04T12:23:51Z</time>
      </trkpt>
      <trkpt lat="43.75972" lon="4.89502">
        <ele>338</ele>
        <time>2010-12-04T12:23:58Z</time>
      </trkpt>
      <trkpt lat="43.75969" lon="4.89498">
        <ele>341</ele>
        <time>2010-12-04T12:24:05Z</time>
      </trkpt>
      <trkpt lat="43.75968" lon="4.89494">
        <ele>343</ele>
        <time>2010-12-04T12:24:11Z</time>
      </trkpt>
      <trkpt lat="43.75969" lon="4.89493">
        <ele>344</ele>
        <time>2010-12-04T12:24:18Z</time>
      </trkpt>
      <trkpt lat="43.75971" lon="4.89491">
        <ele>344</ele>
        <time>2010-12-04T12:24:29Z</time>
      </trkpt>
      <trkpt lat="43.75972" lon="4.89492">
        <ele>344</ele>
        <time>2010-12-04T12:24:36Z</time>
      </trkpt>
      <trkpt lat="43.75973" lon="4.89491">
        <ele>344</ele>
        <time>2010-12-04T12:24:46Z</time>
      </trkpt>
      <trkpt lat="43.75978" lon="4.89491">
        <ele>344</ele>
        <time>2010-12-04T12:24:52Z</time>
      </trkpt>
      <trkpt lat="43.75977" lon="4.8949">
        <ele>344</ele>
        <time>2010-12-04T12:26:07Z</time>
      </trkpt>
      <trkpt lat="43.75975" lon="4.89492">
        <ele>345</ele>
        <time>2010-12-04T12:26:57Z</time>
      </trkpt>
      <trkpt lat="43.75973" lon="4.89489">
        <ele>345</ele>
        <time>2010-12-04T12:27:05Z</time>
      </trkpt>
      <trkpt lat="43.75973" lon="4.89486">
        <ele>345</ele>
        <time>2010-12-04T12:27:13Z</time>
      </trkpt>
      <trkpt lat="43.75972" lon="4.89482">
        <ele>345</ele>
        <time>2010-12-04T12:27:20Z</time>
      </trkpt>
      <trkpt lat="43.75974" lon="4.8948">
        <ele>344</ele>
        <time>2010-12-04T12:27:27Z</time>
      </trkpt>
      <trkpt lat="43.75975" lon="4.89476">
        <ele>340</ele>
        <time>2010-12-04T12:27:38Z</time>
      </trkpt>
      <trkpt lat="43.75974" lon="4.89473">
        <ele>339</ele>
        <time>2010-12-04T12:27:45Z</time>
      </trkpt>
      <trkpt lat="43.75975" lon="4.89467">
        <ele>338</ele>
        <time>2010-12-04T12:27:52Z</time>
      </trkpt>
      <trkpt lat="43.75975" lon="4.89461">
        <ele>336</ele>
        <time>2010-12-04T12:27:59Z</time>
      </trkpt>
      <trkpt lat="43.75973" lon="4.89459">
        <ele>336</ele>
        <time>2010-12-04T12:28:07Z</time>
      </trkpt>
      <trkpt lat="43.75972" lon="4.89455">
        <ele>336</ele>
        <time>2010-12-04T12:28:14Z</time>
      </trkpt>
      <trkpt lat="43.75971" lon="4.8945">
        <ele>336</ele>
        <time>2010-12-04T12:28:20Z</time>
      </trkpt>
      <trkpt lat="43.75969" lon="4.89443">
        <ele>336</ele>
        <time>2010-12-04T12:28:28Z</time>
      </trkpt>
      <trkpt lat="43.75968" lon="4.89433">
        <ele>336</ele>
        <time>2010-12-04T12:28:35Z</time>
      </trkpt>
      <trkpt lat="43.75967" lon="4.89426">
        <ele>336</ele>
        <time>2010-12-04T12:28:43Z</time>
      </trkpt>
      <trkpt lat="43.75966" lon="4.89418">
        <ele>336</ele>
        <time>2010-12-04T12:28:49Z</time>
      </trkpt>
      <trkpt lat="43.75965" lon="4.8941">
        <ele>336</ele>
        <time>2010-12-04T12:28:59Z</time>
      </trkpt>
      <trkpt lat="43.75965" lon="4.89407">
        <ele>336</ele>
        <time>2010-12-04T12:29:09Z</time>
      </trkpt>
      <trkpt lat="43.75966" lon="4.89402">
        <ele>336</ele>
        <time>2010-12-04T12:29:17Z</time>
      </trkpt>
      <trkpt lat="43.75965" lon="4.89399">
        <ele>337</ele>
        <time>2010-12-04T12:29:23Z</time>
      </trkpt>
      <trkpt lat="43.75964" lon="4.89395">
        <ele>339</ele>
        <time>2010-12-04T12:29:29Z</time>
      </trkpt>
      <trkpt lat="43.75963" lon="4.89391">
        <ele>340</ele>
        <time>2010-12-04T12:29:35Z</time>
      </trkpt>
      <trkpt lat="43.75962" lon="4.89388">
        <ele>341</ele>
        <time>2010-12-04T12:29:42Z</time>
      </trkpt>
      <trkpt lat="43.75961" lon="4.89385">
        <ele>343</ele>
        <time>2010-12-04T12:29:49Z</time>
      </trkpt>
      <trkpt lat="43.7596" lon="4.89382">
        <ele>344</ele>
        <time>2010-12-04T12:29:56Z</time>
      </trkpt>
      <trkpt lat="43.75959" lon="4.89376">
        <ele>345</ele>
        <time>2010-12-04T12:30:04Z</time>
      </trkpt>
      <trkpt lat="43.75959" lon="4.8937">
        <ele>346</ele>
        <time>2010-12-04T12:30:11Z</time>
      </trkpt>
      <trkpt lat="43.75956" lon="4.89364">
        <ele>346</ele>
        <time>2010-12-04T12:30:17Z</time>
      </trkpt>
      <trkpt lat="43.75954" lon="4.89359">
        <ele>346</ele>
        <time>2010-12-04T12:30:24Z</time>
      </trkpt>
      <trkpt lat="43.75951" lon="4.89352">
        <ele>346</ele>
        <time>2010-12-04T12:30:32Z</time>
      </trkpt>
      <trkpt lat="43.75951" lon="4.89349">
        <ele>346</ele>
        <time>2010-12-04T12:30:38Z</time>
      </trkpt>
      <trkpt lat="43.75951" lon="4.89346">
        <ele>346</ele>
        <time>2010-12-04T12:30:46Z</time>
      </trkpt>
      <trkpt lat="43.75948" lon="4.8934">
        <ele>346</ele>
        <time>2010-12-04T12:30:54Z</time>
      </trkpt>
      <trkpt lat="43.75943" lon="4.89337">
        <ele>346</ele>
        <time>2010-12-04T12:31:01Z</time>
      </trkpt>
      <trkpt lat="43.75941" lon="4.89334">
        <ele>346</ele>
        <time>2010-12-04T12:31:07Z</time>
      </trkpt>
      <trkpt lat="43.75938" lon="4.89332">
        <ele>346</ele>
        <time>2010-12-04T12:31:13Z</time>
      </trkpt>
      <trkpt lat="43.75937" lon="4.89329">
        <ele>346</ele>
        <time>2010-12-04T12:31:20Z</time>
      </trkpt>
      <trkpt lat="43.75935" lon="4.89325">
        <ele>345</ele>
        <time>2010-12-04T12:31:26Z</time>
      </trkpt>
      <trkpt lat="43.75934" lon="4.89322">
        <ele>343</ele>
        <time>2010-12-04T12:31:34Z</time>
      </trkpt>
      <trkpt lat="43.75934" lon="4.89317">
        <ele>341</ele>
        <time>2010-12-04T12:31:43Z</time>
      </trkpt>
      <trkpt lat="43.75933" lon="4.8931">
        <ele>339</ele>
        <time>2010-12-04T12:31:51Z</time>
      </trkpt>
      <trkpt lat="43.75932" lon="4.89304">
        <ele>338</ele>
        <time>2010-12-04T12:31:59Z</time>
      </trkpt>
      <trkpt lat="43.7593" lon="4.89298">
        <ele>337</ele>
        <time>2010-12-04T12:32:06Z</time>
      </trkpt>
      <trkpt lat="43.75928" lon="4.89293">
        <ele>336</ele>
        <time>2010-12-04T12:32:12Z</time>
      </trkpt>
      <trkpt lat="43.75928" lon="4.89287">
        <ele>334</ele>
        <time>2010-12-04T12:32:21Z</time>
      </trkpt>
      <trkpt lat="43.75928" lon="4.89284">
        <ele>332</ele>
        <time>2010-12-04T12:32:27Z</time>
      </trkpt>
      <trkpt lat="43.75931" lon="4.89281">
        <ele>330</ele>
        <time>2010-12-04T12:32:35Z</time>
      </trkpt>
      <trkpt lat="43.75932" lon="4.89277">
        <ele>328</ele>
        <time>2010-12-04T12:32:42Z</time>
      </trkpt>
      <trkpt lat="43.75932" lon="4.89272">
        <ele>326</ele>
        <time>2010-12-04T12:32:48Z</time>
      </trkpt>
      <trkpt lat="43.75932" lon="4.89266">
        <ele>324</ele>
        <time>2010-12-04T12:32:56Z</time>
      </trkpt>
      <trkpt lat="43.75933" lon="4.89263">
        <ele>322</ele>
        <time>2010-12-04T12:33:02Z</time>
      </trkpt>
      <trkpt lat="43.75933" lon="4.89259">
        <ele>321</ele>
        <time>2010-12-04T12:33:08Z</time>
      </trkpt>
      <trkpt lat="43.75932" lon="4.89252">
        <ele>319</ele>
        <time>2010-12-04T12:33:22Z</time>
      </trkpt>
      <trkpt lat="43.75932" lon="4.89248">
        <ele>319</ele>
        <time>2010-12-04T12:33:28Z</time>
      </trkpt>
      <trkpt lat="43.75931" lon="4.89238">
        <ele>318</ele>
        <time>2010-12-04T12:33:34Z</time>
      </trkpt>
      <trkpt lat="43.75931" lon="4.89231">
        <ele>318</ele>
        <time>2010-12-04T12:33:40Z</time>
      </trkpt>
      <trkpt lat="43.7593" lon="4.89223">
        <ele>318</ele>
        <time>2010-12-04T12:33:47Z</time>
      </trkpt>
      <trkpt lat="43.75931" lon="4.89216">
        <ele>318</ele>
        <time>2010-12-04T12:33:53Z</time>
      </trkpt>
      <trkpt lat="43.7593" lon="4.8921">
        <ele>318</ele>
        <time>2010-12-04T12:33:59Z</time>
      </trkpt>
      <trkpt lat="43.75929" lon="4.89205">
        <ele>318</ele>
        <time>2010-12-04T12:34:05Z</time>
      </trkpt>
      <trkpt lat="43.75928" lon="4.892">
        <ele>320</ele>
        <time>2010-12-04T12:34:11Z</time>
      </trkpt>
      <trkpt lat="43.75928" lon="4.89194">
        <ele>322</ele>
        <time>2010-12-04T12:34:20Z</time>
      </trkpt>
      <trkpt lat="43.75927" lon="4.89188">
        <ele>323</ele>
        <time>2010-12-04T12:34:29Z</time>
      </trkpt>
      <trkpt lat="43.7593" lon="4.89184">
        <ele>324</ele>
        <time>2010-12-04T12:34:36Z</time>
      </trkpt>
      <trkpt lat="43.75932" lon="4.89178">
        <ele>324</ele>
        <time>2010-12-04T12:34:42Z</time>
      </trkpt>
      <trkpt lat="43.75934" lon="4.89173">
        <ele>325</ele>
        <time>2010-12-04T12:34:49Z</time>
      </trkpt>
      <trkpt lat="43.75936" lon="4.89167">
        <ele>326</ele>
        <time>2010-12-04T12:34:56Z</time>
      </trkpt>
      <trkpt lat="43.75937" lon="4.89161">
        <ele>327</ele>
        <time>2010-12-04T12:35:03Z</time>
      </trkpt>
      <trkpt lat="43.7594" lon="4.89157">
        <ele>328</ele>
        <time>2010-12-04T12:35:10Z</time>
      </trkpt>
      <trkpt lat="43.75941" lon="4.89152">
        <ele>329</ele>
        <time>2010-12-04T12:35:17Z</time>
      </trkpt>
      <trkpt lat="43.75944" lon="4.8915">
        <ele>329</ele>
        <time>2010-12-04T12:35:23Z</time>
      </trkpt>
      <trkpt lat="43.75946" lon="4.89146">
        <ele>329</ele>
        <time>2010-12-04T12:35:29Z</time>
      </trkpt>
      <trkpt lat="43.75946" lon="4.89139">
        <ele>329</ele>
        <time>2010-12-04T12:35:38Z</time>
      </trkpt>
      <trkpt lat="43.75946" lon="4.89136">
        <ele>331</ele>
        <time>2010-12-04T12:35:46Z</time>
      </trkpt>
      <trkpt lat="43.75946" lon="4.8913">
        <ele>331</ele>
        <time>2010-12-04T12:35:54Z</time>
      </trkpt>
      <trkpt lat="43.75946" lon="4.89124">
        <ele>331</ele>
        <time>2010-12-04T12:36:01Z</time>
      </trkpt>
      <trkpt lat="43.75945" lon="4.89115">
        <ele>331</ele>
        <time>2010-12-04T12:36:08Z</time>
      </trkpt>
      <trkpt lat="43.75943" lon="4.89107">
        <ele>331</ele>
        <time>2010-12-04T12:36:15Z</time>
      </trkpt>
      <trkpt lat="43.75942" lon="4.89104">
        <ele>333</ele>
        <time>2010-12-04T12:36:42Z</time>
      </trkpt>
      <trkpt lat="43.7594" lon="4.891">
        <ele>333</ele>
        <time>2010-12-04T12:36:49Z</time>
      </trkpt>
      <trkpt lat="43.75941" lon="4.89095">
        <ele>333</ele>
        <time>2010-12-04T12:36:57Z</time>
      </trkpt>
      <trkpt lat="43.75942" lon="4.89088">
        <ele>333</ele>
        <time>2010-12-04T12:37:03Z</time>
      </trkpt>
      <trkpt lat="43.75943" lon="4.89082">
        <ele>333</ele>
        <time>2010-12-04T12:37:11Z</time>
      </trkpt>
      <trkpt lat="43.75944" lon="4.89079">
        <ele>332</ele>
        <time>2010-12-04T12:37:19Z</time>
      </trkpt>
      <trkpt lat="43.75944" lon="4.89076">
        <ele>330</ele>
        <time>2010-12-04T12:37:28Z</time>
      </trkpt>
      <trkpt lat="43.75946" lon="4.89072">
        <ele>329</ele>
        <time>2010-12-04T12:37:34Z</time>
      </trkpt>
      <trkpt lat="43.75947" lon="4.89064">
        <ele>329</ele>
        <time>2010-12-04T12:37:40Z</time>
      </trkpt>
      <trkpt lat="43.75948" lon="4.89059">
        <ele>328</ele>
        <time>2010-12-04T12:37:46Z</time>
      </trkpt>
      <trkpt lat="43.75949" lon="4.89054">
        <ele>328</ele>
        <time>2010-12-04T12:37:56Z</time>
      </trkpt>
      <trkpt lat="43.75951" lon="4.89048">
        <ele>328</ele>
        <time>2010-12-04T12:38:04Z</time>
      </trkpt>
      <trkpt lat="43.75951" lon="4.89043">
        <ele>326</ele>
        <time>2010-12-04T12:38:11Z</time>
      </trkpt>
      <trkpt lat="43.75952" lon="4.8904">
        <ele>325</ele>
        <time>2010-12-04T12:38:17Z</time>
      </trkpt>
      <trkpt lat="43.75955" lon="4.89034">
        <ele>323</ele>
        <time>2010-12-04T12:38:23Z</time>
      </trkpt>
      <trkpt lat="43.75959" lon="4.89024">
        <ele>322</ele>
        <time>2010-12-04T12:38:31Z</time>
      </trkpt>
      <trkpt lat="43.75962" lon="4.89018">
        <ele>322</ele>
        <time>2010-12-04T12:38:38Z</time>
      </trkpt>
      <trkpt lat="43.75962" lon="4.89011">
        <ele>322</ele>
        <time>2010-12-04T12:38:44Z</time>
      </trkpt>
      <trkpt lat="43.75961" lon="4.89006">
        <ele>322</ele>
        <time>2010-12-04T12:38:50Z</time>
      </trkpt>
      <trkpt lat="43.75957" lon="4.89001">
        <ele>323</ele>
        <time>2010-12-04T12:38:57Z</time>
      </trkpt>
      <trkpt lat="43.75955" lon="4.88998">
        <ele>325</ele>
        <time>2010-12-04T12:39:03Z</time>
      </trkpt>
      <trkpt lat="43.75954" lon="4.88993">
        <ele>328</ele>
        <time>2010-12-04T12:39:11Z</time>
      </trkpt>
      <trkpt lat="43.75956" lon="4.8899">
        <ele>329</ele>
        <time>2010-12-04T12:39:17Z</time>
      </trkpt>
      <trkpt lat="43.75957" lon="4.88986">
        <ele>331</ele>
        <time>2010-12-04T12:39:25Z</time>
      </trkpt>
      <trkpt lat="43.7596" lon="4.88985">
        <ele>334</ele>
        <time>2010-12-04T12:39:46Z</time>
      </trkpt>
      <trkpt lat="43.75961" lon="4.88984">
        <ele>334</ele>
        <time>2010-12-04T12:39:55Z</time>
      </trkpt>
      <trkpt lat="43.75962" lon="4.88985">
        <ele>335</ele>
        <time>2010-12-04T12:40:07Z</time>
      </trkpt>
      <trkpt lat="43.75964" lon="4.88983">
        <ele>337</ele>
        <time>2010-12-04T12:40:22Z</time>
      </trkpt>
      <trkpt lat="43.75963" lon="4.8898">
        <ele>340</ele>
        <time>2010-12-04T12:40:36Z</time>
      </trkpt>
      <trkpt lat="43.75963" lon="4.88977">
        <ele>340</ele>
        <time>2010-12-04T12:40:44Z</time>
      </trkpt>
      <trkpt lat="43.75965" lon="4.88974">
        <ele>341</ele>
        <time>2010-12-04T12:40:50Z</time>
      </trkpt>
      <trkpt lat="43.75968" lon="4.8897">
        <ele>341</ele>
        <time>2010-12-04T12:40:58Z</time>
      </trkpt>
      <trkpt lat="43.75968" lon="4.88967">
        <ele>343</ele>
        <time>2010-12-04T12:41:04Z</time>
      </trkpt>
      <trkpt lat="43.7597" lon="4.88961">
        <ele>343</ele>
        <time>2010-12-04T12:41:11Z</time>
      </trkpt>
      <trkpt lat="43.75968" lon="4.88954">
        <ele>343</ele>
        <time>2010-12-04T12:41:17Z</time>
      </trkpt>
      <trkpt lat="43.75969" lon="4.88947">
        <ele>343</ele>
        <time>2010-12-04T12:41:24Z</time>
      </trkpt>
      <trkpt lat="43.75971" lon="4.88941">
        <ele>343</ele>
        <time>2010-12-04T12:41:32Z</time>
      </trkpt>
      <trkpt lat="43.75974" lon="4.88937">
        <ele>343</ele>
        <time>2010-12-04T12:41:39Z</time>
      </trkpt>
      <trkpt lat="43.75976" lon="4.88931">
        <ele>343</ele>
        <time>2010-12-04T12:41:45Z</time>
      </trkpt>
      <trkpt lat="43.75977" lon="4.88928">
        <ele>345</ele>
        <time>2010-12-04T12:42:13Z</time>
      </trkpt>
      <trkpt lat="43.75976" lon="4.88926">
        <ele>347</ele>
        <time>2010-12-04T12:43:28Z</time>
      </trkpt>
      <trkpt lat="43.75976" lon="4.88924">
        <ele>348</ele>
        <time>2010-12-04T12:43:58Z</time>
      </trkpt>
      <trkpt lat="43.75977" lon="4.88924">
        <ele>348</ele>
        <time>2010-12-04T12:44:05Z</time>
      </trkpt>
      <trkpt lat="43.75975" lon="4.88925">
        <ele>348</ele>
        <time>2010-12-04T12:44:17Z</time>
      </trkpt>
      <trkpt lat="43.75976" lon="4.88923">
        <ele>348</ele>
        <time>2010-12-04T12:44:27Z</time>
      </trkpt>
      <trkpt lat="43.75977" lon="4.8892">
        <ele>347</ele>
        <time>2010-12-04T12:44:33Z</time>
      </trkpt>
      <trkpt lat="43.75977" lon="4.88911">
        <ele>346</ele>
        <time>2010-12-04T12:44:41Z</time>
      </trkpt>
      <trkpt lat="43.75977" lon="4.88905">
        <ele>345</ele>
        <time>2010-12-04T12:44:47Z</time>
      </trkpt>
      <trkpt lat="43.75976" lon="4.88897">
        <ele>344</ele>
        <time>2010-12-04T12:44:55Z</time>
      </trkpt>
      <trkpt lat="43.75976" lon="4.88891">
        <ele>343</ele>
        <time>2010-12-04T12:45:01Z</time>
      </trkpt>
      <trkpt lat="43.75977" lon="4.88885">
        <ele>343</ele>
        <time>2010-12-04T12:45:07Z</time>
      </trkpt>
      <trkpt lat="43.75975" lon="4.88882">
        <ele>343</ele>
        <time>2010-12-04T12:45:14Z</time>
      </trkpt>
      <trkpt lat="43.75972" lon="4.88877">
        <ele>343</ele>
        <time>2010-12-04T12:45:21Z</time>
      </trkpt>
      <trkpt lat="43.75973" lon="4.8887">
        <ele>343</ele>
        <time>2010-12-04T12:45:28Z</time>
      </trkpt>
      <trkpt lat="43.75972" lon="4.88864">
        <ele>342</ele>
        <time>2010-12-04T12:45:34Z</time>
      </trkpt>
      <trkpt lat="43.7597" lon="4.88857">
        <ele>342</ele>
        <time>2010-12-04T12:45:40Z</time>
      </trkpt>
      <trkpt lat="43.7597" lon="4.88851">
        <ele>342</ele>
        <time>2010-12-04T12:45:47Z</time>
      </trkpt>
      <trkpt lat="43.75971" lon="4.88842">
        <ele>341</ele>
        <time>2010-12-04T12:45:54Z</time>
      </trkpt>
      <trkpt lat="43.75969" lon="4.88837">
        <ele>341</ele>
        <time>2010-12-04T12:46:01Z</time>
      </trkpt>
      <trkpt lat="43.75969" lon="4.88832">
        <ele>341</ele>
        <time>2010-12-04T12:46:07Z</time>
      </trkpt>
      <trkpt lat="43.75969" lon="4.88824">
        <ele>341</ele>
        <time>2010-12-04T12:46:15Z</time>
      </trkpt>
      <trkpt lat="43.75968" lon="4.88815">
        <ele>341</ele>
        <time>2010-12-04T12:46:22Z</time>
      </trkpt>
      <trkpt lat="43.75968" lon="4.88809">
        <ele>341</ele>
        <time>2010-12-04T12:46:29Z</time>
      </trkpt>
      <trkpt lat="43.75967" lon="4.88802">
        <ele>341</ele>
        <time>2010-12-04T12:46:35Z</time>
      </trkpt>
      <trkpt lat="43.75968" lon="4.88795">
        <ele>341</ele>
        <time>2010-12-04T12:46:42Z</time>
      </trkpt>
      <trkpt lat="43.7597" lon="4.88787">
        <ele>340</ele>
        <time>2010-12-04T12:46:49Z</time>
      </trkpt>
      <trkpt lat="43.75968" lon="4.88781">
        <ele>340</ele>
        <time>2010-12-04T12:46:56Z</time>
      </trkpt>
      <trkpt lat="43.75971" lon="4.88775">
        <ele>340</ele>
        <time>2010-12-04T12:47:04Z</time>
      </trkpt>
      <trkpt lat="43.75973" lon="4.88769">
        <ele>340</ele>
        <time>2010-12-04T12:47:10Z</time>
      </trkpt>
      <trkpt lat="43.75974" lon="4.88763">
        <ele>340</ele>
        <time>2010-12-04T12:47:16Z</time>
      </trkpt>
      <trkpt lat="43.75977" lon="4.88757">
        <ele>340</ele>
        <time>2010-12-04T12:47:22Z</time>
      </trkpt>
      <trkpt lat="43.75978" lon="4.88754">
        <ele>340</ele>
        <time>2010-12-04T12:47:28Z</time>
      </trkpt>
      <trkpt lat="43.75976" lon="4.88749">
        <ele>340</ele>
        <time>2010-12-04T12:47:35Z</time>
      </trkpt>
      <trkpt lat="43.75974" lon="4.88747">
        <ele>341</ele>
        <time>2010-12-04T12:47:43Z</time>
      </trkpt>
      <trkpt lat="43.75974" lon="4.88746">
        <ele>341</ele>
        <time>2010-12-04T12:47:50Z</time>
      </trkpt>
      <trkpt lat="43.75975" lon="4.88748">
        <ele>341</ele>
        <time>2010-12-04T12:48:05Z</time>
      </trkpt>
      <trkpt lat="43.75975" lon="4.88749">
        <ele>341</ele>
        <time>2010-12-04T12:48:30Z</time>
      </trkpt>
      <trkpt lat="43.75973" lon="4.8875">
        <ele>343</ele>
        <time>2010-12-04T12:49:18Z</time>
      </trkpt>
      <trkpt lat="43.75969" lon="4.88751">
        <ele>343</ele>
        <time>2010-12-04T12:49:25Z</time>
      </trkpt>
      <trkpt lat="43.75965" lon="4.88752">
        <ele>342</ele>
        <time>2010-12-04T12:49:32Z</time>
      </trkpt>
      <trkpt lat="43.7597" lon="4.88747">
        <ele>342</ele>
        <time>2010-12-04T12:49:40Z</time>
      </trkpt>
      <trkpt lat="43.75973" lon="4.88747">
        <ele>344</ele>
        <time>2010-12-04T12:49:47Z</time>
      </trkpt>
      <trkpt lat="43.75974" lon="4.88748">
        <ele>345</ele>
        <time>2010-12-04T12:49:56Z</time>
      </trkpt>
      <trkpt lat="43.75979" lon="4.88748">
        <ele>347</ele>
        <time>2010-12-04T12:50:09Z</time>
      </trkpt>
      <trkpt lat="43.75978" lon="4.88746">
        <ele>347</ele>
        <time>2010-12-04T12:50:25Z</time>
      </trkpt>
      <trkpt lat="43.75977" lon="4.88748">
        <ele>347</ele>
        <time>2010-12-04T12:50:48Z</time>
      </trkpt>
      <trkpt lat="43.75976" lon="4.88747">
        <ele>347</ele>
        <time>2010-12-04T12:50:55Z</time>
      </trkpt>
      <trkpt lat="43.75975" lon="4.88748">
        <ele>347</ele>
        <time>2010-12-04T12:51:07Z</time>
      </trkpt>
      <trkpt lat="43.75974" lon="4.88746">
        <ele>347</ele>
        <time>2010-12-04T12:51:27Z</time>
      </trkpt>
      <trkpt lat="43.75975" lon="4.88744">
        <ele>347</ele>
        <time>2010-12-04T12:51:34Z</time>
      </trkpt>
      <trkpt lat="43.75976" lon="4.88738">
        <ele>347</ele>
        <time>2010-12-04T12:51:43Z</time>
      </trkpt>
      <trkpt lat="43.75977" lon="4.88733">
        <ele>346</ele>
        <time>2010-12-04T12:51:50Z</time>
      </trkpt>
      <trkpt lat="43.75979" lon="4.88727">
        <ele>346</ele>
        <time>2010-12-04T12:52:00Z</time>
      </trkpt>
      <trkpt lat="43.75979" lon="4.8872">
        <ele>346</ele>
        <time>2010-12-04T12:52:07Z</time>
      </trkpt>
      <trkpt lat="43.75977" lon="4.88715">
        <ele>346</ele>
        <time>2010-12-04T12:52:15Z</time>
      </trkpt>
      <trkpt lat="43.75977" lon="4.88713">
        <ele>346</ele>
        <time>2010-12-04T12:52:22Z</time>
      </trkpt>
      <trkpt lat="43.75977" lon="4.8871">
        <ele>346</ele>
        <time>2010-12-04T12:52:30Z</time>
      </trkpt>
      <trkpt lat="43.75977" lon="4.88706">
        <ele>346</ele>
        <time>2010-12-04T12:52:36Z</time>
      </trkpt>
      <trkpt lat="43.75976" lon="4.88703">
        <ele>346</ele>
        <time>2010-12-04T12:52:42Z</time>
      </trkpt>
      <trkpt lat="43.75976" lon="4.88701">
        <ele>346</ele>
        <time>2010-12-04T12:52:53Z</time>
      </trkpt>
      <trkpt lat="43.75974" lon="4.88701">
        <ele>346</ele>
        <time>2010-12-04T12:53:03Z</time>
      </trkpt>
      <trkpt lat="43.75972" lon="4.88702">
        <ele>346</ele>
        <time>2010-12-04T12:53:12Z</time>
      </trkpt>
      <trkpt lat="43.75974" lon="4.887">
        <ele>345</ele>
        <time>2010-12-04T12:53:29Z</time>
      </trkpt>
      <trkpt lat="43.75971" lon="4.887">
        <ele>345</ele>
        <time>2010-12-04T12:53:36Z</time>
      </trkpt>
      <trkpt lat="43.75975" lon="4.887">
        <ele>345</ele>
        <time>2010-12-04T12:53:46Z</time>
      </trkpt>
      <trkpt lat="43.75976" lon="4.88699">
        <ele>345</ele>
        <time>2010-12-04T12:54:20Z</time>
      </trkpt>
      <trkpt lat="43.75977" lon="4.88699">
        <ele>345</ele>
        <time>2010-12-04T12:54:28Z</time>
      </trkpt>
      <trkpt lat="43.75974" lon="4.88697">
        <ele>345</ele>
        <time>2010-12-04T12:54:41Z</time>
      </trkpt>
      <trkpt lat="43.75972" lon="4.8869">
        <ele>345</ele>
        <time>2010-12-04T12:54:47Z</time>
      </trkpt>
      <trkpt lat="43.75973" lon="4.88686">
        <ele>345</ele>
        <time>2010-12-04T12:55:01Z</time>
      </trkpt>
      <trkpt lat="43.75972" lon="4.88681">
        <ele>345</ele>
        <time>2010-12-04T12:55:07Z</time>
      </trkpt>
      <trkpt lat="43.75972" lon="4.88675">
        <ele>345</ele>
        <time>2010-12-04T12:55:17Z</time>
      </trkpt>
      <trkpt lat="43.7597" lon="4.88672">
        <ele>345</ele>
        <time>2010-12-04T12:55:24Z</time>
      </trkpt>
      <trkpt lat="43.7597" lon="4.88668">
        <ele>345</ele>
        <time>2010-12-04T12:55:31Z</time>
      </trkpt>
      <trkpt lat="43.75967" lon="4.88668">
        <ele>345</ele>
        <time>2010-12-04T12:55:38Z</time>
      </trkpt>
      <trkpt lat="43.75965" lon="4.8867">
        <ele>345</ele>
        <time>2010-12-04T12:55:44Z</time>
      </trkpt>
      <trkpt lat="43.75959" lon="4.88665">
        <ele>345</ele>
        <time>2010-12-04T12:55:51Z</time>
      </trkpt>
      <trkpt lat="43.75958" lon="4.8866">
        <ele>345</ele>
        <time>2010-12-04T12:56:14Z</time>
      </trkpt>
      <trkpt lat="43.75958" lon="4.88659">
        <ele>345</ele>
        <time>2010-12-04T12:56:23Z</time>
      </trkpt>
      <trkpt lat="43.75961" lon="4.88654">
        <ele>345</ele>
        <time>2010-12-04T12:56:29Z</time>
      </trkpt>
      <trkpt lat="43.75958" lon="4.88651">
        <ele>345</ele>
        <time>2010-12-04T12:56:36Z</time>
      </trkpt>
      <trkpt lat="43.75953" lon="4.8865">
        <ele>345</ele>
        <time>2010-12-04T12:56:44Z</time>
      </trkpt>
      <trkpt lat="43.75952" lon="4.88651">
        <ele>344</ele>
        <time>2010-12-04T12:56:50Z</time>
      </trkpt>
      <trkpt lat="43.75949" lon="4.88647">
        <ele>343</ele>
        <time>2010-12-04T12:56:58Z</time>
      </trkpt>
      <trkpt lat="43.75946" lon="4.88645">
        <ele>342</ele>
        <time>2010-12-04T12:57:05Z</time>
      </trkpt>
      <trkpt lat="43.75945" lon="4.88638">
        <ele>342</ele>
        <time>2010-12-04T12:57:11Z</time>
      </trkpt>
      <trkpt lat="43.75944" lon="4.88631">
        <ele>341</ele>
        <time>2010-12-04T12:57:17Z</time>
      </trkpt>
      <trkpt lat="43.75943" lon="4.88625">
        <ele>339</ele>
        <time>2010-12-04T12:57:32Z</time>
      </trkpt>
      <trkpt lat="43.75944" lon="4.88622">
        <ele>338</ele>
        <time>2010-12-04T12:57:39Z</time>
      </trkpt>
      <trkpt lat="43.75943" lon="4.88617">
        <ele>336</ele>
        <time>2010-12-04T12:57:46Z</time>
      </trkpt>
      <trkpt lat="43.75943" lon="4.88614">
        <ele>333</ele>
        <time>2010-12-04T12:57:57Z</time>
      </trkpt>
      <trkpt lat="43.75943" lon="4.88611">
        <ele>330</ele>
        <time>2010-12-04T12:58:07Z</time>
      </trkpt>
      <trkpt lat="43.75945" lon="4.88605">
        <ele>327</ele>
        <time>2010-12-04T12:58:15Z</time>
      </trkpt>
      <trkpt lat="43.75945" lon="4.88602">
        <ele>326</ele>
        <time>2010-12-04T12:58:24Z</time>
      </trkpt>
      <trkpt lat="43.75946" lon="4.88596">
        <ele>325</ele>
        <time>2010-12-04T12:58:30Z</time>
      </trkpt>
      <trkpt lat="43.75949" lon="4.88588">
        <ele>323</ele>
        <time>2010-12-04T12:58:40Z</time>
      </trkpt>
      <trkpt lat="43.7595" lon="4.88584">
        <ele>323</ele>
        <time>2010-12-04T12:58:46Z</time>
      </trkpt>
      <trkpt lat="43.75951" lon="4.88579">
        <ele>323</ele>
        <time>2010-12-04T12:58:53Z</time>
      </trkpt>
      <trkpt lat="43.75951" lon="4.88574">
        <ele>323</ele>
        <time>2010-12-04T12:59:04Z</time>
      </trkpt>
      <trkpt lat="43.75951" lon="4.88573">
        <ele>323</ele>
        <time>2010-12-04T12:59:10Z</time>
      </trkpt>
      <trkpt lat="43.75951" lon="4.88571">
        <ele>323</ele>
        <time>2010-12-04T12:59:16Z</time>
      </trkpt>
      <trkpt lat="43.75951" lon="4.88568">
        <ele>324</ele>
        <time>2010-12-04T12:59:30Z</time>
      </trkpt>
      <trkpt lat="43.7595" lon="4.88565">
        <ele>326</ele>
        <time>2010-12-04T12:59:39Z</time>
      </trkpt>
      <trkpt lat="43.75949" lon="4.88561">
        <ele>328</ele>
        <time>2010-12-04T12:59:46Z</time>
      </trkpt>
      <trkpt lat="43.75949" lon="4.88555">
        <ele>329</ele>
        <time>2010-12-04T12:59:54Z</time>
      </trkpt>
      <trkpt lat="43.75948" lon="4.88553">
        <ele>330</ele>
        <time>2010-12-04T13:00:01Z</time>
      </trkpt>
      <trkpt lat="43.75947" lon="4.8855">
        <ele>331</ele>
        <time>2010-12-04T13:00:07Z</time>
      </trkpt>
      <trkpt lat="43.75947" lon="4.8855">
        <ele>333</ele>
        <time>2010-12-04T13:01:16Z</time>
      </trkpt>
      <trkpt lat="43.75948" lon="4.88549">
        <ele>334</ele>
        <time>2010-12-04T13:01:57Z</time>
      </trkpt>
      <trkpt lat="43.7595" lon="4.88547">
        <ele>334</ele>
        <time>2010-12-04T13:04:09Z</time>
      </trkpt>
      <trkpt lat="43.7595" lon="4.88544">
        <ele>334</ele>
        <time>2010-12-04T13:04:15Z</time>
      </trkpt>
      <trkpt lat="43.75949" lon="4.8854">
        <ele>334</ele>
        <time>2010-12-04T13:04:21Z</time>
      </trkpt>
      <trkpt lat="43.75948" lon="4.88534">
        <ele>334</ele>
        <time>2010-12-04T13:04:29Z</time>
      </trkpt>
      <trkpt lat="43.75946" lon="4.88532">
        <ele>334</ele>
        <time>2010-12-04T13:04:35Z</time>
      </trkpt>
      <trkpt lat="43.75943" lon="4.8853">
        <ele>334</ele>
        <time>2010-12-04T13:04:41Z</time>
      </trkpt>
      <trkpt lat="43.75944" lon="4.88525">
        <ele>334</ele>
        <time>2010-12-04T13:04:49Z</time>
      </trkpt>
      <trkpt lat="43.75943" lon="4.88522">
        <ele>334</ele>
        <time>2010-12-04T13:04:58Z</time>
      </trkpt>
      <trkpt lat="43.75945" lon="4.88516">
        <ele>334</ele>
        <time>2010-12-04T13:05:05Z</time>
      </trkpt>
      <trkpt lat="43.75948" lon="4.88509">
        <ele>334</ele>
        <time>2010-12-04T13:05:12Z</time>
      </trkpt>
      <trkpt lat="43.75948" lon="4.88505">
        <ele>333</ele>
        <time>2010-12-04T13:05:19Z</time>
      </trkpt>
      <trkpt lat="43.75948" lon="4.88503">
        <ele>333</ele>
        <time>2010-12-04T13:05:25Z</time>
      </trkpt>
      <trkpt lat="43.75947" lon="4.88495">
        <ele>331</ele>
        <time>2010-12-04T13:05:33Z</time>
      </trkpt>
      <trkpt lat="43.75951" lon="4.88491">
        <ele>331</ele>
        <time>2010-12-04T13:05:41Z</time>
      </trkpt>
      <trkpt lat="43.75955" lon="4.88488">
        <ele>331</ele>
        <time>2010-12-04T13:05:48Z</time>
      </trkpt>
      <trkpt lat="43.75957" lon="4.88486">
        <ele>331</ele>
        <time>2010-12-04T13:05:54Z</time>
      </trkpt>
      <trkpt lat="43.75961" lon="4.88486">
        <ele>331</ele>
        <time>2010-12-04T13:06:04Z</time>
      </trkpt>
      <trkpt lat="43.75965" lon="4.88484">
        <ele>331</ele>
        <time>2010-12-04T13:06:10Z</time>
      </trkpt>
      <trkpt lat="43.75969" lon="4.88483">
        <ele>331</ele>
        <time>2010-12-04T13:06:18Z</time>
      </trkpt>
      <trkpt lat="43.75973" lon="4.8848">
        <ele>331</ele>
        <time>2010-12-04T13:06:24Z</time>
      </trkpt>
      <trkpt lat="43.75978" lon="4.88478">
        <ele>333</ele>
        <time>2010-12-04T13:06:32Z</time>
      </trkpt>
      <trkpt lat="43.75982" lon="4.88473">
        <ele>334</ele>
        <time>2010-12-04T13:06:38Z</time>
      </trkpt>
      <trkpt lat="43.75983" lon="4.88466">
        <ele>335</ele>
        <time>2010-12-04T13:06:44Z</time>
      </trkpt>
      <trkpt lat="43.75985" lon="4.8846">
        <ele>335</ele>
        <time>2010-12-04T13:06:50Z</time>
      </trkpt>
      <trkpt lat="43.75988" lon="4.88452">
        <ele>335</ele>
        <time>2010-12-04T13:06:58Z</time>
      </trkpt>
      <trkpt lat="43.75989" lon="4.88445">
        <ele>336</ele>
        <time>2010-12-04T13:07:06Z</time>
      </trkpt>
      <trkpt lat="43.7599" lon="4.8844">
        <ele>336</ele>
        <time>2010-12-04T13:07:13Z</time>
      </trkpt>
      <trkpt lat="43.75992" lon="4.88435">
        <ele>336</ele>
        <time>2010-12-04T13:07:19Z</time>
      </trkpt>
      <trkpt lat="43.75994" lon="4.88431">
        <ele>336</ele>
        <time>2010-12-04T13:07:25Z</time>
      </trkpt>
      <trkpt lat="43.75996" lon="4.88428">
        <ele>336</ele>
        <time>2010-12-04T13:07:35Z</time>
      </trkpt>
      <trkpt lat="43.75997" lon="4.88422">
        <ele>336</ele>
        <time>2010-12-04T13:07:42Z</time>
      </trkpt>
      <trkpt lat="43.75996" lon="4.88415">
        <ele>336</ele>
        <time>2010-12-04T13:07:48Z</time>
      </trkpt>
      <trkpt lat="43.75996" lon="4.8841">
        <ele>336</ele>
        <time>2010-12-04T13:07:55Z</time>
      </trkpt>
      <trkpt lat="43.75998" lon="4.88404">
        <ele>335</ele>
        <time>2010-12-04T13:08:02Z</time>
      </trkpt>
      <trkpt lat="43.75996" lon="4.88395">
        <ele>333</ele>
        <time>2010-12-04T13:08:09Z</time>
      </trkpt>
      <trkpt lat="43.75996" lon="4.88388">
        <ele>333</ele>
        <time>2010-12-04T13:08:16Z</time>
      </trkpt>
      <trkpt lat="43.75994" lon="4.88381">
        <ele>333</ele>
        <time>2010-12-04T13:08:23Z</time>
      </trkpt>
      <trkpt lat="43.75997" lon="4.88376">
        <ele>333</ele>
        <time>2010-12-04T13:08:31Z</time>
      </trkpt>
      <trkpt lat="43.75999" lon="4.8837">
        <ele>333</ele>
        <time>2010-12-04T13:08:39Z</time>
      </trkpt>
      <trkpt lat="43.75999" lon="4.88364">
        <ele>333</ele>
        <time>2010-12-04T13:08:46Z</time>
      </trkpt>
      <trkpt lat="43.75996" lon="4.88358">
        <ele>333</ele>
        <time>2010-12-04T13:08:54Z</time>
      </trkpt>
      <trkpt lat="43.75994" lon="4.88352">
        <ele>334</ele>
        <time>2010-12-04T13:09:01Z</time>
      </trkpt>
      <trkpt lat="43.75994" lon="4.88348">
        <ele>335</ele>
        <time>2010-12-04T13:09:07Z</time>
      </trkpt>
      <trkpt lat="43.75991" lon="4.88342">
        <ele>337</ele>
        <time>2010-12-04T13:09:14Z</time>
      </trkpt>
      <trkpt lat="43.75989" lon="4.88337">
        <ele>338</ele>
        <time>2010-12-04T13:09:21Z</time>
      </trkpt>
      <trkpt lat="43.75988" lon="4.8833">
        <ele>339</ele>
        <time>2010-12-04T13:09:28Z</time>
      </trkpt>
      <trkpt lat="43.7599" lon="4.88322">
        <ele>339</ele>
        <time>2010-12-04T13:09:34Z</time>
      </trkpt>
      <trkpt lat="43.7599" lon="4.88316">
        <ele>339</ele>
        <time>2010-12-04T13:09:40Z</time>
      </trkpt>
      <trkpt lat="43.75993" lon="4.88305">
        <ele>339</ele>
        <time>2010-12-04T13:09:48Z</time>
      </trkpt>
      <trkpt lat="43.75991" lon="4.88296">
        <ele>339</ele>
        <time>2010-12-04T13:09:54Z</time>
      </trkpt>
      <trkpt lat="43.75993" lon="4.88286">
        <ele>340</ele>
        <time>2010-12-04T13:10:02Z</time>
      </trkpt>
      <trkpt lat="43.75995" lon="4.88278">
        <ele>342</ele>
        <time>2010-12-04T13:10:08Z</time>
      </trkpt>
      <trkpt lat="43.75998" lon="4.8827">
        <ele>343</ele>
        <time>2010-12-04T13:10:16Z</time>
      </trkpt>
      <trkpt lat="43.75996" lon="4.88263">
        <ele>344</ele>
        <time>2010-12-04T13:10:22Z</time>
      </trkpt>
      <trkpt lat="43.75993" lon="4.88255">
        <ele>344</ele>
        <time>2010-12-04T13:10:28Z</time>
      </trkpt>
      <trkpt lat="43.75989" lon="4.88248">
        <ele>344</ele>
        <time>2010-12-04T13:10:35Z</time>
      </trkpt>
      <trkpt lat="43.75987" lon="4.8824">
        <ele>344</ele>
        <time>2010-12-04T13:10:42Z</time>
      </trkpt>
      <trkpt lat="43.75986" lon="4.88234">
        <ele>344</ele>
        <time>2010-12-04T13:10:48Z</time>
      </trkpt>
      <trkpt lat="43.75986" lon="4.88229">
        <ele>344</ele>
        <time>2010-12-04T13:10:54Z</time>
      </trkpt>
      <trkpt lat="43.75983" lon="4.88221">
        <ele>344</ele>
        <time>2010-12-04T13:11:02Z</time>
      </trkpt>
      <trkpt lat="43.75982" lon="4.88215">
        <ele>344</ele>
        <time>2010-12-04T13:11:09Z</time>
      </trkpt>
      <trkpt lat="43.75977" lon="4.8821">
        <ele>345</ele>
        <time>2010-12-04T13:11:15Z</time>
      </trkpt>
      <trkpt lat="43.75975" lon="4.88205">
        <ele>346</ele>
        <time>2010-12-04T13:11:21Z</time>
      </trkpt>
      <trkpt lat="43.75973" lon="4.88199">
        <ele>347</ele>
        <time>2010-12-04T13:11:28Z</time>
      </trkpt>
      <trkpt lat="43.75973" lon="4.88193">
        <ele>348</ele>
        <time>2010-12-04T13:11:34Z</time>
      </trkpt>
      <trkpt lat="43.75971" lon="4.88184">
        <ele>349</ele>
        <time>2010-12-04T13:11:42Z</time>
      </trkpt>
      <trkpt lat="43.75969" lon="4.88179">
        <ele>349</ele>
        <time>2010-12-04T13:11:48Z</time>
      </trkpt>
      <trkpt lat="43.75966" lon="4.88173">
        <ele>350</ele>
        <time>2010-12-04T13:11:54Z</time>
      </trkpt>
      <trkpt lat="43.75963" lon="4.88169">
        <ele>350</ele>
        <time>2010-12-04T13:12:00Z</time>
      </trkpt>
      <trkpt lat="43.75962" lon="4.88164">
        <ele>350</ele>
        <time>2010-12-04T13:12:06Z</time>
      </trkpt>
      <trkpt lat="43.75961" lon="4.88158">
        <ele>351</ele>
        <time>2010-12-04T13:12:12Z</time>
      </trkpt>
      <trkpt lat="43.75958" lon="4.88149">
        <ele>352</ele>
        <time>2010-12-04T13:12:20Z</time>
      </trkpt>
      <trkpt lat="43.75956" lon="4.88141">
        <ele>352</ele>
        <time>2010-12-04T13:12:27Z</time>
      </trkpt>
      <trkpt lat="43.75954" lon="4.88134">
        <ele>352</ele>
        <time>2010-12-04T13:12:33Z</time>
      </trkpt>
      <trkpt lat="43.75955" lon="4.88125">
        <ele>353</ele>
        <time>2010-12-04T13:12:40Z</time>
      </trkpt>
      <trkpt lat="43.75955" lon="4.88117">
        <ele>354</ele>
        <time>2010-12-04T13:12:46Z</time>
      </trkpt>
      <trkpt lat="43.75954" lon="4.88108">
        <ele>354</ele>
        <time>2010-12-04T13:12:52Z</time>
      </trkpt>
      <trkpt lat="43.75953" lon="4.88098">
        <ele>354</ele>
        <time>2010-12-04T13:12:58Z</time>
      </trkpt>
      <trkpt lat="43.75954" lon="4.88087">
        <ele>355</ele>
        <time>2010-12-04T13:13:05Z</time>
      </trkpt>
      <trkpt lat="43.75953" lon="4.8808">
        <ele>355</ele>
        <time>2010-12-04T13:13:11Z</time>
      </trkpt>
      <trkpt lat="43.75951" lon="4.88071">
        <ele>355</ele>
        <time>2010-12-04T13:13:18Z</time>
      </trkpt>
      <trkpt lat="43.7595" lon="4.88063">
        <ele>355</ele>
        <time>2010-12-04T13:13:24Z</time>
      </trkpt>
      <trkpt lat="43.75949" lon="4.88051">
        <ele>355</ele>
        <time>2010-12-04T13:13:31Z</time>
      </trkpt>
      <trkpt lat="43.75947" lon="4.88044">
        <ele>355</ele>
        <time>2010-12-04T13:13:37Z</time>
      </trkpt>
      <trkpt lat="43.75945" lon="4.88035">
        <ele>355</ele>
        <time>2010-12-04T13:13:44Z</time>
      </trkpt>
      <trkpt lat="43.75944" lon="4.88027">
        <ele>355</ele>
        <time>2010-12-04T13:13:51Z</time>
      </trkpt>
      <trkpt lat="43.75942" lon="4.88021">
        <ele>355</ele>
        <time>2010-12-04T13:13:57Z</time>
      </trkpt>
      <trkpt lat="43.75941" lon="4.88013">
        <ele>355</ele>
        <time>2010-12-04T13:14:05Z</time>
      </trkpt>
      <trkpt lat="43.75941" lon="4.88004">
        <ele>355</ele>
        <time>2010-12-04T13:14:12Z</time>
      </trkpt>
      <trkpt lat="43.75941" lon="4.87996">
        <ele>355</ele>
        <time>2010-12-04T13:14:18Z</time>
      </trkpt>
      <trkpt lat="43.75941" lon="4.8799">
        <ele>355</ele>
        <time>2010-12-04T13:14:24Z</time>
      </trkpt>
      <trkpt lat="43.75942" lon="4.87982">
        <ele>355</ele>
        <time>2010-12-04T13:14:32Z</time>
      </trkpt>
      <trkpt lat="43.75942" lon="4.87974">
        <ele>355</ele>
        <time>2010-12-04T13:14:38Z</time>
      </trkpt>
      <trkpt lat="43.75943" lon="4.87964">
        <ele>355</ele>
        <time>2010-12-04T13:14:46Z</time>
      </trkpt>
      <trkpt lat="43.75946" lon="4.87956">
        <ele>355</ele>
        <time>2010-12-04T13:14:54Z</time>
      </trkpt>
      <trkpt lat="43.75948" lon="4.87947">
        <ele>355</ele>
        <time>2010-12-04T13:15:01Z</time>
      </trkpt>
      <trkpt lat="43.75951" lon="4.87937">
        <ele>355</ele>
        <time>2010-12-04T13:15:09Z</time>
      </trkpt>
      <trkpt lat="43.75954" lon="4.87931">
        <ele>355</ele>
        <time>2010-12-04T13:15:15Z</time>
      </trkpt>
      <trkpt lat="43.75956" lon="4.87925">
        <ele>355</ele>
        <time>2010-12-04T13:15:21Z</time>
      </trkpt>
      <trkpt lat="43.75957" lon="4.87916">
        <ele>355</ele>
        <time>2010-12-04T13:15:27Z</time>
      </trkpt>
      <trkpt lat="43.75959" lon="4.87907">
        <ele>355</ele>
        <time>2010-12-04T13:15:34Z</time>
      </trkpt>
      <trkpt lat="43.75959" lon="4.87898">
        <ele>355</ele>
        <time>2010-12-04T13:15:41Z</time>
      </trkpt>
      <trkpt lat="43.75957" lon="4.87889">
        <ele>355</ele>
        <time>2010-12-04T13:15:48Z</time>
      </trkpt>
      <trkpt lat="43.75957" lon="4.8788">
        <ele>356</ele>
        <time>2010-12-04T13:15:55Z</time>
      </trkpt>
      <trkpt lat="43.75961" lon="4.87873">
        <ele>356</ele>
        <time>2010-12-04T13:16:01Z</time>
      </trkpt>
      <trkpt lat="43.75967" lon="4.87867">
        <ele>356</ele>
        <time>2010-12-04T13:16:09Z</time>
      </trkpt>
      <trkpt lat="43.75973" lon="4.87861">
        <ele>357</ele>
        <time>2010-12-04T13:16:17Z</time>
      </trkpt>
      <trkpt lat="43.75975" lon="4.87855">
        <ele>357</ele>
        <time>2010-12-04T13:16:23Z</time>
      </trkpt>
      <trkpt lat="43.75974" lon="4.87849">
        <ele>357</ele>
        <time>2010-12-04T13:16:29Z</time>
      </trkpt>
      <trkpt lat="43.75972" lon="4.87841">
        <ele>357</ele>
        <time>2010-12-04T13:16:35Z</time>
      </trkpt>
      <trkpt lat="43.75969" lon="4.87833">
        <ele>357</ele>
        <time>2010-12-04T13:16:41Z</time>
      </trkpt>
      <trkpt lat="43.75965" lon="4.87825">
        <ele>357</ele>
        <time>2010-12-04T13:16:47Z</time>
      </trkpt>
      <trkpt lat="43.75963" lon="4.87816">
        <ele>357</ele>
        <time>2010-12-04T13:16:54Z</time>
      </trkpt>
      <trkpt lat="43.75959" lon="4.87809">
        <ele>357</ele>
        <time>2010-12-04T13:17:01Z</time>
      </trkpt>
      <trkpt lat="43.75956" lon="4.87801">
        <ele>357</ele>
        <time>2010-12-04T13:17:08Z</time>
      </trkpt>
      <trkpt lat="43.75955" lon="4.87793">
        <ele>357</ele>
        <time>2010-12-04T13:17:15Z</time>
      </trkpt>
      <trkpt lat="43.75955" lon="4.87782">
        <ele>357</ele>
        <time>2010-12-04T13:17:23Z</time>
      </trkpt>
      <trkpt lat="43.75957" lon="4.87774">
        <ele>357</ele>
        <time>2010-12-04T13:17:30Z</time>
      </trkpt>
      <trkpt lat="43.75957" lon="4.87766">
        <ele>356</ele>
        <time>2010-12-04T13:17:37Z</time>
      </trkpt>
      <trkpt lat="43.75957" lon="4.87758">
        <ele>355</ele>
        <time>2010-12-04T13:17:45Z</time>
      </trkpt>
      <trkpt lat="43.75958" lon="4.87752">
        <ele>354</ele>
        <time>2010-12-04T13:17:51Z</time>
      </trkpt>
      <trkpt lat="43.75961" lon="4.87745">
        <ele>354</ele>
        <time>2010-12-04T13:17:59Z</time>
      </trkpt>
      <trkpt lat="43.75962" lon="4.87736">
        <ele>354</ele>
        <time>2010-12-04T13:18:05Z</time>
      </trkpt>
      <trkpt lat="43.75965" lon="4.87727">
        <ele>354</ele>
        <time>2010-12-04T13:18:12Z</time>
      </trkpt>
      <trkpt lat="43.75966" lon="4.87717">
        <ele>354</ele>
        <time>2010-12-04T13:18:20Z</time>
      </trkpt>
      <trkpt lat="43.75969" lon="4.8771">
        <ele>354</ele>
        <time>2010-12-04T13:18:26Z</time>
      </trkpt>
      <trkpt lat="43.75969" lon="4.87701">
        <ele>354</ele>
        <time>2010-12-04T13:18:32Z</time>
      </trkpt>
      <trkpt lat="43.7597" lon="4.87692">
        <ele>354</ele>
        <time>2010-12-04T13:18:39Z</time>
      </trkpt>
      <trkpt lat="43.75972" lon="4.87683">
        <ele>354</ele>
        <time>2010-12-04T13:18:46Z</time>
      </trkpt>
      <trkpt lat="43.75974" lon="4.87676">
        <ele>354</ele>
        <time>2010-12-04T13:18:53Z</time>
      </trkpt>
      <trkpt lat="43.75977" lon="4.87672">
        <ele>354</ele>
        <time>2010-12-04T13:18:59Z</time>
      </trkpt>
      <trkpt lat="43.75979" lon="4.87664">
        <ele>354</ele>
        <time>2010-12-04T13:19:06Z</time>
      </trkpt>
      <trkpt lat="43.7598" lon="4.8766">
        <ele>354</ele>
        <time>2010-12-04T13:19:12Z</time>
      </trkpt>
      <trkpt lat="43.7598" lon="4.87655">
        <ele>354</ele>
        <time>2010-12-04T13:19:21Z</time>
      </trkpt>
      <trkpt lat="43.75981" lon="4.87652">
        <ele>354</ele>
        <time>2010-12-04T13:19:27Z</time>
      </trkpt>
      <trkpt lat="43.75982" lon="4.87646">
        <ele>353</ele>
        <time>2010-12-04T13:19:34Z</time>
      </trkpt>
      <trkpt lat="43.75984" lon="4.87644">
        <ele>352</ele>
        <time>2010-12-04T13:19:40Z</time>
      </trkpt>
      <trkpt lat="43.75985" lon="4.87639">
        <ele>350</ele>
        <time>2010-12-04T13:19:49Z</time>
      </trkpt>
      <trkpt lat="43.75985" lon="4.87633">
        <ele>350</ele>
        <time>2010-12-04T13:19:56Z</time>
      </trkpt>
      <trkpt lat="43.75987" lon="4.8763">
        <ele>349</ele>
        <time>2010-12-04T13:20:02Z</time>
      </trkpt>
      <trkpt lat="43.75988" lon="4.87626">
        <ele>347</ele>
        <time>2010-12-04T13:20:08Z</time>
      </trkpt>
      <trkpt lat="43.7599" lon="4.87621">
        <ele>345</ele>
        <time>2010-12-04T13:20:16Z</time>
      </trkpt>
      <trkpt lat="43.75991" lon="4.87618">
        <ele>343</ele>
        <time>2010-12-04T13:20:24Z</time>
      </trkpt>
      <trkpt lat="43.75991" lon="4.87615">
        <ele>342</ele>
        <time>2010-12-04T13:20:31Z</time>
      </trkpt>
      <trkpt lat="43.75993" lon="4.87611">
        <ele>340</ele>
        <time>2010-12-04T13:20:43Z</time>
      </trkpt>
      <trkpt lat="43.75993" lon="4.87608">
        <ele>338</ele>
        <time>2010-12-04T13:20:49Z</time>
      </trkpt>
      <trkpt lat="43.75995" lon="4.87603">
        <ele>337</ele>
        <time>2010-12-04T13:20:56Z</time>
      </trkpt>
      <trkpt lat="43.75996" lon="4.876">
        <ele>336</ele>
        <time>2010-12-04T13:21:03Z</time>
      </trkpt>
      <trkpt lat="43.75998" lon="4.87597">
        <ele>335</ele>
        <time>2010-12-04T13:21:09Z</time>
      </trkpt>
      <trkpt lat="43.75999" lon="4.87594">
        <ele>333</ele>
        <time>2010-12-04T13:21:19Z</time>
      </trkpt>
      <trkpt lat="43.76" lon="4.87592">
        <ele>332</ele>
        <time>2010-12-04T13:21:25Z</time>
      </trkpt>
      <trkpt lat="43.76" lon="4.87591">
        <ele>330</ele>
        <time>2010-12-04T13:21:31Z</time>
      </trkpt>
      <trkpt lat="43.76002" lon="4.87585">
        <ele>329</ele>
        <time>2010-12-04T13:21:38Z</time>
      </trkpt>
      <trkpt lat="43.76002" lon="4.87582">
        <ele>328</ele>
        <time>2010-12-04T13:21:44Z</time>
      </trkpt>
      <trkpt lat="43.76004" lon="4.87575">
        <ele>327</ele>
        <time>2010-12-04T13:21:50Z</time>
      </trkpt>
      <trkpt lat="43.76004" lon="4.8757">
        <ele>326</ele>
        <time>2010-12-04T13:21:56Z</time>
      </trkpt>
      <trkpt lat="43.76006" lon="4.87563">
        <ele>325</ele>
        <time>2010-12-04T13:22:02Z</time>
      </trkpt>
      <trkpt lat="43.76008" lon="4.87557">
        <ele>324</ele>
        <time>2010-12-04T13:22:09Z</time>
      </trkpt>
      <trkpt lat="43.76009" lon="4.8755">
        <ele>323</ele>
        <time>2010-12-04T13:22:17Z</time>
      </trkpt>
      <trkpt lat="43.7601" lon="4.87544">
        <ele>322</ele>
        <time>2010-12-04T13:22:24Z</time>
      </trkpt>
      <trkpt lat="43.76011" lon="4.87541">
        <ele>321</ele>
        <time>2010-12-04T13:22:30Z</time>
      </trkpt>
      <trkpt lat="43.76012" lon="4.87536">
        <ele>320</ele>
        <time>2010-12-04T13:22:37Z</time>
      </trkpt>
      <trkpt lat="43.76012" lon="4.8753">
        <ele>319</ele>
        <time>2010-12-04T13:22:44Z</time>
      </trkpt>
      <trkpt lat="43.76012" lon="4.87525">
        <ele>319</ele>
        <time>2010-12-04T13:22:50Z</time>
      </trkpt>
      <trkpt lat="43.76013" lon="4.87522">
        <ele>319</ele>
        <time>2010-12-04T13:22:57Z</time>
      </trkpt>
      <trkpt lat="43.76013" lon="4.87519">
        <ele>318</ele>
        <time>2010-12-04T13:23:04Z</time>
      </trkpt>
      <trkpt lat="43.76014" lon="4.87513">
        <ele>317</ele>
        <time>2010-12-04T13:23:11Z</time>
      </trkpt>
      <trkpt lat="43.76015" lon="4.87508">
        <ele>316</ele>
        <time>2010-12-04T13:23:18Z</time>
      </trkpt>
      <trkpt lat="43.76016" lon="4.87501">
        <ele>315</ele>
        <time>2010-12-04T13:23:24Z</time>
      </trkpt>
      <trkpt lat="43.76016" lon="4.87495">
        <ele>315</ele>
        <time>2010-12-04T13:23:30Z</time>
      </trkpt>
      <trkpt lat="43.76015" lon="4.87492">
        <ele>314</ele>
        <time>2010-12-04T13:23:38Z</time>
      </trkpt>
      <trkpt lat="43.76014" lon="4.87491">
        <ele>314</ele>
        <time>2010-12-04T13:23:44Z</time>
      </trkpt>
      <trkpt lat="43.76014" lon="4.87484">
        <ele>313</ele>
        <time>2010-12-04T13:23:51Z</time>
      </trkpt>
      <trkpt lat="43.76016" lon="4.87473">
        <ele>311</ele>
        <time>2010-12-04T13:23:57Z</time>
      </trkpt>
      <trkpt lat="43.7602" lon="4.87462">
        <ele>311</ele>
        <time>2010-12-04T13:24:05Z</time>
      </trkpt>
      <trkpt lat="43.76022" lon="4.87454">
        <ele>311</ele>
        <time>2010-12-04T13:24:12Z</time>
      </trkpt>
      <trkpt lat="43.76023" lon="4.87448">
        <ele>311</ele>
        <time>2010-12-04T13:24:18Z</time>
      </trkpt>
      <trkpt lat="43.76023" lon="4.8744">
        <ele>311</ele>
        <time>2010-12-04T13:24:26Z</time>
      </trkpt>
      <trkpt lat="43.76025" lon="4.87434">
        <ele>311</ele>
        <time>2010-12-04T13:24:32Z</time>
      </trkpt>
      <trkpt lat="43.76028" lon="4.87428">
        <ele>311</ele>
        <time>2010-12-04T13:24:41Z</time>
      </trkpt>
      <trkpt lat="43.76029" lon="4.87423">
        <ele>311</ele>
        <time>2010-12-04T13:24:48Z</time>
      </trkpt>
      <trkpt lat="43.7603" lon="4.87418">
        <ele>313</ele>
        <time>2010-12-04T13:24:58Z</time>
      </trkpt>
      <trkpt lat="43.76029" lon="4.87415">
        <ele>314</ele>
        <time>2010-12-04T13:25:08Z</time>
      </trkpt>
      <trkpt lat="43.76029" lon="4.87409">
        <ele>316</ele>
        <time>2010-12-04T13:25:17Z</time>
      </trkpt>
      <trkpt lat="43.76028" lon="4.87405">
        <ele>318</ele>
        <time>2010-12-04T13:25:24Z</time>
      </trkpt>
      <trkpt lat="43.76026" lon="4.87402">
        <ele>320</ele>
        <time>2010-12-04T13:25:30Z</time>
      </trkpt>
      <trkpt lat="43.76027" lon="4.87398">
        <ele>321</ele>
        <time>2010-12-04T13:25:36Z</time>
      </trkpt>
      <trkpt lat="43.7603" lon="4.87396">
        <ele>323</ele>
        <time>2010-12-04T13:25:44Z</time>
      </trkpt>
      <trkpt lat="43.76031" lon="4.87394">
        <ele>325</ele>
        <time>2010-12-04T13:25:52Z</time>
      </trkpt>
      <trkpt lat="43.7603" lon="4.87389">
        <ele>327</ele>
        <time>2010-12-04T13:26:00Z</time>
      </trkpt>
      <trkpt lat="43.76032" lon="4.87384">
        <ele>330</ele>
        <time>2010-12-04T13:26:08Z</time>
      </trkpt>
      <trkpt lat="43.7603" lon="4.8738">
        <ele>332</ele>
        <time>2010-12-04T13:26:15Z</time>
      </trkpt>
      <trkpt lat="43.7603" lon="4.87374">
        <ele>333</ele>
        <time>2010-12-04T13:26:24Z</time>
      </trkpt>
      <trkpt lat="43.7603" lon="4.8737">
        <ele>334</ele>
        <time>2010-12-04T13:26:30Z</time>
      </trkpt>
      <trkpt lat="43.7603" lon="4.87364">
        <ele>335</ele>
        <time>2010-12-04T13:26:37Z</time>
      </trkpt>
      <trkpt lat="43.76029" lon="4.87359">
        <ele>336</ele>
        <time>2010-12-04T13:26:44Z</time>
      </trkpt>
      <trkpt lat="43.76029" lon="4.87355">
        <ele>338</ele>
        <time>2010-12-04T13:26:50Z</time>
      </trkpt>
      <trkpt lat="43.7603" lon="4.8735">
        <ele>338</ele>
        <time>2010-12-04T13:26:57Z</time>
      </trkpt>
      <trkpt lat="43.76029" lon="4.87346">
        <ele>339</ele>
        <time>2010-12-04T13:27:04Z</time>
      </trkpt>
      <trkpt lat="43.76028" lon="4.87342">
        <ele>340</ele>
        <time>2010-12-04T13:27:10Z</time>
      </trkpt>
      <trkpt lat="43.76025" lon="4.87339">
        <ele>341</ele>
        <time>2010-12-04T13:27:16Z</time>
      </trkpt>
      <trkpt lat="43.76025" lon="4.87334">
        <ele>342</ele>
        <time>2010-12-04T13:27:25Z</time>
      </trkpt>
      <trkpt lat="43.76022" lon="4.8733">
        <ele>343</ele>
        <time>2010-12-04T13:27:32Z</time>
      </trkpt>
      <trkpt lat="43.76022" lon="4.87325">
        <ele>344</ele>
        <time>2010-12-04T13:27:40Z</time>
      </trkpt>
      <trkpt lat="43.76022" lon="4.8732">
        <ele>345</ele>
        <time>2010-12-04T13:27:46Z</time>
      </trkpt>
      <trkpt lat="43.76023" lon="4.87315">
        <ele>346</ele>
        <time>2010-12-04T13:27:52Z</time>
      </trkpt>
      <trkpt lat="43.76023" lon="4.87312">
        <ele>349</ele>
        <time>2010-12-04T13:28:09Z</time>
      </trkpt>
      <trkpt lat="43.76024" lon="4.87311">
        <ele>349</ele>
        <time>2010-12-04T13:28:55Z</time>
      </trkpt>
      <trkpt lat="43.76025" lon="4.8731">
        <ele>350</ele>
        <time>2010-12-04T13:29:09Z</time>
      </trkpt>
      <trkpt lat="43.76028" lon="4.8731">
        <ele>352</ele>
        <time>2010-12-04T13:29:53Z</time>
      </trkpt>
      <trkpt lat="43.76027" lon="4.87311">
        <ele>353</ele>
        <time>2010-12-04T13:30:00Z</time>
      </trkpt>
      <trkpt lat="43.76023" lon="4.87313">
        <ele>353</ele>
        <time>2010-12-04T13:30:11Z</time>
      </trkpt>
      <trkpt lat="43.76022" lon="4.87311">
        <ele>353</ele>
        <time>2010-12-04T13:30:55Z</time>
      </trkpt>
      <trkpt lat="43.76023" lon="4.87308">
        <ele>353</ele>
        <time>2010-12-04T13:31:02Z</time>
      </trkpt>
      <trkpt lat="43.76023" lon="4.87302">
        <ele>353</ele>
        <time>2010-12-04T13:31:09Z</time>
      </trkpt>
      <trkpt lat="43.76023" lon="4.87295">
        <ele>353</ele>
        <time>2010-12-04T13:31:15Z</time>
      </trkpt>
      <trkpt lat="43.76024" lon="4.87287">
        <ele>354</ele>
        <time>2010-12-04T13:31:23Z</time>
      </trkpt>
      <trkpt lat="43.76025" lon="4.87281">
        <ele>354</ele>
        <time>2010-12-04T13:31:29Z</time>
      </trkpt>
      <trkpt lat="43.76025" lon="4.87275">
        <ele>355</ele>
        <time>2010-12-04T13:31:35Z</time>
      </trkpt>
      <trkpt lat="43.76024" lon="4.87269">
        <ele>356</ele>
        <time>2010-12-04T13:31:41Z</time>
      </trkpt>
      <trkpt lat="43.76024" lon="4.87262">
        <ele>357</ele>
        <time>2010-12-04T13:31:47Z</time>
      </trkpt>
      <trkpt lat="43.76025" lon="4.87255">
        <ele>357</ele>
        <time>2010-12-04T13:31:53Z</time>
      </trkpt>
      <trkpt lat="43.76024" lon="4.87248">
        <ele>358</ele>
        <time>2010-12-04T13:32:00Z</time>
      </trkpt>
      <trkpt lat="43.76025" lon="4.87241">
        <ele>358</ele>
        <time>2010-12-04T13:32:06Z</time>
      </trkpt>
      <trkpt lat="43.76023" lon="4.87235">
        <ele>358</ele>
        <time>2010-12-04T13:32:12Z</time>
      </trkpt>
      <trkpt lat="43.76023" lon="4.87226">
        <ele>359</ele>
        <time>2010-12-04T13:32:20Z</time>
      </trkpt>
      <trkpt lat="43.76023" lon="4.87217">
        <ele>359</ele>
        <time>2010-12-04T13:32:27Z</time>
      </trkpt>
      <trkpt lat="43.76024" lon="4.87209">
        <ele>359</ele>
        <time>2010-12-04T13:32:34Z</time>
      </trkpt>
      <trkpt lat="43.76023" lon="4.872">
        <ele>359</ele>
        <time>2010-12-04T13:32:42Z</time>
      </trkpt>
      <trkpt lat="43.76023" lon="4.87198">
        <ele>359</ele>
        <time>2010-12-04T13:32:50Z</time>
      </trkpt>
      <trkpt lat="43.76023" lon="4.872">
        <ele>360</ele>
        <time>2010-12-04T13:33:02Z</time>
      </trkpt>
      <trkpt lat="43.76023" lon="4.872">
        <ele>360</ele>
        <time>2010-12-04T13:33:09Z</time>
      </trkpt>
      <trkpt lat="43.76022" lon="4.87195">
        <ele>360</ele>
        <time>2010-12-04T13:33:18Z</time>
      </trkpt>
      <trkpt lat="43.76023" lon="4.87193">
        <ele>361</ele>
        <time>2010-12-04T13:33:25Z</time>
      </trkpt>
      <trkpt lat="43.76026" lon="4.87183">
        <ele>361</ele>
        <time>2010-12-04T13:33:33Z</time>
      </trkpt>
      <trkpt lat="43.76029" lon="4.87178">
        <ele>361</ele>
        <time>2010-12-04T13:33:41Z</time>
      </trkpt>
      <trkpt lat="43.76031" lon="4.87171">
        <ele>361</ele>
        <time>2010-12-04T13:33:48Z</time>
      </trkpt>
      <trkpt lat="43.76032" lon="4.87165">
        <ele>361</ele>
        <time>2010-12-04T13:33:54Z</time>
      </trkpt>
      <trkpt lat="43.76033" lon="4.8716">
        <ele>361</ele>
        <time>2010-12-04T13:34:00Z</time>
      </trkpt>
      <trkpt lat="43.76033" lon="4.87151">
        <ele>361</ele>
        <time>2010-12-04T13:34:07Z</time>
      </trkpt>
      <trkpt lat="43.76033" lon="4.87142">
        <ele>361</ele>
        <time>2010-12-04T13:34:14Z</time>
      </trkpt>
      <trkpt lat="43.76032" lon="4.87136">
        <ele>361</ele>
        <time>2010-12-04T13:34:20Z</time>
      </trkpt>
      <trkpt lat="43.76032" lon="4.87129">
        <ele>361</ele>
        <time>2010-12-04T13:34:26Z</time>
      </trkpt>
      <trkpt lat="43.76032" lon="4.87127">
        <ele>361</ele>
        <time>2010-12-04T13:34:32Z</time>
      </trkpt>
      <trkpt lat="43.76032" lon="4.87119">
        <ele>361</ele>
        <time>2010-12-04T13:34:38Z</time>
      </trkpt>
      <trkpt lat="43.7603" lon="4.87111">
        <ele>361</ele>
        <time>2010-12-04T13:34:45Z</time>
      </trkpt>
      <trkpt lat="43.76027" lon="4.87104">
        <ele>361</ele>
        <time>2010-12-04T13:34:53Z</time>
      </trkpt>
      <trkpt lat="43.76027" lon="4.87103">
        <ele>361</ele>
        <time>2010-12-04T13:34:59Z</time>
      </trkpt>
      <trkpt lat="43.76027" lon="4.871">
        <ele>361</ele>
        <time>2010-12-04T13:35:07Z</time>
      </trkpt>
      <trkpt lat="43.76026" lon="4.87098">
        <ele>361</ele>
        <time>2010-12-04T13:35:15Z</time>
      </trkpt>
      <trkpt lat="43.76024" lon="4.87097">
        <ele>361</ele>
        <time>2010-12-04T13:35:21Z</time>
      </trkpt>
      <trkpt lat="43.76024" lon="4.87095">
        <ele>361</ele>
        <time>2010-12-04T13:35:28Z</time>
      </trkpt>
      <trkpt lat="43.76021" lon="4.87095">
        <ele>361</ele>
        <time>2010-12-04T13:35:37Z</time>
      </trkpt>
      <trkpt lat="43.7602" lon="4.87093">
        <ele>360</ele>
        <time>2010-12-04T13:35:46Z</time>
      </trkpt>
      <trkpt lat="43.76018" lon="4.87093">
        <ele>360</ele>
        <time>2010-12-04T13:36:01Z</time>
      </trkpt>
      <trkpt lat="43.76015" lon="4.87091">
        <ele>359</ele>
        <time>2010-12-04T13:36:17Z</time>
      </trkpt>
      <trkpt lat="43.76012" lon="4.87091">
        <ele>357</ele>
        <time>2010-12-04T13:36:25Z</time>
      </trkpt>
      <trkpt lat="43.76013" lon="4.87088">
        <ele>355</ele>
        <time>2010-12-04T13:36:33Z</time>
      </trkpt>
      <trkpt lat="43.76012" lon="4.87084">
        <ele>353</ele>
        <time>2010-12-04T13:36:41Z</time>
      </trkpt>
      <trkpt lat="43.76009" lon="4.87084">
        <ele>352</ele>
        <time>2010-12-04T13:36:51Z</time>
      </trkpt>
      <trkpt lat="43.76008" lon="4.87083">
        <ele>351</ele>
        <time>2010-12-04T13:37:03Z</time>
      </trkpt>
      <trkpt lat="43.76006" lon="4.87082">
        <ele>349</ele>
        <time>2010-12-04T13:37:13Z</time>
      </trkpt>
      <trkpt lat="43.76003" lon="4.87079">
        <ele>348</ele>
        <time>2010-12-04T13:37:19Z</time>
      </trkpt>
      <trkpt lat="43.76003" lon="4.87075">
        <ele>345</ele>
        <time>2010-12-04T13:37:28Z</time>
      </trkpt>
      <trkpt lat="43.76004" lon="4.87071">
        <ele>345</ele>
        <time>2010-12-04T13:37:35Z</time>
      </trkpt>
      <trkpt lat="43.76006" lon="4.87068">
        <ele>345</ele>
        <time>2010-12-04T13:37:43Z</time>
      </trkpt>
      <trkpt lat="43.76006" lon="4.87061">
        <ele>345</ele>
        <time>2010-12-04T13:37:51Z</time>
      </trkpt>
      <trkpt lat="43.76004" lon="4.87056">
        <ele>345</ele>
        <time>2010-12-04T13:37:58Z</time>
      </trkpt>
      <trkpt lat="43.76003" lon="4.87047">
        <ele>345</ele>
        <time>2010-12-04T13:38:05Z</time>
      </trkpt>
      <trkpt lat="43.76001" lon="4.87042">
        <ele>345</ele>
        <time>2010-12-04T13:38:11Z</time>
      </trkpt>
      <trkpt lat="43.75997" lon="4.87035">
        <ele>345</ele>
        <time>2010-12-04T13:38:19Z</time>
      </trkpt>
      <trkpt lat="43.75993" lon="4.87031">
        <ele>345</ele>
        <time>2010-12-04T13:38:27Z</time>
      </trkpt>
      <trkpt lat="43.7599" lon="4.87028">
        <ele>347</ele>
        <time>2010-12-04T13:38:33Z</time>
      </trkpt>
      <trkpt lat="43.75987" lon="4.87026">
        <ele>348</ele>
        <time>2010-12-04T13:38:39Z</time>
      </trkpt>
      <trkpt lat="43.75985" lon="4.87023">
        <ele>350</ele>
        <time>2010-12-04T13:38:46Z</time>
      </trkpt>
      <trkpt lat="43.75985" lon="4.87017">
        <ele>350</ele>
        <time>2010-12-04T13:38:53Z</time>
      </trkpt>
      <trkpt lat="43.75985" lon="4.8701">
        <ele>350</ele>
        <time>2010-12-04T13:38:59Z</time>
      </trkpt>
      <trkpt lat="43.75987" lon="4.87005">
        <ele>351</ele>
        <time>2010-12-04T13:39:05Z</time>
      </trkpt>
      <trkpt lat="43.75986" lon="4.86994">
        <ele>352</ele>
        <time>2010-12-04T13:39:12Z</time>
      </trkpt>
      <trkpt lat="43.75986" lon="4.86986">
        <ele>352</ele>
        <time>2010-12-04T13:39:19Z</time>
      </trkpt>
      <trkpt lat="43.75988" lon="4.86979">
        <ele>352</ele>
        <time>2010-12-04T13:39:25Z</time>
      </trkpt>
      <trkpt lat="43.75987" lon="4.86971">
        <ele>352</ele>
        <time>2010-12-04T13:39:31Z</time>
      </trkpt>
      <trkpt lat="43.75984" lon="4.86966">
        <ele>352</ele>
        <time>2010-12-04T13:39:37Z</time>
      </trkpt>
      <trkpt lat="43.75983" lon="4.86958">
        <ele>352</ele>
        <time>2010-12-04T13:39:43Z</time>
      </trkpt>
      <trkpt lat="43.75982" lon="4.86954">
        <ele>352</ele>
        <time>2010-12-04T13:39:53Z</time>
      </trkpt>
      <trkpt lat="43.75981" lon="4.86951">
        <ele>353</ele>
        <time>2010-12-04T13:40:00Z</time>
      </trkpt>
      <trkpt lat="43.7598" lon="4.86946">
        <ele>354</ele>
        <time>2010-12-04T13:40:06Z</time>
      </trkpt>
      <trkpt lat="43.75981" lon="4.86936">
        <ele>354</ele>
        <time>2010-12-04T13:40:12Z</time>
      </trkpt>
      <trkpt lat="43.75981" lon="4.86927">
        <ele>354</ele>
        <time>2010-12-04T13:40:18Z</time>
      </trkpt>
      <trkpt lat="43.75978" lon="4.86918">
        <ele>354</ele>
        <time>2010-12-04T13:40:25Z</time>
      </trkpt>
      <trkpt lat="43.75977" lon="4.8691">
        <ele>355</ele>
        <time>2010-12-04T13:40:32Z</time>
      </trkpt>
      <trkpt lat="43.75977" lon="4.86902">
        <ele>355</ele>
        <time>2010-12-04T13:40:39Z</time>
      </trkpt>
      <trkpt lat="43.75976" lon="4.86893">
        <ele>355</ele>
        <time>2010-12-04T13:40:47Z</time>
      </trkpt>
      <trkpt lat="43.75977" lon="4.86886">
        <ele>355</ele>
        <time>2010-12-04T13:40:55Z</time>
      </trkpt>
      <trkpt lat="43.75977" lon="4.8688">
        <ele>354</ele>
        <time>2010-12-04T13:41:04Z</time>
      </trkpt>
      <trkpt lat="43.75975" lon="4.8687">
        <ele>354</ele>
        <time>2010-12-04T13:41:11Z</time>
      </trkpt>
      <trkpt lat="43.75977" lon="4.86867">
        <ele>352</ele>
        <time>2010-12-04T13:41:21Z</time>
      </trkpt>
      <trkpt lat="43.75976" lon="4.86866">
        <ele>352</ele>
        <time>2010-12-04T13:41:30Z</time>
      </trkpt>
      <trkpt lat="43.75975" lon="4.86864">
        <ele>352</ele>
        <time>2010-12-04T13:42:04Z</time>
      </trkpt>
      <trkpt lat="43.75974" lon="4.86861">
        <ele>352</ele>
        <time>2010-12-04T13:42:13Z</time>
      </trkpt>
      <trkpt lat="43.75972" lon="4.86857">
        <ele>352</ele>
        <time>2010-12-04T13:42:19Z</time>
      </trkpt>
      <trkpt lat="43.7597" lon="4.86854">
        <ele>352</ele>
        <time>2010-12-04T13:42:25Z</time>
      </trkpt>
      <trkpt lat="43.75969" lon="4.86849">
        <ele>352</ele>
        <time>2010-12-04T13:42:32Z</time>
      </trkpt>
      <trkpt lat="43.7597" lon="4.86842">
        <ele>352</ele>
        <time>2010-12-04T13:42:38Z</time>
      </trkpt>
      <trkpt lat="43.75971" lon="4.86835">
        <ele>352</ele>
        <time>2010-12-04T13:42:45Z</time>
      </trkpt>
      <trkpt lat="43.7597" lon="4.86827">
        <ele>353</ele>
        <time>2010-12-04T13:42:51Z</time>
      </trkpt>
      <trkpt lat="43.75968" lon="4.8682">
        <ele>354</ele>
        <time>2010-12-04T13:42:57Z</time>
      </trkpt>
      <trkpt lat="43.75967" lon="4.86813">
        <ele>355</ele>
        <time>2010-12-04T13:43:05Z</time>
      </trkpt>
      <trkpt lat="43.75966" lon="4.86812">
        <ele>358</ele>
        <time>2010-12-04T13:43:40Z</time>
      </trkpt>
      <trkpt lat="43.75967" lon="4.86812">
        <ele>362</ele>
        <time>2010-12-04T13:44:03Z</time>
      </trkpt>
      <trkpt lat="43.75968" lon="4.86812">
        <ele>362</ele>
        <time>2010-12-04T13:44:17Z</time>
      </trkpt>
      <trkpt lat="43.75967" lon="4.86812">
        <ele>362</ele>
        <time>2010-12-04T13:44:27Z</time>
      </trkpt>
      <trkpt lat="43.75966" lon="4.86811">
        <ele>362</ele>
        <time>2010-12-04T13:44:35Z</time>
      </trkpt>
      <trkpt lat="43.75965" lon="4.8681">
        <ele>362</ele>
        <time>2010-12-04T13:45:08Z</time>
      </trkpt>
      <trkpt lat="43.75963" lon="4.86808">
        <ele>362</ele>
        <time>2010-12-04T13:45:38Z</time>
      </trkpt>
      <trkpt lat="43.75962" lon="4.8681">
        <ele>362</ele>
        <time>2010-12-04T13:45:45Z</time>
      </trkpt>
      <trkpt lat="43.75962" lon="4.86804">
        <ele>360</ele>
        <time>2010-12-04T13:45:52Z</time>
      </trkpt>
      <trkpt lat="43.75962" lon="4.86804">
        <ele>356</ele>
        <time>2010-12-04T13:46:00Z</time>
      </trkpt>
      <trkpt lat="43.75964" lon="4.86805">
        <ele>355</ele>
        <time>2010-12-04T13:46:07Z</time>
      </trkpt>
      <trkpt lat="43.75964" lon="4.86804">
        <ele>355</ele>
        <time>2010-12-04T13:46:14Z</time>
      </trkpt>
      <trkpt lat="43.75965" lon="4.86802">
        <ele>355</ele>
        <time>2010-12-04T13:46:20Z</time>
      </trkpt>
      <trkpt lat="43.75964" lon="4.86799">
        <ele>355</ele>
        <time>2010-12-04T13:46:26Z</time>
      </trkpt>
      <trkpt lat="43.75963" lon="4.86794">
        <ele>357</ele>
        <time>2010-12-04T13:46:34Z</time>
      </trkpt>
      <trkpt lat="43.75964" lon="4.8679">
        <ele>357</ele>
        <time>2010-12-04T13:46:40Z</time>
      </trkpt>
      <trkpt lat="43.75964" lon="4.86786">
        <ele>357</ele>
        <time>2010-12-04T13:46:46Z</time>
      </trkpt>
      <trkpt lat="43.75964" lon="4.86779">
        <ele>359</ele>
        <time>2010-12-04T13:46:53Z</time>
      </trkpt>
      <trkpt lat="43.75965" lon="4.86773">
        <ele>359</ele>
        <time>2010-12-04T13:46:59Z</time>
      </trkpt>
      <trkpt lat="43.75964" lon="4.86764">
        <ele>360</ele>
        <time>2010-12-04T13:47:07Z</time>
      </trkpt>
      <trkpt lat="43.75964" lon="4.86757">
        <ele>361</ele>
        <time>2010-12-04T13:47:14Z</time>
      </trkpt>
      <trkpt lat="43.75964" lon="4.86752">
        <ele>361</ele>
        <time>2010-12-04T13:47:21Z</time>
      </trkpt>
      <trkpt lat="43.75964" lon="4.86746">
        <ele>361</ele>
        <time>2010-12-04T13:47:27Z</time>
      </trkpt>
      <trkpt lat="43.75965" lon="4.8674">
        <ele>361</ele>
        <time>2010-12-04T13:47:35Z</time>
      </trkpt>
      <trkpt lat="43.75966" lon="4.86732">
        <ele>363</ele>
        <time>2010-12-04T13:47:43Z</time>
      </trkpt>
      <trkpt lat="43.75966" lon="4.86727">
        <ele>365</ele>
        <time>2010-12-04T13:47:49Z</time>
      </trkpt>
      <trkpt lat="43.75968" lon="4.86718">
        <ele>367</ele>
        <time>2010-12-04T13:47:56Z</time>
      </trkpt>
      <trkpt lat="43.75968" lon="4.86711">
        <ele>369</ele>
        <time>2010-12-04T13:48:02Z</time>
      </trkpt>
      <trkpt lat="43.75967" lon="4.86703">
        <ele>369</ele>
        <time>2010-12-04T13:48:08Z</time>
      </trkpt>
      <trkpt lat="43.75967" lon="4.86694">
        <ele>369</ele>
        <time>2010-12-04T13:48:15Z</time>
      </trkpt>
      <trkpt lat="43.75967" lon="4.86682">
        <ele>369</ele>
        <time>2010-12-04T13:48:23Z</time>
      </trkpt>
      <trkpt lat="43.75969" lon="4.86673">
        <ele>369</ele>
        <time>2010-12-04T13:48:30Z</time>
      </trkpt>
      <trkpt lat="43.75971" lon="4.86666">
        <ele>369</ele>
        <time>2010-12-04T13:48:36Z</time>
      </trkpt>
      <trkpt lat="43.75974" lon="4.86658">
        <ele>369</ele>
        <time>2010-12-04T13:48:42Z</time>
      </trkpt>
      <trkpt lat="43.75977" lon="4.8665">
        <ele>369</ele>
        <time>2010-12-04T13:48:48Z</time>
      </trkpt>
      <trkpt lat="43.75983" lon="4.86641">
        <ele>370</ele>
        <time>2010-12-04T13:48:55Z</time>
      </trkpt>
      <trkpt lat="43.75986" lon="4.86632">
        <ele>370</ele>
        <time>2010-12-04T13:49:02Z</time>
      </trkpt>
      <trkpt lat="43.7599" lon="4.86625">
        <ele>370</ele>
        <time>2010-12-04T13:49:08Z</time>
      </trkpt>
      <trkpt lat="43.75994" lon="4.86617">
        <ele>370</ele>
        <time>2010-12-04T13:49:14Z</time>
      </trkpt>
      <trkpt lat="43.76002" lon="4.86611">
        <ele>370</ele>
        <time>2010-12-04T13:49:21Z</time>
      </trkpt>
      <trkpt lat="43.76005" lon="4.86603">
        <ele>371</ele>
        <time>2010-12-04T13:49:27Z</time>
      </trkpt>
      <trkpt lat="43.76009" lon="4.86595">
        <ele>371</ele>
        <time>2010-12-04T13:49:33Z</time>
      </trkpt>
      <trkpt lat="43.76012" lon="4.86587">
        <ele>371</ele>
        <time>2010-12-04T13:49:39Z</time>
      </trkpt>
      <trkpt lat="43.76017" lon="4.86579">
        <ele>371</ele>
        <time>2010-12-04T13:49:45Z</time>
      </trkpt>
      <trkpt lat="43.76023" lon="4.8657">
        <ele>371</ele>
        <time>2010-12-04T13:49:52Z</time>
      </trkpt>
      <trkpt lat="43.76028" lon="4.86561">
        <ele>371</ele>
        <time>2010-12-04T13:49:59Z</time>
      </trkpt>
      <trkpt lat="43.76031" lon="4.86552">
        <ele>371</ele>
        <time>2010-12-04T13:50:05Z</time>
      </trkpt>
      <trkpt lat="43.76033" lon="4.86543">
        <ele>371</ele>
        <time>2010-12-04T13:50:11Z</time>
      </trkpt>
      <trkpt lat="43.76033" lon="4.86533">
        <ele>371</ele>
        <time>2010-12-04T13:50:17Z</time>
      </trkpt>
      <trkpt lat="43.76035" lon="4.86523">
        <ele>371</ele>
        <time>2010-12-04T13:50:23Z</time>
      </trkpt>
      <trkpt lat="43.76037" lon="4.86514">
        <ele>371</ele>
        <time>2010-12-04T13:50:29Z</time>
      </trkpt>
      <trkpt lat="43.76038" lon="4.86504">
        <ele>371</ele>
        <time>2010-12-04T13:50:35Z</time>
      </trkpt>
      <trkpt lat="43.76039" lon="4.86493">
        <ele>371</ele>
        <time>2010-12-04T13:50:41Z</time>
      </trkpt>
      <trkpt lat="43.76038" lon="4.86483">
        <ele>371</ele>
        <time>2010-12-04T13:50:47Z</time>
      </trkpt>
      <trkpt lat="43.76038" lon="4.8647">
        <ele>371</ele>
        <time>2010-12-04T13:50:54Z</time>
      </trkpt>
      <trkpt lat="43.76038" lon="4.86461">
        <ele>371</ele>
        <time>2010-12-04T13:51:00Z</time>
      </trkpt>
      <trkpt lat="43.76041" lon="4.86451">
        <ele>371</ele>
        <time>2010-12-04T13:51:06Z</time>
      </trkpt>
      <trkpt lat="43.76044" lon="4.86442">
        <ele>371</ele>
        <time>2010-12-04T13:51:12Z</time>
      </trkpt>
      <trkpt lat="43.76049" lon="4.86433">
        <ele>371</ele>
        <time>2010-12-04T13:51:19Z</time>
      </trkpt>
      <trkpt lat="43.76054" lon="4.86424">
        <ele>371</ele>
        <time>2010-12-04T13:51:26Z</time>
      </trkpt>
      <trkpt lat="43.76057" lon="4.86416">
        <ele>371</ele>
        <time>2010-12-04T13:51:32Z</time>
      </trkpt>
      <trkpt lat="43.76063" lon="4.86406">
        <ele>371</ele>
        <time>2010-12-04T13:51:39Z</time>
      </trkpt>
      <trkpt lat="43.76068" lon="4.86401">
        <ele>371</ele>
        <time>2010-12-04T13:51:45Z</time>
      </trkpt>
      <trkpt lat="43.76073" lon="4.86397">
        <ele>371</ele>
        <time>2010-12-04T13:51:51Z</time>
      </trkpt>
      <trkpt lat="43.76081" lon="4.86393">
        <ele>371</ele>
        <time>2010-12-04T13:51:59Z</time>
      </trkpt>
      <trkpt lat="43.76087" lon="4.86385">
        <ele>371</ele>
        <time>2010-12-04T13:52:07Z</time>
      </trkpt>
      <trkpt lat="43.76091" lon="4.86376">
        <ele>371</ele>
        <time>2010-12-04T13:52:15Z</time>
      </trkpt>
      <trkpt lat="43.76096" lon="4.86367">
        <ele>371</ele>
        <time>2010-12-04T13:52:23Z</time>
      </trkpt>
      <trkpt lat="43.76098" lon="4.86358">
        <ele>371</ele>
        <time>2010-12-04T13:52:29Z</time>
      </trkpt>
      <trkpt lat="43.76102" lon="4.86351">
        <ele>372</ele>
        <time>2010-12-04T13:52:35Z</time>
      </trkpt>
      <trkpt lat="43.76104" lon="4.86342">
        <ele>373</ele>
        <time>2010-12-04T13:52:41Z</time>
      </trkpt>
      <trkpt lat="43.76107" lon="4.86334">
        <ele>374</ele>
        <time>2010-12-04T13:52:47Z</time>
      </trkpt>
      <trkpt lat="43.7611" lon="4.86328">
        <ele>375</ele>
        <time>2010-12-04T13:52:53Z</time>
      </trkpt>
      <trkpt lat="43.76114" lon="4.86321">
        <ele>375</ele>
        <time>2010-12-04T13:52:59Z</time>
      </trkpt>
      <trkpt lat="43.76119" lon="4.86317">
        <ele>376</ele>
        <time>2010-12-04T13:53:05Z</time>
      </trkpt>
      <trkpt lat="43.76124" lon="4.86314">
        <ele>376</ele>
        <time>2010-12-04T13:53:11Z</time>
      </trkpt>
      <trkpt lat="43.7613" lon="4.86316">
        <ele>377</ele>
        <time>2010-12-04T13:53:17Z</time>
      </trkpt>
      <trkpt lat="43.76136" lon="4.86313">
        <ele>377</ele>
        <time>2010-12-04T13:53:24Z</time>
      </trkpt>
      <trkpt lat="43.76143" lon="4.86311">
        <ele>377</ele>
        <time>2010-12-04T13:53:32Z</time>
      </trkpt>
      <trkpt lat="43.76147" lon="4.86307">
        <ele>377</ele>
        <time>2010-12-04T13:53:38Z</time>
      </trkpt>
      <trkpt lat="43.76153" lon="4.86304">
        <ele>378</ele>
        <time>2010-12-04T13:53:44Z</time>
      </trkpt>
      <trkpt lat="43.76159" lon="4.863">
        <ele>378</ele>
        <time>2010-12-04T13:53:52Z</time>
      </trkpt>
      <trkpt lat="43.76164" lon="4.86295">
        <ele>378</ele>
        <time>2010-12-04T13:53:58Z</time>
      </trkpt>
      <trkpt lat="43.76168" lon="4.86286">
        <ele>378</ele>
        <time>2010-12-04T13:54:06Z</time>
      </trkpt>
      <trkpt lat="43.76175" lon="4.86282">
        <ele>378</ele>
        <time>2010-12-04T13:54:14Z</time>
      </trkpt>
      <trkpt lat="43.7618" lon="4.86276">
        <ele>378</ele>
        <time>2010-12-04T13:54:20Z</time>
      </trkpt>
      <trkpt lat="43.76185" lon="4.86267">
        <ele>378</ele>
        <time>2010-12-04T13:54:27Z</time>
      </trkpt>
      <trkpt lat="43.76189" lon="4.86257">
        <ele>378</ele>
        <time>2010-12-04T13:54:35Z</time>
      </trkpt>
      <trkpt lat="43.76193" lon="4.86249">
        <ele>378</ele>
        <time>2010-12-04T13:54:43Z</time>
      </trkpt>
      <trkpt lat="43.76195" lon="4.86241">
        <ele>378</ele>
        <time>2010-12-04T13:54:49Z</time>
      </trkpt>
      <trkpt lat="43.76196" lon="4.86231">
        <ele>378</ele>
        <time>2010-12-04T13:54:57Z</time>
      </trkpt>
      <trkpt lat="43.76201" lon="4.86226">
        <ele>378</ele>
        <time>2010-12-04T13:55:03Z</time>
      </trkpt>
      <trkpt lat="43.76205" lon="4.86224">
        <ele>378</ele>
        <time>2010-12-04T13:55:09Z</time>
      </trkpt>
      <trkpt lat="43.76212" lon="4.8622">
        <ele>378</ele>
        <time>2010-12-04T13:55:17Z</time>
      </trkpt>
      <trkpt lat="43.76218" lon="4.86217">
        <ele>378</ele>
        <time>2010-12-04T13:55:24Z</time>
      </trkpt>
      <trkpt lat="43.76224" lon="4.86211">
        <ele>378</ele>
        <time>2010-12-04T13:55:30Z</time>
      </trkpt>
      <trkpt lat="43.76231" lon="4.86209">
        <ele>378</ele>
        <time>2010-12-04T13:55:36Z</time>
      </trkpt>
      <trkpt lat="43.76237" lon="4.86209">
        <ele>378</ele>
        <time>2010-12-04T13:55:42Z</time>
      </trkpt>
      <trkpt lat="43.76245" lon="4.8621">
        <ele>378</ele>
        <time>2010-12-04T13:55:49Z</time>
      </trkpt>
      <trkpt lat="43.76252" lon="4.8621">
        <ele>378</ele>
        <time>2010-12-04T13:55:56Z</time>
      </trkpt>
      <trkpt lat="43.7626" lon="4.8621">
        <ele>378</ele>
        <time>2010-12-04T13:56:04Z</time>
      </trkpt>
      <trkpt lat="43.76265" lon="4.8621">
        <ele>378</ele>
        <time>2010-12-04T13:56:12Z</time>
      </trkpt>
      <trkpt lat="43.7627" lon="4.86209">
        <ele>378</ele>
        <time>2010-12-04T13:56:19Z</time>
      </trkpt>
      <trkpt lat="43.76274" lon="4.8621">
        <ele>378</ele>
        <time>2010-12-04T13:56:26Z</time>
      </trkpt>
      <trkpt lat="43.76279" lon="4.8621">
        <ele>378</ele>
        <time>2010-12-04T13:56:32Z</time>
      </trkpt>
      <trkpt lat="43.76282" lon="4.86209">
        <ele>378</ele>
        <time>2010-12-04T13:56:40Z</time>
      </trkpt>
      <trkpt lat="43.76284" lon="4.86208">
        <ele>378</ele>
        <time>2010-12-04T13:56:55Z</time>
      </trkpt>
      <trkpt lat="43.76285" lon="4.86209">
        <ele>378</ele>
        <time>2010-12-04T13:57:19Z</time>
      </trkpt>
      <trkpt lat="43.76286" lon="4.86209">
        <ele>378</ele>
        <time>2010-12-04T13:57:26Z</time>
      </trkpt>
      <trkpt lat="43.76291" lon="4.86206">
        <ele>378</ele>
        <time>2010-12-04T13:57:33Z</time>
      </trkpt>
      <trkpt lat="43.76295" lon="4.86206">
        <ele>378</ele>
        <time>2010-12-04T13:57:39Z</time>
      </trkpt>
      <trkpt lat="43.763" lon="4.86205">
        <ele>376</ele>
        <time>2010-12-04T13:57:47Z</time>
      </trkpt>
      <trkpt lat="43.76306" lon="4.86204">
        <ele>374</ele>
        <time>2010-12-04T13:57:57Z</time>
      </trkpt>
      <trkpt lat="43.76308" lon="4.86204">
        <ele>371</ele>
        <time>2010-12-04T13:58:09Z</time>
      </trkpt>
      <trkpt lat="43.76311" lon="4.86203">
        <ele>369</ele>
        <time>2010-12-04T13:58:19Z</time>
      </trkpt>
      <trkpt lat="43.76312" lon="4.86203">
        <ele>369</ele>
        <time>2010-12-04T13:58:27Z</time>
      </trkpt>
      <trkpt lat="43.76315" lon="4.86202">
        <ele>367</ele>
        <time>2010-12-04T13:58:35Z</time>
      </trkpt>
      <trkpt lat="43.76318" lon="4.862">
        <ele>366</ele>
        <time>2010-12-04T13:58:49Z</time>
      </trkpt>
      <trkpt lat="43.7632" lon="4.862">
        <ele>364</ele>
        <time>2010-12-04T13:59:05Z</time>
      </trkpt>
      <trkpt lat="43.76321" lon="4.86201">
        <ele>363</ele>
        <time>2010-12-04T13:59:14Z</time>
      </trkpt>
      <trkpt lat="43.76324" lon="4.86204">
        <ele>362</ele>
        <time>2010-12-04T13:59:21Z</time>
      </trkpt>
      <trkpt lat="43.76326" lon="4.86206">
        <ele>360</ele>
        <time>2010-12-04T13:59:27Z</time>
      </trkpt>
      <trkpt lat="43.76328" lon="4.86206">
        <ele>360</ele>
        <time>2010-12-04T13:59:37Z</time>
      </trkpt>
      <trkpt lat="43.76331" lon="4.86205">
        <ele>358</ele>
        <time>2010-12-04T13:59:44Z</time>
      </trkpt>
      <trkpt lat="43.76335" lon="4.86207">
        <ele>356</ele>
        <time>2010-12-04T13:59:50Z</time>
      </trkpt>
      <trkpt lat="43.76337" lon="4.8621">
        <ele>355</ele>
        <time>2010-12-04T13:59:56Z</time>
      </trkpt>
      <trkpt lat="43.76341" lon="4.86215">
        <ele>353</ele>
        <time>2010-12-04T14:00:02Z</time>
      </trkpt>
      <trkpt lat="43.76342" lon="4.8622">
        <ele>352</ele>
        <time>2010-12-04T14:00:09Z</time>
      </trkpt>
      <trkpt lat="43.76342" lon="4.86226">
        <ele>351</ele>
        <time>2010-12-04T14:00:17Z</time>
      </trkpt>
      <trkpt lat="43.76344" lon="4.8623">
        <ele>351</ele>
        <time>2010-12-04T14:00:25Z</time>
      </trkpt>
      <trkpt lat="43.76346" lon="4.86229">
        <ele>350</ele>
        <time>2010-12-04T14:00:34Z</time>
      </trkpt>
      <trkpt lat="43.7635" lon="4.86232">
        <ele>349</ele>
        <time>2010-12-04T14:00:41Z</time>
      </trkpt>
      <trkpt lat="43.76352" lon="4.86233">
        <ele>347</ele>
        <time>2010-12-04T14:00:48Z</time>
      </trkpt>
      <trkpt lat="43.76354" lon="4.86234">
        <ele>347</ele>
        <time>2010-12-04T14:00:58Z</time>
      </trkpt>
      <trkpt lat="43.76356" lon="4.86234">
        <ele>346</ele>
        <time>2010-12-04T14:01:29Z</time>
      </trkpt>
      <trkpt lat="43.76358" lon="4.86236">
        <ele>346</ele>
        <time>2010-12-04T14:01:36Z</time>
      </trkpt>
      <trkpt lat="43.76359" lon="4.86238">
        <ele>346</ele>
        <time>2010-12-04T14:01:43Z</time>
      </trkpt>
      <trkpt lat="43.76363" lon="4.8624">
        <ele>344</ele>
        <time>2010-12-04T14:01:49Z</time>
      </trkpt>
      <trkpt lat="43.76366" lon="4.86243">
        <ele>343</ele>
        <time>2010-12-04T14:01:57Z</time>
      </trkpt>
      <trkpt lat="43.7637" lon="4.86247">
        <ele>341</ele>
        <time>2010-12-04T14:02:10Z</time>
      </trkpt>
      <trkpt lat="43.76372" lon="4.8625">
        <ele>339</ele>
        <time>2010-12-04T14:02:25Z</time>
      </trkpt>
      <trkpt lat="43.7637" lon="4.86253">
        <ele>337</ele>
        <time>2010-12-04T14:02:35Z</time>
      </trkpt>
      <trkpt lat="43.7637" lon="4.86259">
        <ele>336</ele>
        <time>2010-12-04T14:02:42Z</time>
      </trkpt>
      <trkpt lat="43.76369" lon="4.8626">
        <ele>335</ele>
        <time>2010-12-04T14:03:08Z</time>
      </trkpt>
      <trkpt lat="43.76368" lon="4.86261">
        <ele>335</ele>
        <time>2010-12-04T14:03:18Z</time>
      </trkpt>
      <trkpt lat="43.76366" lon="4.86261">
        <ele>335</ele>
        <time>2010-12-04T14:04:06Z</time>
      </trkpt>
      <trkpt lat="43.76365" lon="4.86262">
        <ele>335</ele>
        <time>2010-12-04T14:04:16Z</time>
      </trkpt>
      <trkpt lat="43.76365" lon="4.86263">
        <ele>335</ele>
        <time>2010-12-04T14:04:36Z</time>
      </trkpt>
      <trkpt lat="43.76365" lon="4.86265">
        <ele>335</ele>
        <time>2010-12-04T14:04:45Z</time>
      </trkpt>
      <trkpt lat="43.76363" lon="4.86268">
        <ele>335</ele>
        <time>2010-12-04T14:04:59Z</time>
      </trkpt>
      <trkpt lat="43.7636" lon="4.86268">
        <ele>331</ele>
        <time>2010-12-04T14:05:12Z</time>
      </trkpt>
      <trkpt lat="43.76359" lon="4.8627">
        <ele>330</ele>
        <time>2010-12-04T14:05:18Z</time>
      </trkpt>
      <trkpt lat="43.76356" lon="4.86271">
        <ele>328</ele>
        <time>2010-12-04T14:05:26Z</time>
      </trkpt>
      <trkpt lat="43.76355" lon="4.86271">
        <ele>327</ele>
        <time>2010-12-04T14:05:34Z</time>
      </trkpt>
      <trkpt lat="43.76355" lon="4.86273">
        <ele>326</ele>
        <time>2010-12-04T14:05:43Z</time>
      </trkpt>
      <trkpt lat="43.76353" lon="4.86274">
        <ele>323</ele>
        <time>2010-12-04T14:05:54Z</time>
      </trkpt>
      <trkpt lat="43.76354" lon="4.86275">
        <ele>322</ele>
        <time>2010-12-04T14:06:06Z</time>
      </trkpt>
      <trkpt lat="43.76354" lon="4.86277">
        <ele>319</ele>
        <time>2010-12-04T14:06:15Z</time>
      </trkpt>
      <trkpt lat="43.76353" lon="4.86279">
        <ele>319</ele>
        <time>2010-12-04T14:06:23Z</time>
      </trkpt>
      <trkpt lat="43.76353" lon="4.8628">
        <ele>319</ele>
        <time>2010-12-04T14:06:34Z</time>
      </trkpt>
      <trkpt lat="43.76351" lon="4.86282">
        <ele>317</ele>
        <time>2010-12-04T14:06:44Z</time>
      </trkpt>
      <trkpt lat="43.7635" lon="4.86283">
        <ele>313</ele>
        <time>2010-12-04T14:06:58Z</time>
      </trkpt>
      <trkpt lat="43.76348" lon="4.86286">
        <ele>312</ele>
        <time>2010-12-04T14:07:10Z</time>
      </trkpt>
      <trkpt lat="43.76348" lon="4.8629">
        <ele>312</ele>
        <time>2010-12-04T14:07:24Z</time>
      </trkpt>
      <trkpt lat="43.76345" lon="4.86292">
        <ele>312</ele>
        <time>2010-12-04T14:07:30Z</time>
      </trkpt>
      <trkpt lat="43.76343" lon="4.8629">
        <ele>312</ele>
        <time>2010-12-04T14:07:37Z</time>
      </trkpt>
      <trkpt lat="43.7634" lon="4.86288">
        <ele>312</ele>
        <time>2010-12-04T14:07:45Z</time>
      </trkpt>
      <trkpt lat="43.76339" lon="4.8629">
        <ele>310</ele>
        <time>2010-12-04T14:07:57Z</time>
      </trkpt>
      <trkpt lat="43.7634" lon="4.86292">
        <ele>308</ele>
        <time>2010-12-04T14:08:05Z</time>
      </trkpt>
      <trkpt lat="43.76338" lon="4.86293">
        <ele>305</ele>
        <time>2010-12-04T14:08:14Z</time>
      </trkpt>
      <trkpt lat="43.76337" lon="4.86292">
        <ele>305</ele>
        <time>2010-12-04T14:08:24Z</time>
      </trkpt>
      <trkpt lat="43.76335" lon="4.86293">
        <ele>299</ele>
        <time>2010-12-04T14:08:34Z</time>
      </trkpt>
      <trkpt lat="43.76332" lon="4.86295">
        <ele>299</ele>
        <time>2010-12-04T14:08:40Z</time>
      </trkpt>
      <trkpt lat="43.76333" lon="4.86298">
        <ele>297</ele>
        <time>2010-12-04T14:08:49Z</time>
      </trkpt>
      <trkpt lat="43.76335" lon="4.86302">
        <ele>293</ele>
        <time>2010-12-04T14:08:57Z</time>
      </trkpt>
      <trkpt lat="43.76337" lon="4.86305">
        <ele>292</ele>
        <time>2010-12-04T14:09:05Z</time>
      </trkpt>
      <trkpt lat="43.76334" lon="4.86309">
        <ele>292</ele>
        <time>2010-12-04T14:09:11Z</time>
      </trkpt>
      <trkpt lat="43.76335" lon="4.86313">
        <ele>292</ele>
        <time>2010-12-04T14:09:24Z</time>
      </trkpt>
      <trkpt lat="43.76338" lon="4.86318">
        <ele>291</ele>
        <time>2010-12-04T14:09:32Z</time>
      </trkpt>
      <trkpt lat="43.76336" lon="4.86324">
        <ele>290</ele>
        <time>2010-12-04T14:09:41Z</time>
      </trkpt>
      <trkpt lat="43.76337" lon="4.86325">
        <ele>289</ele>
        <time>2010-12-04T14:09:48Z</time>
      </trkpt>
      <trkpt lat="43.7634" lon="4.8633">
        <ele>287</ele>
        <time>2010-12-04T14:09:56Z</time>
      </trkpt>
      <trkpt lat="43.76341" lon="4.86334">
        <ele>282</ele>
        <time>2010-12-04T14:10:08Z</time>
      </trkpt>
      <trkpt lat="43.76342" lon="4.86341">
        <ele>282</ele>
        <time>2010-12-04T14:10:15Z</time>
      </trkpt>
      <trkpt lat="43.76344" lon="4.86346">
        <ele>282</ele>
        <time>2010-12-04T14:10:26Z</time>
      </trkpt>
      <trkpt lat="43.76347" lon="4.86349">
        <ele>282</ele>
        <time>2010-12-04T14:10:35Z</time>
      </trkpt>
      <trkpt lat="43.76351" lon="4.86351">
        <ele>282</ele>
        <time>2010-12-04T14:10:42Z</time>
      </trkpt>
      <trkpt lat="43.76356" lon="4.86355">
        <ele>282</ele>
        <time>2010-12-04T14:10:50Z</time>
      </trkpt>
      <trkpt lat="43.76359" lon="4.86355">
        <ele>282</ele>
        <time>2010-12-04T14:10:57Z</time>
      </trkpt>
      <trkpt lat="43.76362" lon="4.86358">
        <ele>282</ele>
        <time>2010-12-04T14:11:04Z</time>
      </trkpt>
      <trkpt lat="43.76365" lon="4.86357">
        <ele>282</ele>
        <time>2010-12-04T14:11:10Z</time>
      </trkpt>
      <trkpt lat="43.76367" lon="4.86356">
        <ele>281</ele>
        <time>2010-12-04T14:11:17Z</time>
      </trkpt>
      <trkpt lat="43.76368" lon="4.86355">
        <ele>281</ele>
        <time>2010-12-04T14:11:23Z</time>
      </trkpt>
      <trkpt lat="43.7637" lon="4.86356">
        <ele>280</ele>
        <time>2010-12-04T14:11:31Z</time>
      </trkpt>
      <trkpt lat="43.76372" lon="4.86355">
        <ele>280</ele>
        <time>2010-12-04T14:11:39Z</time>
      </trkpt>
      <trkpt lat="43.76375" lon="4.86355">
        <ele>278</ele>
        <time>2010-12-04T14:11:50Z</time>
      </trkpt>
      <trkpt lat="43.76376" lon="4.86357">
        <ele>275</ele>
        <time>2010-12-04T14:11:58Z</time>
      </trkpt>
      <trkpt lat="43.76379" lon="4.86361">
        <ele>274</ele>
        <time>2010-12-04T14:12:05Z</time>
      </trkpt>
      <trkpt lat="43.76382" lon="4.86361">
        <ele>271</ele>
        <time>2010-12-04T14:12:12Z</time>
      </trkpt>
      <trkpt lat="43.76387" lon="4.86358">
        <ele>269</ele>
        <time>2010-12-04T14:12:20Z</time>
      </trkpt>
      <trkpt lat="43.7639" lon="4.86356">
        <ele>268</ele>
        <time>2010-12-04T14:12:26Z</time>
      </trkpt>
      <trkpt lat="43.76394" lon="4.86356">
        <ele>267</ele>
        <time>2010-12-04T14:12:32Z</time>
      </trkpt>
      <trkpt lat="43.76398" lon="4.86353">
        <ele>266</ele>
        <time>2010-12-04T14:12:38Z</time>
      </trkpt>
      <trkpt lat="43.76401" lon="4.86346">
        <ele>266</ele>
        <time>2010-12-04T14:12:44Z</time>
      </trkpt>
      <trkpt lat="43.76405" lon="4.86341">
        <ele>265</ele>
        <time>2010-12-04T14:12:50Z</time>
      </trkpt>
      <trkpt lat="43.76409" lon="4.86336">
        <ele>263</ele>
        <time>2010-12-04T14:12:56Z</time>
      </trkpt>
      <trkpt lat="43.76412" lon="4.86333">
        <ele>260</ele>
        <time>2010-12-04T14:13:02Z</time>
      </trkpt>
      <trkpt lat="43.76415" lon="4.86327">
        <ele>258</ele>
        <time>2010-12-04T14:13:09Z</time>
      </trkpt>
      <trkpt lat="43.76418" lon="4.86322">
        <ele>258</ele>
        <time>2010-12-04T14:13:16Z</time>
      </trkpt>
      <trkpt lat="43.7642" lon="4.8632">
        <ele>258</ele>
        <time>2010-12-04T14:13:23Z</time>
      </trkpt>
      <trkpt lat="43.76423" lon="4.8632">
        <ele>258</ele>
        <time>2010-12-04T14:13:31Z</time>
      </trkpt>
      <trkpt lat="43.76425" lon="4.86318">
        <ele>258</ele>
        <time>2010-12-04T14:13:39Z</time>
      </trkpt>
      <trkpt lat="43.76427" lon="4.86316">
        <ele>256</ele>
        <time>2010-12-04T14:13:55Z</time>
      </trkpt>
      <trkpt lat="43.76429" lon="4.86316">
        <ele>256</ele>
        <time>2010-12-04T14:14:03Z</time>
      </trkpt>
      <trkpt lat="43.76432" lon="4.86319">
        <ele>256</ele>
        <time>2010-12-04T14:14:11Z</time>
      </trkpt>
      <trkpt lat="43.76434" lon="4.86321">
        <ele>255</ele>
        <time>2010-12-04T14:14:18Z</time>
      </trkpt>
      <trkpt lat="43.76438" lon="4.86326">
        <ele>252</ele>
        <time>2010-12-04T14:14:27Z</time>
      </trkpt>
      <trkpt lat="43.76441" lon="4.86329">
        <ele>250</ele>
        <time>2010-12-04T14:14:37Z</time>
      </trkpt>
      <trkpt lat="43.76442" lon="4.8633">
        <ele>250</ele>
        <time>2010-12-04T14:14:44Z</time>
      </trkpt>
      <trkpt lat="43.76446" lon="4.86323">
        <ele>249</ele>
        <time>2010-12-04T14:14:52Z</time>
      </trkpt>
      <trkpt lat="43.76449" lon="4.8632">
        <ele>249</ele>
        <time>2010-12-04T14:15:03Z</time>
      </trkpt>
      <trkpt lat="43.76452" lon="4.86321">
        <ele>247</ele>
        <time>2010-12-04T14:15:09Z</time>
      </trkpt>
      <trkpt lat="43.76454" lon="4.86322">
        <ele>247</ele>
        <time>2010-12-04T14:15:15Z</time>
      </trkpt>
      <trkpt lat="43.76456" lon="4.86322">
        <ele>247</ele>
        <time>2010-12-04T14:15:21Z</time>
      </trkpt>
      <trkpt lat="43.76456" lon="4.86323">
        <ele>247</ele>
        <time>2010-12-04T14:15:27Z</time>
      </trkpt>
      <trkpt lat="43.76455" lon="4.86321">
        <ele>242</ele>
        <time>2010-12-04T14:15:38Z</time>
      </trkpt>
      <trkpt lat="43.76457" lon="4.86323">
        <ele>242</ele>
        <time>2010-12-04T14:15:45Z</time>
      </trkpt>
      <trkpt lat="43.76459" lon="4.86323">
        <ele>242</ele>
        <time>2010-12-04T14:15:53Z</time>
      </trkpt>
      <trkpt lat="43.76459" lon="4.86327">
        <ele>242</ele>
        <time>2010-12-04T14:15:59Z</time>
      </trkpt>
      <trkpt lat="43.76463" lon="4.86326">
        <ele>242</ele>
        <time>2010-12-04T14:16:06Z</time>
      </trkpt>
      <trkpt lat="43.76465" lon="4.86325">
        <ele>238</ele>
        <time>2010-12-04T14:16:24Z</time>
      </trkpt>
      <trkpt lat="43.76467" lon="4.86328">
        <ele>235</ele>
        <time>2010-12-04T14:16:33Z</time>
      </trkpt>
      <trkpt lat="43.76468" lon="4.86331">
        <ele>234</ele>
        <time>2010-12-04T14:16:41Z</time>
      </trkpt>
      <trkpt lat="43.7647" lon="4.86333">
        <ele>233</ele>
        <time>2010-12-04T14:16:47Z</time>
      </trkpt>
      <trkpt lat="43.76471" lon="4.86337">
        <ele>233</ele>
        <time>2010-12-04T14:16:53Z</time>
      </trkpt>
      <trkpt lat="43.76473" lon="4.86341">
        <ele>233</ele>
        <time>2010-12-04T14:17:04Z</time>
      </trkpt>
      <trkpt lat="43.76475" lon="4.86341">
        <ele>230</ele>
        <time>2010-12-04T14:17:13Z</time>
      </trkpt>
      <trkpt lat="43.76478" lon="4.8634">
        <ele>226</ele>
        <time>2010-12-04T14:17:26Z</time>
      </trkpt>
      <trkpt lat="43.76479" lon="4.86341">
        <ele>226</ele>
        <time>2010-12-04T14:17:38Z</time>
      </trkpt>
      <trkpt lat="43.76481" lon="4.86344">
        <ele>226</ele>
        <time>2010-12-04T14:17:50Z</time>
      </trkpt>
      <trkpt lat="43.76483" lon="4.86349">
        <ele>226</ele>
        <time>2010-12-04T14:17:58Z</time>
      </trkpt>
      <trkpt lat="43.76484" lon="4.86351">
        <ele>226</ele>
        <time>2010-12-04T14:18:06Z</time>
      </trkpt>
      <trkpt lat="43.76486" lon="4.86354">
        <ele>226</ele>
        <time>2010-12-04T14:18:13Z</time>
      </trkpt>
      <trkpt lat="43.76485" lon="4.86357">
        <ele>226</ele>
        <time>2010-12-04T14:18:20Z</time>
      </trkpt>
      <trkpt lat="43.76485" lon="4.86359">
        <ele>225</ele>
        <time>2010-12-04T14:18:26Z</time>
      </trkpt>
      <trkpt lat="43.76488" lon="4.86363">
        <ele>224</ele>
        <time>2010-12-04T14:18:33Z</time>
      </trkpt>
      <trkpt lat="43.76492" lon="4.86365">
        <ele>220</ele>
        <time>2010-12-04T14:18:39Z</time>
      </trkpt>
      <trkpt lat="43.76492" lon="4.86369">
        <ele>217</ele>
        <time>2010-12-04T14:18:46Z</time>
      </trkpt>
      <trkpt lat="43.76493" lon="4.86374">
        <ele>216</ele>
        <time>2010-12-04T14:18:52Z</time>
      </trkpt>
      <trkpt lat="43.76492" lon="4.86379">
        <ele>214</ele>
        <time>2010-12-04T14:18:59Z</time>
      </trkpt>
      <trkpt lat="43.76493" lon="4.86384">
        <ele>211</ele>
        <time>2010-12-04T14:19:06Z</time>
      </trkpt>
      <trkpt lat="43.76492" lon="4.86389">
        <ele>208</ele>
        <time>2010-12-04T14:19:12Z</time>
      </trkpt>
      <trkpt lat="43.76491" lon="4.86394">
        <ele>207</ele>
        <time>2010-12-04T14:19:21Z</time>
      </trkpt>
      <trkpt lat="43.76492" lon="4.86396">
        <ele>206</ele>
        <time>2010-12-04T14:19:27Z</time>
      </trkpt>
      <trkpt lat="43.7649" lon="4.864">
        <ele>204</ele>
        <time>2010-12-04T14:19:34Z</time>
      </trkpt>
      <trkpt lat="43.76491" lon="4.86405">
        <ele>202</ele>
        <time>2010-12-04T14:19:41Z</time>
      </trkpt>
      <trkpt lat="43.7649" lon="4.86409">
        <ele>199</ele>
        <time>2010-12-04T14:19:47Z</time>
      </trkpt>
      <trkpt lat="43.76487" lon="4.86415">
        <ele>199</ele>
        <time>2010-12-04T14:19:54Z</time>
      </trkpt>
      <trkpt lat="43.76487" lon="4.86419">
        <ele>198</ele>
        <time>2010-12-04T14:20:00Z</time>
      </trkpt>
      <trkpt lat="43.76487" lon="4.86422">
        <ele>195</ele>
        <time>2010-12-04T14:20:10Z</time>
      </trkpt>
      <trkpt lat="43.76488" lon="4.86425">
        <ele>194</ele>
        <time>2010-12-04T14:20:19Z</time>
      </trkpt>
      <trkpt lat="43.76489" lon="4.86431">
        <ele>194</ele>
        <time>2010-12-04T14:20:25Z</time>
      </trkpt>
      <trkpt lat="43.76492" lon="4.86434">
        <ele>193</ele>
        <time>2010-12-04T14:20:35Z</time>
      </trkpt>
      <trkpt lat="43.76493" lon="4.86433">
        <ele>190</ele>
        <time>2010-12-04T14:20:46Z</time>
      </trkpt>
      <trkpt lat="43.76492" lon="4.86431">
        <ele>190</ele>
        <time>2010-12-04T14:20:53Z</time>
      </trkpt>
      <trkpt lat="43.76491" lon="4.8643">
        <ele>190</ele>
        <time>2010-12-04T14:21:01Z</time>
      </trkpt>
      <trkpt lat="43.7649" lon="4.8643">
        <ele>190</ele>
        <time>2010-12-04T14:21:40Z</time>
      </trkpt>
      <trkpt lat="43.7649" lon="4.86432">
        <ele>190</ele>
        <time>2010-12-04T14:21:55Z</time>
      </trkpt>
      <trkpt lat="43.76492" lon="4.86436">
        <ele>190</ele>
        <time>2010-12-04T14:22:01Z</time>
      </trkpt>
      <trkpt lat="43.76494" lon="4.86439">
        <ele>190</ele>
        <time>2010-12-04T14:22:08Z</time>
      </trkpt>
      <trkpt lat="43.76495" lon="4.86443">
        <ele>190</ele>
        <time>2010-12-04T14:22:14Z</time>
      </trkpt>
      <trkpt lat="43.76497" lon="4.86446">
        <ele>190</ele>
        <time>2010-12-04T14:22:20Z</time>
      </trkpt>
      <trkpt lat="43.76498" lon="4.86448">
        <ele>186</ele>
        <time>2010-12-04T14:22:27Z</time>
      </trkpt>
      <trkpt lat="43.76501" lon="4.86452">
        <ele>185</ele>
        <time>2010-12-04T14:22:33Z</time>
      </trkpt>
      <trkpt lat="43.76503" lon="4.86456">
        <ele>184</ele>
        <time>2010-12-04T14:22:41Z</time>
      </trkpt>
      <trkpt lat="43.76505" lon="4.86459">
        <ele>182</ele>
        <time>2010-12-04T14:22:48Z</time>
      </trkpt>
      <trkpt lat="43.76503" lon="4.86464">
        <ele>180</ele>
        <time>2010-12-04T14:22:55Z</time>
      </trkpt>
      <trkpt lat="43.76503" lon="4.86468">
        <ele>178</ele>
        <time>2010-12-04T14:23:01Z</time>
      </trkpt>
      <trkpt lat="43.76504" lon="4.86474">
        <ele>177</ele>
        <time>2010-12-04T14:23:08Z</time>
      </trkpt>
      <trkpt lat="43.76503" lon="4.86477">
        <ele>177</ele>
        <time>2010-12-04T14:23:14Z</time>
      </trkpt>
      <trkpt lat="43.76507" lon="4.86481">
        <ele>176</ele>
        <time>2010-12-04T14:23:20Z</time>
      </trkpt>
      <trkpt lat="43.76511" lon="4.86487">
        <ele>173</ele>
        <time>2010-12-04T14:23:30Z</time>
      </trkpt>
      <trkpt lat="43.76513" lon="4.86491">
        <ele>171</ele>
        <time>2010-12-04T14:23:36Z</time>
      </trkpt>
      <trkpt lat="43.76514" lon="4.86494">
        <ele>168</ele>
        <time>2010-12-04T14:23:43Z</time>
      </trkpt>
      <trkpt lat="43.76515" lon="4.865">
        <ele>168</ele>
        <time>2010-12-04T14:23:50Z</time>
      </trkpt>
      <trkpt lat="43.76515" lon="4.86504">
        <ele>168</ele>
        <time>2010-12-04T14:23:56Z</time>
      </trkpt>
      <trkpt lat="43.76514" lon="4.86507">
        <ele>167</ele>
        <time>2010-12-04T14:24:02Z</time>
      </trkpt>
      <trkpt lat="43.76514" lon="4.86512">
        <ele>165</ele>
        <time>2010-12-04T14:24:11Z</time>
      </trkpt>
      <trkpt lat="43.76514" lon="4.86515">
        <ele>162</ele>
        <time>2010-12-04T14:24:18Z</time>
      </trkpt>
      <trkpt lat="43.76514" lon="4.8652">
        <ele>161</ele>
        <time>2010-12-04T14:24:25Z</time>
      </trkpt>
      <trkpt lat="43.76515" lon="4.86523">
        <ele>161</ele>
        <time>2010-12-04T14:24:31Z</time>
      </trkpt>
      <trkpt lat="43.76519" lon="4.86526">
        <ele>159</ele>
        <time>2010-12-04T14:24:41Z</time>
      </trkpt>
      <trkpt lat="43.76521" lon="4.86528">
        <ele>158</ele>
        <time>2010-12-04T14:24:47Z</time>
      </trkpt>
      <trkpt lat="43.76525" lon="4.8653">
        <ele>155</ele>
        <time>2010-12-04T14:24:54Z</time>
      </trkpt>
      <trkpt lat="43.76526" lon="4.86539">
        <ele>154</ele>
        <time>2010-12-04T14:25:02Z</time>
      </trkpt>
      <trkpt lat="43.76527" lon="4.8654">
        <ele>152</ele>
        <time>2010-12-04T14:25:16Z</time>
      </trkpt>
      <trkpt lat="43.76526" lon="4.86542">
        <ele>151</ele>
        <time>2010-12-04T14:25:25Z</time>
      </trkpt>
      <trkpt lat="43.76527" lon="4.86544">
        <ele>151</ele>
        <time>2010-12-04T14:25:39Z</time>
      </trkpt>
      <trkpt lat="43.76529" lon="4.86548">
        <ele>151</ele>
        <time>2010-12-04T14:25:46Z</time>
      </trkpt>
      <trkpt lat="43.76531" lon="4.86554">
        <ele>151</ele>
        <time>2010-12-04T14:25:54Z</time>
      </trkpt>
      <trkpt lat="43.76536" lon="4.86557">
        <ele>151</ele>
        <time>2010-12-04T14:26:01Z</time>
      </trkpt>
      <trkpt lat="43.76541" lon="4.86558">
        <ele>149</ele>
        <time>2010-12-04T14:26:07Z</time>
      </trkpt>
      <trkpt lat="43.76543" lon="4.86556">
        <ele>146</ele>
        <time>2010-12-04T14:26:14Z</time>
      </trkpt>
      <trkpt lat="43.76551" lon="4.8656">
        <ele>143</ele>
        <time>2010-12-04T14:26:20Z</time>
      </trkpt>
      <trkpt lat="43.76561" lon="4.86561">
        <ele>143</ele>
        <time>2010-12-04T14:26:28Z</time>
      </trkpt>
      <trkpt lat="43.76569" lon="4.86564">
        <ele>143</ele>
        <time>2010-12-04T14:26:34Z</time>
      </trkpt>
      <trkpt lat="43.76573" lon="4.86567">
        <ele>143</ele>
        <time>2010-12-04T14:26:41Z</time>
      </trkpt>
      <trkpt lat="43.76578" lon="4.8657">
        <ele>143</ele>
        <time>2010-12-04T14:26:47Z</time>
      </trkpt>
      <trkpt lat="43.76585" lon="4.86576">
        <ele>142</ele>
        <time>2010-12-04T14:26:53Z</time>
      </trkpt>
      <trkpt lat="43.7659" lon="4.86579">
        <ele>142</ele>
        <time>2010-12-04T14:26:59Z</time>
      </trkpt>
      <trkpt lat="43.76595" lon="4.86584">
        <ele>141</ele>
        <time>2010-12-04T14:27:07Z</time>
      </trkpt>
      <trkpt lat="43.76598" lon="4.86593">
        <ele>139</ele>
        <time>2010-12-04T14:27:14Z</time>
      </trkpt>
      <trkpt lat="43.76601" lon="4.86601">
        <ele>137</ele>
        <time>2010-12-04T14:27:20Z</time>
      </trkpt>
      <trkpt lat="43.76603" lon="4.86611">
        <ele>136</ele>
        <time>2010-12-04T14:27:27Z</time>
      </trkpt>
      <trkpt lat="43.76606" lon="4.86617">
        <ele>135</ele>
        <time>2010-12-04T14:27:33Z</time>
      </trkpt>
      <trkpt lat="43.76609" lon="4.86623">
        <ele>135</ele>
        <time>2010-12-04T14:27:39Z</time>
      </trkpt>
      <trkpt lat="43.7661" lon="4.86623">
        <ele>135</ele>
        <time>2010-12-04T14:27:47Z</time>
      </trkpt>
      <trkpt lat="43.76609" lon="4.86625">
        <ele>135</ele>
        <time>2010-12-04T14:28:28Z</time>
      </trkpt>
      <trkpt lat="43.76609" lon="4.86625">
        <ele>133</ele>
        <time>2010-12-04T14:28:37Z</time>
      </trkpt>
      <trkpt lat="43.76609" lon="4.86621">
        <ele>132</ele>
        <time>2010-12-04T14:28:44Z</time>
      </trkpt>
      <trkpt lat="43.76607" lon="4.86624">
        <ele>132</ele>
        <time>2010-12-04T14:28:51Z</time>
      </trkpt>
      <trkpt lat="43.76612" lon="4.86621">
        <ele>131</ele>
        <time>2010-12-04T14:29:04Z</time>
      </trkpt>
      <trkpt lat="43.76613" lon="4.8662">
        <ele>131</ele>
        <time>2010-12-04T14:29:10Z</time>
      </trkpt>
      <trkpt lat="43.76613" lon="4.86623">
        <ele>134</ele>
        <time>2010-12-04T14:29:41Z</time>
      </trkpt>
      <trkpt lat="43.76618" lon="4.86619">
        <ele>134</ele>
        <time>2010-12-04T14:29:48Z</time>
      </trkpt>
      <trkpt lat="43.76624" lon="4.86621">
        <ele>134</ele>
        <time>2010-12-04T14:29:54Z</time>
      </trkpt>
      <trkpt lat="43.76629" lon="4.86622">
        <ele>134</ele>
        <time>2010-12-04T14:30:00Z</time>
      </trkpt>
      <trkpt lat="43.76635" lon="4.86622">
        <ele>134</ele>
        <time>2010-12-04T14:30:06Z</time>
      </trkpt>
      <trkpt lat="43.76644" lon="4.86622">
        <ele>132</ele>
        <time>2010-12-04T14:30:13Z</time>
      </trkpt>
      <trkpt lat="43.76652" lon="4.86622">
        <ele>132</ele>
        <time>2010-12-04T14:30:19Z</time>
      </trkpt>
      <trkpt lat="43.76659" lon="4.86618">
        <ele>132</ele>
        <time>2010-12-04T14:30:25Z</time>
      </trkpt>
      <trkpt lat="43.76668" lon="4.86616">
        <ele>132</ele>
        <time>2010-12-04T14:30:32Z</time>
      </trkpt>
      <trkpt lat="43.76675" lon="4.86613">
        <ele>132</ele>
        <time>2010-12-04T14:30:39Z</time>
      </trkpt>
      <trkpt lat="43.76679" lon="4.86607">
        <ele>132</ele>
        <time>2010-12-04T14:30:46Z</time>
      </trkpt>
      <trkpt lat="43.76682" lon="4.86601">
        <ele>132</ele>
        <time>2010-12-04T14:30:52Z</time>
      </trkpt>
      <trkpt lat="43.76684" lon="4.86594">
        <ele>132</ele>
        <time>2010-12-04T14:31:01Z</time>
      </trkpt>
      <trkpt lat="43.76685" lon="4.86588">
        <ele>133</ele>
        <time>2010-12-04T14:31:08Z</time>
      </trkpt>
      <trkpt lat="43.76685" lon="4.86584">
        <ele>134</ele>
        <time>2010-12-04T14:31:14Z</time>
      </trkpt>
      <trkpt lat="43.76685" lon="4.86578">
        <ele>134</ele>
        <time>2010-12-04T14:31:20Z</time>
      </trkpt>
      <trkpt lat="43.76686" lon="4.86573">
        <ele>134</ele>
        <time>2010-12-04T14:31:26Z</time>
      </trkpt>
      <trkpt lat="43.76686" lon="4.86567">
        <ele>135</ele>
        <time>2010-12-04T14:31:32Z</time>
      </trkpt>
      <trkpt lat="43.76686" lon="4.86557">
        <ele>138</ele>
        <time>2010-12-04T14:31:39Z</time>
      </trkpt>
      <trkpt lat="43.76688" lon="4.86551">
        <ele>138</ele>
        <time>2010-12-04T14:31:45Z</time>
      </trkpt>
      <trkpt lat="43.7669" lon="4.86543">
        <ele>138</ele>
        <time>2010-12-04T14:31:53Z</time>
      </trkpt>
      <trkpt lat="43.76694" lon="4.86537">
        <ele>138</ele>
        <time>2010-12-04T14:31:59Z</time>
      </trkpt>
      <trkpt lat="43.76699" lon="4.86527">
        <ele>137</ele>
        <time>2010-12-04T14:32:07Z</time>
      </trkpt>
      <trkpt lat="43.76704" lon="4.86519">
        <ele>137</ele>
        <time>2010-12-04T14:32:14Z</time>
      </trkpt>
      <trkpt lat="43.76708" lon="4.86514">
        <ele>135</ele>
        <time>2010-12-04T14:32:20Z</time>
      </trkpt>
      <trkpt lat="43.76713" lon="4.86507">
        <ele>135</ele>
        <time>2010-12-04T14:32:27Z</time>
      </trkpt>
      <trkpt lat="43.76716" lon="4.86501">
        <ele>135</ele>
        <time>2010-12-04T14:32:33Z</time>
      </trkpt>
      <trkpt lat="43.76719" lon="4.86495">
        <ele>135</ele>
        <time>2010-12-04T14:32:39Z</time>
      </trkpt>
      <trkpt lat="43.7672" lon="4.86489">
        <ele>134</ele>
        <time>2010-12-04T14:32:45Z</time>
      </trkpt>
      <trkpt lat="43.76714" lon="4.86477">
        <ele>132</ele>
        <time>2010-12-04T14:32:52Z</time>
      </trkpt>
      <trkpt lat="43.7671" lon="4.86468">
        <ele>132</ele>
        <time>2010-12-04T14:32:58Z</time>
      </trkpt>
      <trkpt lat="43.76709" lon="4.86456">
        <ele>132</ele>
        <time>2010-12-04T14:33:05Z</time>
      </trkpt>
      <trkpt lat="43.76707" lon="4.86447">
        <ele>132</ele>
        <time>2010-12-04T14:33:13Z</time>
      </trkpt>
      <trkpt lat="43.76709" lon="4.86438">
        <ele>132</ele>
        <time>2010-12-04T14:33:21Z</time>
      </trkpt>
      <trkpt lat="43.76713" lon="4.86435">
        <ele>132</ele>
        <time>2010-12-04T14:33:28Z</time>
      </trkpt>
      <trkpt lat="43.76718" lon="4.86428">
        <ele>132</ele>
        <time>2010-12-04T14:33:34Z</time>
      </trkpt>
      <trkpt lat="43.7672" lon="4.86422">
        <ele>132</ele>
        <time>2010-12-04T14:33:40Z</time>
      </trkpt>
      <trkpt lat="43.76723" lon="4.86412">
        <ele>132</ele>
        <time>2010-12-04T14:33:47Z</time>
      </trkpt>
      <trkpt lat="43.7673" lon="4.86404">
        <ele>132</ele>
        <time>2010-12-04T14:33:55Z</time>
      </trkpt>
      <trkpt lat="43.76733" lon="4.86396">
        <ele>132</ele>
        <time>2010-12-04T14:34:01Z</time>
      </trkpt>
      <trkpt lat="43.76736" lon="4.86391">
        <ele>132</ele>
        <time>2010-12-04T14:34:07Z</time>
      </trkpt>
      <trkpt lat="43.76737" lon="4.86382">
        <ele>132</ele>
        <time>2010-12-04T14:34:13Z</time>
      </trkpt>
      <trkpt lat="43.76741" lon="4.86374">
        <ele>131</ele>
        <time>2010-12-04T14:34:20Z</time>
      </trkpt>
      <trkpt lat="43.76744" lon="4.86368">
        <ele>129</ele>
        <time>2010-12-04T14:34:26Z</time>
      </trkpt>
      <trkpt lat="43.76748" lon="4.8636">
        <ele>128</ele>
        <time>2010-12-04T14:34:33Z</time>
      </trkpt>
      <trkpt lat="43.76748" lon="4.86353">
        <ele>128</ele>
        <time>2010-12-04T14:34:39Z</time>
      </trkpt>
      <trkpt lat="43.76747" lon="4.86348">
        <ele>126</ele>
        <time>2010-12-04T14:34:45Z</time>
      </trkpt>
      <trkpt lat="43.76745" lon="4.86338">
        <ele>123</ele>
        <time>2010-12-04T14:34:52Z</time>
      </trkpt>
      <trkpt lat="43.76744" lon="4.8633">
        <ele>122</ele>
        <time>2010-12-04T14:34:59Z</time>
      </trkpt>
      <trkpt lat="43.76746" lon="4.86325">
        <ele>122</ele>
        <time>2010-12-04T14:35:06Z</time>
      </trkpt>
      <trkpt lat="43.76747" lon="4.86316">
        <ele>122</ele>
        <time>2010-12-04T14:35:13Z</time>
      </trkpt>
      <trkpt lat="43.76746" lon="4.86304">
        <ele>122</ele>
        <time>2010-12-04T14:35:19Z</time>
      </trkpt>
      <trkpt lat="43.76745" lon="4.86293">
        <ele>122</ele>
        <time>2010-12-04T14:35:25Z</time>
      </trkpt>
      <trkpt lat="43.76752" lon="4.86289">
        <ele>120</ele>
        <time>2010-12-04T14:35:32Z</time>
      </trkpt>
      <trkpt lat="43.76755" lon="4.86281">
        <ele>118</ele>
        <time>2010-12-04T14:35:38Z</time>
      </trkpt>
      <trkpt lat="43.76757" lon="4.86272">
        <ele>118</ele>
        <time>2010-12-04T14:35:46Z</time>
      </trkpt>
      <trkpt lat="43.76764" lon="4.86267">
        <ele>117</ele>
        <time>2010-12-04T14:35:53Z</time>
      </trkpt>
      <trkpt lat="43.76766" lon="4.86259">
        <ele>117</ele>
        <time>2010-12-04T14:35:59Z</time>
      </trkpt>
      <trkpt lat="43.76771" lon="4.86253">
        <ele>117</ele>
        <time>2010-12-04T14:36:06Z</time>
      </trkpt>
      <trkpt lat="43.76777" lon="4.8625">
        <ele>117</ele>
        <time>2010-12-04T14:36:13Z</time>
      </trkpt>
      <trkpt lat="43.7678" lon="4.86242">
        <ele>117</ele>
        <time>2010-12-04T14:36:20Z</time>
      </trkpt>
      <trkpt lat="43.7678" lon="4.86236">
        <ele>118</ele>
        <time>2010-12-04T14:36:26Z</time>
      </trkpt>
      <trkpt lat="43.7678" lon="4.86228">
        <ele>120</ele>
        <time>2010-12-04T14:36:34Z</time>
      </trkpt>
      <trkpt lat="43.76782" lon="4.8622">
        <ele>122</ele>
        <time>2010-12-04T14:36:42Z</time>
      </trkpt>
      <trkpt lat="43.76785" lon="4.86214">
        <ele>123</ele>
        <time>2010-12-04T14:36:49Z</time>
      </trkpt>
      <trkpt lat="43.76787" lon="4.86209">
        <ele>123</ele>
        <time>2010-12-04T14:36:57Z</time>
      </trkpt>
      <trkpt lat="43.76791" lon="4.86204">
        <ele>123</ele>
        <time>2010-12-04T14:37:04Z</time>
      </trkpt>
      <trkpt lat="43.76795" lon="4.862">
        <ele>123</ele>
        <time>2010-12-04T14:37:10Z</time>
      </trkpt>
      <trkpt lat="43.76799" lon="4.86198">
        <ele>123</ele>
        <time>2010-12-04T14:37:17Z</time>
      </trkpt>
      <trkpt lat="43.76806" lon="4.86193">
        <ele>123</ele>
        <time>2010-12-04T14:37:24Z</time>
      </trkpt>
      <trkpt lat="43.76813" lon="4.86188">
        <ele>123</ele>
        <time>2010-12-04T14:37:30Z</time>
      </trkpt>
      <trkpt lat="43.7682" lon="4.8618">
        <ele>123</ele>
        <time>2010-12-04T14:37:37Z</time>
      </trkpt>
      <trkpt lat="43.7682" lon="4.8617">
        <ele>123</ele>
        <time>2010-12-04T14:37:44Z</time>
      </trkpt>
      <trkpt lat="43.76823" lon="4.86162">
        <ele>123</ele>
        <time>2010-12-04T14:37:50Z</time>
      </trkpt>
      <trkpt lat="43.76823" lon="4.86152">
        <ele>123</ele>
        <time>2010-12-04T14:37:58Z</time>
      </trkpt>
      <trkpt lat="43.76821" lon="4.86142">
        <ele>122</ele>
        <time>2010-12-04T14:38:04Z</time>
      </trkpt>
      <trkpt lat="43.76818" lon="4.8613">
        <ele>121</ele>
        <time>2010-12-04T14:38:11Z</time>
      </trkpt>
      <trkpt lat="43.76818" lon="4.86117">
        <ele>121</ele>
        <time>2010-12-04T14:38:18Z</time>
      </trkpt>
      <trkpt lat="43.76817" lon="4.86107">
        <ele>121</ele>
        <time>2010-12-04T14:38:25Z</time>
      </trkpt>
      <trkpt lat="43.76815" lon="4.86097">
        <ele>121</ele>
        <time>2010-12-04T14:38:32Z</time>
      </trkpt>
      <trkpt lat="43.76815" lon="4.86088">
        <ele>121</ele>
        <time>2010-12-04T14:38:39Z</time>
      </trkpt>
      <trkpt lat="43.76813" lon="4.86077">
        <ele>121</ele>
        <time>2010-12-04T14:38:45Z</time>
      </trkpt>
      <trkpt lat="43.76812" lon="4.86073">
        <ele>121</ele>
        <time>2010-12-04T14:38:52Z</time>
      </trkpt>
      <trkpt lat="43.7681" lon="4.86063">
        <ele>121</ele>
        <time>2010-12-04T14:38:59Z</time>
      </trkpt>
      <trkpt lat="43.7681" lon="4.86053">
        <ele>121</ele>
        <time>2010-12-04T14:39:05Z</time>
      </trkpt>
      <trkpt lat="43.76814" lon="4.8604">
        <ele>121</ele>
        <time>2010-12-04T14:39:13Z</time>
      </trkpt>
      <trkpt lat="43.76818" lon="4.86029">
        <ele>123</ele>
        <time>2010-12-04T14:39:20Z</time>
      </trkpt>
      <trkpt lat="43.76822" lon="4.86024">
        <ele>129</ele>
        <time>2010-12-04T14:39:26Z</time>
      </trkpt>
      <trkpt lat="43.76827" lon="4.8602">
        <ele>132</ele>
        <time>2010-12-04T14:39:33Z</time>
      </trkpt>
      <trkpt lat="43.76831" lon="4.86016">
        <ele>132</ele>
        <time>2010-12-04T14:39:41Z</time>
      </trkpt>
      <trkpt lat="43.76833" lon="4.86011">
        <ele>133</ele>
        <time>2010-12-04T14:39:47Z</time>
      </trkpt>
      <trkpt lat="43.76834" lon="4.86006">
        <ele>134</ele>
        <time>2010-12-04T14:39:53Z</time>
      </trkpt>
      <trkpt lat="43.76836" lon="4.86001">
        <ele>134</ele>
        <time>2010-12-04T14:40:00Z</time>
      </trkpt>
      <trkpt lat="43.76837" lon="4.85992">
        <ele>134</ele>
        <time>2010-12-04T14:40:08Z</time>
      </trkpt>
      <trkpt lat="43.76837" lon="4.85987">
        <ele>135</ele>
        <time>2010-12-04T14:40:14Z</time>
      </trkpt>
      <trkpt lat="43.76839" lon="4.85981">
        <ele>136</ele>
        <time>2010-12-04T14:40:20Z</time>
      </trkpt>
      <trkpt lat="43.76845" lon="4.85974">
        <ele>138</ele>
        <time>2010-12-04T14:40:28Z</time>
      </trkpt>
      <trkpt lat="43.7685" lon="4.85972">
        <ele>139</ele>
        <time>2010-12-04T14:40:35Z</time>
      </trkpt>
      <trkpt lat="43.76856" lon="4.85968">
        <ele>140</ele>
        <time>2010-12-04T14:40:42Z</time>
      </trkpt>
      <trkpt lat="43.76861" lon="4.85963">
        <ele>140</ele>
        <time>2010-12-04T14:40:48Z</time>
      </trkpt>
      <trkpt lat="43.76865" lon="4.85959">
        <ele>140</ele>
        <time>2010-12-04T14:40:54Z</time>
      </trkpt>
      <trkpt lat="43.7687" lon="4.85954">
        <ele>140</ele>
        <time>2010-12-04T14:41:00Z</time>
      </trkpt>
      <trkpt lat="43.76874" lon="4.85949">
        <ele>140</ele>
        <time>2010-12-04T14:41:06Z</time>
      </trkpt>
      <trkpt lat="43.76879" lon="4.85944">
        <ele>140</ele>
        <time>2010-12-04T14:41:12Z</time>
      </trkpt>
      <trkpt lat="43.76886" lon="4.85938">
        <ele>140</ele>
        <time>2010-12-04T14:41:21Z</time>
      </trkpt>
      <trkpt lat="43.76891" lon="4.85932">
        <ele>140</ele>
        <time>2010-12-04T14:41:28Z</time>
      </trkpt>
      <trkpt lat="43.76897" lon="4.85922">
        <ele>140</ele>
        <time>2010-12-04T14:41:35Z</time>
      </trkpt>
      <trkpt lat="43.76898" lon="4.85915">
        <ele>140</ele>
        <time>2010-12-04T14:41:41Z</time>
      </trkpt>
      <trkpt lat="43.76901" lon="4.85906">
        <ele>140</ele>
        <time>2010-12-04T14:41:48Z</time>
      </trkpt>
      <trkpt lat="43.76902" lon="4.859">
        <ele>140</ele>
        <time>2010-12-04T14:41:54Z</time>
      </trkpt>
      <trkpt lat="43.76907" lon="4.85895">
        <ele>137</ele>
        <time>2010-12-04T14:42:01Z</time>
      </trkpt>
      <trkpt lat="43.7691" lon="4.85887">
        <ele>137</ele>
        <time>2010-12-04T14:42:08Z</time>
      </trkpt>
      <trkpt lat="43.76912" lon="4.85884">
        <ele>137</ele>
        <time>2010-12-04T14:42:14Z</time>
      </trkpt>
      <trkpt lat="43.76914" lon="4.85881">
        <ele>138</ele>
        <time>2010-12-04T14:42:26Z</time>
      </trkpt>
      <trkpt lat="43.76915" lon="4.85883">
        <ele>140</ele>
        <time>2010-12-04T14:42:32Z</time>
      </trkpt>
      <trkpt lat="43.76915" lon="4.85888">
        <ele>142</ele>
        <time>2010-12-04T14:42:40Z</time>
      </trkpt>
      <trkpt lat="43.76917" lon="4.85889">
        <ele>144</ele>
        <time>2010-12-04T14:42:51Z</time>
      </trkpt>
      <trkpt lat="43.76914" lon="4.8588">
        <ele>144</ele>
        <time>2010-12-04T14:42:57Z</time>
      </trkpt>
      <trkpt lat="43.76915" lon="4.85878">
        <ele>151</ele>
        <time>2010-12-04T14:43:06Z</time>
      </trkpt>
      <trkpt lat="43.76916" lon="4.85876">
        <ele>155</ele>
        <time>2010-12-04T14:43:18Z</time>
      </trkpt>
      <trkpt lat="43.76915" lon="4.85877">
        <ele>155</ele>
        <time>2010-12-04T14:43:24Z</time>
      </trkpt>
      <trkpt lat="43.76918" lon="4.85875">
        <ele>155</ele>
        <time>2010-12-04T14:43:33Z</time>
      </trkpt>
      <trkpt lat="43.76915" lon="4.85863">
        <ele>155</ele>
        <time>2010-12-04T14:43:40Z</time>
      </trkpt>
      <trkpt lat="43.7692" lon="4.85872">
        <ele>158</ele>
        <time>2010-12-04T14:43:47Z</time>
      </trkpt>
      <trkpt lat="43.76917" lon="4.85873">
        <ele>158</ele>
        <time>2010-12-04T14:43:53Z</time>
      </trkpt>
      <trkpt lat="43.76915" lon="4.85872">
        <ele>157</ele>
        <time>2010-12-04T14:43:59Z</time>
      </trkpt>
      <trkpt lat="43.76914" lon="4.85872">
        <ele>155</ele>
        <time>2010-12-04T14:44:05Z</time>
      </trkpt>
      <trkpt lat="43.76913" lon="4.8587">
        <ele>154</ele>
        <time>2010-12-04T14:44:12Z</time>
      </trkpt>
      <trkpt lat="43.76915" lon="4.85875">
        <ele>154</ele>
        <time>2010-12-04T14:44:20Z</time>
      </trkpt>
      <trkpt lat="43.76915" lon="4.85876">
        <ele>154</ele>
        <time>2010-12-04T14:44:32Z</time>
      </trkpt>
      <trkpt lat="43.76915" lon="4.85876">
        <ele>154</ele>
        <time>2010-12-04T14:44:41Z</time>
      </trkpt>
      <trkpt lat="43.76915" lon="4.85878">
        <ele>154</ele>
        <time>2010-12-04T14:44:51Z</time>
      </trkpt>
      <trkpt lat="43.76913" lon="4.85873">
        <ele>154</ele>
        <time>2010-12-04T14:45:01Z</time>
      </trkpt>
      <trkpt lat="43.76913" lon="4.85874">
        <ele>154</ele>
        <time>2010-12-04T14:45:07Z</time>
      </trkpt>
      <trkpt lat="43.76911" lon="4.85876">
        <ele>154</ele>
        <time>2010-12-04T14:45:19Z</time>
      </trkpt>
      <trkpt lat="43.76911" lon="4.85874">
        <ele>154</ele>
        <time>2010-12-04T14:45:36Z</time>
      </trkpt>
      <trkpt lat="43.76912" lon="4.85873">
        <ele>154</ele>
        <time>2010-12-04T14:45:48Z</time>
      </trkpt>
      <trkpt lat="43.76913" lon="4.85873">
        <ele>154</ele>
        <time>2010-12-04T14:45:54Z</time>
      </trkpt>
      <trkpt lat="43.76903" lon="4.85872">
        <ele>154</ele>
        <time>2010-12-04T14:46:00Z</time>
      </trkpt>
      <trkpt lat="43.76882" lon="4.85878">
        <ele>154</ele>
        <time>2010-12-04T14:46:07Z</time>
      </trkpt>
      <trkpt lat="43.76887" lon="4.8589">
        <ele>142</ele>
        <time>2010-12-04T14:46:19Z</time>
      </trkpt>
      <trkpt lat="43.76907" lon="4.859">
        <ele>136</ele>
        <time>2010-12-04T14:46:25Z</time>
      </trkpt>
      <trkpt lat="43.76918" lon="4.85903">
        <ele>129</ele>
        <time>2010-12-04T14:46:34Z</time>
      </trkpt>
      <trkpt lat="43.76931" lon="4.859">
        <ele>126</ele>
        <time>2010-12-04T14:46:40Z</time>
      </trkpt>
      <trkpt lat="43.76923" lon="4.85896">
        <ele>126</ele>
        <time>2010-12-04T14:46:46Z</time>
      </trkpt>
      <trkpt lat="43.76898" lon="4.8589">
        <ele>126</ele>
        <time>2010-12-04T14:47:07Z</time>
      </trkpt>
      <trkpt lat="43.76918" lon="4.8589">
        <ele>130</ele>
        <time>2010-12-04T14:47:13Z</time>
      </trkpt>
      <trkpt lat="43.76915" lon="4.85886">
        <ele>135</ele>
        <time>2010-12-04T14:47:20Z</time>
      </trkpt>
      <trkpt lat="43.76921" lon="4.85886">
        <ele>137</ele>
        <time>2010-12-04T14:47:27Z</time>
      </trkpt>
      <trkpt lat="43.76927" lon="4.85887">
        <ele>142</ele>
        <time>2010-12-04T14:47:35Z</time>
      </trkpt>
      <trkpt lat="43.76923" lon="4.85882">
        <ele>146</ele>
        <time>2010-12-04T14:47:41Z</time>
      </trkpt>
      <trkpt lat="43.76918" lon="4.85883">
        <ele>152</ele>
        <time>2010-12-04T14:47:47Z</time>
      </trkpt>
      <trkpt lat="43.76912" lon="4.85886">
        <ele>154</ele>
        <time>2010-12-04T14:47:55Z</time>
      </trkpt>
      <trkpt lat="43.76919" lon="4.85882">
        <ele>154</ele>
        <time>2010-12-04T14:48:02Z</time>
      </trkpt>
      <trkpt lat="43.76921" lon="4.8588">
        <ele>154</ele>
        <time>2010-12-04T14:48:10Z</time>
      </trkpt>
      <trkpt lat="43.76924" lon="4.85881">
        <ele>152</ele>
        <time>2010-12-04T14:48:17Z</time>
      </trkpt>
      <trkpt lat="43.76924" lon="4.85881">
        <ele>152</ele>
        <time>2010-12-04T14:48:26Z</time>
      </trkpt>
      <trkpt lat="43.76924" lon="4.85882">
        <ele>151</ele>
        <time>2010-12-04T14:48:33Z</time>
      </trkpt>
      <trkpt lat="43.76924" lon="4.85882">
        <ele>150</ele>
        <time>2010-12-04T14:48:41Z</time>
      </trkpt>
      <trkpt lat="43.76921" lon="4.85884">
        <ele>150</ele>
        <time>2010-12-04T14:48:53Z</time>
      </trkpt>
      <trkpt lat="43.76921" lon="4.85882">
        <ele>150</ele>
        <time>2010-12-04T14:49:05Z</time>
      </trkpt>
      <trkpt lat="43.76921" lon="4.8588">
        <ele>150</ele>
        <time>2010-12-04T14:49:15Z</time>
      </trkpt>
      <trkpt lat="43.76919" lon="4.85882">
        <ele>148</ele>
        <time>2010-12-04T14:49:22Z</time>
      </trkpt>
      <trkpt lat="43.76918" lon="4.85882">
        <ele>145</ele>
        <time>2010-12-04T14:49:39Z</time>
      </trkpt>
      <trkpt lat="43.76916" lon="4.85885">
        <ele>145</ele>
        <time>2010-12-04T14:49:47Z</time>
      </trkpt>
      <trkpt lat="43.76915" lon="4.85889">
        <ele>147</ele>
        <time>2010-12-04T14:49:54Z</time>
      </trkpt>
      <trkpt lat="43.76917" lon="4.85885">
        <ele>147</ele>
        <time>2010-12-04T14:50:00Z</time>
      </trkpt>
      <trkpt lat="43.76918" lon="4.85882">
        <ele>146</ele>
        <time>2010-12-04T14:50:06Z</time>
      </trkpt>
      <trkpt lat="43.76926" lon="4.85879">
        <ele>141</ele>
        <time>2010-12-04T14:50:14Z</time>
      </trkpt>
      <trkpt lat="43.76931" lon="4.85876">
        <ele>139</ele>
        <time>2010-12-04T14:50:20Z</time>
      </trkpt>
      <trkpt lat="43.76938" lon="4.85872">
        <ele>138</ele>
        <time>2010-12-04T14:50:26Z</time>
      </trkpt>
      <trkpt lat="43.76941" lon="4.85872">
        <ele>138</ele>
        <time>2010-12-04T14:50:38Z</time>
      </trkpt>
      <trkpt lat="43.76945" lon="4.85869">
        <ele>138</ele>
        <time>2010-12-04T14:50:47Z</time>
      </trkpt>
      <trkpt lat="43.76946" lon="4.85866">
        <ele>138</ele>
        <time>2010-12-04T14:50:55Z</time>
      </trkpt>
      <trkpt lat="43.76947" lon="4.85865">
        <ele>138</ele>
        <time>2010-12-04T14:51:10Z</time>
      </trkpt>
      <trkpt lat="43.7695" lon="4.85857">
        <ele>138</ele>
        <time>2010-12-04T14:51:18Z</time>
      </trkpt>
      <trkpt lat="43.76953" lon="4.85848">
        <ele>136</ele>
        <time>2010-12-04T14:51:24Z</time>
      </trkpt>
      <trkpt lat="43.76955" lon="4.85837">
        <ele>135</ele>
        <time>2010-12-04T14:51:30Z</time>
      </trkpt>
      <trkpt lat="43.76954" lon="4.85827">
        <ele>134</ele>
        <time>2010-12-04T14:51:37Z</time>
      </trkpt>
      <trkpt lat="43.76952" lon="4.85817">
        <ele>134</ele>
        <time>2010-12-04T14:51:43Z</time>
      </trkpt>
      <trkpt lat="43.7695" lon="4.85809">
        <ele>133</ele>
        <time>2010-12-04T14:51:49Z</time>
      </trkpt>
      <trkpt lat="43.76947" lon="4.858">
        <ele>133</ele>
        <time>2010-12-04T14:51:55Z</time>
      </trkpt>
      <trkpt lat="43.76944" lon="4.8579">
        <ele>132</ele>
        <time>2010-12-04T14:52:02Z</time>
      </trkpt>
      <trkpt lat="43.76939" lon="4.85781">
        <ele>130</ele>
        <time>2010-12-04T14:52:10Z</time>
      </trkpt>
      <trkpt lat="43.76933" lon="4.85772">
        <ele>129</ele>
        <time>2010-12-04T14:52:18Z</time>
      </trkpt>
      <trkpt lat="43.76925" lon="4.85761">
        <ele>128</ele>
        <time>2010-12-04T14:52:25Z</time>
      </trkpt>
      <trkpt lat="43.76921" lon="4.85755">
        <ele>128</ele>
        <time>2010-12-04T14:52:31Z</time>
      </trkpt>
      <trkpt lat="43.76925" lon="4.8574">
        <ele>128</ele>
        <time>2010-12-04T14:52:38Z</time>
      </trkpt>
      <trkpt lat="43.76929" lon="4.85729">
        <ele>127</ele>
        <time>2010-12-04T14:52:45Z</time>
      </trkpt>
      <trkpt lat="43.76931" lon="4.85721">
        <ele>126</ele>
        <time>2010-12-04T14:52:51Z</time>
      </trkpt>
      <trkpt lat="43.76931" lon="4.85711">
        <ele>126</ele>
        <time>2010-12-04T14:52:57Z</time>
      </trkpt>
      <trkpt lat="43.76928" lon="4.85705">
        <ele>126</ele>
        <time>2010-12-04T14:53:03Z</time>
      </trkpt>
      <trkpt lat="43.76925" lon="4.85697">
        <ele>126</ele>
        <time>2010-12-04T14:53:10Z</time>
      </trkpt>
      <trkpt lat="43.76925" lon="4.85689">
        <ele>128</ele>
        <time>2010-12-04T14:53:16Z</time>
      </trkpt>
      <trkpt lat="43.76926" lon="4.85682">
        <ele>129</ele>
        <time>2010-12-04T14:53:22Z</time>
      </trkpt>
      <trkpt lat="43.76927" lon="4.85675">
        <ele>130</ele>
        <time>2010-12-04T14:53:29Z</time>
      </trkpt>
      <trkpt lat="43.76928" lon="4.8567">
        <ele>132</ele>
        <time>2010-12-04T14:53:36Z</time>
      </trkpt>
      <trkpt lat="43.76929" lon="4.85663">
        <ele>132</ele>
        <time>2010-12-04T14:53:44Z</time>
      </trkpt>
      <trkpt lat="43.76931" lon="4.85656">
        <ele>133</ele>
        <time>2010-12-04T14:53:52Z</time>
      </trkpt>
      <trkpt lat="43.76932" lon="4.85651">
        <ele>134</ele>
        <time>2010-12-04T14:53:58Z</time>
      </trkpt>
      <trkpt lat="43.76932" lon="4.85645">
        <ele>135</ele>
        <time>2010-12-04T14:54:04Z</time>
      </trkpt>
      <trkpt lat="43.76932" lon="4.85637">
        <ele>137</ele>
        <time>2010-12-04T14:54:11Z</time>
      </trkpt>
      <trkpt lat="43.76931" lon="4.85629">
        <ele>138</ele>
        <time>2010-12-04T14:54:18Z</time>
      </trkpt>
      <trkpt lat="43.76933" lon="4.85621">
        <ele>138</ele>
        <time>2010-12-04T14:54:24Z</time>
      </trkpt>
      <trkpt lat="43.76934" lon="4.85613">
        <ele>138</ele>
        <time>2010-12-04T14:54:31Z</time>
      </trkpt>
      <trkpt lat="43.76935" lon="4.85602">
        <ele>138</ele>
        <time>2010-12-04T14:54:38Z</time>
      </trkpt>
      <trkpt lat="43.76936" lon="4.85594">
        <ele>138</ele>
        <time>2010-12-04T14:54:44Z</time>
      </trkpt>
      <trkpt lat="43.76939" lon="4.85587">
        <ele>135</ele>
        <time>2010-12-04T14:54:50Z</time>
      </trkpt>
      <trkpt lat="43.76939" lon="4.85579">
        <ele>132</ele>
        <time>2010-12-04T14:54:57Z</time>
      </trkpt>
      <trkpt lat="43.76942" lon="4.85572">
        <ele>131</ele>
        <time>2010-12-04T14:55:04Z</time>
      </trkpt>
      <trkpt lat="43.76945" lon="4.85567">
        <ele>130</ele>
        <time>2010-12-04T14:55:10Z</time>
      </trkpt>
      <trkpt lat="43.76951" lon="4.85561">
        <ele>129</ele>
        <time>2010-12-04T14:55:18Z</time>
      </trkpt>
      <trkpt lat="43.7696" lon="4.85556">
        <ele>128</ele>
        <time>2010-12-04T14:55:26Z</time>
      </trkpt>
      <trkpt lat="43.76965" lon="4.85546">
        <ele>125</ele>
        <time>2010-12-04T14:55:33Z</time>
      </trkpt>
      <trkpt lat="43.76966" lon="4.8554">
        <ele>124</ele>
        <time>2010-12-04T14:55:39Z</time>
      </trkpt>
      <trkpt lat="43.76966" lon="4.85534">
        <ele>124</ele>
        <time>2010-12-04T14:55:46Z</time>
      </trkpt>
      <trkpt lat="43.76965" lon="4.85525">
        <ele>124</ele>
        <time>2010-12-04T14:55:54Z</time>
      </trkpt>
      <trkpt lat="43.7696" lon="4.85518">
        <ele>124</ele>
        <time>2010-12-04T14:56:01Z</time>
      </trkpt>
      <trkpt lat="43.76957" lon="4.85509">
        <ele>124</ele>
        <time>2010-12-04T14:56:09Z</time>
      </trkpt>
      <trkpt lat="43.76958" lon="4.85499">
        <ele>124</ele>
        <time>2010-12-04T14:56:16Z</time>
      </trkpt>
      <trkpt lat="43.76958" lon="4.85489">
        <ele>124</ele>
        <time>2010-12-04T14:56:23Z</time>
      </trkpt>
      <trkpt lat="43.76959" lon="4.8548">
        <ele>124</ele>
        <time>2010-12-04T14:56:30Z</time>
      </trkpt>
      <trkpt lat="43.76958" lon="4.85473">
        <ele>125</ele>
        <time>2010-12-04T14:56:37Z</time>
      </trkpt>
      <trkpt lat="43.76957" lon="4.85468">
        <ele>128</ele>
        <time>2010-12-04T14:56:43Z</time>
      </trkpt>
      <trkpt lat="43.76958" lon="4.85462">
        <ele>128</ele>
        <time>2010-12-04T14:56:49Z</time>
      </trkpt>
      <trkpt lat="43.76959" lon="4.85456">
        <ele>129</ele>
        <time>2010-12-04T14:56:55Z</time>
      </trkpt>
      <trkpt lat="43.7696" lon="4.85451">
        <ele>131</ele>
        <time>2010-12-04T14:57:02Z</time>
      </trkpt>
      <trkpt lat="43.7696" lon="4.85446">
        <ele>132</ele>
        <time>2010-12-04T14:57:08Z</time>
      </trkpt>
      <trkpt lat="43.76961" lon="4.8544">
        <ele>135</ele>
        <time>2010-12-04T14:57:16Z</time>
      </trkpt>
      <trkpt lat="43.76962" lon="4.85435">
        <ele>137</ele>
        <time>2010-12-04T14:57:22Z</time>
      </trkpt>
      <trkpt lat="43.76964" lon="4.8543">
        <ele>139</ele>
        <time>2010-12-04T14:57:28Z</time>
      </trkpt>
      <trkpt lat="43.76965" lon="4.85427">
        <ele>140</ele>
        <time>2010-12-04T14:57:37Z</time>
      </trkpt>
      <trkpt lat="43.76967" lon="4.85422">
        <ele>141</ele>
        <time>2010-12-04T14:57:43Z</time>
      </trkpt>
      <trkpt lat="43.76971" lon="4.85417">
        <ele>142</ele>
        <time>2010-12-04T14:57:50Z</time>
      </trkpt>
      <trkpt lat="43.76975" lon="4.85408">
        <ele>142</ele>
        <time>2010-12-04T14:57:58Z</time>
      </trkpt>
      <trkpt lat="43.76977" lon="4.854">
        <ele>142</ele>
        <time>2010-12-04T14:58:04Z</time>
      </trkpt>
      <trkpt lat="43.76978" lon="4.85392">
        <ele>142</ele>
        <time>2010-12-04T14:58:10Z</time>
      </trkpt>
      <trkpt lat="43.76978" lon="4.85383">
        <ele>143</ele>
        <time>2010-12-04T14:58:17Z</time>
      </trkpt>
      <trkpt lat="43.76977" lon="4.85377">
        <ele>144</ele>
        <time>2010-12-04T14:58:23Z</time>
      </trkpt>
      <trkpt lat="43.76976" lon="4.85367">
        <ele>144</ele>
        <time>2010-12-04T14:58:31Z</time>
      </trkpt>
      <trkpt lat="43.76976" lon="4.85358">
        <ele>146</ele>
        <time>2010-12-04T14:58:38Z</time>
      </trkpt>
      <trkpt lat="43.76979" lon="4.85352">
        <ele>148</ele>
        <time>2010-12-04T14:58:44Z</time>
      </trkpt>
      <trkpt lat="43.76981" lon="4.85345">
        <ele>149</ele>
        <time>2010-12-04T14:58:50Z</time>
      </trkpt>
      <trkpt lat="43.76986" lon="4.85335">
        <ele>151</ele>
        <time>2010-12-04T14:58:58Z</time>
      </trkpt>
      <trkpt lat="43.76988" lon="4.85328">
        <ele>151</ele>
        <time>2010-12-04T14:59:04Z</time>
      </trkpt>
      <trkpt lat="43.76989" lon="4.85318">
        <ele>152</ele>
        <time>2010-12-04T14:59:12Z</time>
      </trkpt>
      <trkpt lat="43.7699" lon="4.8531">
        <ele>153</ele>
        <time>2010-12-04T14:59:18Z</time>
      </trkpt>
      <trkpt lat="43.76991" lon="4.85301">
        <ele>154</ele>
        <time>2010-12-04T14:59:25Z</time>
      </trkpt>
      <trkpt lat="43.76992" lon="4.85293">
        <ele>155</ele>
        <time>2010-12-04T14:59:31Z</time>
      </trkpt>
      <trkpt lat="43.76992" lon="4.85284">
        <ele>156</ele>
        <time>2010-12-04T14:59:39Z</time>
      </trkpt>
      <trkpt lat="43.76993" lon="4.85274">
        <ele>157</ele>
        <time>2010-12-04T14:59:47Z</time>
      </trkpt>
      <trkpt lat="43.76995" lon="4.85265">
        <ele>159</ele>
        <time>2010-12-04T14:59:55Z</time>
      </trkpt>
      <trkpt lat="43.76998" lon="4.85257">
        <ele>161</ele>
        <time>2010-12-04T15:00:03Z</time>
      </trkpt>
      <trkpt lat="43.77" lon="4.85252">
        <ele>164</ele>
        <time>2010-12-04T15:00:10Z</time>
      </trkpt>
      <trkpt lat="43.77003" lon="4.85253">
        <ele>166</ele>
        <time>2010-12-04T15:00:17Z</time>
      </trkpt>
      <trkpt lat="43.77003" lon="4.85256">
        <ele>167</ele>
        <time>2010-12-04T15:00:27Z</time>
      </trkpt>
      <trkpt lat="43.77002" lon="4.85256">
        <ele>168</ele>
        <time>2010-12-04T15:01:27Z</time>
      </trkpt>
      <trkpt lat="43.77" lon="4.85254">
        <ele>168</ele>
        <time>2010-12-04T15:01:33Z</time>
      </trkpt>
      <trkpt lat="43.77" lon="4.85256">
        <ele>168</ele>
        <time>2010-12-04T15:01:44Z</time>
      </trkpt>
      <trkpt lat="43.77001" lon="4.85254">
        <ele>168</ele>
        <time>2010-12-04T15:02:01Z</time>
      </trkpt>
      <trkpt lat="43.77001" lon="4.85248">
        <ele>168</ele>
        <time>2010-12-04T15:02:07Z</time>
      </trkpt>
      <trkpt lat="43.77001" lon="4.85239">
        <ele>168</ele>
        <time>2010-12-04T15:02:14Z</time>
      </trkpt>
      <trkpt lat="43.77003" lon="4.85231">
        <ele>168</ele>
        <time>2010-12-04T15:02:20Z</time>
      </trkpt>
      <trkpt lat="43.77004" lon="4.85221">
        <ele>168</ele>
        <time>2010-12-04T15:02:26Z</time>
      </trkpt>
      <trkpt lat="43.77005" lon="4.85212">
        <ele>167</ele>
        <time>2010-12-04T15:02:33Z</time>
      </trkpt>
      <trkpt lat="43.77003" lon="4.85203">
        <ele>165</ele>
        <time>2010-12-04T15:02:39Z</time>
      </trkpt>
      <trkpt lat="43.77" lon="4.85194">
        <ele>163</ele>
        <time>2010-12-04T15:02:45Z</time>
      </trkpt>
      <trkpt lat="43.77" lon="4.85186">
        <ele>161</ele>
        <time>2010-12-04T15:02:51Z</time>
      </trkpt>
      <trkpt lat="43.77002" lon="4.85177">
        <ele>159</ele>
        <time>2010-12-04T15:02:57Z</time>
      </trkpt>
      <trkpt lat="43.77006" lon="4.85167">
        <ele>157</ele>
        <time>2010-12-04T15:03:04Z</time>
      </trkpt>
      <trkpt lat="43.77007" lon="4.85158">
        <ele>155</ele>
        <time>2010-12-04T15:03:10Z</time>
      </trkpt>
      <trkpt lat="43.7701" lon="4.85146">
        <ele>154</ele>
        <time>2010-12-04T15:03:17Z</time>
      </trkpt>
      <trkpt lat="43.77012" lon="4.85138">
        <ele>153</ele>
        <time>2010-12-04T15:03:23Z</time>
      </trkpt>
      <trkpt lat="43.77014" lon="4.85128">
        <ele>151</ele>
        <time>2010-12-04T15:03:29Z</time>
      </trkpt>
      <trkpt lat="43.77016" lon="4.85119">
        <ele>149</ele>
        <time>2010-12-04T15:03:35Z</time>
      </trkpt>
      <trkpt lat="43.7702" lon="4.85106">
        <ele>148</ele>
        <time>2010-12-04T15:03:43Z</time>
      </trkpt>
      <trkpt lat="43.77023" lon="4.85096">
        <ele>147</ele>
        <time>2010-12-04T15:03:49Z</time>
      </trkpt>
      <trkpt lat="43.77025" lon="4.85087">
        <ele>145</ele>
        <time>2010-12-04T15:03:55Z</time>
      </trkpt>
      <trkpt lat="43.77026" lon="4.85077">
        <ele>144</ele>
        <time>2010-12-04T15:04:01Z</time>
      </trkpt>
      <trkpt lat="43.7703" lon="4.85066">
        <ele>143</ele>
        <time>2010-12-04T15:04:08Z</time>
      </trkpt>
      <trkpt lat="43.77036" lon="4.85058">
        <ele>143</ele>
        <time>2010-12-04T15:04:15Z</time>
      </trkpt>
      <trkpt lat="43.7704" lon="4.85054">
        <ele>143</ele>
        <time>2010-12-04T15:04:22Z</time>
      </trkpt>
      <trkpt lat="43.77047" lon="4.85057">
        <ele>143</ele>
        <time>2010-12-04T15:04:30Z</time>
      </trkpt>
      <trkpt lat="43.77056" lon="4.85056">
        <ele>143</ele>
        <time>2010-12-04T15:04:37Z</time>
      </trkpt>
      <trkpt lat="43.7706" lon="4.85058">
        <ele>142</ele>
        <time>2010-12-04T15:04:43Z</time>
      </trkpt>
      <trkpt lat="43.77063" lon="4.85062">
        <ele>141</ele>
        <time>2010-12-04T15:04:49Z</time>
      </trkpt>
      <trkpt lat="43.77061" lon="4.85063">
        <ele>140</ele>
        <time>2010-12-04T15:04:55Z</time>
      </trkpt>
      <trkpt lat="43.7706" lon="4.85063">
        <ele>140</ele>
        <time>2010-12-04T15:05:02Z</time>
      </trkpt>
      <trkpt lat="43.77057" lon="4.85064">
        <ele>140</ele>
        <time>2010-12-04T15:05:08Z</time>
      </trkpt>
      <trkpt lat="43.77055" lon="4.85066">
        <ele>140</ele>
        <time>2010-12-04T15:05:16Z</time>
      </trkpt>
      <trkpt lat="43.77057" lon="4.85066">
        <ele>140</ele>
        <time>2010-12-04T15:05:24Z</time>
      </trkpt>
      <trkpt lat="43.77057" lon="4.85063">
        <ele>140</ele>
        <time>2010-12-04T15:05:30Z</time>
      </trkpt>
      <trkpt lat="43.77057" lon="4.85063">
        <ele>140</ele>
        <time>2010-12-04T15:05:38Z</time>
      </trkpt>
      <trkpt lat="43.77058" lon="4.85064">
        <ele>140</ele>
        <time>2010-12-04T15:05:46Z</time>
      </trkpt>
      <trkpt lat="43.77057" lon="4.85063">
        <ele>139</ele>
        <time>2010-12-04T15:05:54Z</time>
      </trkpt>
      <trkpt lat="43.77058" lon="4.85063">
        <ele>139</ele>
        <time>2010-12-04T15:06:01Z</time>
      </trkpt>
      <trkpt lat="43.77065" lon="4.85066">
        <ele>139</ele>
        <time>2010-12-04T15:06:08Z</time>
      </trkpt>
      <trkpt lat="43.77072" lon="4.85066">
        <ele>137</ele>
        <time>2010-12-04T15:06:14Z</time>
      </trkpt>
      <trkpt lat="43.77081" lon="4.85065">
        <ele>137</ele>
        <time>2010-12-04T15:06:20Z</time>
      </trkpt>
      <trkpt lat="43.77089" lon="4.85063">
        <ele>137</ele>
        <time>2010-12-04T15:06:27Z</time>
      </trkpt>
      <trkpt lat="43.77096" lon="4.8506">
        <ele>136</ele>
        <time>2010-12-04T15:06:34Z</time>
      </trkpt>
      <trkpt lat="43.77104" lon="4.85058">
        <ele>135</ele>
        <time>2010-12-04T15:06:41Z</time>
      </trkpt>
      <trkpt lat="43.77115" lon="4.85055">
        <ele>135</ele>
        <time>2010-12-04T15:06:48Z</time>
      </trkpt>
      <trkpt lat="43.77121" lon="4.85054">
        <ele>135</ele>
        <time>2010-12-04T15:06:55Z</time>
      </trkpt>
      <trkpt lat="43.7713" lon="4.85054">
        <ele>135</ele>
        <time>2010-12-04T15:07:02Z</time>
      </trkpt>
      <trkpt lat="43.77138" lon="4.85053">
        <ele>135</ele>
        <time>2010-12-04T15:07:09Z</time>
      </trkpt>
      <trkpt lat="43.77146" lon="4.85053">
        <ele>135</ele>
        <time>2010-12-04T15:07:15Z</time>
      </trkpt>
      <trkpt lat="43.7715" lon="4.85053">
        <ele>134</ele>
        <time>2010-12-04T15:07:21Z</time>
      </trkpt>
      <trkpt lat="43.77158" lon="4.85055">
        <ele>134</ele>
        <time>2010-12-04T15:07:28Z</time>
      </trkpt>
      <trkpt lat="43.77169" lon="4.85056">
        <ele>133</ele>
        <time>2010-12-04T15:07:35Z</time>
      </trkpt>
      <trkpt lat="43.77177" lon="4.85057">
        <ele>133</ele>
        <time>2010-12-04T15:07:41Z</time>
      </trkpt>
      <trkpt lat="43.77184" lon="4.85056">
        <ele>132</ele>
        <time>2010-12-04T15:07:47Z</time>
      </trkpt>
      <trkpt lat="43.77191" lon="4.85054">
        <ele>131</ele>
        <time>2010-12-04T15:07:54Z</time>
      </trkpt>
      <trkpt lat="43.77198" lon="4.85052">
        <ele>131</ele>
        <time>2010-12-04T15:08:00Z</time>
      </trkpt>
      <trkpt lat="43.77205" lon="4.85051">
        <ele>131</ele>
        <time>2010-12-04T15:08:06Z</time>
      </trkpt>
      <trkpt lat="43.77213" lon="4.8505">
        <ele>130</ele>
        <time>2010-12-04T15:08:13Z</time>
      </trkpt>
      <trkpt lat="43.7722" lon="4.8505">
        <ele>129</ele>
        <time>2010-12-04T15:08:19Z</time>
      </trkpt>
      <trkpt lat="43.77228" lon="4.85048">
        <ele>129</ele>
        <time>2010-12-04T15:08:26Z</time>
      </trkpt>
      <trkpt lat="43.77236" lon="4.85046">
        <ele>129</ele>
        <time>2010-12-04T15:08:32Z</time>
      </trkpt>
      <trkpt lat="43.77242" lon="4.85042">
        <ele>129</ele>
        <time>2010-12-04T15:08:38Z</time>
      </trkpt>
      <trkpt lat="43.77251" lon="4.85032">
        <ele>129</ele>
        <time>2010-12-04T15:08:45Z</time>
      </trkpt>
      <trkpt lat="43.77258" lon="4.85025">
        <ele>129</ele>
        <time>2010-12-04T15:08:52Z</time>
      </trkpt>
      <trkpt lat="43.77266" lon="4.85018">
        <ele>129</ele>
        <time>2010-12-04T15:08:59Z</time>
      </trkpt>
      <trkpt lat="43.77274" lon="4.85013">
        <ele>128</ele>
        <time>2010-12-04T15:09:06Z</time>
      </trkpt>
      <trkpt lat="43.77282" lon="4.85007">
        <ele>127</ele>
        <time>2010-12-04T15:09:13Z</time>
      </trkpt>
      <trkpt lat="43.77289" lon="4.85002">
        <ele>126</ele>
        <time>2010-12-04T15:09:20Z</time>
      </trkpt>
      <trkpt lat="43.77296" lon="4.84996">
        <ele>126</ele>
        <time>2010-12-04T15:09:26Z</time>
      </trkpt>
      <trkpt lat="43.77303" lon="4.84992">
        <ele>125</ele>
        <time>2010-12-04T15:09:32Z</time>
      </trkpt>
      <trkpt lat="43.77312" lon="4.84986">
        <ele>125</ele>
        <time>2010-12-04T15:09:39Z</time>
      </trkpt>
      <trkpt lat="43.7732" lon="4.8498">
        <ele>125</ele>
        <time>2010-12-04T15:09:46Z</time>
      </trkpt>
      <trkpt lat="43.77328" lon="4.84972">
        <ele>124</ele>
        <time>2010-12-04T15:09:53Z</time>
      </trkpt>
      <trkpt lat="43.77336" lon="4.84967">
        <ele>124</ele>
        <time>2010-12-04T15:10:00Z</time>
      </trkpt>
      <trkpt lat="43.77342" lon="4.84963">
        <ele>123</ele>
        <time>2010-12-04T15:10:06Z</time>
      </trkpt>
      <trkpt lat="43.77349" lon="4.8496">
        <ele>122</ele>
        <time>2010-12-04T15:10:12Z</time>
      </trkpt>
      <trkpt lat="43.77358" lon="4.84958">
        <ele>122</ele>
        <time>2010-12-04T15:10:19Z</time>
      </trkpt>
      <trkpt lat="43.77365" lon="4.84953">
        <ele>120</ele>
        <time>2010-12-04T15:10:26Z</time>
      </trkpt>
      <trkpt lat="43.77372" lon="4.8495">
        <ele>118</ele>
        <time>2010-12-04T15:10:33Z</time>
      </trkpt>
      <trkpt lat="43.77382" lon="4.84946">
        <ele>118</ele>
        <time>2010-12-04T15:10:40Z</time>
      </trkpt>
      <trkpt lat="43.7739" lon="4.84943">
        <ele>118</ele>
        <time>2010-12-04T15:10:46Z</time>
      </trkpt>
      <trkpt lat="43.77398" lon="4.84939">
        <ele>118</ele>
        <time>2010-12-04T15:10:52Z</time>
      </trkpt>
      <trkpt lat="43.77406" lon="4.84936">
        <ele>118</ele>
        <time>2010-12-04T15:10:59Z</time>
      </trkpt>
      <trkpt lat="43.77414" lon="4.84935">
        <ele>118</ele>
        <time>2010-12-04T15:11:05Z</time>
      </trkpt>
      <trkpt lat="43.77422" lon="4.84933">
        <ele>118</ele>
        <time>2010-12-04T15:11:12Z</time>
      </trkpt>
      <trkpt lat="43.7743" lon="4.84933">
        <ele>118</ele>
        <time>2010-12-04T15:11:18Z</time>
      </trkpt>
      <trkpt lat="43.77437" lon="4.8493">
        <ele>118</ele>
        <time>2010-12-04T15:11:24Z</time>
      </trkpt>
      <trkpt lat="43.77444" lon="4.8493">
        <ele>118</ele>
        <time>2010-12-04T15:11:30Z</time>
      </trkpt>
      <trkpt lat="43.77453" lon="4.84927">
        <ele>118</ele>
        <time>2010-12-04T15:11:37Z</time>
      </trkpt>
      <trkpt lat="43.7746" lon="4.84922">
        <ele>118</ele>
        <time>2010-12-04T15:11:43Z</time>
      </trkpt>
      <trkpt lat="43.77468" lon="4.84916">
        <ele>118</ele>
        <time>2010-12-04T15:11:50Z</time>
      </trkpt>
      <trkpt lat="43.7747" lon="4.84913">
        <ele>118</ele>
        <time>2010-12-04T15:12:03Z</time>
      </trkpt>
      <trkpt lat="43.7747" lon="4.84915">
        <ele>118</ele>
        <time>2010-12-04T15:12:11Z</time>
      </trkpt>
      <trkpt lat="43.77472" lon="4.8492">
        <ele>118</ele>
        <time>2010-12-04T15:12:17Z</time>
      </trkpt>
      <trkpt lat="43.77473" lon="4.84918">
        <ele>118</ele>
        <time>2010-12-04T15:12:24Z</time>
      </trkpt>
      <trkpt lat="43.77474" lon="4.84914">
        <ele>118</ele>
        <time>2010-12-04T15:12:33Z</time>
      </trkpt>
      <trkpt lat="43.77477" lon="4.8491">
        <ele>113</ele>
        <time>2010-12-04T15:12:40Z</time>
      </trkpt>
      <trkpt lat="43.77477" lon="4.84907">
        <ele>106</ele>
        <time>2010-12-04T15:12:47Z</time>
      </trkpt>
      <trkpt lat="43.7748" lon="4.84906">
        <ele>106</ele>
        <time>2010-12-04T15:12:54Z</time>
      </trkpt>
      <trkpt lat="43.77488" lon="4.84901">
        <ele>106</ele>
        <time>2010-12-04T15:13:01Z</time>
      </trkpt>
      <trkpt lat="43.77495" lon="4.84896">
        <ele>107</ele>
        <time>2010-12-04T15:13:08Z</time>
      </trkpt>
      <trkpt lat="43.77501" lon="4.84891">
        <ele>108</ele>
        <time>2010-12-04T15:13:14Z</time>
      </trkpt>
      <trkpt lat="43.77507" lon="4.84887">
        <ele>108</ele>
        <time>2010-12-04T15:13:20Z</time>
      </trkpt>
      <trkpt lat="43.77514" lon="4.8488">
        <ele>109</ele>
        <time>2010-12-04T15:13:27Z</time>
      </trkpt>
      <trkpt lat="43.77522" lon="4.84875">
        <ele>112</ele>
        <time>2010-12-04T15:13:34Z</time>
      </trkpt>
      <trkpt lat="43.77533" lon="4.84869">
        <ele>112</ele>
        <time>2010-12-04T15:13:40Z</time>
      </trkpt>
      <trkpt lat="43.77543" lon="4.84862">
        <ele>114</ele>
        <time>2010-12-04T15:13:46Z</time>
      </trkpt>
      <trkpt lat="43.77551" lon="4.84857">
        <ele>114</ele>
        <time>2010-12-04T15:13:52Z</time>
      </trkpt>
      <trkpt lat="43.77557" lon="4.84853">
        <ele>114</ele>
        <time>2010-12-04T15:13:58Z</time>
      </trkpt>
      <trkpt lat="43.77563" lon="4.84852">
        <ele>114</ele>
        <time>2010-12-04T15:14:05Z</time>
      </trkpt>
      <trkpt lat="43.77568" lon="4.84851">
        <ele>113</ele>
        <time>2010-12-04T15:14:11Z</time>
      </trkpt>
      <trkpt lat="43.77578" lon="4.84849">
        <ele>113</ele>
        <time>2010-12-04T15:14:17Z</time>
      </trkpt>
      <trkpt lat="43.77586" lon="4.84845">
        <ele>113</ele>
        <time>2010-12-04T15:14:24Z</time>
      </trkpt>
      <trkpt lat="43.77592" lon="4.84843">
        <ele>112</ele>
        <time>2010-12-04T15:14:31Z</time>
      </trkpt>
      <trkpt lat="43.776" lon="4.8484">
        <ele>112</ele>
        <time>2010-12-04T15:14:37Z</time>
      </trkpt>
      <trkpt lat="43.77607" lon="4.84836">
        <ele>111</ele>
        <time>2010-12-04T15:14:43Z</time>
      </trkpt>
      <trkpt lat="43.77617" lon="4.84832">
        <ele>110</ele>
        <time>2010-12-04T15:14:49Z</time>
      </trkpt>
      <trkpt lat="43.77626" lon="4.84827">
        <ele>110</ele>
        <time>2010-12-04T15:14:56Z</time>
      </trkpt>
      <trkpt lat="43.77633" lon="4.84824">
        <ele>110</ele>
        <time>2010-12-04T15:15:02Z</time>
      </trkpt>
      <trkpt lat="43.77643" lon="4.84817">
        <ele>110</ele>
        <time>2010-12-04T15:15:10Z</time>
      </trkpt>
      <trkpt lat="43.77653" lon="4.84811">
        <ele>110</ele>
        <time>2010-12-04T15:15:16Z</time>
      </trkpt>
      <trkpt lat="43.77657" lon="4.84804">
        <ele>110</ele>
        <time>2010-12-04T15:15:22Z</time>
      </trkpt>
      <trkpt lat="43.77662" lon="4.84796">
        <ele>109</ele>
        <time>2010-12-04T15:15:28Z</time>
      </trkpt>
      <trkpt lat="43.77666" lon="4.84787">
        <ele>109</ele>
        <time>2010-12-04T15:15:34Z</time>
      </trkpt>
      <trkpt lat="43.7767" lon="4.84777">
        <ele>109</ele>
        <time>2010-12-04T15:15:40Z</time>
      </trkpt>
      <trkpt lat="43.77673" lon="4.84769">
        <ele>108</ele>
        <time>2010-12-04T15:15:46Z</time>
      </trkpt>
      <trkpt lat="43.77674" lon="4.84758">
        <ele>108</ele>
        <time>2010-12-04T15:15:52Z</time>
      </trkpt>
      <trkpt lat="43.77676" lon="4.84746">
        <ele>107</ele>
        <time>2010-12-04T15:15:58Z</time>
      </trkpt>
      <trkpt lat="43.77677" lon="4.84733">
        <ele>107</ele>
        <time>2010-12-04T15:16:05Z</time>
      </trkpt>
      <trkpt lat="43.77679" lon="4.84721">
        <ele>107</ele>
        <time>2010-12-04T15:16:12Z</time>
      </trkpt>
      <trkpt lat="43.77682" lon="4.84707">
        <ele>107</ele>
        <time>2010-12-04T15:16:19Z</time>
      </trkpt>
      <trkpt lat="43.77684" lon="4.84696">
        <ele>107</ele>
        <time>2010-12-04T15:16:25Z</time>
      </trkpt>
      <trkpt lat="43.77687" lon="4.84684">
        <ele>106</ele>
        <time>2010-12-04T15:16:32Z</time>
      </trkpt>
      <trkpt lat="43.77688" lon="4.84674">
        <ele>106</ele>
        <time>2010-12-04T15:16:38Z</time>
      </trkpt>
      <trkpt lat="43.77688" lon="4.84661">
        <ele>106</ele>
        <time>2010-12-04T15:16:45Z</time>
      </trkpt>
      <trkpt lat="43.77691" lon="4.8465">
        <ele>105</ele>
        <time>2010-12-04T15:16:52Z</time>
      </trkpt>
      <trkpt lat="43.77697" lon="4.84638">
        <ele>104</ele>
        <time>2010-12-04T15:16:59Z</time>
      </trkpt>
      <trkpt lat="43.777" lon="4.8463">
        <ele>103</ele>
        <time>2010-12-04T15:17:06Z</time>
      </trkpt>
      <trkpt lat="43.77708" lon="4.84625">
        <ele>102</ele>
        <time>2010-12-04T15:17:12Z</time>
      </trkpt>
      <trkpt lat="43.77716" lon="4.84621">
        <ele>102</ele>
        <time>2010-12-04T15:17:19Z</time>
      </trkpt>
      <trkpt lat="43.77716" lon="4.84617">
        <ele>102</ele>
        <time>2010-12-04T15:17:25Z</time>
      </trkpt>
      <trkpt lat="43.77714" lon="4.84611">
        <ele>102</ele>
        <time>2010-12-04T15:17:32Z</time>
      </trkpt>
      <trkpt lat="43.7771" lon="4.84601">
        <ele>102</ele>
        <time>2010-12-04T15:17:38Z</time>
      </trkpt>
      <trkpt lat="43.77707" lon="4.84587">
        <ele>102</ele>
        <time>2010-12-04T15:17:45Z</time>
      </trkpt>
      <trkpt lat="43.77707" lon="4.84577">
        <ele>102</ele>
        <time>2010-12-04T15:17:51Z</time>
      </trkpt>
      <trkpt lat="43.77705" lon="4.84564">
        <ele>102</ele>
        <time>2010-12-04T15:17:58Z</time>
      </trkpt>
      <trkpt lat="43.77705" lon="4.84553">
        <ele>101</ele>
        <time>2010-12-04T15:18:04Z</time>
      </trkpt>
      <trkpt lat="43.77703" lon="4.84542">
        <ele>100</ele>
        <time>2010-12-04T15:18:10Z</time>
      </trkpt>
      <trkpt lat="43.77703" lon="4.84529">
        <ele>99</ele>
        <time>2010-12-04T15:18:17Z</time>
      </trkpt>
      <trkpt lat="43.77703" lon="4.84518">
        <ele>98</ele>
        <time>2010-12-04T15:18:23Z</time>
      </trkpt>
      <trkpt lat="43.777" lon="4.84509">
        <ele>98</ele>
        <time>2010-12-04T15:18:29Z</time>
      </trkpt>
      <trkpt lat="43.777" lon="4.84496">
        <ele>98</ele>
        <time>2010-12-04T15:18:36Z</time>
      </trkpt>
      <trkpt lat="43.777" lon="4.84485">
        <ele>98</ele>
        <time>2010-12-04T15:18:42Z</time>
      </trkpt>
      <trkpt lat="43.77702" lon="4.84474">
        <ele>98</ele>
        <time>2010-12-04T15:18:49Z</time>
      </trkpt>
      <trkpt lat="43.77702" lon="4.84462">
        <ele>98</ele>
        <time>2010-12-04T15:18:55Z</time>
      </trkpt>
      <trkpt lat="43.77702" lon="4.8445">
        <ele>98</ele>
        <time>2010-12-04T15:19:01Z</time>
      </trkpt>
      <trkpt lat="43.77701" lon="4.84438">
        <ele>97</ele>
        <time>2010-12-04T15:19:08Z</time>
      </trkpt>
      <trkpt lat="43.77701" lon="4.84427">
        <ele>97</ele>
        <time>2010-12-04T15:19:14Z</time>
      </trkpt>
      <trkpt lat="43.77701" lon="4.84416">
        <ele>97</ele>
        <time>2010-12-04T15:19:20Z</time>
      </trkpt>
      <trkpt lat="43.77701" lon="4.84407">
        <ele>97</ele>
        <time>2010-12-04T15:19:26Z</time>
      </trkpt>
      <trkpt lat="43.777" lon="4.84395">
        <ele>97</ele>
        <time>2010-12-04T15:19:33Z</time>
      </trkpt>
      <trkpt lat="43.77699" lon="4.84384">
        <ele>97</ele>
        <time>2010-12-04T15:19:39Z</time>
      </trkpt>
      <trkpt lat="43.77698" lon="4.84374">
        <ele>97</ele>
        <time>2010-12-04T15:19:46Z</time>
      </trkpt>
      <trkpt lat="43.77697" lon="4.84364">
        <ele>97</ele>
        <time>2010-12-04T15:19:52Z</time>
      </trkpt>
      <trkpt lat="43.77697" lon="4.84353">
        <ele>96</ele>
        <time>2010-12-04T15:19:58Z</time>
      </trkpt>
      <trkpt lat="43.77697" lon="4.8434">
        <ele>95</ele>
        <time>2010-12-04T15:20:05Z</time>
      </trkpt>
      <trkpt lat="43.77696" lon="4.8433">
        <ele>94</ele>
        <time>2010-12-04T15:20:12Z</time>
      </trkpt>
      <trkpt lat="43.77695" lon="4.84321">
        <ele>94</ele>
        <time>2010-12-04T15:20:18Z</time>
      </trkpt>
      <trkpt lat="43.77696" lon="4.8431">
        <ele>94</ele>
        <time>2010-12-04T15:20:25Z</time>
      </trkpt>
      <trkpt lat="43.77698" lon="4.84303">
        <ele>93</ele>
        <time>2010-12-04T15:20:34Z</time>
      </trkpt>
      <trkpt lat="43.77695" lon="4.84293">
        <ele>93</ele>
        <time>2010-12-04T15:20:40Z</time>
      </trkpt>
      <trkpt lat="43.7769" lon="4.84283">
        <ele>93</ele>
        <time>2010-12-04T15:20:48Z</time>
      </trkpt>
      <trkpt lat="43.77686" lon="4.84274">
        <ele>93</ele>
        <time>2010-12-04T15:20:55Z</time>
      </trkpt>
      <trkpt lat="43.77682" lon="4.84267">
        <ele>94</ele>
        <time>2010-12-04T15:21:02Z</time>
      </trkpt>
      <trkpt lat="43.77681" lon="4.84257">
        <ele>100</ele>
        <time>2010-12-04T15:21:08Z</time>
      </trkpt>
      <trkpt lat="43.77679" lon="4.84246">
        <ele>100</ele>
        <time>2010-12-04T15:21:14Z</time>
      </trkpt>
      <trkpt lat="43.77678" lon="4.84234">
        <ele>100</ele>
        <time>2010-12-04T15:21:22Z</time>
      </trkpt>
      <trkpt lat="43.77676" lon="4.84224">
        <ele>100</ele>
        <time>2010-12-04T15:21:28Z</time>
      </trkpt>
      <trkpt lat="43.77675" lon="4.84213">
        <ele>100</ele>
        <time>2010-12-04T15:21:34Z</time>
      </trkpt>
      <trkpt lat="43.77673" lon="4.84202">
        <ele>99</ele>
        <time>2010-12-04T15:21:41Z</time>
      </trkpt>
      <trkpt lat="43.77672" lon="4.84189">
        <ele>99</ele>
        <time>2010-12-04T15:21:48Z</time>
      </trkpt>
      <trkpt lat="43.7767" lon="4.84178">
        <ele>99</ele>
        <time>2010-12-04T15:21:54Z</time>
      </trkpt>
      <trkpt lat="43.77667" lon="4.84168">
        <ele>97</ele>
        <time>2010-12-04T15:22:01Z</time>
      </trkpt>
      <trkpt lat="43.77665" lon="4.84158">
        <ele>97</ele>
        <time>2010-12-04T15:22:07Z</time>
      </trkpt>
      <trkpt lat="43.77663" lon="4.84149">
        <ele>96</ele>
        <time>2010-12-04T15:22:13Z</time>
      </trkpt>
      <trkpt lat="43.77662" lon="4.84139">
        <ele>95</ele>
        <time>2010-12-04T15:22:19Z</time>
      </trkpt>
      <trkpt lat="43.77662" lon="4.84129">
        <ele>94</ele>
        <time>2010-12-04T15:22:25Z</time>
      </trkpt>
      <trkpt lat="43.77661" lon="4.84115">
        <ele>94</ele>
        <time>2010-12-04T15:22:32Z</time>
      </trkpt>
      <trkpt lat="43.7766" lon="4.84104">
        <ele>94</ele>
        <time>2010-12-04T15:22:38Z</time>
      </trkpt>
      <trkpt lat="43.77659" lon="4.84093">
        <ele>94</ele>
        <time>2010-12-04T15:22:44Z</time>
      </trkpt>
      <trkpt lat="43.77659" lon="4.8408">
        <ele>94</ele>
        <time>2010-12-04T15:22:51Z</time>
      </trkpt>
      <trkpt lat="43.77658" lon="4.84071">
        <ele>94</ele>
        <time>2010-12-04T15:22:57Z</time>
      </trkpt>
      <trkpt lat="43.77659" lon="4.84059">
        <ele>94</ele>
        <time>2010-12-04T15:23:03Z</time>
      </trkpt>
      <trkpt lat="43.77658" lon="4.84048">
        <ele>94</ele>
        <time>2010-12-04T15:23:10Z</time>
      </trkpt>
      <trkpt lat="43.77658" lon="4.84037">
        <ele>94</ele>
        <time>2010-12-04T15:23:16Z</time>
      </trkpt>
      <trkpt lat="43.7766" lon="4.84025">
        <ele>95</ele>
        <time>2010-12-04T15:23:23Z</time>
      </trkpt>
      <trkpt lat="43.77661" lon="4.84013">
        <ele>95</ele>
        <time>2010-12-04T15:23:30Z</time>
      </trkpt>
      <trkpt lat="43.77664" lon="4.84002">
        <ele>95</ele>
        <time>2010-12-04T15:23:36Z</time>
      </trkpt>
      <trkpt lat="43.77667" lon="4.83992">
        <ele>95</ele>
        <time>2010-12-04T15:23:42Z</time>
      </trkpt>
      <trkpt lat="43.7767" lon="4.83982">
        <ele>97</ele>
        <time>2010-12-04T15:23:48Z</time>
      </trkpt>
      <trkpt lat="43.77673" lon="4.8397">
        <ele>98</ele>
        <time>2010-12-04T15:23:55Z</time>
      </trkpt>
      <trkpt lat="43.77677" lon="4.83959">
        <ele>99</ele>
        <time>2010-12-04T15:24:02Z</time>
      </trkpt>
      <trkpt lat="43.77679" lon="4.83949">
        <ele>99</ele>
        <time>2010-12-04T15:24:08Z</time>
      </trkpt>
      <trkpt lat="43.77678" lon="4.83937">
        <ele>99</ele>
        <time>2010-12-04T15:24:14Z</time>
      </trkpt>
      <trkpt lat="43.77679" lon="4.83926">
        <ele>99</ele>
        <time>2010-12-04T15:24:20Z</time>
      </trkpt>
      <trkpt lat="43.77679" lon="4.83915">
        <ele>99</ele>
        <time>2010-12-04T15:24:27Z</time>
      </trkpt>
      <trkpt lat="43.7768" lon="4.83901">
        <ele>99</ele>
        <time>2010-12-04T15:24:34Z</time>
      </trkpt>
      <trkpt lat="43.7768" lon="4.8389">
        <ele>99</ele>
        <time>2010-12-04T15:24:40Z</time>
      </trkpt>
      <trkpt lat="43.77682" lon="4.83881">
        <ele>99</ele>
        <time>2010-12-04T15:24:46Z</time>
      </trkpt>
      <trkpt lat="43.77683" lon="4.83866">
        <ele>99</ele>
        <time>2010-12-04T15:24:53Z</time>
      </trkpt>
      <trkpt lat="43.77684" lon="4.83856">
        <ele>99</ele>
        <time>2010-12-04T15:24:59Z</time>
      </trkpt>
      <trkpt lat="43.77684" lon="4.83844">
        <ele>99</ele>
        <time>2010-12-04T15:25:05Z</time>
      </trkpt>
      <trkpt lat="43.77684" lon="4.83831">
        <ele>99</ele>
        <time>2010-12-04T15:25:12Z</time>
      </trkpt>
      <trkpt lat="43.77686" lon="4.8382">
        <ele>99</ele>
        <time>2010-12-04T15:25:18Z</time>
      </trkpt>
      <trkpt lat="43.77686" lon="4.8381">
        <ele>99</ele>
        <time>2010-12-04T15:25:24Z</time>
      </trkpt>
      <trkpt lat="43.77684" lon="4.838">
        <ele>99</ele>
        <time>2010-12-04T15:25:30Z</time>
      </trkpt>
      <trkpt lat="43.77682" lon="4.83789">
        <ele>99</ele>
        <time>2010-12-04T15:25:37Z</time>
      </trkpt>
      <trkpt lat="43.7768" lon="4.83778">
        <ele>99</ele>
        <time>2010-12-04T15:25:43Z</time>
      </trkpt>
      <trkpt lat="43.77678" lon="4.83768">
        <ele>99</ele>
        <time>2010-12-04T15:25:49Z</time>
      </trkpt>
      <trkpt lat="43.77676" lon="4.83758">
        <ele>99</ele>
        <time>2010-12-04T15:25:55Z</time>
      </trkpt>
      <trkpt lat="43.77673" lon="4.83749">
        <ele>99</ele>
        <time>2010-12-04T15:26:01Z</time>
      </trkpt>
      <trkpt lat="43.7767" lon="4.83739">
        <ele>99</ele>
        <time>2010-12-04T15:26:07Z</time>
      </trkpt>
      <trkpt lat="43.77667" lon="4.83726">
        <ele>98</ele>
        <time>2010-12-04T15:26:14Z</time>
      </trkpt>
      <trkpt lat="43.77663" lon="4.83715">
        <ele>98</ele>
        <time>2010-12-04T15:26:20Z</time>
      </trkpt>
      <trkpt lat="43.77661" lon="4.83705">
        <ele>98</ele>
        <time>2010-12-04T15:26:26Z</time>
      </trkpt>
      <trkpt lat="43.77657" lon="4.83694">
        <ele>98</ele>
        <time>2010-12-04T15:26:32Z</time>
      </trkpt>
      <trkpt lat="43.77655" lon="4.83683">
        <ele>98</ele>
        <time>2010-12-04T15:26:38Z</time>
      </trkpt>
      <trkpt lat="43.7765" lon="4.83672">
        <ele>98</ele>
        <time>2010-12-04T15:26:44Z</time>
      </trkpt>
      <trkpt lat="43.77648" lon="4.83661">
        <ele>98</ele>
        <time>2010-12-04T15:26:51Z</time>
      </trkpt>
      <trkpt lat="43.77645" lon="4.8365">
        <ele>98</ele>
        <time>2010-12-04T15:26:57Z</time>
      </trkpt>
      <trkpt lat="43.77643" lon="4.83637">
        <ele>98</ele>
        <time>2010-12-04T15:27:04Z</time>
      </trkpt>
      <trkpt lat="43.77641" lon="4.83627">
        <ele>98</ele>
        <time>2010-12-04T15:27:10Z</time>
      </trkpt>
      <trkpt lat="43.77638" lon="4.83615">
        <ele>98</ele>
        <time>2010-12-04T15:27:17Z</time>
      </trkpt>
      <trkpt lat="43.77636" lon="4.83605">
        <ele>98</ele>
        <time>2010-12-04T15:27:23Z</time>
      </trkpt>
      <trkpt lat="43.77635" lon="4.83595">
        <ele>98</ele>
        <time>2010-12-04T15:27:29Z</time>
      </trkpt>
      <trkpt lat="43.77634" lon="4.83583">
        <ele>98</ele>
        <time>2010-12-04T15:27:36Z</time>
      </trkpt>
      <trkpt lat="43.77633" lon="4.83573">
        <ele>98</ele>
        <time>2010-12-04T15:27:42Z</time>
      </trkpt>
      <trkpt lat="43.77631" lon="4.83563">
        <ele>99</ele>
        <time>2010-12-04T15:27:48Z</time>
      </trkpt>
      <trkpt lat="43.7763" lon="4.83553">
        <ele>99</ele>
        <time>2010-12-04T15:27:54Z</time>
      </trkpt>
      <trkpt lat="43.77628" lon="4.83543">
        <ele>99</ele>
        <time>2010-12-04T15:28:00Z</time>
      </trkpt>
      <trkpt lat="43.77627" lon="4.83533">
        <ele>99</ele>
        <time>2010-12-04T15:28:06Z</time>
      </trkpt>
      <trkpt lat="43.77626" lon="4.83523">
        <ele>99</ele>
        <time>2010-12-04T15:28:12Z</time>
      </trkpt>
      <trkpt lat="43.77624" lon="4.83513">
        <ele>99</ele>
        <time>2010-12-04T15:28:18Z</time>
      </trkpt>
      <trkpt lat="43.77623" lon="4.83501">
        <ele>99</ele>
        <time>2010-12-04T15:28:25Z</time>
      </trkpt>
      <trkpt lat="43.77623" lon="4.83492">
        <ele>99</ele>
        <time>2010-12-04T15:28:31Z</time>
      </trkpt>
      <trkpt lat="43.77623" lon="4.83479">
        <ele>99</ele>
        <time>2010-12-04T15:28:38Z</time>
      </trkpt>
      <trkpt lat="43.77624" lon="4.83468">
        <ele>99</ele>
        <time>2010-12-04T15:28:44Z</time>
      </trkpt>
      <trkpt lat="43.77625" lon="4.83457">
        <ele>99</ele>
        <time>2010-12-04T15:28:50Z</time>
      </trkpt>
      <trkpt lat="43.77625" lon="4.83446">
        <ele>99</ele>
        <time>2010-12-04T15:28:56Z</time>
      </trkpt>
      <trkpt lat="43.77626" lon="4.83433">
        <ele>99</ele>
        <time>2010-12-04T15:29:04Z</time>
      </trkpt>
      <trkpt lat="43.77626" lon="4.83424">
        <ele>99</ele>
        <time>2010-12-04T15:29:10Z</time>
      </trkpt>
      <trkpt lat="43.77627" lon="4.83414">
        <ele>99</ele>
        <time>2010-12-04T15:29:16Z</time>
      </trkpt>
      <trkpt lat="43.7763" lon="4.834">
        <ele>99</ele>
        <time>2010-12-04T15:29:23Z</time>
      </trkpt>
      <trkpt lat="43.77631" lon="4.83389">
        <ele>99</ele>
        <time>2010-12-04T15:29:29Z</time>
      </trkpt>
      <trkpt lat="43.77634" lon="4.83376">
        <ele>99</ele>
        <time>2010-12-04T15:29:36Z</time>
      </trkpt>
      <trkpt lat="43.77634" lon="4.83361">
        <ele>100</ele>
        <time>2010-12-04T15:29:43Z</time>
      </trkpt>
      <trkpt lat="43.77634" lon="4.83353">
        <ele>102</ele>
        <time>2010-12-04T15:31:38Z</time>
      </trkpt>
    </trkseg>
  </trk>
</gpx>